<?xml version="1.0" encoding="utf-8"?><gpx version="1.0" creator="SportyPal" xmlns:xsi="http://www.w3.org/2001/XMLSchema-instance" xmlns="http://www.topografix.com/GPX/1/0" xsi:schemaLocation="http://www.topografix.com/GPX/1/0 http://www.topografix.com/GPX/1/0/gpx.xsd">
<trk>
<name>SportyPalTrack</name>
<desc>The track description</desc>
<trkseg>
<trkpt lat="51.24796253" lon="6.81038182">
<ele>87.5</ele>
<time>2011-10-01T11:38:45Z</time>
</trkpt>
<trkpt lat="51.24796739" lon="6.81037704">
<ele>88</ele>
<time>2011-10-01T11:38:49Z</time>
</trkpt>
<trkpt lat="51.24796974" lon="6.81037461">
<ele>88.5</ele>
<time>2011-10-01T11:38:52Z</time>
</trkpt>
<trkpt lat="51.24797054" lon="6.81037285">
<ele>89</ele>
<time>2011-10-01T11:38:56Z</time>
</trkpt>
<trkpt lat="51.24797259" lon="6.81037579">
<ele>88.5</ele>
<time>2011-10-01T11:38:59Z</time>
</trkpt>
<trkpt lat="51.24797372" lon="6.8103757">
<ele>0</ele>
<time>2011-10-01T11:39:03Z</time>
</trkpt>
<trkpt lat="51.24797452" lon="6.81037772">
<ele>0</ele>
<time>2011-10-01T11:39:07Z</time>
</trkpt>
<trkpt lat="51.24788802" lon="6.81043069">
<ele>90.5</ele>
<time>2011-10-01T11:39:11Z</time>
</trkpt>
<trkpt lat="51.24775265" lon="6.81048903">
<ele>89.5</ele>
<time>2011-10-01T11:39:15Z</time>
</trkpt>
<trkpt lat="51.24760358" lon="6.8105384">
<ele>88</ele>
<time>2011-10-01T11:39:19Z</time>
</trkpt>
<trkpt lat="51.2474338" lon="6.81059372">
<ele>87</ele>
<time>2011-10-01T11:39:23Z</time>
</trkpt>
<trkpt lat="51.24724173" lon="6.81062724">
<ele>87.5</ele>
<time>2011-10-01T11:39:27Z</time>
</trkpt>
<trkpt lat="51.24716269" lon="6.81036137">
<ele>87</ele>
<time>2011-10-01T11:39:31Z</time>
</trkpt>
<trkpt lat="51.24711575" lon="6.81005535">
<ele>85.5</ele>
<time>2011-10-01T11:39:35Z</time>
</trkpt>
<trkpt lat="51.24699576" lon="6.80979593">
<ele>85.5</ele>
<time>2011-10-01T11:39:39Z</time>
</trkpt>
<trkpt lat="51.24684724" lon="6.80956568">
<ele>84</ele>
<time>2011-10-01T11:39:43Z</time>
</trkpt>
<trkpt lat="51.24669007" lon="6.80934884">
<ele>82.5</ele>
<time>2011-10-01T11:39:47Z</time>
</trkpt>
<trkpt lat="51.24654578" lon="6.80914784">
<ele>82</ele>
<time>2011-10-01T11:39:51Z</time>
</trkpt>
<trkpt lat="51.24640455" lon="6.80918757">
<ele>80</ele>
<time>2011-10-01T11:39:55Z</time>
</trkpt>
<trkpt lat="51.24628242" lon="6.80939494">
<ele>80</ele>
<time>2011-10-01T11:39:59Z</time>
</trkpt>
<trkpt lat="51.24614177" lon="6.80961723">
<ele>80</ele>
<time>2011-10-01T11:40:03Z</time>
</trkpt>
<trkpt lat="51.24600879" lon="6.80983742">
<ele>80.5</ele>
<time>2011-10-01T11:40:07Z</time>
</trkpt>
<trkpt lat="51.24588227" lon="6.81005904">
<ele>79.5</ele>
<time>2011-10-01T11:40:11Z</time>
</trkpt>
<trkpt lat="51.24574326" lon="6.81028292">
<ele>79.5</ele>
<time>2011-10-01T11:40:15Z</time>
</trkpt>
<trkpt lat="51.24563194" lon="6.8105021">
<ele>0</ele>
<time>2011-10-01T11:40:19Z</time>
</trkpt>
<trkpt lat="51.24550923" lon="6.81071601">
<ele>80</ele>
<time>2011-10-01T11:40:23Z</time>
</trkpt>
<trkpt lat="51.24540546" lon="6.81091902">
<ele>80</ele>
<time>2011-10-01T11:40:27Z</time>
</trkpt>
<trkpt lat="51.24532009" lon="6.81112974">
<ele>0</ele>
<time>2011-10-01T11:40:31Z</time>
</trkpt>
<trkpt lat="51.24527923" lon="6.81119453">
<ele>79</ele>
<time>2011-10-01T11:40:35Z</time>
</trkpt>
<trkpt lat="51.24532185" lon="6.81119386">
<ele>80</ele>
<time>2011-10-01T11:40:39Z</time>
</trkpt>
<trkpt lat="51.24535195" lon="6.81119973">
<ele>77.5</ele>
<time>2011-10-01T11:40:43Z</time>
</trkpt>
<trkpt lat="51.24534545" lon="6.811189">
<ele>78.5</ele>
<time>2011-10-01T11:40:47Z</time>
</trkpt>
<trkpt lat="51.24534193" lon="6.81117182">
<ele>82</ele>
<time>2011-10-01T11:40:51Z</time>
</trkpt>
<trkpt lat="51.24531842" lon="6.81116754">
<ele>83</ele>
<time>2011-10-01T11:40:55Z</time>
</trkpt>
<trkpt lat="51.24530647" lon="6.81115866">
<ele>83</ele>
<time>2011-10-01T11:40:59Z</time>
</trkpt>
<trkpt lat="51.24530228" lon="6.81115874">
<ele>83.5</ele>
<time>2011-10-01T11:41:03Z</time>
</trkpt>
<trkpt lat="51.24531921" lon="6.81115011">
<ele>86</ele>
<time>2011-10-01T11:41:07Z</time>
</trkpt>
<trkpt lat="51.24530878" lon="6.81112488">
<ele>86.5</ele>
<time>2011-10-01T11:41:11Z</time>
</trkpt>
<trkpt lat="51.24523095" lon="6.81099177">
<ele>87</ele>
<time>2011-10-01T11:41:15Z</time>
</trkpt>
<trkpt lat="51.24515309" lon="6.81083403">
<ele>85</ele>
<time>2011-10-01T11:41:19Z</time>
</trkpt>
<trkpt lat="51.24505133" lon="6.81082455">
<ele>83</ele>
<time>2011-10-01T11:41:23Z</time>
</trkpt>
<trkpt lat="51.24493956" lon="6.81103201">
<ele>82.5</ele>
<time>2011-10-01T11:41:27Z</time>
</trkpt>
<trkpt lat="51.2447922" lon="6.81125756">
<ele>82.5</ele>
<time>2011-10-01T11:41:31Z</time>
</trkpt>
<trkpt lat="51.24464854" lon="6.81148203">
<ele>0</ele>
<time>2011-10-01T11:41:35Z</time>
</trkpt>
<trkpt lat="51.24450495" lon="6.81171396">
<ele>80.5</ele>
<time>2011-10-01T11:41:39Z</time>
</trkpt>
<trkpt lat="51.24436548" lon="6.81195695">
<ele>0</ele>
<time>2011-10-01T11:41:43Z</time>
</trkpt>
<trkpt lat="51.24423841" lon="6.81219843">
<ele>0</ele>
<time>2011-10-01T11:41:47Z</time>
</trkpt>
<trkpt lat="51.2440981" lon="6.8124322">
<ele>78</ele>
<time>2011-10-01T11:41:51Z</time>
</trkpt>
<trkpt lat="51.24396604" lon="6.81265617">
<ele>76.5</ele>
<time>2011-10-01T11:41:55Z</time>
</trkpt>
<trkpt lat="51.24381948" lon="6.81288575">
<ele>75.5</ele>
<time>2011-10-01T11:41:59Z</time>
</trkpt>
<trkpt lat="51.24367406" lon="6.8131305">
<ele>74.5</ele>
<time>2011-10-01T11:42:03Z</time>
</trkpt>
<trkpt lat="51.24352943" lon="6.81337274">
<ele>75</ele>
<time>2011-10-01T11:42:07Z</time>
</trkpt>
<trkpt lat="51.24337843" lon="6.81360877">
<ele>74</ele>
<time>2011-10-01T11:42:11Z</time>
</trkpt>
<trkpt lat="51.24323702" lon="6.81383642">
<ele>73.5</ele>
<time>2011-10-01T11:42:15Z</time>
</trkpt>
<trkpt lat="51.24311096" lon="6.81402862">
<ele>73.5</ele>
<time>2011-10-01T11:42:19Z</time>
</trkpt>
<trkpt lat="51.24311532" lon="6.8141769">
<ele>74.5</ele>
<time>2011-10-01T11:42:23Z</time>
</trkpt>
<trkpt lat="51.24310354" lon="6.81417857">
<ele>76</ele>
<time>2011-10-01T11:42:27Z</time>
</trkpt>
<trkpt lat="51.24309621" lon="6.81417178">
<ele>76.5</ele>
<time>2011-10-01T11:42:31Z</time>
</trkpt>
<trkpt lat="51.24308674" lon="6.81417304">
<ele>76.5</ele>
<time>2011-10-01T11:42:35Z</time>
</trkpt>
<trkpt lat="51.24306934" lon="6.81419492">
<ele>79</ele>
<time>2011-10-01T11:42:39Z</time>
</trkpt>
<trkpt lat="51.24306704" lon="6.81421445">
<ele>81</ele>
<time>2011-10-01T11:42:43Z</time>
</trkpt>
<trkpt lat="51.24307395" lon="6.81422777">
<ele>83</ele>
<time>2011-10-01T11:42:47Z</time>
</trkpt>
<trkpt lat="51.24307454" lon="6.81423515">
<ele>83.5</ele>
<time>2011-10-01T11:42:51Z</time>
</trkpt>
<trkpt lat="51.24307148" lon="6.81422903">
<ele>0</ele>
<time>2011-10-01T11:42:55Z</time>
</trkpt>
<trkpt lat="51.24308167" lon="6.81420917">
<ele>0</ele>
<time>2011-10-01T11:42:59Z</time>
</trkpt>
<trkpt lat="51.24309156" lon="6.814194">
<ele>84.5</ele>
<time>2011-10-01T11:43:03Z</time>
</trkpt>
<trkpt lat="51.24310983" lon="6.81418075">
<ele>86</ele>
<time>2011-10-01T11:43:07Z</time>
</trkpt>
<trkpt lat="51.24312819" lon="6.8141743">
<ele>86.5</ele>
<time>2011-10-01T11:43:11Z</time>
</trkpt>
<trkpt lat="51.24312529" lon="6.81417706">
<ele>85.5</ele>
<time>2011-10-01T11:43:15Z</time>
</trkpt>
<trkpt lat="51.24311733" lon="6.81416952">
<ele>85</ele>
<time>2011-10-01T11:43:19Z</time>
</trkpt>
<trkpt lat="51.24311289" lon="6.81416139">
<ele>0</ele>
<time>2011-10-01T11:43:23Z</time>
</trkpt>
<trkpt lat="51.24311905" lon="6.8141665">
<ele>0</ele>
<time>2011-10-01T11:43:27Z</time>
</trkpt>
<trkpt lat="51.24312341" lon="6.81416558">
<ele>87.5</ele>
<time>2011-10-01T11:43:31Z</time>
</trkpt>
<trkpt lat="51.24311733" lon="6.81417086">
<ele>87.5</ele>
<time>2011-10-01T11:43:35Z</time>
</trkpt>
<trkpt lat="51.2431136" lon="6.81418595">
<ele>87</ele>
<time>2011-10-01T11:43:39Z</time>
</trkpt>
<trkpt lat="51.24310367" lon="6.81420716">
<ele>87</ele>
<time>2011-10-01T11:43:43Z</time>
</trkpt>
<trkpt lat="51.24308946" lon="6.81422618">
<ele>88</ele>
<time>2011-10-01T11:43:47Z</time>
</trkpt>
<trkpt lat="51.24308544" lon="6.81422325">
<ele>89</ele>
<time>2011-10-01T11:43:51Z</time>
</trkpt>
<trkpt lat="51.24308527" lon="6.81421587">
<ele>90.5</ele>
<time>2011-10-01T11:43:56Z</time>
</trkpt>
<trkpt lat="51.24308535" lon="6.81421218">
<ele>91</ele>
<time>2011-10-01T11:44:00Z</time>
</trkpt>
<trkpt lat="51.24308812" lon="6.8142054">
<ele>92</ele>
<time>2011-10-01T11:44:04Z</time>
</trkpt>
<trkpt lat="51.24309218" lon="6.81419567">
<ele>92.5</ele>
<time>2011-10-01T11:44:08Z</time>
</trkpt>
<trkpt lat="51.24309508" lon="6.81418939">
<ele>92.5</ele>
<time>2011-10-01T11:44:12Z</time>
</trkpt>
<trkpt lat="51.24310157" lon="6.81418469">
<ele>92</ele>
<time>2011-10-01T11:44:16Z</time>
</trkpt>
<trkpt lat="51.24310291" lon="6.81418167">
<ele>92.5</ele>
<time>2011-10-01T11:44:20Z</time>
</trkpt>
<trkpt lat="51.24310199" lon="6.81419048">
<ele>93</ele>
<time>2011-10-01T11:44:24Z</time>
</trkpt>
<trkpt lat="51.24310233" lon="6.81419902">
<ele>92.5</ele>
<time>2011-10-01T11:44:28Z</time>
</trkpt>
<trkpt lat="51.2431053" lon="6.814195">
<ele>93</ele>
<time>2011-10-01T11:44:32Z</time>
</trkpt>
<trkpt lat="51.24310673" lon="6.81419316">
<ele>93</ele>
<time>2011-10-01T11:44:36Z</time>
</trkpt>
<trkpt lat="51.24311268" lon="6.81419089">
<ele>0</ele>
<time>2011-10-01T11:44:40Z</time>
</trkpt>
<trkpt lat="51.24311586" lon="6.81418721">
<ele>93.5</ele>
<time>2011-10-01T11:44:44Z</time>
</trkpt>
<trkpt lat="51.24311155" lon="6.8141857">
<ele>93.5</ele>
<time>2011-10-01T11:44:48Z</time>
</trkpt>
<trkpt lat="51.24311167" lon="6.81418159">
<ele>93</ele>
<time>2011-10-01T11:44:52Z</time>
</trkpt>
<trkpt lat="51.24311544" lon="6.81418176">
<ele>92.5</ele>
<time>2011-10-01T11:44:56Z</time>
</trkpt>
<trkpt lat="51.24311456" lon="6.81417924">
<ele>0</ele>
<time>2011-10-01T11:45:00Z</time>
</trkpt>
<trkpt lat="51.24306784" lon="6.81406911">
<ele>0</ele>
<time>2011-10-01T11:45:04Z</time>
</trkpt>
<trkpt lat="51.24302723" lon="6.81400255">
<ele>92.5</ele>
<time>2011-10-01T11:45:08Z</time>
</trkpt>
<trkpt lat="51.24301063" lon="6.81399467">
<ele>91</ele>
<time>2011-10-01T11:45:12Z</time>
</trkpt>
<trkpt lat="51.24301868" lon="6.8139883">
<ele>91</ele>
<time>2011-10-01T11:45:16Z</time>
</trkpt>
<trkpt lat="51.24301469" lon="6.81396601">
<ele>90.5</ele>
<time>2011-10-01T11:45:20Z</time>
</trkpt>
<trkpt lat="51.24300229" lon="6.81398227">
<ele>0</ele>
<time>2011-10-01T11:45:24Z</time>
</trkpt>
<trkpt lat="51.24298456" lon="6.81408511">
<ele>0</ele>
<time>2011-10-01T11:45:28Z</time>
</trkpt>
<trkpt lat="51.24295661" lon="6.8142789">
<ele>89</ele>
<time>2011-10-01T11:45:32Z</time>
</trkpt>
<trkpt lat="51.24287245" lon="6.81427656">
<ele>88</ele>
<time>2011-10-01T11:45:36Z</time>
</trkpt>
<trkpt lat="51.24279312" lon="6.81405695">
<ele>88</ele>
<time>2011-10-01T11:45:40Z</time>
</trkpt>
<trkpt lat="51.24262686" lon="6.81404614">
<ele>88</ele>
<time>2011-10-01T11:45:44Z</time>
</trkpt>
<trkpt lat="51.24252364" lon="6.81428242">
<ele>0</ele>
<time>2011-10-01T11:45:48Z</time>
</trkpt>
<trkpt lat="51.24251593" lon="6.81459113">
<ele>84.5</ele>
<time>2011-10-01T11:45:52Z</time>
</trkpt>
<trkpt lat="51.24246442" lon="6.81487662">
<ele>83.5</ele>
<time>2011-10-01T11:45:56Z</time>
</trkpt>
<trkpt lat="51.24231841" lon="6.81512204">
<ele>85</ele>
<time>2011-10-01T11:46:00Z</time>
</trkpt>
<trkpt lat="51.2421747" lon="6.81536017">
<ele>86</ele>
<time>2011-10-01T11:46:04Z</time>
</trkpt>
<trkpt lat="51.24203078" lon="6.8155688">
<ele>86.5</ele>
<time>2011-10-01T11:46:08Z</time>
</trkpt>
<trkpt lat="51.24190279" lon="6.81576745">
<ele>85.5</ele>
<time>2011-10-01T11:46:12Z</time>
</trkpt>
<trkpt lat="51.24181801" lon="6.81590801">
<ele>87</ele>
<time>2011-10-01T11:46:15Z</time>
</trkpt>
<trkpt lat="51.24169207" lon="6.81607565">
<ele>87.5</ele>
<time>2011-10-01T11:46:19Z</time>
</trkpt>
<trkpt lat="51.24153722" lon="6.81598219">
<ele>86</ele>
<time>2011-10-01T11:46:23Z</time>
</trkpt>
<trkpt lat="51.24141518" lon="6.81574238">
<ele>85.5</ele>
<time>2011-10-01T11:46:27Z</time>
</trkpt>
<trkpt lat="51.2412907" lon="6.81549629">
<ele>85</ele>
<time>2011-10-01T11:46:31Z</time>
</trkpt>
<trkpt lat="51.2411545" lon="6.81528758">
<ele>83.5</ele>
<time>2011-10-01T11:46:35Z</time>
</trkpt>
<trkpt lat="51.2410131" lon="6.81508281">
<ele>82.5</ele>
<time>2011-10-01T11:46:39Z</time>
</trkpt>
<trkpt lat="51.24087479" lon="6.81485759">
<ele>81.5</ele>
<time>2011-10-01T11:46:43Z</time>
</trkpt>
<trkpt lat="51.24075975" lon="6.8146115">
<ele>81.5</ele>
<time>2011-10-01T11:46:47Z</time>
</trkpt>
<trkpt lat="51.2406349" lon="6.81435174">
<ele>81.5</ele>
<time>2011-10-01T11:46:51Z</time>
</trkpt>
<trkpt lat="51.24050251" lon="6.81407682">
<ele>82</ele>
<time>2011-10-01T11:46:55Z</time>
</trkpt>
<trkpt lat="51.24035755" lon="6.81381312">
<ele>83.5</ele>
<time>2011-10-01T11:46:59Z</time>
</trkpt>
<trkpt lat="51.24022138" lon="6.81354239">
<ele>84.5</ele>
<time>2011-10-01T11:47:03Z</time>
</trkpt>
<trkpt lat="51.24007093" lon="6.81328531">
<ele>85.5</ele>
<time>2011-10-01T11:47:07Z</time>
</trkpt>
<trkpt lat="51.2399224" lon="6.8130181">
<ele>86</ele>
<time>2011-10-01T11:47:11Z</time>
</trkpt>
<trkpt lat="51.2397833" lon="6.8127544">
<ele>86.5</ele>
<time>2011-10-01T11:47:15Z</time>
</trkpt>
<trkpt lat="51.2396704" lon="6.81247428">
<ele>0</ele>
<time>2011-10-01T11:47:19Z</time>
</trkpt>
<trkpt lat="51.23960397" lon="6.81232735">
<ele>0</ele>
<time>2011-10-01T11:47:23Z</time>
</trkpt>
<trkpt lat="51.23955213" lon="6.81224227">
<ele>87.5</ele>
<time>2011-10-01T11:47:27Z</time>
</trkpt>
<trkpt lat="51.23947078" lon="6.81201864">
<ele>87.5</ele>
<time>2011-10-01T11:47:31Z</time>
</trkpt>
<trkpt lat="51.23934514" lon="6.81178621">
<ele>86</ele>
<time>2011-10-01T11:47:35Z</time>
</trkpt>
<trkpt lat="51.23918932" lon="6.81157901">
<ele>85.5</ele>
<time>2011-10-01T11:47:39Z</time>
</trkpt>
<trkpt lat="51.23902935" lon="6.81138287">
<ele>86</ele>
<time>2011-10-01T11:47:43Z</time>
</trkpt>
<trkpt lat="51.23885714" lon="6.81120861">
<ele>85.5</ele>
<time>2011-10-01T11:47:47Z</time>
</trkpt>
<trkpt lat="51.23867006" lon="6.81104223">
<ele>84.5</ele>
<time>2011-10-01T11:47:51Z</time>
</trkpt>
<trkpt lat="51.23847321" lon="6.81089396">
<ele>83.5</ele>
<time>2011-10-01T11:47:55Z</time>
</trkpt>
<trkpt lat="51.23826576" lon="6.81079463">
<ele>83.5</ele>
<time>2011-10-01T11:47:59Z</time>
</trkpt>
<trkpt lat="51.23806149" lon="6.81069162">
<ele>82.5</ele>
<time>2011-10-01T11:48:03Z</time>
</trkpt>
<trkpt lat="51.23785253" lon="6.8106026">
<ele>82</ele>
<time>2011-10-01T11:48:07Z</time>
</trkpt>
<trkpt lat="51.23763343" lon="6.8105337">
<ele>81.5</ele>
<time>2011-10-01T11:48:11Z</time>
</trkpt>
<trkpt lat="51.23741521" lon="6.81046162">
<ele>81.5</ele>
<time>2011-10-01T11:48:15Z</time>
</trkpt>
<trkpt lat="51.23725528" lon="6.81039523">
<ele>0</ele>
<time>2011-10-01T11:48:18Z</time>
</trkpt>
<trkpt lat="51.23704305" lon="6.81031452">
<ele>82.5</ele>
<time>2011-10-01T11:48:22Z</time>
</trkpt>
<trkpt lat="51.23682579" lon="6.8103125">
<ele>83</ele>
<time>2011-10-01T11:48:26Z</time>
</trkpt>
<trkpt lat="51.23661285" lon="6.81030312">
<ele>80.5</ele>
<time>2011-10-01T11:48:30Z</time>
</trkpt>
<trkpt lat="51.23639085" lon="6.81028878">
<ele>80</ele>
<time>2011-10-01T11:48:34Z</time>
</trkpt>
<trkpt lat="51.236158" lon="6.81031837">
<ele>79</ele>
<time>2011-10-01T11:48:38Z</time>
</trkpt>
<trkpt lat="51.23594142" lon="6.81030965">
<ele>77.5</ele>
<time>2011-10-01T11:48:42Z</time>
</trkpt>
<trkpt lat="51.23572294" lon="6.81032843">
<ele>76</ele>
<time>2011-10-01T11:48:46Z</time>
</trkpt>
<trkpt lat="51.23550912" lon="6.81035668">
<ele>74.5</ele>
<time>2011-10-01T11:48:50Z</time>
</trkpt>
<trkpt lat="51.23530083" lon="6.81041418">
<ele>73.5</ele>
<time>2011-10-01T11:48:54Z</time>
</trkpt>
<trkpt lat="51.2350912" lon="6.81044242">
<ele>72.5</ele>
<time>2011-10-01T11:48:58Z</time>
</trkpt>
<trkpt lat="51.2348726" lon="6.81048358">
<ele>72</ele>
<time>2011-10-01T11:49:02Z</time>
</trkpt>
<trkpt lat="51.23465974" lon="6.81053555">
<ele>0</ele>
<time>2011-10-01T11:49:06Z</time>
</trkpt>
<trkpt lat="51.23443724" lon="6.81059791">
<ele>0</ele>
<time>2011-10-01T11:49:10Z</time>
</trkpt>
<trkpt lat="51.23422711" lon="6.81069774">
<ele>74.5</ele>
<time>2011-10-01T11:49:14Z</time>
</trkpt>
<trkpt lat="51.23402121" lon="6.81079119">
<ele>73</ele>
<time>2011-10-01T11:49:18Z</time>
</trkpt>
<trkpt lat="51.23380877" lon="6.8108896">
<ele>73.5</ele>
<time>2011-10-01T11:49:22Z</time>
</trkpt>
<trkpt lat="51.23360266" lon="6.81102362">
<ele>73.5</ele>
<time>2011-10-01T11:49:26Z</time>
</trkpt>
<trkpt lat="51.23339784" lon="6.81111683">
<ele>0</ele>
<time>2011-10-01T11:49:30Z</time>
</trkpt>
<trkpt lat="51.23318528" lon="6.81122571">
<ele>72.5</ele>
<time>2011-10-01T11:49:34Z</time>
</trkpt>
<trkpt lat="51.23295897" lon="6.8113703">
<ele>74</ele>
<time>2011-10-01T11:49:38Z</time>
</trkpt>
<trkpt lat="51.23272968" lon="6.81150852">
<ele>76</ele>
<time>2011-10-01T11:49:42Z</time>
</trkpt>
<trkpt lat="51.23258409" lon="6.81136963">
<ele>76</ele>
<time>2011-10-01T11:49:46Z</time>
</trkpt>
<trkpt lat="51.23252101" lon="6.81105824">
<ele>0</ele>
<time>2011-10-01T11:49:50Z</time>
</trkpt>
<trkpt lat="51.23245014" lon="6.8107482">
<ele>76</ele>
<time>2011-10-01T11:49:54Z</time>
</trkpt>
<trkpt lat="51.23237194" lon="6.81045324">
<ele>78</ele>
<time>2011-10-01T11:49:58Z</time>
</trkpt>
<trkpt lat="51.23229625" lon="6.81015677">
<ele>78</ele>
<time>2011-10-01T11:50:02Z</time>
</trkpt>
<trkpt lat="51.23221939" lon="6.80986525">
<ele>80</ele>
<time>2011-10-01T11:50:06Z</time>
</trkpt>
<trkpt lat="51.23213959" lon="6.80956987">
<ele>81</ele>
<time>2011-10-01T11:50:10Z</time>
</trkpt>
<trkpt lat="51.23207057" lon="6.80927667">
<ele>83.5</ele>
<time>2011-10-01T11:50:14Z</time>
</trkpt>
<trkpt lat="51.23203176" lon="6.80900401">
<ele>85.5</ele>
<time>2011-10-01T11:50:18Z</time>
</trkpt>
<trkpt lat="51.2319782" lon="6.80877811">
<ele>92.5</ele>
<time>2011-10-01T11:50:22Z</time>
</trkpt>
<trkpt lat="51.23191328" lon="6.80861617">
<ele>92.5</ele>
<time>2011-10-01T11:50:26Z</time>
</trkpt>
<trkpt lat="51.23188328" lon="6.80855549">
<ele>91</ele>
<time>2011-10-01T11:50:30Z</time>
</trkpt>
<trkpt lat="51.23185985" lon="6.80852716">
<ele>90</ele>
<time>2011-10-01T11:50:34Z</time>
</trkpt>
<trkpt lat="51.23185478" lon="6.808514">
<ele>90.5</ele>
<time>2011-10-01T11:50:38Z</time>
</trkpt>
<trkpt lat="51.23184686" lon="6.8085135">
<ele>90</ele>
<time>2011-10-01T11:50:42Z</time>
</trkpt>
<trkpt lat="51.23174053" lon="6.80857745">
<ele>0</ele>
<time>2011-10-01T11:50:46Z</time>
</trkpt>
<trkpt lat="51.23160726" lon="6.80858608">
<ele>0</ele>
<time>2011-10-01T11:50:50Z</time>
</trkpt>
<trkpt lat="51.23146887" lon="6.80858952">
<ele>70.5</ele>
<time>2011-10-01T11:50:54Z</time>
</trkpt>
<trkpt lat="51.2313216" lon="6.80859396">
<ele>62.5</ele>
<time>2011-10-01T11:50:58Z</time>
</trkpt>
<trkpt lat="51.23113498" lon="6.80869597">
<ele>59.5</ele>
<time>2011-10-01T11:51:02Z</time>
</trkpt>
<trkpt lat="51.23094291" lon="6.80881793">
<ele>58.5</ele>
<time>2011-10-01T11:51:06Z</time>
</trkpt>
<trkpt lat="51.2307619" lon="6.8089232">
<ele>58.5</ele>
<time>2011-10-01T11:51:10Z</time>
</trkpt>
<trkpt lat="51.23058421" lon="6.80906863">
<ele>60.5</ele>
<time>2011-10-01T11:51:14Z</time>
</trkpt>
<trkpt lat="51.23037768" lon="6.80920551">
<ele>59.5</ele>
<time>2011-10-01T11:51:18Z</time>
</trkpt>
<trkpt lat="51.23016918" lon="6.80931984">
<ele>57</ele>
<time>2011-10-01T11:51:22Z</time>
</trkpt>
<trkpt lat="51.22995808" lon="6.80945026">
<ele>56.5</ele>
<time>2011-10-01T11:51:26Z</time>
</trkpt>
<trkpt lat="51.22975255" lon="6.80955243">
<ele>55</ele>
<time>2011-10-01T11:51:30Z</time>
</trkpt>
<trkpt lat="51.22956794" lon="6.80969903">
<ele>56.5</ele>
<time>2011-10-01T11:51:34Z</time>
</trkpt>
<trkpt lat="51.22937566" lon="6.80983448">
<ele>56</ele>
<time>2011-10-01T11:51:38Z</time>
</trkpt>
<trkpt lat="51.22916993" lon="6.80992501">
<ele>54.5</ele>
<time>2011-10-01T11:51:42Z</time>
</trkpt>
<trkpt lat="51.22896" lon="6.81002098">
<ele>53</ele>
<time>2011-10-01T11:51:46Z</time>
</trkpt>
<trkpt lat="51.22875448" lon="6.81014554">
<ele>52.5</ele>
<time>2011-10-01T11:51:50Z</time>
</trkpt>
<trkpt lat="51.22855218" lon="6.81026992">
<ele>53</ele>
<time>2011-10-01T11:51:54Z</time>
</trkpt>
<trkpt lat="51.22837059" lon="6.81038995">
<ele>53.5</ele>
<time>2011-10-01T11:51:58Z</time>
</trkpt>
<trkpt lat="51.22817374" lon="6.81065155">
<ele>62</ele>
<time>2011-10-01T11:52:02Z</time>
</trkpt>
<trkpt lat="51.22798007" lon="6.81078709">
<ele>62.5</ele>
<time>2011-10-01T11:52:06Z</time>
</trkpt>
<trkpt lat="51.22779069" lon="6.81091776">
<ele>64.5</ele>
<time>2011-10-01T11:52:10Z</time>
</trkpt>
<trkpt lat="51.2275658" lon="6.81109445">
<ele>67</ele>
<time>2011-10-01T11:52:15Z</time>
</trkpt>
<trkpt lat="51.22740893" lon="6.81116486">
<ele>68</ele>
<time>2011-10-01T11:52:19Z</time>
</trkpt>
<trkpt lat="51.22729439" lon="6.81124013">
<ele>70.5</ele>
<time>2011-10-01T11:52:23Z</time>
</trkpt>
<trkpt lat="51.2271234" lon="6.81129788">
<ele>74.5</ele>
<time>2011-10-01T11:52:27Z</time>
</trkpt>
<trkpt lat="51.22695082" lon="6.81132361">
<ele>73.5</ele>
<time>2011-10-01T11:52:31Z</time>
</trkpt>
<trkpt lat="51.22675259" lon="6.81132738">
<ele>73.5</ele>
<time>2011-10-01T11:52:35Z</time>
</trkpt>
<trkpt lat="51.22652141" lon="6.81129411">
<ele>73.5</ele>
<time>2011-10-01T11:52:39Z</time>
</trkpt>
<trkpt lat="51.22629879" lon="6.81125027">
<ele>0</ele>
<time>2011-10-01T11:52:43Z</time>
</trkpt>
<trkpt lat="51.22604126" lon="6.81120643">
<ele>74</ele>
<time>2011-10-01T11:52:47Z</time>
</trkpt>
<trkpt lat="51.22581612" lon="6.8112465">
<ele>75.5</ele>
<time>2011-10-01T11:52:51Z</time>
</trkpt>
<trkpt lat="51.22561881" lon="6.81127994">
<ele>78</ele>
<time>2011-10-01T11:52:55Z</time>
</trkpt>
<trkpt lat="51.22545746" lon="6.81129059">
<ele>80</ele>
<time>2011-10-01T11:52:59Z</time>
</trkpt>
<trkpt lat="51.22531773" lon="6.81118472">
<ele>78.5</ele>
<time>2011-10-01T11:53:03Z</time>
</trkpt>
<trkpt lat="51.22514728" lon="6.81115539">
<ele>76.5</ele>
<time>2011-10-01T11:53:07Z</time>
</trkpt>
<trkpt lat="51.22494075" lon="6.81111256">
<ele>75.5</ele>
<time>2011-10-01T11:53:11Z</time>
</trkpt>
<trkpt lat="51.22472375" lon="6.81106889">
<ele>76</ele>
<time>2011-10-01T11:53:15Z</time>
</trkpt>
<trkpt lat="51.22452505" lon="6.81100837">
<ele>75</ele>
<time>2011-10-01T11:53:19Z</time>
</trkpt>
<trkpt lat="51.22431718" lon="6.8109668">
<ele>75.5</ele>
<time>2011-10-01T11:53:23Z</time>
</trkpt>
<trkpt lat="51.22411367" lon="6.81087099">
<ele>0</ele>
<time>2011-10-01T11:53:27Z</time>
</trkpt>
<trkpt lat="51.22391167" lon="6.81078415">
<ele>0</ele>
<time>2011-10-01T11:53:31Z</time>
</trkpt>
<trkpt lat="51.22370007" lon="6.81073747">
<ele>76</ele>
<time>2011-10-01T11:53:35Z</time>
</trkpt>
<trkpt lat="51.2234826" lon="6.81066857">
<ele>75.5</ele>
<time>2011-10-01T11:53:39Z</time>
</trkpt>
<trkpt lat="51.22328198" lon="6.81056446">
<ele>74.5</ele>
<time>2011-10-01T11:53:43Z</time>
</trkpt>
<trkpt lat="51.2230951" lon="6.81048282">
<ele>74</ele>
<time>2011-10-01T11:53:47Z</time>
</trkpt>
<trkpt lat="51.22297281" lon="6.81041543">
<ele>74</ele>
<time>2011-10-01T11:53:50Z</time>
</trkpt>
<trkpt lat="51.22290232" lon="6.81029784">
<ele>74.5</ele>
<time>2011-10-01T11:53:54Z</time>
</trkpt>
<trkpt lat="51.2228651" lon="6.8102804">
<ele>77</ele>
<time>2011-10-01T11:53:58Z</time>
</trkpt>
<trkpt lat="51.22287151" lon="6.81025743">
<ele>73.5</ele>
<time>2011-10-01T11:54:02Z</time>
</trkpt>
<trkpt lat="51.22287633" lon="6.81025743">
<ele>73</ele>
<time>2011-10-01T11:54:06Z</time>
</trkpt>
<trkpt lat="51.22280777" lon="6.81023472">
<ele>74.5</ele>
<time>2011-10-01T11:54:10Z</time>
</trkpt>
<trkpt lat="51.22264478" lon="6.81016507">
<ele>75</ele>
<time>2011-10-01T11:54:14Z</time>
</trkpt>
<trkpt lat="51.22245158" lon="6.81007722">
<ele>73.5</ele>
<time>2011-10-01T11:54:18Z</time>
</trkpt>
<trkpt lat="51.22226454" lon="6.80995384">
<ele>74</ele>
<time>2011-10-01T11:54:22Z</time>
</trkpt>
<trkpt lat="51.22207385" lon="6.80981277">
<ele>73.5</ele>
<time>2011-10-01T11:54:26Z</time>
</trkpt>
<trkpt lat="51.22188572" lon="6.80965193">
<ele>72.5</ele>
<time>2011-10-01T11:54:30Z</time>
</trkpt>
<trkpt lat="51.22170907" lon="6.8094863">
<ele>73</ele>
<time>2011-10-01T11:54:34Z</time>
</trkpt>
<trkpt lat="51.22153615" lon="6.80930098">
<ele>73.5</ele>
<time>2011-10-01T11:54:38Z</time>
</trkpt>
<trkpt lat="51.22137019" lon="6.80909813">
<ele>73</ele>
<time>2011-10-01T11:54:42Z</time>
</trkpt>
<trkpt lat="51.2212005" lon="6.80892278">
<ele>74</ele>
<time>2011-10-01T11:54:46Z</time>
</trkpt>
<trkpt lat="51.22105134" lon="6.80878742">
<ele>81</ele>
<time>2011-10-01T11:54:50Z</time>
</trkpt>
<trkpt lat="51.22089883" lon="6.80863378">
<ele>84.5</ele>
<time>2011-10-01T11:54:54Z</time>
</trkpt>
<trkpt lat="51.22073044" lon="6.80849506">
<ele>86.5</ele>
<time>2011-10-01T11:54:58Z</time>
</trkpt>
<trkpt lat="51.22056272" lon="6.8083239">
<ele>88</ele>
<time>2011-10-01T11:55:02Z</time>
</trkpt>
<trkpt lat="51.2203906" lon="6.80818694">
<ele>91</ele>
<time>2011-10-01T11:55:06Z</time>
</trkpt>
<trkpt lat="51.22022883" lon="6.80803397">
<ele>90.5</ele>
<time>2011-10-01T11:55:10Z</time>
</trkpt>
<trkpt lat="51.22006936" lon="6.80787932">
<ele>92</ele>
<time>2011-10-01T11:55:14Z</time>
</trkpt>
<trkpt lat="51.21991886" lon="6.80771939">
<ele>92.5</ele>
<time>2011-10-01T11:55:18Z</time>
</trkpt>
<trkpt lat="51.21976958" lon="6.80755536">
<ele>96</ele>
<time>2011-10-01T11:55:22Z</time>
</trkpt>
<trkpt lat="51.21963304" lon="6.80739116">
<ele>98</ele>
<time>2011-10-01T11:55:26Z</time>
</trkpt>
<trkpt lat="51.21951196" lon="6.80723735">
<ele>100</ele>
<time>2011-10-01T11:55:30Z</time>
</trkpt>
<trkpt lat="51.21940392" lon="6.80710617">
<ele>99.5</ele>
<time>2011-10-01T11:55:34Z</time>
</trkpt>
<trkpt lat="51.21929994" lon="6.80701942">
<ele>99.5</ele>
<time>2011-10-01T11:55:38Z</time>
</trkpt>
<trkpt lat="51.21919588" lon="6.80691591">
<ele>0</ele>
<time>2011-10-01T11:55:42Z</time>
</trkpt>
<trkpt lat="51.21908947" lon="6.80687299">
<ele>101</ele>
<time>2011-10-01T11:55:46Z</time>
</trkpt>
<trkpt lat="51.2190637" lon="6.80686377">
<ele>100.5</ele>
<time>2011-10-01T11:55:50Z</time>
</trkpt>
<trkpt lat="51.21905209" lon="6.8068657">
<ele>100</ele>
<time>2011-10-01T11:55:54Z</time>
</trkpt>
<trkpt lat="51.21894962" lon="6.8068082">
<ele>101</ele>
<time>2011-10-01T11:55:58Z</time>
</trkpt>
<trkpt lat="51.21880156" lon="6.80673603">
<ele>100.5</ele>
<time>2011-10-01T11:56:02Z</time>
</trkpt>
<trkpt lat="51.21864649" lon="6.80661717">
<ele>0</ele>
<time>2011-10-01T11:56:06Z</time>
</trkpt>
<trkpt lat="51.21847944" lon="6.80645876">
<ele>0</ele>
<time>2011-10-01T11:56:10Z</time>
</trkpt>
<trkpt lat="51.21833276" lon="6.80621115">
<ele>98</ele>
<time>2011-10-01T11:56:14Z</time>
</trkpt>
<trkpt lat="51.21817098" lon="6.80591586">
<ele>97</ele>
<time>2011-10-01T11:56:18Z</time>
</trkpt>
<trkpt lat="51.21800439" lon="6.80559928">
<ele>100</ele>
<time>2011-10-01T11:56:22Z</time>
</trkpt>
<trkpt lat="51.21780495" lon="6.80530524">
<ele>105.5</ele>
<time>2011-10-01T11:56:26Z</time>
</trkpt>
<trkpt lat="51.21758375" lon="6.80505102">
<ele>105.5</ele>
<time>2011-10-01T11:56:30Z</time>
</trkpt>
<trkpt lat="51.21734034" lon="6.80480585">
<ele>108</ele>
<time>2011-10-01T11:56:34Z</time>
</trkpt>
<trkpt lat="51.21711281" lon="6.80453746">
<ele>112</ele>
<time>2011-10-01T11:56:38Z</time>
</trkpt>
<trkpt lat="51.21689803" lon="6.8042658">
<ele>114.5</ele>
<time>2011-10-01T11:56:42Z</time>
</trkpt>
<trkpt lat="51.21667917" lon="6.80391233">
<ele>113.5</ele>
<time>2011-10-01T11:56:47Z</time>
</trkpt>
<trkpt lat="51.21654561" lon="6.80359122">
<ele>118.5</ele>
<time>2011-10-01T11:56:51Z</time>
</trkpt>
<trkpt lat="51.21643166" lon="6.8033826">
<ele>117</ele>
<time>2011-10-01T11:56:55Z</time>
</trkpt>
<trkpt lat="51.21641104" lon="6.80333608">
<ele>119</ele>
<time>2011-10-01T11:56:59Z</time>
</trkpt>
<trkpt lat="51.21640597" lon="6.80334941">
<ele>117</ele>
<time>2011-10-01T11:57:02Z</time>
</trkpt>
<trkpt lat="51.21640161" lon="6.8033541">
<ele>114.5</ele>
<time>2011-10-01T11:57:05Z</time>
</trkpt>
<trkpt lat="51.21639473" lon="6.80336382">
<ele>112.5</ele>
<time>2011-10-01T11:57:08Z</time>
</trkpt>
<trkpt lat="51.21639331" lon="6.80336265">
<ele>112.5</ele>
<time>2011-10-01T11:57:10Z</time>
</trkpt>
<trkpt lat="51.21639783" lon="6.80335695">
<ele>111.5</ele>
<time>2011-10-01T11:57:13Z</time>
</trkpt>
<trkpt lat="51.21640626" lon="6.80335267">
<ele>112.5</ele>
<time>2011-10-01T11:57:16Z</time>
</trkpt>
<trkpt lat="51.21638342" lon="6.80338436">
<ele>112.5</ele>
<time>2011-10-01T11:57:20Z</time>
</trkpt>
<trkpt lat="51.21638048" lon="6.80339894">
<ele>111</ele>
<time>2011-10-01T11:57:24Z</time>
</trkpt>
<trkpt lat="51.21637847" lon="6.80341353">
<ele>110.5</ele>
<time>2011-10-01T11:57:27Z</time>
</trkpt>
<trkpt lat="51.21636607" lon="6.80342861">
<ele>111</ele>
<time>2011-10-01T11:57:31Z</time>
</trkpt>
<trkpt lat="51.21636762" lon="6.80342275">
<ele>112</ele>
<time>2011-10-01T11:57:35Z</time>
</trkpt>
<trkpt lat="51.2162926" lon="6.80324513">
<ele>116</ele>
<time>2011-10-01T11:57:39Z</time>
</trkpt>
<trkpt lat="51.21615447" lon="6.80304246">
<ele>118</ele>
<time>2011-10-01T11:57:43Z</time>
</trkpt>
<trkpt lat="51.21602132" lon="6.80280684">
<ele>111.5</ele>
<time>2011-10-01T11:57:47Z</time>
</trkpt>
<trkpt lat="51.21586378" lon="6.80254214">
<ele>108</ele>
<time>2011-10-01T11:57:51Z</time>
</trkpt>
<trkpt lat="51.21566496" lon="6.80230678">
<ele>105</ele>
<time>2011-10-01T11:57:55Z</time>
</trkpt>
<trkpt lat="51.21549376" lon="6.80202859">
<ele>102</ele>
<time>2011-10-01T11:57:59Z</time>
</trkpt>
<trkpt lat="51.21533212" lon="6.80174729">
<ele>101</ele>
<time>2011-10-01T11:58:03Z</time>
</trkpt>
<trkpt lat="51.21517726" lon="6.80146214">
<ele>97.5</ele>
<time>2011-10-01T11:58:07Z</time>
</trkpt>
<trkpt lat="51.21501268" lon="6.80120666">
<ele>94.5</ele>
<time>2011-10-01T11:58:11Z</time>
</trkpt>
<trkpt lat="51.21487861" lon="6.80091631">
<ele>94</ele>
<time>2011-10-01T11:58:15Z</time>
</trkpt>
<trkpt lat="51.21474312" lon="6.80063501">
<ele>95</ele>
<time>2011-10-01T11:58:19Z</time>
</trkpt>
<trkpt lat="51.21457079" lon="6.80047986">
<ele>96</ele>
<time>2011-10-01T11:58:23Z</time>
</trkpt>
<trkpt lat="51.21438819" lon="6.80028724">
<ele>96.5</ele>
<time>2011-10-01T11:58:27Z</time>
</trkpt>
<trkpt lat="51.21421225" lon="6.80007527">
<ele>97</ele>
<time>2011-10-01T11:58:31Z</time>
</trkpt>
<trkpt lat="51.21404223" lon="6.79983739">
<ele>96.5</ele>
<time>2011-10-01T11:58:35Z</time>
</trkpt>
<trkpt lat="51.21387258" lon="6.79959448">
<ele>97</ele>
<time>2011-10-01T11:58:39Z</time>
</trkpt>
<trkpt lat="51.21370787" lon="6.79935618">
<ele>0</ele>
<time>2011-10-01T11:58:43Z</time>
</trkpt>
<trkpt lat="51.21355507" lon="6.79912342">
<ele>0</ele>
<time>2011-10-01T11:58:47Z</time>
</trkpt>
<trkpt lat="51.21339246" lon="6.79890012">
<ele>95.5</ele>
<time>2011-10-01T11:58:51Z</time>
</trkpt>
<trkpt lat="51.21324108" lon="6.79865839">
<ele>95.5</ele>
<time>2011-10-01T11:58:55Z</time>
</trkpt>
<trkpt lat="51.21307563" lon="6.79841934">
<ele>0</ele>
<time>2011-10-01T11:58:59Z</time>
</trkpt>
<trkpt lat="51.21295111" lon="6.79820359">
<ele>94</ele>
<time>2011-10-01T11:59:03Z</time>
</trkpt>
<trkpt lat="51.21294478" lon="6.79819194">
<ele>91</ele>
<time>2011-10-01T11:59:07Z</time>
</trkpt>
<trkpt lat="51.21295887" lon="6.79818708">
<ele>88</ele>
<time>2011-10-01T11:59:12Z</time>
</trkpt>
<trkpt lat="51.21295836" lon="6.79819579">
<ele>85.5</ele>
<time>2011-10-01T11:59:14Z</time>
</trkpt>
<trkpt lat="51.21295987" lon="6.79820233">
<ele>84</ele>
<time>2011-10-01T11:59:17Z</time>
</trkpt>
<trkpt lat="51.21294738" lon="6.79819638">
<ele>83.5</ele>
<time>2011-10-01T11:59:19Z</time>
</trkpt>
<trkpt lat="51.21280598" lon="6.79804534">
<ele>83.5</ele>
<time>2011-10-01T11:59:23Z</time>
</trkpt>
<trkpt lat="51.21265054" lon="6.79786974">
<ele>0</ele>
<time>2011-10-01T11:59:27Z</time>
</trkpt>
<trkpt lat="51.21247334" lon="6.79764954">
<ele>82.5</ele>
<time>2011-10-01T11:59:31Z</time>
</trkpt>
<trkpt lat="51.21228375" lon="6.79743421">
<ele>82</ele>
<time>2011-10-01T11:59:35Z</time>
</trkpt>
<trkpt lat="51.21209628" lon="6.79721016">
<ele>79.5</ele>
<time>2011-10-01T11:59:39Z</time>
</trkpt>
<trkpt lat="51.21191004" lon="6.79698419">
<ele>78.5</ele>
<time>2011-10-01T11:59:43Z</time>
</trkpt>
<trkpt lat="51.21172534" lon="6.79675855">
<ele>0</ele>
<time>2011-10-01T11:59:47Z</time>
</trkpt>
<trkpt lat="51.21153914" lon="6.79655747">
<ele>0</ele>
<time>2011-10-01T11:59:51Z</time>
</trkpt>
<trkpt lat="51.21137615" lon="6.79636125">
<ele>74.5</ele>
<time>2011-10-01T11:59:55Z</time>
</trkpt>
<trkpt lat="51.21122276" lon="6.79618816">
<ele>75.5</ele>
<time>2011-10-01T11:59:59Z</time>
</trkpt>
<trkpt lat="51.21109666" lon="6.79595405">
<ele>74.5</ele>
<time>2011-10-01T12:00:03Z</time>
</trkpt>
<trkpt lat="51.21096552" lon="6.79575783">
<ele>75</ele>
<time>2011-10-01T12:00:07Z</time>
</trkpt>
<trkpt lat="51.21082861" lon="6.79561576">
<ele>75</ele>
<time>2011-10-01T12:00:11Z</time>
</trkpt>
<trkpt lat="51.21066411" lon="6.79544762">
<ele>0</ele>
<time>2011-10-01T12:00:15Z</time>
</trkpt>
<trkpt lat="51.21049526" lon="6.79524804">
<ele>75</ele>
<time>2011-10-01T12:00:19Z</time>
</trkpt>
<trkpt lat="51.21027682" lon="6.79507437">
<ele>73.5</ele>
<time>2011-10-01T12:00:23Z</time>
</trkpt>
<trkpt lat="51.21008421" lon="6.79484605">
<ele>73</ele>
<time>2011-10-01T12:00:27Z</time>
</trkpt>
<trkpt lat="51.20988015" lon="6.79463214">
<ele>73</ele>
<time>2011-10-01T12:00:31Z</time>
</trkpt>
<trkpt lat="51.20967894" lon="6.79440315">
<ele>72</ele>
<time>2011-10-01T12:00:35Z</time>
</trkpt>
<trkpt lat="51.20946843" lon="6.79419251">
<ele>68</ele>
<time>2011-10-01T12:00:39Z</time>
</trkpt>
<trkpt lat="51.20929744" lon="6.79392982">
<ele>65.5</ele>
<time>2011-10-01T12:00:43Z</time>
</trkpt>
<trkpt lat="51.20911803" lon="6.79374442">
<ele>65.5</ele>
<time>2011-10-01T12:00:47Z</time>
</trkpt>
<trkpt lat="51.20895999" lon="6.79366881">
<ele>66</ele>
<time>2011-10-01T12:00:51Z</time>
</trkpt>
<trkpt lat="51.20893157" lon="6.79335038">
<ele>67</ele>
<time>2011-10-01T12:00:55Z</time>
</trkpt>
<trkpt lat="51.20885387" lon="6.79303983">
<ele>70.5</ele>
<time>2011-10-01T12:00:59Z</time>
</trkpt>
<trkpt lat="51.20870853" lon="6.79276315">
<ele>71.5</ele>
<time>2011-10-01T12:01:03Z</time>
</trkpt>
<trkpt lat="51.20855154" lon="6.79248948">
<ele>74</ele>
<time>2011-10-01T12:01:07Z</time>
</trkpt>
<trkpt lat="51.20840309" lon="6.79224397">
<ele>75</ele>
<time>2011-10-01T12:01:11Z</time>
</trkpt>
<trkpt lat="51.20828147" lon="6.79199872">
<ele>75.5</ele>
<time>2011-10-01T12:01:15Z</time>
</trkpt>
<trkpt lat="51.20836374" lon="6.79180074">
<ele>77.5</ele>
<time>2011-10-01T12:01:19Z</time>
</trkpt>
<trkpt lat="51.20843846" lon="6.79162178">
<ele>77.5</ele>
<time>2011-10-01T12:01:23Z</time>
</trkpt>
<trkpt lat="51.20838863" lon="6.7913627">
<ele>77.5</ele>
<time>2011-10-01T12:01:27Z</time>
</trkpt>
<trkpt lat="51.2083282" lon="6.79107143">
<ele>0</ele>
<time>2011-10-01T12:01:31Z</time>
</trkpt>
<trkpt lat="51.20826307" lon="6.79078074">
<ele>77</ele>
<time>2011-10-01T12:01:35Z</time>
</trkpt>
<trkpt lat="51.20819585" lon="6.79049701">
<ele>76</ele>
<time>2011-10-01T12:01:39Z</time>
</trkpt>
<trkpt lat="51.20813399" lon="6.79019853">
<ele>75</ele>
<time>2011-10-01T12:01:43Z</time>
</trkpt>
<trkpt lat="51.20804556" lon="6.78988773">
<ele>74.5</ele>
<time>2011-10-01T12:01:47Z</time>
</trkpt>
<trkpt lat="51.20797587" lon="6.78956646">
<ele>74.5</ele>
<time>2011-10-01T12:01:51Z</time>
</trkpt>
<trkpt lat="51.20792587" lon="6.78924828">
<ele>73.5</ele>
<time>2011-10-01T12:01:55Z</time>
</trkpt>
<trkpt lat="51.20785965" lon="6.7889705">
<ele>74.5</ele>
<time>2011-10-01T12:01:59Z</time>
</trkpt>
<trkpt lat="51.20780328" lon="6.78870605">
<ele>75</ele>
<time>2011-10-01T12:02:03Z</time>
</trkpt>
<trkpt lat="51.20779989" lon="6.7884059">
<ele>74</ele>
<time>2011-10-01T12:02:07Z</time>
</trkpt>
<trkpt lat="51.20774763" lon="6.78806216">
<ele>75</ele>
<time>2011-10-01T12:02:11Z</time>
</trkpt>
<trkpt lat="51.20768636" lon="6.78771012">
<ele>75.5</ele>
<time>2011-10-01T12:02:15Z</time>
</trkpt>
<trkpt lat="51.2076206" lon="6.78736034">
<ele>76</ele>
<time>2011-10-01T12:02:19Z</time>
</trkpt>
<trkpt lat="51.2075553" lon="6.78700629">
<ele>76.5</ele>
<time>2011-10-01T12:02:23Z</time>
</trkpt>
<trkpt lat="51.20748917" lon="6.78665852">
<ele>76.5</ele>
<time>2011-10-01T12:02:27Z</time>
</trkpt>
<trkpt lat="51.20742832" lon="6.78632383">
<ele>0</ele>
<time>2011-10-01T12:02:31Z</time>
</trkpt>
<trkpt lat="51.20734349" lon="6.78600591">
<ele>77.5</ele>
<time>2011-10-01T12:02:35Z</time>
</trkpt>
<trkpt lat="51.20728034" lon="6.78568597">
<ele>77.5</ele>
<time>2011-10-01T12:02:39Z</time>
</trkpt>
<trkpt lat="51.20720917" lon="6.78535447">
<ele>0</ele>
<time>2011-10-01T12:02:43Z</time>
</trkpt>
<trkpt lat="51.20713219" lon="6.78501324">
<ele>78.5</ele>
<time>2011-10-01T12:02:47Z</time>
</trkpt>
<trkpt lat="51.20706044" lon="6.78468073">
<ele>0</ele>
<time>2011-10-01T12:02:51Z</time>
</trkpt>
<trkpt lat="51.20699782" lon="6.78435216">
<ele>0</ele>
<time>2011-10-01T12:02:55Z</time>
</trkpt>
<trkpt lat="51.20693349" lon="6.78404588">
<ele>78</ele>
<time>2011-10-01T12:02:59Z</time>
</trkpt>
<trkpt lat="51.20687909" lon="6.78374983">
<ele>0</ele>
<time>2011-10-01T12:03:03Z</time>
</trkpt>
<trkpt lat="51.20682872" lon="6.78348153">
<ele>0</ele>
<time>2011-10-01T12:03:07Z</time>
</trkpt>
<trkpt lat="51.20679393" lon="6.78324181">
<ele>76.5</ele>
<time>2011-10-01T12:03:11Z</time>
</trkpt>
<trkpt lat="51.20677378" lon="6.78311348">
<ele>76.5</ele>
<time>2011-10-01T12:03:15Z</time>
</trkpt>
<trkpt lat="51.20676472" lon="6.7830999">
<ele>77.5</ele>
<time>2011-10-01T12:03:18Z</time>
</trkpt>
<trkpt lat="51.20676041" lon="6.78309504">
<ele>78</ele>
<time>2011-10-01T12:03:21Z</time>
</trkpt>
<trkpt lat="51.20675534" lon="6.78308842">
<ele>78.5</ele>
<time>2011-10-01T12:03:23Z</time>
</trkpt>
<trkpt lat="51.20675165" lon="6.78308649">
<ele>78.5</ele>
<time>2011-10-01T12:03:27Z</time>
</trkpt>
<trkpt lat="51.20675081" lon="6.78308817">
<ele>0</ele>
<time>2011-10-01T12:03:29Z</time>
</trkpt>
<trkpt lat="51.2067514" lon="6.78309118">
<ele>0</ele>
<time>2011-10-01T12:03:31Z</time>
</trkpt>
<trkpt lat="51.20674603" lon="6.78307576">
<ele>0</ele>
<time>2011-10-01T12:03:34Z</time>
</trkpt>
<trkpt lat="51.20669482" lon="6.78292673">
<ele>73</ele>
<time>2011-10-01T12:03:38Z</time>
</trkpt>
<trkpt lat="51.20663824" lon="6.78265214">
<ele>74</ele>
<time>2011-10-01T12:03:42Z</time>
</trkpt>
<trkpt lat="51.2065688" lon="6.78234955">
<ele>74.5</ele>
<time>2011-10-01T12:03:46Z</time>
</trkpt>
<trkpt lat="51.20649172" lon="6.78203515">
<ele>76</ele>
<time>2011-10-01T12:03:50Z</time>
</trkpt>
<trkpt lat="51.20640937" lon="6.78181194">
<ele>76</ele>
<time>2011-10-01T12:03:54Z</time>
</trkpt>
<trkpt lat="51.20627392" lon="6.78143626">
<ele>76.5</ele>
<time>2011-10-01T12:03:58Z</time>
</trkpt>
<trkpt lat="51.20615842" lon="6.78111146">
<ele>77</ele>
<time>2011-10-01T12:04:02Z</time>
</trkpt>
<trkpt lat="51.20606014" lon="6.78081189">
<ele>77</ele>
<time>2011-10-01T12:04:06Z</time>
</trkpt>
<trkpt lat="51.20600868" lon="6.78059673">
<ele>77.5</ele>
<time>2011-10-01T12:04:10Z</time>
</trkpt>
<trkpt lat="51.20599258" lon="6.7805373">
<ele>77.5</ele>
<time>2011-10-01T12:04:14Z</time>
</trkpt>
<trkpt lat="51.20600419" lon="6.78052775">
<ele>82</ele>
<time>2011-10-01T12:04:18Z</time>
</trkpt>
<trkpt lat="51.20600113" lon="6.78052934">
<ele>83</ele>
<time>2011-10-01T12:04:22Z</time>
</trkpt>
<trkpt lat="51.20599677" lon="6.78052498">
<ele>86</ele>
<time>2011-10-01T12:04:26Z</time>
</trkpt>
<trkpt lat="51.2059878" lon="6.78052984">
<ele>88.5</ele>
<time>2011-10-01T12:04:30Z</time>
</trkpt>
<trkpt lat="51.20598487" lon="6.78053504">
<ele>89.5</ele>
<time>2011-10-01T12:04:34Z</time>
</trkpt>
<trkpt lat="51.20597582" lon="6.78054275">
<ele>87.5</ele>
<time>2011-10-01T12:04:38Z</time>
</trkpt>
<trkpt lat="51.20597012" lon="6.78053278">
<ele>87.5</ele>
<time>2011-10-01T12:04:42Z</time>
</trkpt>
<trkpt lat="51.20593667" lon="6.78041015">
<ele>84</ele>
<time>2011-10-01T12:04:46Z</time>
</trkpt>
<trkpt lat="51.20588957" lon="6.78016582">
<ele>80.5</ele>
<time>2011-10-01T12:04:50Z</time>
</trkpt>
<trkpt lat="51.2058311" lon="6.77986407">
<ele>81</ele>
<time>2011-10-01T12:04:54Z</time>
</trkpt>
<trkpt lat="51.20575588" lon="6.77954036">
<ele>81.5</ele>
<time>2011-10-01T12:04:58Z</time>
</trkpt>
<trkpt lat="51.20570366" lon="6.77919921">
<ele>80.5</ele>
<time>2011-10-01T12:05:02Z</time>
</trkpt>
<trkpt lat="51.20565873" lon="6.77886704">
<ele>79.5</ele>
<time>2011-10-01T12:05:06Z</time>
</trkpt>
<trkpt lat="51.20560622" lon="6.77856831">
<ele>76.5</ele>
<time>2011-10-01T12:05:10Z</time>
</trkpt>
<trkpt lat="51.20557303" lon="6.77824225">
<ele>74</ele>
<time>2011-10-01T12:05:14Z</time>
</trkpt>
<trkpt lat="51.2055532" lon="6.77792273">
<ele>73</ele>
<time>2011-10-01T12:05:18Z</time>
</trkpt>
<trkpt lat="51.20556238" lon="6.77764169">
<ele>71</ele>
<time>2011-10-01T12:05:22Z</time>
</trkpt>
<trkpt lat="51.20558237" lon="6.77737179">
<ele>68.5</ele>
<time>2011-10-01T12:05:26Z</time>
</trkpt>
<trkpt lat="51.20558162" lon="6.77727683">
<ele>66.5</ele>
<time>2011-10-01T12:05:30Z</time>
</trkpt>
<trkpt lat="51.20557927" lon="6.77728311">
<ele>67</ele>
<time>2011-10-01T12:05:34Z</time>
</trkpt>
<trkpt lat="51.20557374" lon="6.77728177">
<ele>67.5</ele>
<time>2011-10-01T12:05:38Z</time>
</trkpt>
<trkpt lat="51.20556594" lon="6.77727104">
<ele>67</ele>
<time>2011-10-01T12:05:41Z</time>
</trkpt>
<trkpt lat="51.20556443" lon="6.77726358">
<ele>66.5</ele>
<time>2011-10-01T12:05:45Z</time>
</trkpt>
<trkpt lat="51.20555333" lon="6.77725394">
<ele>66</ele>
<time>2011-10-01T12:05:50Z</time>
</trkpt>
<trkpt lat="51.20554009" lon="6.77724967">
<ele>67</ele>
<time>2011-10-01T12:05:54Z</time>
</trkpt>
<trkpt lat="51.2055364" lon="6.77721363">
<ele>69</ele>
<time>2011-10-01T12:05:58Z</time>
</trkpt>
<trkpt lat="51.20552357" lon="6.77706929">
<ele>63.5</ele>
<time>2011-10-01T12:06:02Z</time>
</trkpt>
<trkpt lat="51.20553795" lon="6.77679445">
<ele>59</ele>
<time>2011-10-01T12:06:06Z</time>
</trkpt>
<trkpt lat="51.2055698" lon="6.7764694">
<ele>58.5</ele>
<time>2011-10-01T12:06:10Z</time>
</trkpt>
<trkpt lat="51.2055869" lon="6.77612415">
<ele>59</ele>
<time>2011-10-01T12:06:14Z</time>
</trkpt>
<trkpt lat="51.20560232" lon="6.77578191">
<ele>62.5</ele>
<time>2011-10-01T12:06:18Z</time>
</trkpt>
<trkpt lat="51.20560308" lon="6.77549173">
<ele>64</ele>
<time>2011-10-01T12:06:22Z</time>
</trkpt>
<trkpt lat="51.20560802" lon="6.77523826">
<ele>63</ele>
<time>2011-10-01T12:06:26Z</time>
</trkpt>
<trkpt lat="51.20562114" lon="6.77508236">
<ele>66</ele>
<time>2011-10-01T12:06:30Z</time>
</trkpt>
<trkpt lat="51.20561259" lon="6.77507632">
<ele>66.5</ele>
<time>2011-10-01T12:06:34Z</time>
</trkpt>
<trkpt lat="51.20561209" lon="6.77507406">
<ele>69.5</ele>
<time>2011-10-01T12:06:38Z</time>
</trkpt>
<trkpt lat="51.20561619" lon="6.7750495">
<ele>72.5</ele>
<time>2011-10-01T12:06:42Z</time>
</trkpt>
<trkpt lat="51.20557881" lon="6.7749335">
<ele>72.5</ele>
<time>2011-10-01T12:06:46Z</time>
</trkpt>
<trkpt lat="51.20555798" lon="6.77469369">
<ele>70.5</ele>
<time>2011-10-01T12:06:50Z</time>
</trkpt>
<trkpt lat="51.20552089" lon="6.77441684">
<ele>69</ele>
<time>2011-10-01T12:06:54Z</time>
</trkpt>
<trkpt lat="51.20553958" lon="6.77410553">
<ele>71</ele>
<time>2011-10-01T12:06:58Z</time>
</trkpt>
<trkpt lat="51.2055664" lon="6.7737726">
<ele>72</ele>
<time>2011-10-01T12:07:02Z</time>
</trkpt>
<trkpt lat="51.20556712" lon="6.77358284">
<ele>72.5</ele>
<time>2011-10-01T12:07:06Z</time>
</trkpt>
<trkpt lat="51.20556666" lon="6.77355518">
<ele>74.5</ele>
<time>2011-10-01T12:07:10Z</time>
</trkpt>
<trkpt lat="51.20556142" lon="6.77351939">
<ele>76</ele>
<time>2011-10-01T12:07:14Z</time>
</trkpt>
<trkpt lat="51.205568" lon="6.77345811">
<ele>78.5</ele>
<time>2011-10-01T12:07:18Z</time>
</trkpt>
<trkpt lat="51.2055636" lon="6.77345443">
<ele>78</ele>
<time>2011-10-01T12:07:23Z</time>
</trkpt>
<trkpt lat="51.20556389" lon="6.77344856">
<ele>77</ele>
<time>2011-10-01T12:07:27Z</time>
</trkpt>
<trkpt lat="51.20555542" lon="6.77344554">
<ele>77</ele>
<time>2011-10-01T12:07:31Z</time>
</trkpt>
<trkpt lat="51.20553703" lon="6.77343372">
<ele>0</ele>
<time>2011-10-01T12:07:35Z</time>
</trkpt>
<trkpt lat="51.20552076" lon="6.77341905">
<ele>78</ele>
<time>2011-10-01T12:07:39Z</time>
</trkpt>
<trkpt lat="51.20551372" lon="6.77340413">
<ele>80.5</ele>
<time>2011-10-01T12:07:43Z</time>
</trkpt>
<trkpt lat="51.20550744" lon="6.77338075">
<ele>81</ele>
<time>2011-10-01T12:07:47Z</time>
</trkpt>
<trkpt lat="51.20551092" lon="6.77336541">
<ele>81.5</ele>
<time>2011-10-01T12:07:51Z</time>
</trkpt>
<trkpt lat="51.20551448" lon="6.77335669">
<ele>82</ele>
<time>2011-10-01T12:07:55Z</time>
</trkpt>
<trkpt lat="51.20551297" lon="6.77335049">
<ele>82</ele>
<time>2011-10-01T12:07:59Z</time>
</trkpt>
<trkpt lat="51.20550937" lon="6.77334487">
<ele>82.5</ele>
<time>2011-10-01T12:08:03Z</time>
</trkpt>
<trkpt lat="51.20551276" lon="6.77333934">
<ele>0</ele>
<time>2011-10-01T12:08:07Z</time>
</trkpt>
<trkpt lat="51.20552051" lon="6.77333264">
<ele>0</ele>
<time>2011-10-01T12:08:11Z</time>
</trkpt>
<trkpt lat="51.2055343" lon="6.77332493">
<ele>82</ele>
<time>2011-10-01T12:08:15Z</time>
</trkpt>
<trkpt lat="51.20554746" lon="6.77332048">
<ele>0</ele>
<time>2011-10-01T12:08:19Z</time>
</trkpt>
<trkpt lat="51.20555274" lon="6.77331948">
<ele>81</ele>
<time>2011-10-01T12:08:23Z</time>
</trkpt>
<trkpt lat="51.20555903" lon="6.77331914">
<ele>81.5</ele>
<time>2011-10-01T12:08:27Z</time>
</trkpt>
<trkpt lat="51.20556762" lon="6.77331856">
<ele>0</ele>
<time>2011-10-01T12:08:31Z</time>
</trkpt>
<trkpt lat="51.20557286" lon="6.77331839">
<ele>0</ele>
<time>2011-10-01T12:08:35Z</time>
</trkpt>
<trkpt lat="51.20557797" lon="6.77331386">
<ele>82.5</ele>
<time>2011-10-01T12:08:39Z</time>
</trkpt>
<trkpt lat="51.20558007" lon="6.77330699">
<ele>83.5</ele>
<time>2011-10-01T12:08:43Z</time>
</trkpt>
<trkpt lat="51.20557567" lon="6.77329483">
<ele>84</ele>
<time>2011-10-01T12:08:47Z</time>
</trkpt>
<trkpt lat="51.20556821" lon="6.77328167">
<ele>85</ele>
<time>2011-10-01T12:08:51Z</time>
</trkpt>
<trkpt lat="51.20556515" lon="6.77326357">
<ele>86</ele>
<time>2011-10-01T12:08:55Z</time>
</trkpt>
<trkpt lat="51.20555949" lon="6.77324697">
<ele>88</ele>
<time>2011-10-01T12:08:59Z</time>
</trkpt>
<trkpt lat="51.20555111" lon="6.77323608">
<ele>89.5</ele>
<time>2011-10-01T12:09:03Z</time>
</trkpt>
<trkpt lat="51.20554553" lon="6.77323298">
<ele>90.5</ele>
<time>2011-10-01T12:09:07Z</time>
</trkpt>
<trkpt lat="51.20554247" lon="6.77323096">
<ele>91.5</ele>
<time>2011-10-01T12:09:11Z</time>
</trkpt>
<trkpt lat="51.20554218" lon="6.77323264">
<ele>92.5</ele>
<time>2011-10-01T12:09:15Z</time>
</trkpt>
<trkpt lat="51.20554432" lon="6.77323256">
<ele>93.5</ele>
<time>2011-10-01T12:09:19Z</time>
</trkpt>
<trkpt lat="51.20554507" lon="6.77322753">
<ele>95</ele>
<time>2011-10-01T12:09:23Z</time>
</trkpt>
<trkpt lat="51.20554461" lon="6.77322233">
<ele>96.5</ele>
<time>2011-10-01T12:09:27Z</time>
</trkpt>
<trkpt lat="51.2055447" lon="6.7732163">
<ele>98</ele>
<time>2011-10-01T12:09:31Z</time>
</trkpt>
<trkpt lat="51.20554327" lon="6.77321211">
<ele>99</ele>
<time>2011-10-01T12:09:35Z</time>
</trkpt>
<trkpt lat="51.20554478" lon="6.77320934">
<ele>99.5</ele>
<time>2011-10-01T12:09:39Z</time>
</trkpt>
<trkpt lat="51.20554524" lon="6.77320909">
<ele>0</ele>
<time>2011-10-01T12:09:43Z</time>
</trkpt>
<trkpt lat="51.20554574" lon="6.77320699">
<ele>0</ele>
<time>2011-10-01T12:09:47Z</time>
</trkpt>
<trkpt lat="51.20554503" lon="6.77320565">
<ele>99.5</ele>
<time>2011-10-01T12:09:51Z</time>
</trkpt>
<trkpt lat="51.20554361" lon="6.77320448">
<ele>0</ele>
<time>2011-10-01T12:09:55Z</time>
</trkpt>
<trkpt lat="51.20553971" lon="6.77320314">
<ele>98.5</ele>
<time>2011-10-01T12:09:59Z</time>
</trkpt>
<trkpt lat="51.20553472" lon="6.77320381">
<ele>97.5</ele>
<time>2011-10-01T12:10:03Z</time>
</trkpt>
<trkpt lat="51.20553258" lon="6.77320255">
<ele>97.5</ele>
<time>2011-10-01T12:10:07Z</time>
</trkpt>
<trkpt lat="51.2055304" lon="6.77320339">
<ele>0</ele>
<time>2011-10-01T12:10:11Z</time>
</trkpt>
<trkpt lat="51.20552902" lon="6.77320037">
<ele>96.5</ele>
<time>2011-10-01T12:10:15Z</time>
</trkpt>
<trkpt lat="51.2055276" lon="6.77319643">
<ele>96</ele>
<time>2011-10-01T12:10:19Z</time>
</trkpt>
<trkpt lat="51.20552734" lon="6.77319484">
<ele>0</ele>
<time>2011-10-01T12:10:24Z</time>
</trkpt>
<trkpt lat="51.20552755" lon="6.77319953">
<ele>0</ele>
<time>2011-10-01T12:10:28Z</time>
</trkpt>
<trkpt lat="51.20552806" lon="6.77320749">
<ele>96.5</ele>
<time>2011-10-01T12:10:32Z</time>
</trkpt>
<trkpt lat="51.20552739" lon="6.77321864">
<ele>96.5</ele>
<time>2011-10-01T12:10:36Z</time>
</trkpt>
<trkpt lat="51.20552621" lon="6.77322233">
<ele>0</ele>
<time>2011-10-01T12:10:40Z</time>
</trkpt>
<trkpt lat="51.20552906" lon="6.77321906">
<ele>97</ele>
<time>2011-10-01T12:10:44Z</time>
</trkpt>
<trkpt lat="51.20553007" lon="6.77321739">
<ele>0</ele>
<time>2011-10-01T12:10:48Z</time>
</trkpt>
<trkpt lat="51.20553061" lon="6.77321713">
<ele>0</ele>
<time>2011-10-01T12:10:52Z</time>
</trkpt>
<trkpt lat="51.20553212" lon="6.77321638">
<ele>97</ele>
<time>2011-10-01T12:10:56Z</time>
</trkpt>
<trkpt lat="51.20553392" lon="6.77321512">
<ele>97.5</ele>
<time>2011-10-01T12:11:00Z</time>
</trkpt>
<trkpt lat="51.20553489" lon="6.77321454">
<ele>0</ele>
<time>2011-10-01T12:11:04Z</time>
</trkpt>
<trkpt lat="51.20553493" lon="6.77321454">
<ele>0</ele>
<time>2011-10-01T12:11:06Z</time>
</trkpt>
<trkpt lat="51.2055348" lon="6.77321445">
<ele>97.5</ele>
<time>2011-10-01T12:11:09Z</time>
</trkpt>
<trkpt lat="51.20553485" lon="6.77321428">
<ele>97.5</ele>
<time>2011-10-01T12:11:13Z</time>
</trkpt>
<trkpt lat="51.20553489" lon="6.77321437">
<ele>0</ele>
<time>2011-10-01T12:11:17Z</time>
</trkpt>
<trkpt lat="51.20553539" lon="6.77321428">
<ele>97.5</ele>
<time>2011-10-01T12:11:21Z</time>
</trkpt>
<trkpt lat="51.20553744" lon="6.77321202">
<ele>0</ele>
<time>2011-10-01T12:11:25Z</time>
</trkpt>
<trkpt lat="51.20554138" lon="6.77321303">
<ele>0</ele>
<time>2011-10-01T12:11:29Z</time>
</trkpt>
<trkpt lat="51.20554319" lon="6.77321378">
<ele>98</ele>
<time>2011-10-01T12:11:33Z</time>
</trkpt>
<trkpt lat="51.20554172" lon="6.77321135">
<ele>0</ele>
<time>2011-10-01T12:11:37Z</time>
</trkpt>
<trkpt lat="51.2055382" lon="6.7732178">
<ele>0</ele>
<time>2011-10-01T12:11:41Z</time>
</trkpt>
<trkpt lat="51.20554231" lon="6.77321873">
<ele>97.5</ele>
<time>2011-10-01T12:11:45Z</time>
</trkpt>
<trkpt lat="51.20555132" lon="6.77322183">
<ele>98</ele>
<time>2011-10-01T12:11:49Z</time>
</trkpt>
<trkpt lat="51.20555949" lon="6.77322233">
<ele>0</ele>
<time>2011-10-01T12:11:54Z</time>
</trkpt>
<trkpt lat="51.20569209" lon="6.77286996">
<ele>0</ele>
<time>2011-10-01T12:11:58Z</time>
</trkpt>
<trkpt lat="51.20573735" lon="6.77255857">
<ele>90.5</ele>
<time>2011-10-01T12:12:02Z</time>
</trkpt>
<trkpt lat="51.20579582" lon="6.77224584">
<ele>89</ele>
<time>2011-10-01T12:12:06Z</time>
</trkpt>
<trkpt lat="51.20586824" lon="6.77191283">
<ele>88</ele>
<time>2011-10-01T12:12:10Z</time>
</trkpt>
<trkpt lat="51.20593403" lon="6.77158258">
<ele>87.5</ele>
<time>2011-10-01T12:12:14Z</time>
</trkpt>
<trkpt lat="51.20601538" lon="6.77126491">
<ele>87.5</ele>
<time>2011-10-01T12:12:18Z</time>
</trkpt>
<trkpt lat="51.20609886" lon="6.77098914">
<ele>86.5</ele>
<time>2011-10-01T12:12:22Z</time>
</trkpt>
<trkpt lat="51.20619542" lon="6.77070977">
<ele>85.5</ele>
<time>2011-10-01T12:12:26Z</time>
</trkpt>
<trkpt lat="51.20629697" lon="6.77046929">
<ele>84.5</ele>
<time>2011-10-01T12:12:30Z</time>
</trkpt>
<trkpt lat="51.20638368" lon="6.77034155">
<ele>84</ele>
<time>2011-10-01T12:12:34Z</time>
</trkpt>
<trkpt lat="51.20632668" lon="6.77026276">
<ele>86</ele>
<time>2011-10-01T12:12:38Z</time>
</trkpt>
<trkpt lat="51.20624098" lon="6.77021164">
<ele>86.5</ele>
<time>2011-10-01T12:12:42Z</time>
</trkpt>
<trkpt lat="51.20620871" lon="6.77020493">
<ele>88.5</ele>
<time>2011-10-01T12:12:46Z</time>
</trkpt>
<trkpt lat="51.2062326" lon="6.77021373">
<ele>88</ele>
<time>2011-10-01T12:12:50Z</time>
</trkpt>
<trkpt lat="51.2062352" lon="6.77021683">
<ele>88.5</ele>
<time>2011-10-01T12:12:54Z</time>
</trkpt>
<trkpt lat="51.20623956" lon="6.77020183">
<ele>0</ele>
<time>2011-10-01T12:12:58Z</time>
</trkpt>
<trkpt lat="51.20626575" lon="6.77017425">
<ele>0</ele>
<time>2011-10-01T12:13:02Z</time>
</trkpt>
<trkpt lat="51.20626202" lon="6.77013452">
<ele>87.5</ele>
<time>2011-10-01T12:13:06Z</time>
</trkpt>
<trkpt lat="51.20627417" lon="6.77013234">
<ele>88</ele>
<time>2011-10-01T12:13:10Z</time>
</trkpt>
<trkpt lat="51.2062683" lon="6.77012522">
<ele>90.5</ele>
<time>2011-10-01T12:13:14Z</time>
</trkpt>
<trkpt lat="51.20626596" lon="6.77011491">
<ele>91.5</ele>
<time>2011-10-01T12:13:18Z</time>
</trkpt>
<trkpt lat="51.20626449" lon="6.77011902">
<ele>91</ele>
<time>2011-10-01T12:13:23Z</time>
</trkpt>
<trkpt lat="51.20627396" lon="6.77012044">
<ele>0</ele>
<time>2011-10-01T12:13:27Z</time>
</trkpt>
<trkpt lat="51.20628318" lon="6.77011675">
<ele>0</ele>
<time>2011-10-01T12:13:31Z</time>
</trkpt>
<trkpt lat="51.20628934" lon="6.7701196">
<ele>93.5</ele>
<time>2011-10-01T12:13:35Z</time>
</trkpt>
<trkpt lat="51.20629328" lon="6.77012329">
<ele>96</ele>
<time>2011-10-01T12:13:39Z</time>
</trkpt>
<trkpt lat="51.20630778" lon="6.77012656">
<ele>97.5</ele>
<time>2011-10-01T12:13:43Z</time>
</trkpt>
<trkpt lat="51.20631545" lon="6.77011675">
<ele>99</ele>
<time>2011-10-01T12:13:47Z</time>
</trkpt>
<trkpt lat="51.20631822" lon="6.77010728">
<ele>100.5</ele>
<time>2011-10-01T12:13:51Z</time>
</trkpt>
<trkpt lat="51.2063196" lon="6.77010032">
<ele>101.5</ele>
<time>2011-10-01T12:13:55Z</time>
</trkpt>
<trkpt lat="51.20632576" lon="6.7700958">
<ele>102</ele>
<time>2011-10-01T12:13:59Z</time>
</trkpt>
<trkpt lat="51.2063256" lon="6.77009446">
<ele>0</ele>
<time>2011-10-01T12:14:03Z</time>
</trkpt>
<trkpt lat="51.20631357" lon="6.77008842">
<ele>0</ele>
<time>2011-10-01T12:14:07Z</time>
</trkpt>
<trkpt lat="51.20630435" lon="6.77008088">
<ele>103.5</ele>
<time>2011-10-01T12:14:11Z</time>
</trkpt>
<trkpt lat="51.20629332" lon="6.77008867">
<ele>101.5</ele>
<time>2011-10-01T12:14:15Z</time>
</trkpt>
<trkpt lat="51.20628021" lon="6.77009957">
<ele>99</ele>
<time>2011-10-01T12:14:19Z</time>
</trkpt>
<trkpt lat="51.20626952" lon="6.77010586">
<ele>98</ele>
<time>2011-10-01T12:14:23Z</time>
</trkpt>
<trkpt lat="51.20626625" lon="6.77010695">
<ele>97.5</ele>
<time>2011-10-01T12:14:27Z</time>
</trkpt>
<trkpt lat="51.20627145" lon="6.77009915">
<ele>99.5</ele>
<time>2011-10-01T12:14:31Z</time>
</trkpt>
<trkpt lat="51.20627677" lon="6.77009018">
<ele>101.5</ele>
<time>2011-10-01T12:14:35Z</time>
</trkpt>
<trkpt lat="51.20628792" lon="6.7700792">
<ele>104.5</ele>
<time>2011-10-01T12:14:39Z</time>
</trkpt>
<trkpt lat="51.20629705" lon="6.77007157">
<ele>107.5</ele>
<time>2011-10-01T12:14:43Z</time>
</trkpt>
<trkpt lat="51.20630271" lon="6.77005825">
<ele>110.5</ele>
<time>2011-10-01T12:14:47Z</time>
</trkpt>
<trkpt lat="51.20630862" lon="6.770045">
<ele>113.5</ele>
<time>2011-10-01T12:14:51Z</time>
</trkpt>
<trkpt lat="51.20631143" lon="6.77003352">
<ele>115.5</ele>
<time>2011-10-01T12:14:55Z</time>
</trkpt>
<trkpt lat="51.20631583" lon="6.77001944">
<ele>117.5</ele>
<time>2011-10-01T12:14:59Z</time>
</trkpt>
<trkpt lat="51.20632044" lon="6.77001089">
<ele>119.5</ele>
<time>2011-10-01T12:15:03Z</time>
</trkpt>
<trkpt lat="51.20632463" lon="6.77000988">
<ele>120.5</ele>
<time>2011-10-01T12:15:07Z</time>
</trkpt>
<trkpt lat="51.20632853" lon="6.770016">
<ele>122.5</ele>
<time>2011-10-01T12:15:11Z</time>
</trkpt>
<trkpt lat="51.20633083" lon="6.77002774">
<ele>123.5</ele>
<time>2011-10-01T12:15:15Z</time>
</trkpt>
<trkpt lat="51.20633121" lon="6.7700357">
<ele>124</ele>
<time>2011-10-01T12:15:19Z</time>
</trkpt>
<trkpt lat="51.20633121" lon="6.77003972">
<ele>0</ele>
<time>2011-10-01T12:15:23Z</time>
</trkpt>
<trkpt lat="51.20633251" lon="6.77003981">
<ele>0</ele>
<time>2011-10-01T12:15:27Z</time>
</trkpt>
<trkpt lat="51.20633419" lon="6.77003964">
<ele>122.5</ele>
<time>2011-10-01T12:15:31Z</time>
</trkpt>
<trkpt lat="51.20633762" lon="6.77003712">
<ele>0</ele>
<time>2011-10-01T12:15:35Z</time>
</trkpt>
<trkpt lat="51.20634119" lon="6.77003411">
<ele>122</ele>
<time>2011-10-01T12:15:39Z</time>
</trkpt>
<trkpt lat="51.20634492" lon="6.77003075">
<ele>121.5</ele>
<time>2011-10-01T12:15:43Z</time>
</trkpt>
<trkpt lat="51.20635007" lon="6.77002623">
<ele>0</ele>
<time>2011-10-01T12:15:47Z</time>
</trkpt>
<trkpt lat="51.20635129" lon="6.77002371">
<ele>0</ele>
<time>2011-10-01T12:15:51Z</time>
</trkpt>
<trkpt lat="51.20635024" lon="6.77002044">
<ele>122.5</ele>
<time>2011-10-01T12:15:55Z</time>
</trkpt>
<trkpt lat="51.20634848" lon="6.77002036">
<ele>122.5</ele>
<time>2011-10-01T12:15:59Z</time>
</trkpt>
<trkpt lat="51.20634789" lon="6.77002061">
<ele>123</ele>
<time>2011-10-01T12:16:03Z</time>
</trkpt>
<trkpt lat="51.20634797" lon="6.77001935">
<ele>0</ele>
<time>2011-10-01T12:16:07Z</time>
</trkpt>
<trkpt lat="51.20634835" lon="6.77001944">
<ele>0</ele>
<time>2011-10-01T12:16:11Z</time>
</trkpt>
<trkpt lat="51.2063486" lon="6.77002078">
<ele>124</ele>
<time>2011-10-01T12:16:15Z</time>
</trkpt>
<trkpt lat="51.20634865" lon="6.77002028">
<ele>0</ele>
<time>2011-10-01T12:16:19Z</time>
</trkpt>
<trkpt lat="51.20634915" lon="6.77001743">
<ele>0</ele>
<time>2011-10-01T12:16:24Z</time>
</trkpt>
<trkpt lat="51.2063489" lon="6.77000804">
<ele>124.5</ele>
<time>2011-10-01T12:16:28Z</time>
</trkpt>
<trkpt lat="51.20634869" lon="6.76999513">
<ele>126</ele>
<time>2011-10-01T12:16:32Z</time>
</trkpt>
<trkpt lat="51.20634668" lon="6.76998046">
<ele>127</ele>
<time>2011-10-01T12:16:36Z</time>
</trkpt>
<trkpt lat="51.20635129" lon="6.76986731">
<ele>148.5</ele>
<time>2011-10-01T12:16:40Z</time>
</trkpt>
<trkpt lat="51.20633821" lon="6.76987384">
<ele>149</ele>
<time>2011-10-01T12:16:44Z</time>
</trkpt>
<trkpt lat="51.20633599" lon="6.76988575">
<ele>150</ele>
<time>2011-10-01T12:16:48Z</time>
</trkpt>
<trkpt lat="51.2063401" lon="6.76990402">
<ele>149.5</ele>
<time>2011-10-01T12:16:52Z</time>
</trkpt>
<trkpt lat="51.20634789" lon="6.76991408">
<ele>148.5</ele>
<time>2011-10-01T12:16:56Z</time>
</trkpt>
<trkpt lat="51.20635455" lon="6.76991986">
<ele>147.5</ele>
<time>2011-10-01T12:17:00Z</time>
</trkpt>
<trkpt lat="51.20635757" lon="6.76992648">
<ele>144.5</ele>
<time>2011-10-01T12:17:04Z</time>
</trkpt>
<trkpt lat="51.20635946" lon="6.76993956">
<ele>141</ele>
<time>2011-10-01T12:17:08Z</time>
</trkpt>
<trkpt lat="51.20635942" lon="6.76994375">
<ele>138.5</ele>
<time>2011-10-01T12:17:12Z</time>
</trkpt>
<trkpt lat="51.20635908" lon="6.76994375">
<ele>137</ele>
<time>2011-10-01T12:17:16Z</time>
</trkpt>
<trkpt lat="51.20636038" lon="6.76994601">
<ele>136</ele>
<time>2011-10-01T12:17:20Z</time>
</trkpt>
<trkpt lat="51.20635979" lon="6.76995129">
<ele>134.5</ele>
<time>2011-10-01T12:17:24Z</time>
</trkpt>
<trkpt lat="51.20636076" lon="6.76995565">
<ele>133</ele>
<time>2011-10-01T12:17:28Z</time>
</trkpt>
<trkpt lat="51.20636377" lon="6.76996177">
<ele>131</ele>
<time>2011-10-01T12:17:32Z</time>
</trkpt>
<trkpt lat="51.20636809" lon="6.76997049">
<ele>130.5</ele>
<time>2011-10-01T12:17:36Z</time>
</trkpt>
<trkpt lat="51.20636943" lon="6.76997636">
<ele>130</ele>
<time>2011-10-01T12:17:40Z</time>
</trkpt>
<trkpt lat="51.20637283" lon="6.76997895">
<ele>130</ele>
<time>2011-10-01T12:17:44Z</time>
</trkpt>
<trkpt lat="51.20637417" lon="6.76998055">
<ele>0</ele>
<time>2011-10-01T12:17:48Z</time>
</trkpt>
<trkpt lat="51.20637144" lon="6.76997443">
<ele>129.5</ele>
<time>2011-10-01T12:17:52Z</time>
</trkpt>
<trkpt lat="51.20637061" lon="6.769973">
<ele>0</ele>
<time>2011-10-01T12:17:57Z</time>
</trkpt>
<trkpt lat="51.20636998" lon="6.76997325">
<ele>0</ele>
<time>2011-10-01T12:18:01Z</time>
</trkpt>
<trkpt lat="51.20636797" lon="6.76997233">
<ele>128</ele>
<time>2011-10-01T12:18:05Z</time>
</trkpt>
<trkpt lat="51.20636499" lon="6.76997359">
<ele>127</ele>
<time>2011-10-01T12:18:09Z</time>
</trkpt>
<trkpt lat="51.20636474" lon="6.76997409">
<ele>126.5</ele>
<time>2011-10-01T12:18:13Z</time>
</trkpt>
<trkpt lat="51.20636382" lon="6.76997434">
<ele>0</ele>
<time>2011-10-01T12:18:17Z</time>
</trkpt>
<trkpt lat="51.20636403" lon="6.76997585">
<ele>0</ele>
<time>2011-10-01T12:18:21Z</time>
</trkpt>
<trkpt lat="51.20636558" lon="6.76997887">
<ele>126.5</ele>
<time>2011-10-01T12:18:25Z</time>
</trkpt>
<trkpt lat="51.20636616" lon="6.76998356">
<ele>126</ele>
<time>2011-10-01T12:18:29Z</time>
</trkpt>
<trkpt lat="51.20636746" lon="6.76998666">
<ele>126</ele>
<time>2011-10-01T12:18:33Z</time>
</trkpt>
<trkpt lat="51.20636822" lon="6.76998859">
<ele>125.5</ele>
<time>2011-10-01T12:18:37Z</time>
</trkpt>
<trkpt lat="51.2063675" lon="6.769987">
<ele>125</ele>
<time>2011-10-01T12:18:41Z</time>
</trkpt>
<trkpt lat="51.20636801" lon="6.7699891">
<ele>124.5</ele>
<time>2011-10-01T12:18:45Z</time>
</trkpt>
<trkpt lat="51.20636859" lon="6.76998784">
<ele>124.5</ele>
<time>2011-10-01T12:18:49Z</time>
</trkpt>
<trkpt lat="51.20636918" lon="6.76998633">
<ele>0</ele>
<time>2011-10-01T12:18:53Z</time>
</trkpt>
<trkpt lat="51.20636654" lon="6.7699953">
<ele>123.5</ele>
<time>2011-10-01T12:18:57Z</time>
</trkpt>
<trkpt lat="51.20636361" lon="6.76999999">
<ele>122.5</ele>
<time>2011-10-01T12:19:01Z</time>
</trkpt>
<trkpt lat="51.20636478" lon="6.77000418">
<ele>122</ele>
<time>2011-10-01T12:19:05Z</time>
</trkpt>
<trkpt lat="51.20646302" lon="6.77003109">
<ele>111.5</ele>
<time>2011-10-01T12:19:09Z</time>
</trkpt>
<trkpt lat="51.20654989" lon="6.76984635">
<ele>109</ele>
<time>2011-10-01T12:19:13Z</time>
</trkpt>
<trkpt lat="51.20662131" lon="6.76967796">
<ele>106.5</ele>
<time>2011-10-01T12:19:17Z</time>
</trkpt>
<trkpt lat="51.2066325" lon="6.76959992">
<ele>104.5</ele>
<time>2011-10-01T12:19:21Z</time>
</trkpt>
<trkpt lat="51.2066294" lon="6.7695752">
<ele>103</ele>
<time>2011-10-01T12:19:26Z</time>
</trkpt>
<trkpt lat="51.20663141" lon="6.76949976">
<ele>102.5</ele>
<time>2011-10-01T12:19:30Z</time>
</trkpt>
<trkpt lat="51.20657093" lon="6.76937822">
<ele>100.5</ele>
<time>2011-10-01T12:19:34Z</time>
</trkpt>
<trkpt lat="51.20647287" lon="6.76935174">
<ele>102.5</ele>
<time>2011-10-01T12:19:38Z</time>
</trkpt>
<trkpt lat="51.2063512" lon="6.76925249">
<ele>101</ele>
<time>2011-10-01T12:19:42Z</time>
</trkpt>
<trkpt lat="51.20620314" lon="6.76909869">
<ele>100</ele>
<time>2011-10-01T12:19:46Z</time>
</trkpt>
<trkpt lat="51.20612183" lon="6.76897321">
<ele>100</ele>
<time>2011-10-01T12:19:50Z</time>
</trkpt>
<trkpt lat="51.20609052" lon="6.76888143">
<ele>99.5</ele>
<time>2011-10-01T12:19:54Z</time>
</trkpt>
<trkpt lat="51.20605951" lon="6.7687966">
<ele>99</ele>
<time>2011-10-01T12:19:58Z</time>
</trkpt>
<trkpt lat="51.20604078" lon="6.76874346">
<ele>0</ele>
<time>2011-10-01T12:20:02Z</time>
</trkpt>
<trkpt lat="51.20602984" lon="6.76873005">
<ele>0</ele>
<time>2011-10-01T12:20:06Z</time>
</trkpt>
<trkpt lat="51.20602104" lon="6.76872896">
<ele>100.5</ele>
<time>2011-10-01T12:20:10Z</time>
</trkpt>
<trkpt lat="51.20601194" lon="6.76871982">
<ele>100.5</ele>
<time>2011-10-01T12:20:14Z</time>
</trkpt>
<trkpt lat="51.2060065" lon="6.76871438">
<ele>0</ele>
<time>2011-10-01T12:20:18Z</time>
</trkpt>
<trkpt lat="51.206007" lon="6.76871639">
<ele>100</ele>
<time>2011-10-01T12:20:22Z</time>
</trkpt>
<trkpt lat="51.20600578" lon="6.76872091">
<ele>100</ele>
<time>2011-10-01T12:20:26Z</time>
</trkpt>
<trkpt lat="51.20600474" lon="6.76872142">
<ele>0</ele>
<time>2011-10-01T12:20:30Z</time>
</trkpt>
<trkpt lat="51.20600566" lon="6.76871957">
<ele>100</ele>
<time>2011-10-01T12:20:34Z</time>
</trkpt>
<trkpt lat="51.20600411" lon="6.76872427">
<ele>100</ele>
<time>2011-10-01T12:20:38Z</time>
</trkpt>
<trkpt lat="51.20600511" lon="6.76872821">
<ele>99.5</ele>
<time>2011-10-01T12:20:42Z</time>
</trkpt>
<trkpt lat="51.20600381" lon="6.76873332">
<ele>0</ele>
<time>2011-10-01T12:20:46Z</time>
</trkpt>
<trkpt lat="51.20600231" lon="6.76873935">
<ele>0</ele>
<time>2011-10-01T12:20:50Z</time>
</trkpt>
<trkpt lat="51.20600147" lon="6.76874438">
<ele>100</ele>
<time>2011-10-01T12:20:54Z</time>
</trkpt>
<trkpt lat="51.20600231" lon="6.76874195">
<ele>100</ele>
<time>2011-10-01T12:20:58Z</time>
</trkpt>
<trkpt lat="51.20600256" lon="6.76874069">
<ele>99.5</ele>
<time>2011-10-01T12:21:02Z</time>
</trkpt>
<trkpt lat="51.20599925" lon="6.76873717">
<ele>100</ele>
<time>2011-10-01T12:21:06Z</time>
</trkpt>
<trkpt lat="51.2059974" lon="6.76873625">
<ele>0</ele>
<time>2011-10-01T12:21:10Z</time>
</trkpt>
<trkpt lat="51.20599401" lon="6.76873701">
<ele>0</ele>
<time>2011-10-01T12:21:14Z</time>
</trkpt>
<trkpt lat="51.20598881" lon="6.76873391">
<ele>99</ele>
<time>2011-10-01T12:21:18Z</time>
</trkpt>
<trkpt lat="51.20598357" lon="6.76873164">
<ele>0</ele>
<time>2011-10-01T12:21:22Z</time>
</trkpt>
<trkpt lat="51.20598273" lon="6.76872871">
<ele>0</ele>
<time>2011-10-01T12:21:26Z</time>
</trkpt>
<trkpt lat="51.20598202" lon="6.76872712">
<ele>99</ele>
<time>2011-10-01T12:21:30Z</time>
</trkpt>
<trkpt lat="51.20598043" lon="6.7687246">
<ele>98.5</ele>
<time>2011-10-01T12:21:34Z</time>
</trkpt>
<trkpt lat="51.20597687" lon="6.76872049">
<ele>97.5</ele>
<time>2011-10-01T12:21:38Z</time>
</trkpt>
<trkpt lat="51.20597406" lon="6.76871706">
<ele>97.5</ele>
<time>2011-10-01T12:21:42Z</time>
</trkpt>
<trkpt lat="51.20597125" lon="6.76871312">
<ele>0</ele>
<time>2011-10-01T12:21:46Z</time>
</trkpt>
<trkpt lat="51.2059661" lon="6.76870599">
<ele>96.5</ele>
<time>2011-10-01T12:21:50Z</time>
</trkpt>
<trkpt lat="51.20596752" lon="6.76870365">
<ele>96</ele>
<time>2011-10-01T12:21:54Z</time>
</trkpt>
<trkpt lat="51.20596932" lon="6.76870197">
<ele>95.5</ele>
<time>2011-10-01T12:21:58Z</time>
</trkpt>
<trkpt lat="51.20596911" lon="6.76869845">
<ele>95.5</ele>
<time>2011-10-01T12:22:02Z</time>
</trkpt>
<trkpt lat="51.2059715" lon="6.76869879">
<ele>95</ele>
<time>2011-10-01T12:22:06Z</time>
</trkpt>
<trkpt lat="51.20597268" lon="6.76870004">
<ele>95</ele>
<time>2011-10-01T12:22:10Z</time>
</trkpt>
<trkpt lat="51.20597255" lon="6.76869988">
<ele>0</ele>
<time>2011-10-01T12:22:14Z</time>
</trkpt>
<trkpt lat="51.20597138" lon="6.76869795">
<ele>95</ele>
<time>2011-10-01T12:22:18Z</time>
</trkpt>
<trkpt lat="51.2059705" lon="6.76870063">
<ele>94.5</ele>
<time>2011-10-01T12:22:22Z</time>
</trkpt>
<trkpt lat="51.20594154" lon="6.7686661">
<ele>94</ele>
<time>2011-10-01T12:22:27Z</time>
</trkpt>
<trkpt lat="51.20573111" lon="6.76840927">
<ele>85</ele>
<time>2011-10-01T12:22:31Z</time>
</trkpt>
<trkpt lat="51.2056081" lon="6.76821557">
<ele>83</ele>
<time>2011-10-01T12:22:35Z</time>
</trkpt>
<trkpt lat="51.20546113" lon="6.76805086">
<ele>79.5</ele>
<time>2011-10-01T12:22:39Z</time>
</trkpt>
<trkpt lat="51.20528674" lon="6.76790636">
<ele>77</ele>
<time>2011-10-01T12:22:43Z</time>
</trkpt>
<trkpt lat="51.20513826" lon="6.76775498">
<ele>76</ele>
<time>2011-10-01T12:22:47Z</time>
</trkpt>
<trkpt lat="51.20499757" lon="6.76759992">
<ele>76</ele>
<time>2011-10-01T12:22:51Z</time>
</trkpt>
<trkpt lat="51.20485591" lon="6.7674234">
<ele>76</ele>
<time>2011-10-01T12:22:55Z</time>
</trkpt>
<trkpt lat="51.20469138" lon="6.76728023">
<ele>75</ele>
<time>2011-10-01T12:22:59Z</time>
</trkpt>
<trkpt lat="51.2045242" lon="6.76710748">
<ele>73.5</ele>
<time>2011-10-01T12:23:03Z</time>
</trkpt>
<trkpt lat="51.2043553" lon="6.7669188">
<ele>72</ele>
<time>2011-10-01T12:23:07Z</time>
</trkpt>
<trkpt lat="51.20419936" lon="6.76672854">
<ele>72.5</ele>
<time>2011-10-01T12:23:11Z</time>
</trkpt>
<trkpt lat="51.20404681" lon="6.76653039">
<ele>72</ele>
<time>2011-10-01T12:23:15Z</time>
</trkpt>
<trkpt lat="51.20390021" lon="6.76633174">
<ele>72</ele>
<time>2011-10-01T12:23:19Z</time>
</trkpt>
<trkpt lat="51.20377444" lon="6.76614122">
<ele>74</ele>
<time>2011-10-01T12:23:23Z</time>
</trkpt>
<trkpt lat="51.20366887" lon="6.76597584">
<ele>73.5</ele>
<time>2011-10-01T12:23:27Z</time>
</trkpt>
<trkpt lat="51.20355818" lon="6.76578289">
<ele>74.5</ele>
<time>2011-10-01T12:23:31Z</time>
</trkpt>
<trkpt lat="51.20341661" lon="6.76567937">
<ele>75.5</ele>
<time>2011-10-01T12:23:35Z</time>
</trkpt>
<trkpt lat="51.20327349" lon="6.76554183">
<ele>76</ele>
<time>2011-10-01T12:23:39Z</time>
</trkpt>
<trkpt lat="51.20320971" lon="6.76531903">
<ele>75.5</ele>
<time>2011-10-01T12:23:43Z</time>
</trkpt>
<trkpt lat="51.20305552" lon="6.76515291">
<ele>71</ele>
<time>2011-10-01T12:23:47Z</time>
</trkpt>
<trkpt lat="51.20291554" lon="6.76494529">
<ele>72</ele>
<time>2011-10-01T12:23:51Z</time>
</trkpt>
<trkpt lat="51.20279686" lon="6.76468293">
<ele>73</ele>
<time>2011-10-01T12:23:55Z</time>
</trkpt>
<trkpt lat="51.20266966" lon="6.76432888">
<ele>74.5</ele>
<time>2011-10-01T12:24:00Z</time>
</trkpt>
<trkpt lat="51.20257671" lon="6.76405647">
<ele>73.5</ele>
<time>2011-10-01T12:24:04Z</time>
</trkpt>
<trkpt lat="51.20250646" lon="6.76375698">
<ele>74.5</ele>
<time>2011-10-01T12:24:08Z</time>
</trkpt>
<trkpt lat="51.20242944" lon="6.76346806">
<ele>75.5</ele>
<time>2011-10-01T12:24:12Z</time>
</trkpt>
<trkpt lat="51.20235111" lon="6.76317176">
<ele>75.5</ele>
<time>2011-10-01T12:24:16Z</time>
</trkpt>
<trkpt lat="51.20226779" lon="6.76288677">
<ele>72.5</ele>
<time>2011-10-01T12:24:20Z</time>
</trkpt>
<trkpt lat="51.202181" lon="6.76257002">
<ele>70.5</ele>
<time>2011-10-01T12:24:24Z</time>
</trkpt>
<trkpt lat="51.20208942" lon="6.76226861">
<ele>67</ele>
<time>2011-10-01T12:24:28Z</time>
</trkpt>
<trkpt lat="51.20202111" lon="6.76198932">
<ele>65</ele>
<time>2011-10-01T12:24:32Z</time>
</trkpt>
<trkpt lat="51.20200933" lon="6.76176997">
<ele>65.5</ele>
<time>2011-10-01T12:24:36Z</time>
</trkpt>
<trkpt lat="51.20208636" lon="6.7616056">
<ele>62.5</ele>
<time>2011-10-01T12:24:40Z</time>
</trkpt>
<trkpt lat="51.20206797" lon="6.76128759">
<ele>66</ele>
<time>2011-10-01T12:24:44Z</time>
</trkpt>
<trkpt lat="51.20197132" lon="6.7609705">
<ele>65.5</ele>
<time>2011-10-01T12:24:48Z</time>
</trkpt>
<trkpt lat="51.20187879" lon="6.76064897">
<ele>66</ele>
<time>2011-10-01T12:24:52Z</time>
</trkpt>
<trkpt lat="51.20178801" lon="6.76033549">
<ele>66</ele>
<time>2011-10-01T12:24:56Z</time>
</trkpt>
<trkpt lat="51.20167946" lon="6.76001329">
<ele>0</ele>
<time>2011-10-01T12:25:00Z</time>
</trkpt>
<trkpt lat="51.20154837" lon="6.75972059">
<ele>69</ele>
<time>2011-10-01T12:25:04Z</time>
</trkpt>
<trkpt lat="51.20142352" lon="6.75943569">
<ele>71</ele>
<time>2011-10-01T12:25:08Z</time>
</trkpt>
<trkpt lat="51.20129612" lon="6.75917242">
<ele>71.5</ele>
<time>2011-10-01T12:25:12Z</time>
</trkpt>
<trkpt lat="51.20117211" lon="6.7589156">
<ele>71.5</ele>
<time>2011-10-01T12:25:16Z</time>
</trkpt>
<trkpt lat="51.20107706" lon="6.75865592">
<ele>72</ele>
<time>2011-10-01T12:25:20Z</time>
</trkpt>
<trkpt lat="51.20098963" lon="6.75844554">
<ele>0</ele>
<time>2011-10-01T12:25:24Z</time>
</trkpt>
<trkpt lat="51.20096273" lon="6.75828964">
<ele>0</ele>
<time>2011-10-01T12:25:29Z</time>
</trkpt>
<trkpt lat="51.20098276" lon="6.75792276">
<ele>73</ele>
<time>2011-10-01T12:25:33Z</time>
</trkpt>
<trkpt lat="51.20100623" lon="6.75759888">
<ele>73.5</ele>
<time>2011-10-01T12:25:37Z</time>
</trkpt>
<trkpt lat="51.20101914" lon="6.75726914">
<ele>72.5</ele>
<time>2011-10-01T12:25:41Z</time>
</trkpt>
<trkpt lat="51.20103217" lon="6.75694132">
<ele>71.5</ele>
<time>2011-10-01T12:25:45Z</time>
</trkpt>
<trkpt lat="51.20104428" lon="6.75661661">
<ele>71</ele>
<time>2011-10-01T12:25:49Z</time>
</trkpt>
<trkpt lat="51.20106323" lon="6.75634269">
<ele>72.5</ele>
<time>2011-10-01T12:25:53Z</time>
</trkpt>
<trkpt lat="51.20109361" lon="6.756195">
<ele>71</ele>
<time>2011-10-01T12:25:57Z</time>
</trkpt>
<trkpt lat="51.20111465" lon="6.75605494">
<ele>71</ele>
<time>2011-10-01T12:26:01Z</time>
</trkpt>
<trkpt lat="51.2011227" lon="6.75594564">
<ele>0</ele>
<time>2011-10-01T12:26:05Z</time>
</trkpt>
<trkpt lat="51.20109059" lon="6.75583516">
<ele>70</ele>
<time>2011-10-01T12:26:09Z</time>
</trkpt>
<trkpt lat="51.20107437" lon="6.75574355">
<ele>70</ele>
<time>2011-10-01T12:26:13Z</time>
</trkpt>
<trkpt lat="51.20108468" lon="6.75574732">
<ele>71.5</ele>
<time>2011-10-01T12:26:17Z</time>
</trkpt>
<trkpt lat="51.20109365" lon="6.75575595">
<ele>74</ele>
<time>2011-10-01T12:26:21Z</time>
</trkpt>
<trkpt lat="51.20109851" lon="6.75574254">
<ele>79.5</ele>
<time>2011-10-01T12:26:25Z</time>
</trkpt>
<trkpt lat="51.20109881" lon="6.75572746">
<ele>81</ele>
<time>2011-10-01T12:26:29Z</time>
</trkpt>
<trkpt lat="51.20110656" lon="6.75563626">
<ele>80.5</ele>
<time>2011-10-01T12:26:33Z</time>
</trkpt>
<trkpt lat="51.20112454" lon="6.75542504">
<ele>78</ele>
<time>2011-10-01T12:26:37Z</time>
</trkpt>
<trkpt lat="51.20113141" lon="6.75523334">
<ele>75.5</ele>
<time>2011-10-01T12:26:40Z</time>
</trkpt>
<trkpt lat="51.2011377" lon="6.75493838">
<ele>76</ele>
<time>2011-10-01T12:26:44Z</time>
</trkpt>
<trkpt lat="51.20113284" lon="6.75460529">
<ele>77</ele>
<time>2011-10-01T12:26:48Z</time>
</trkpt>
<trkpt lat="51.20112198" lon="6.75425727">
<ele>79.5</ele>
<time>2011-10-01T12:26:52Z</time>
</trkpt>
<trkpt lat="51.20110346" lon="6.75389844">
<ele>81</ele>
<time>2011-10-01T12:26:56Z</time>
</trkpt>
<trkpt lat="51.20107945" lon="6.75346275">
<ele>82.5</ele>
<time>2011-10-01T12:27:01Z</time>
</trkpt>
<trkpt lat="51.20104491" lon="6.75312814">
<ele>82</ele>
<time>2011-10-01T12:27:05Z</time>
</trkpt>
<trkpt lat="51.20100631" lon="6.75277845">
<ele>82</ele>
<time>2011-10-01T12:27:09Z</time>
</trkpt>
<trkpt lat="51.200959" lon="6.75243882">
<ele>82.5</ele>
<time>2011-10-01T12:27:13Z</time>
</trkpt>
<trkpt lat="51.20090154" lon="6.75209952">
<ele>81.5</ele>
<time>2011-10-01T12:27:17Z</time>
</trkpt>
<trkpt lat="51.2008378" lon="6.751781">
<ele>80.5</ele>
<time>2011-10-01T12:27:21Z</time>
</trkpt>
<trkpt lat="51.20076982" lon="6.75146132">
<ele>0</ele>
<time>2011-10-01T12:27:25Z</time>
</trkpt>
<trkpt lat="51.20069266" lon="6.75113727">
<ele>0</ele>
<time>2011-10-01T12:27:29Z</time>
</trkpt>
<trkpt lat="51.20057284" lon="6.75082421">
<ele>78</ele>
<time>2011-10-01T12:27:33Z</time>
</trkpt>
<trkpt lat="51.20048743" lon="6.75048231">
<ele>76.5</ele>
<time>2011-10-01T12:27:37Z</time>
</trkpt>
<trkpt lat="51.20039523" lon="6.75013932">
<ele>75.5</ele>
<time>2011-10-01T12:27:41Z</time>
</trkpt>
<trkpt lat="51.2003128" lon="6.74980841">
<ele>75</ele>
<time>2011-10-01T12:27:45Z</time>
</trkpt>
<trkpt lat="51.20022738" lon="6.74947824">
<ele>74.5</ele>
<time>2011-10-01T12:27:49Z</time>
</trkpt>
<trkpt lat="51.20015065" lon="6.74915571">
<ele>0</ele>
<time>2011-10-01T12:27:53Z</time>
</trkpt>
<trkpt lat="51.200067" lon="6.74884046">
<ele>0</ele>
<time>2011-10-01T12:27:57Z</time>
</trkpt>
<trkpt lat="51.19998703" lon="6.74851608">
<ele>73.5</ele>
<time>2011-10-01T12:28:01Z</time>
</trkpt>
<trkpt lat="51.1999025" lon="6.74819774">
<ele>74</ele>
<time>2011-10-01T12:28:05Z</time>
</trkpt>
<trkpt lat="51.19982455" lon="6.74788141">
<ele>73</ele>
<time>2011-10-01T12:28:09Z</time>
</trkpt>
<trkpt lat="51.19974123" lon="6.74756926">
<ele>71.5</ele>
<time>2011-10-01T12:28:13Z</time>
</trkpt>
<trkpt lat="51.19965415" lon="6.74724656">
<ele>71</ele>
<time>2011-10-01T12:28:17Z</time>
</trkpt>
<trkpt lat="51.19957204" lon="6.74691858">
<ele>71</ele>
<time>2011-10-01T12:28:21Z</time>
</trkpt>
<trkpt lat="51.19948944" lon="6.74658959">
<ele>0</ele>
<time>2011-10-01T12:28:25Z</time>
</trkpt>
<trkpt lat="51.19939724" lon="6.74624979">
<ele>69.5</ele>
<time>2011-10-01T12:28:29Z</time>
</trkpt>
<trkpt lat="51.19932637" lon="6.74581619">
<ele>70</ele>
<time>2011-10-01T12:28:34Z</time>
</trkpt>
<trkpt lat="51.19924813" lon="6.74550153">
<ele>69.5</ele>
<time>2011-10-01T12:28:38Z</time>
</trkpt>
<trkpt lat="51.19917709" lon="6.74518562">
<ele>70</ele>
<time>2011-10-01T12:28:42Z</time>
</trkpt>
<trkpt lat="51.19912282" lon="6.74484288">
<ele>71.5</ele>
<time>2011-10-01T12:28:46Z</time>
</trkpt>
<trkpt lat="51.19905886" lon="6.7446092">
<ele>73</ele>
<time>2011-10-01T12:28:50Z</time>
</trkpt>
<trkpt lat="51.19897538" lon="6.74435019">
<ele>73.5</ele>
<time>2011-10-01T12:28:54Z</time>
</trkpt>
<trkpt lat="51.19891888" lon="6.74402808">
<ele>73.5</ele>
<time>2011-10-01T12:28:58Z</time>
</trkpt>
<trkpt lat="51.19885388" lon="6.74369289">
<ele>73</ele>
<time>2011-10-01T12:29:02Z</time>
</trkpt>
<trkpt lat="51.19879425" lon="6.74337898">
<ele>71.5</ele>
<time>2011-10-01T12:29:06Z</time>
</trkpt>
<trkpt lat="51.19874521" lon="6.74306952">
<ele>70.5</ele>
<time>2011-10-01T12:29:10Z</time>
</trkpt>
<trkpt lat="51.19870686" lon="6.74275311">
<ele>0</ele>
<time>2011-10-01T12:29:14Z</time>
</trkpt>
<trkpt lat="51.19867262" lon="6.74243677">
<ele>0</ele>
<time>2011-10-01T12:29:18Z</time>
</trkpt>
<trkpt lat="51.19862908" lon="6.74213268">
<ele>69</ele>
<time>2011-10-01T12:29:22Z</time>
</trkpt>
<trkpt lat="51.19860104" lon="6.74181291">
<ele>68.5</ele>
<time>2011-10-01T12:29:26Z</time>
</trkpt>
<trkpt lat="51.19858147" lon="6.74147654">
<ele>67.5</ele>
<time>2011-10-01T12:29:30Z</time>
</trkpt>
<trkpt lat="51.19855943" lon="6.74115552">
<ele>65</ele>
<time>2011-10-01T12:29:34Z</time>
</trkpt>
<trkpt lat="51.1985435" lon="6.74084111">
<ele>62</ele>
<time>2011-10-01T12:29:38Z</time>
</trkpt>
<trkpt lat="51.19852376" lon="6.74051145">
<ele>62.5</ele>
<time>2011-10-01T12:29:42Z</time>
</trkpt>
<trkpt lat="51.19850675" lon="6.74018933">
<ele>63</ele>
<time>2011-10-01T12:29:46Z</time>
</trkpt>
<trkpt lat="51.19849568" lon="6.73986621">
<ele>62.5</ele>
<time>2011-10-01T12:29:50Z</time>
</trkpt>
<trkpt lat="51.19848533" lon="6.73951585">
<ele>63.5</ele>
<time>2011-10-01T12:29:54Z</time>
</trkpt>
<trkpt lat="51.19847406" lon="6.73919625">
<ele>64.5</ele>
<time>2011-10-01T12:29:58Z</time>
</trkpt>
<trkpt lat="51.19847607" lon="6.73881923">
<ele>64.5</ele>
<time>2011-10-01T12:30:03Z</time>
</trkpt>
<trkpt lat="51.19848412" lon="6.73854061">
<ele>63</ele>
<time>2011-10-01T12:30:07Z</time>
</trkpt>
<trkpt lat="51.19849095" lon="6.73823786">
<ele>63.5</ele>
<time>2011-10-01T12:30:11Z</time>
</trkpt>
<trkpt lat="51.19850059" lon="6.73793552">
<ele>63.5</ele>
<time>2011-10-01T12:30:15Z</time>
</trkpt>
<trkpt lat="51.19849975" lon="6.73763847">
<ele>0</ele>
<time>2011-10-01T12:30:19Z</time>
</trkpt>
<trkpt lat="51.19851639" lon="6.7373353">
<ele>66.5</ele>
<time>2011-10-01T12:30:23Z</time>
</trkpt>
<trkpt lat="51.19852716" lon="6.73704386">
<ele>66.5</ele>
<time>2011-10-01T12:30:27Z</time>
</trkpt>
<trkpt lat="51.19854023" lon="6.73674705">
<ele>68.5</ele>
<time>2011-10-01T12:30:31Z</time>
</trkpt>
<trkpt lat="51.19857032" lon="6.73645042">
<ele>69</ele>
<time>2011-10-01T12:30:35Z</time>
</trkpt>
<trkpt lat="51.19858063" lon="6.73613098">
<ele>71.5</ele>
<time>2011-10-01T12:30:39Z</time>
</trkpt>
<trkpt lat="51.19859304" lon="6.73582479">
<ele>75</ele>
<time>2011-10-01T12:30:43Z</time>
</trkpt>
<trkpt lat="51.1986072" lon="6.73552464">
<ele>78</ele>
<time>2011-10-01T12:30:47Z</time>
</trkpt>
<trkpt lat="51.19862447" lon="6.73523278">
<ele>81</ele>
<time>2011-10-01T12:30:51Z</time>
</trkpt>
<trkpt lat="51.19864144" lon="6.73494712">
<ele>82</ele>
<time>2011-10-01T12:30:55Z</time>
</trkpt>
<trkpt lat="51.19865628" lon="6.73466147">
<ele>84</ele>
<time>2011-10-01T12:30:59Z</time>
</trkpt>
<trkpt lat="51.19867107" lon="6.73437238">
<ele>85</ele>
<time>2011-10-01T12:31:03Z</time>
</trkpt>
<trkpt lat="51.19868595" lon="6.73409351">
<ele>85.5</ele>
<time>2011-10-01T12:31:07Z</time>
</trkpt>
<trkpt lat="51.19870221" lon="6.73381289">
<ele>86.5</ele>
<time>2011-10-01T12:31:11Z</time>
</trkpt>
<trkpt lat="51.19871361" lon="6.73353067">
<ele>87.5</ele>
<time>2011-10-01T12:31:15Z</time>
</trkpt>
<trkpt lat="51.19872786" lon="6.73324669">
<ele>88.5</ele>
<time>2011-10-01T12:31:19Z</time>
</trkpt>
<trkpt lat="51.19874307" lon="6.7329648">
<ele>89.5</ele>
<time>2011-10-01T12:31:23Z</time>
</trkpt>
<trkpt lat="51.19876026" lon="6.73268594">
<ele>91</ele>
<time>2011-10-01T12:31:27Z</time>
</trkpt>
<trkpt lat="51.19876751" lon="6.73239802">
<ele>92.5</ele>
<time>2011-10-01T12:31:31Z</time>
</trkpt>
<trkpt lat="51.19878704" lon="6.73211605">
<ele>92.5</ele>
<time>2011-10-01T12:31:35Z</time>
</trkpt>
<trkpt lat="51.19880166" lon="6.73183073">
<ele>93.5</ele>
<time>2011-10-01T12:31:39Z</time>
</trkpt>
<trkpt lat="51.19881985" lon="6.73154172">
<ele>93.5</ele>
<time>2011-10-01T12:31:43Z</time>
</trkpt>
<trkpt lat="51.19883431" lon="6.73123897">
<ele>94</ele>
<time>2011-10-01T12:31:47Z</time>
</trkpt>
<trkpt lat="51.19885204" lon="6.73092406">
<ele>94.5</ele>
<time>2011-10-01T12:31:51Z</time>
</trkpt>
<trkpt lat="51.19887077" lon="6.73060999">
<ele>0</ele>
<time>2011-10-01T12:31:55Z</time>
</trkpt>
<trkpt lat="51.19889076" lon="6.73029374">
<ele>0</ele>
<time>2011-10-01T12:31:59Z</time>
</trkpt>
<trkpt lat="51.19890832" lon="6.72998034">
<ele>95.5</ele>
<time>2011-10-01T12:32:03Z</time>
</trkpt>
<trkpt lat="51.19892601" lon="6.72965303">
<ele>0</ele>
<time>2011-10-01T12:32:07Z</time>
</trkpt>
<trkpt lat="51.19894747" lon="6.7292973">
<ele>0</ele>
<time>2011-10-01T12:32:11Z</time>
</trkpt>
<trkpt lat="51.19896226" lon="6.72892448">
<ele>95.5</ele>
<time>2011-10-01T12:32:15Z</time>
</trkpt>
<trkpt lat="51.1989882" lon="6.72855291">
<ele>95</ele>
<time>2011-10-01T12:32:19Z</time>
</trkpt>
<trkpt lat="51.19900715" lon="6.72818427">
<ele>94.5</ele>
<time>2011-10-01T12:32:23Z</time>
</trkpt>
<trkpt lat="51.19902974" lon="6.72781848">
<ele>94</ele>
<time>2011-10-01T12:32:27Z</time>
</trkpt>
<trkpt lat="51.19905312" lon="6.72745957">
<ele>94</ele>
<time>2011-10-01T12:32:31Z</time>
</trkpt>
<trkpt lat="51.19907303" lon="6.72711466">
<ele>0</ele>
<time>2011-10-01T12:32:35Z</time>
</trkpt>
<trkpt lat="51.19909373" lon="6.72677041">
<ele>94</ele>
<time>2011-10-01T12:32:39Z</time>
</trkpt>
<trkpt lat="51.19911167" lon="6.72642709">
<ele>93</ele>
<time>2011-10-01T12:32:43Z</time>
</trkpt>
<trkpt lat="51.19913392" lon="6.72609298">
<ele>92.5</ele>
<time>2011-10-01T12:32:47Z</time>
</trkpt>
<trkpt lat="51.19915982" lon="6.72576366">
<ele>92</ele>
<time>2011-10-01T12:32:51Z</time>
</trkpt>
<trkpt lat="51.1991739" lon="6.72550122">
<ele>91.5</ele>
<time>2011-10-01T12:32:55Z</time>
</trkpt>
<trkpt lat="51.19918715" lon="6.72527365">
<ele>0</ele>
<time>2011-10-01T12:32:59Z</time>
</trkpt>
<trkpt lat="51.19920718" lon="6.72502337">
<ele>0</ele>
<time>2011-10-01T12:33:04Z</time>
</trkpt>
<trkpt lat="51.19923836" lon="6.72482899">
<ele>89</ele>
<time>2011-10-01T12:33:08Z</time>
</trkpt>
<trkpt lat="51.19925613" lon="6.72479806">
<ele>88</ele>
<time>2011-10-01T12:33:12Z</time>
</trkpt>
<trkpt lat="51.19925919" lon="6.72482103">
<ele>88.5</ele>
<time>2011-10-01T12:33:16Z</time>
</trkpt>
<trkpt lat="51.19927457" lon="6.72487409">
<ele>0</ele>
<time>2011-10-01T12:33:20Z</time>
</trkpt>
<trkpt lat="51.19928358" lon="6.72494617">
<ele>0</ele>
<time>2011-10-01T12:33:24Z</time>
</trkpt>
<trkpt lat="51.19928668" lon="6.72499814">
<ele>88</ele>
<time>2011-10-01T12:33:28Z</time>
</trkpt>
<trkpt lat="51.1992933" lon="6.72505162">
<ele>87.5</ele>
<time>2011-10-01T12:33:32Z</time>
</trkpt>
<trkpt lat="51.19929984" lon="6.72511146">
<ele>86</ele>
<time>2011-10-01T12:33:36Z</time>
</trkpt>
<trkpt lat="51.19929163" lon="6.72516108">
<ele>86.5</ele>
<time>2011-10-01T12:33:40Z</time>
</trkpt>
<trkpt lat="51.19928232" lon="6.72518221">
<ele>87</ele>
<time>2011-10-01T12:33:44Z</time>
</trkpt>
<trkpt lat="51.199277" lon="6.7251926">
<ele>88</ele>
<time>2011-10-01T12:33:48Z</time>
</trkpt>
<trkpt lat="51.1992713" lon="6.72518807">
<ele>88.5</ele>
<time>2011-10-01T12:33:52Z</time>
</trkpt>
<trkpt lat="51.19927411" lon="6.72520123">
<ele>92</ele>
<time>2011-10-01T12:33:56Z</time>
</trkpt>
<trkpt lat="51.19926388" lon="6.72522445">
<ele>93</ele>
<time>2011-10-01T12:34:00Z</time>
</trkpt>
<trkpt lat="51.19925475" lon="6.72523652">
<ele>94</ele>
<time>2011-10-01T12:34:04Z</time>
</trkpt>
<trkpt lat="51.19923295" lon="6.72526225">
<ele>94.5</ele>
<time>2011-10-01T12:34:08Z</time>
</trkpt>
<trkpt lat="51.19921749" lon="6.72527575">
<ele>95.5</ele>
<time>2011-10-01T12:34:12Z</time>
</trkpt>
<trkpt lat="51.19917772" lon="6.72528656">
<ele>95.5</ele>
<time>2011-10-01T12:34:16Z</time>
</trkpt>
<trkpt lat="51.19911594" lon="6.72530743">
<ele>94</ele>
<time>2011-10-01T12:34:20Z</time>
</trkpt>
<trkpt lat="51.19907043" lon="6.72533384">
<ele>92.5</ele>
<time>2011-10-01T12:34:24Z</time>
</trkpt>
<trkpt lat="51.19888582" lon="6.72535999">
<ele>94</ele>
<time>2011-10-01T12:34:28Z</time>
</trkpt>
<trkpt lat="51.19868507" lon="6.72543542">
<ele>98</ele>
<time>2011-10-01T12:34:32Z</time>
</trkpt>
<trkpt lat="51.19845834" lon="6.72551765">
<ele>99</ele>
<time>2011-10-01T12:34:37Z</time>
</trkpt>
<trkpt lat="51.19827339" lon="6.7255687">
<ele>100</ele>
<time>2011-10-01T12:34:41Z</time>
</trkpt>
<trkpt lat="51.19806728" lon="6.72559887">
<ele>100</ele>
<time>2011-10-01T12:34:45Z</time>
</trkpt>
<trkpt lat="51.19787752" lon="6.72563793">
<ele>0</ele>
<time>2011-10-01T12:34:49Z</time>
</trkpt>
<trkpt lat="51.19771575" lon="6.72568914">
<ele>94.5</ele>
<time>2011-10-01T12:34:53Z</time>
</trkpt>
<trkpt lat="51.19755548" lon="6.7257215">
<ele>94</ele>
<time>2011-10-01T12:34:57Z</time>
</trkpt>
<trkpt lat="51.19738843" lon="6.72574623">
<ele>93.5</ele>
<time>2011-10-01T12:35:01Z</time>
</trkpt>
<trkpt lat="51.19722947" lon="6.72576777">
<ele>92.5</ele>
<time>2011-10-01T12:35:05Z</time>
</trkpt>
<trkpt lat="51.19707977" lon="6.72577447">
<ele>92</ele>
<time>2011-10-01T12:35:09Z</time>
</trkpt>
<trkpt lat="51.1969737" lon="6.7258101">
<ele>92</ele>
<time>2011-10-01T12:35:13Z</time>
</trkpt>
<trkpt lat="51.19693786" lon="6.72583717">
<ele>0</ele>
<time>2011-10-01T12:35:17Z</time>
</trkpt>
<trkpt lat="51.19692722" lon="6.72583248">
<ele>92.5</ele>
<time>2011-10-01T12:35:21Z</time>
</trkpt>
<trkpt lat="51.19686234" lon="6.72579761">
<ele>92.5</ele>
<time>2011-10-01T12:35:25Z</time>
</trkpt>
<trkpt lat="51.19675208" lon="6.72580507">
<ele>0</ele>
<time>2011-10-01T12:35:29Z</time>
</trkpt>
<trkpt lat="51.19664538" lon="6.72581278">
<ele>92.5</ele>
<time>2011-10-01T12:35:33Z</time>
</trkpt>
<trkpt lat="51.19652983" lon="6.72582636">
<ele>91.5</ele>
<time>2011-10-01T12:35:37Z</time>
</trkpt>
<trkpt lat="51.19642967" lon="6.72585066">
<ele>90.5</ele>
<time>2011-10-01T12:35:41Z</time>
</trkpt>
<trkpt lat="51.19639899" lon="6.72589375">
<ele>89.5</ele>
<time>2011-10-01T12:35:45Z</time>
</trkpt>
<trkpt lat="51.19640721" lon="6.72589961">
<ele>88</ele>
<time>2011-10-01T12:35:49Z</time>
</trkpt>
<trkpt lat="51.19641123" lon="6.72590288">
<ele>87.5</ele>
<time>2011-10-01T12:35:53Z</time>
</trkpt>
<trkpt lat="51.19641446" lon="6.72590917">
<ele>87.5</ele>
<time>2011-10-01T12:35:57Z</time>
</trkpt>
<trkpt lat="51.196422" lon="6.72591277">
<ele>0</ele>
<time>2011-10-01T12:36:01Z</time>
</trkpt>
<trkpt lat="51.19642397" lon="6.7259152">
<ele>87.5</ele>
<time>2011-10-01T12:36:06Z</time>
</trkpt>
<trkpt lat="51.19642799" lon="6.72591328">
<ele>0</ele>
<time>2011-10-01T12:36:10Z</time>
</trkpt>
<trkpt lat="51.19642778" lon="6.7259173">
<ele>0</ele>
<time>2011-10-01T12:36:14Z</time>
</trkpt>
<trkpt lat="51.19642254" lon="6.72592116">
<ele>89.5</ele>
<time>2011-10-01T12:36:18Z</time>
</trkpt>
<trkpt lat="51.19641446" lon="6.72592484">
<ele>90.5</ele>
<time>2011-10-01T12:36:22Z</time>
</trkpt>
<trkpt lat="51.19642062" lon="6.72593163">
<ele>90</ele>
<time>2011-10-01T12:36:26Z</time>
</trkpt>
<trkpt lat="51.19642464" lon="6.72592987">
<ele>89.5</ele>
<time>2011-10-01T12:36:30Z</time>
</trkpt>
<trkpt lat="51.1964277" lon="6.72593121">
<ele>89</ele>
<time>2011-10-01T12:36:34Z</time>
</trkpt>
<trkpt lat="51.1964243" lon="6.72592795">
<ele>89</ele>
<time>2011-10-01T12:36:38Z</time>
</trkpt>
<trkpt lat="51.19642037" lon="6.72592241">
<ele>89.5</ele>
<time>2011-10-01T12:36:42Z</time>
</trkpt>
<trkpt lat="51.19642053" lon="6.72591881">
<ele>89</ele>
<time>2011-10-01T12:36:46Z</time>
</trkpt>
<trkpt lat="51.19642028" lon="6.72591655">
<ele>88.5</ele>
<time>2011-10-01T12:36:50Z</time>
</trkpt>
<trkpt lat="51.19642644" lon="6.72591864">
<ele>0</ele>
<time>2011-10-01T12:36:54Z</time>
</trkpt>
<trkpt lat="51.19643067" lon="6.72591956">
<ele>0</ele>
<time>2011-10-01T12:36:58Z</time>
</trkpt>
<trkpt lat="51.19643461" lon="6.72592367">
<ele>88</ele>
<time>2011-10-01T12:37:02Z</time>
</trkpt>
<trkpt lat="51.19643528" lon="6.7259251">
<ele>0</ele>
<time>2011-10-01T12:37:06Z</time>
</trkpt>
<trkpt lat="51.19643621" lon="6.72592753">
<ele>88.5</ele>
<time>2011-10-01T12:37:09Z</time>
</trkpt>
<trkpt lat="51.19643512" lon="6.72593138">
<ele>89</ele>
<time>2011-10-01T12:37:13Z</time>
</trkpt>
<trkpt lat="51.19643608" lon="6.72593423">
<ele>0</ele>
<time>2011-10-01T12:37:17Z</time>
</trkpt>
<trkpt lat="51.19643348" lon="6.72592996">
<ele>0</ele>
<time>2011-10-01T12:37:21Z</time>
</trkpt>
<trkpt lat="51.19643118" lon="6.72593021">
<ele>89.5</ele>
<time>2011-10-01T12:37:25Z</time>
</trkpt>
<trkpt lat="51.19642803" lon="6.72593264">
<ele>0</ele>
<time>2011-10-01T12:37:29Z</time>
</trkpt>
<trkpt lat="51.19642732" lon="6.72593281">
<ele>0</ele>
<time>2011-10-01T12:37:33Z</time>
</trkpt>
<trkpt lat="51.19642996" lon="6.72593205">
<ele>90</ele>
<time>2011-10-01T12:37:38Z</time>
</trkpt>
<trkpt lat="51.19643143" lon="6.72592845">
<ele>0</ele>
<time>2011-10-01T12:37:42Z</time>
</trkpt>
<trkpt lat="51.19643294" lon="6.72592459">
<ele>89</ele>
<time>2011-10-01T12:37:46Z</time>
</trkpt>
<trkpt lat="51.19643738" lon="6.72591948">
<ele>88.5</ele>
<time>2011-10-01T12:37:50Z</time>
</trkpt>
<trkpt lat="51.1964401" lon="6.72591722">
<ele>88</ele>
<time>2011-10-01T12:37:54Z</time>
</trkpt>
<trkpt lat="51.1964396" lon="6.72591747">
<ele>88</ele>
<time>2011-10-01T12:37:58Z</time>
</trkpt>
<trkpt lat="51.19643931" lon="6.72592074">
<ele>87.5</ele>
<time>2011-10-01T12:38:02Z</time>
</trkpt>
<trkpt lat="51.19643956" lon="6.72592141">
<ele>87.5</ele>
<time>2011-10-01T12:38:06Z</time>
</trkpt>
<trkpt lat="51.1964339" lon="6.7259308">
<ele>87</ele>
<time>2011-10-01T12:38:10Z</time>
</trkpt>
<trkpt lat="51.19643097" lon="6.72593951">
<ele>86.5</ele>
<time>2011-10-01T12:38:14Z</time>
</trkpt>
<trkpt lat="51.19642674" lon="6.72594119">
<ele>86.5</ele>
<time>2011-10-01T12:38:18Z</time>
</trkpt>
<trkpt lat="51.19642715" lon="6.72593499">
<ele>86</ele>
<time>2011-10-01T12:38:22Z</time>
</trkpt>
<trkpt lat="51.19642565" lon="6.72593515">
<ele>86</ele>
<time>2011-10-01T12:38:26Z</time>
</trkpt>
<trkpt lat="51.19642359" lon="6.72593289">
<ele>0</ele>
<time>2011-10-01T12:38:30Z</time>
</trkpt>
<trkpt lat="51.19642426" lon="6.72592929">
<ele>0</ele>
<time>2011-10-01T12:38:34Z</time>
</trkpt>
<trkpt lat="51.19642183" lon="6.72592786">
<ele>86</ele>
<time>2011-10-01T12:38:38Z</time>
</trkpt>
<trkpt lat="51.1964207" lon="6.72592459">
<ele>0</ele>
<time>2011-10-01T12:38:42Z</time>
</trkpt>
<trkpt lat="51.19642125" lon="6.72592417">
<ele>0</ele>
<time>2011-10-01T12:38:46Z</time>
</trkpt>
<trkpt lat="51.19642091" lon="6.72592359">
<ele>87.5</ele>
<time>2011-10-01T12:38:50Z</time>
</trkpt>
<trkpt lat="51.19642041" lon="6.72592409">
<ele>88</ele>
<time>2011-10-01T12:38:54Z</time>
</trkpt>
<trkpt lat="51.19641806" lon="6.72592778">
<ele>88</ele>
<time>2011-10-01T12:38:58Z</time>
</trkpt>
<trkpt lat="51.19641789" lon="6.72592585">
<ele>0</ele>
<time>2011-10-01T12:39:02Z</time>
</trkpt>
<trkpt lat="51.19641898" lon="6.72592283">
<ele>87.5</ele>
<time>2011-10-01T12:39:06Z</time>
</trkpt>
<trkpt lat="51.19642171" lon="6.72591973">
<ele>0</ele>
<time>2011-10-01T12:39:11Z</time>
</trkpt>
<trkpt lat="51.19642204" lon="6.72592392">
<ele>0</ele>
<time>2011-10-01T12:39:15Z</time>
</trkpt>
<trkpt lat="51.19642317" lon="6.72592669">
<ele>87</ele>
<time>2011-10-01T12:39:19Z</time>
</trkpt>
<trkpt lat="51.1964259" lon="6.7259266">
<ele>87</ele>
<time>2011-10-01T12:39:23Z</time>
</trkpt>
<trkpt lat="51.19642653" lon="6.7259251">
<ele>0</ele>
<time>2011-10-01T12:39:27Z</time>
</trkpt>
<trkpt lat="51.19642468" lon="6.72592216">
<ele>86.5</ele>
<time>2011-10-01T12:39:31Z</time>
</trkpt>
<trkpt lat="51.19642145" lon="6.72592359">
<ele>86.5</ele>
<time>2011-10-01T12:39:35Z</time>
</trkpt>
<trkpt lat="51.1964184" lon="6.72592627">
<ele>0</ele>
<time>2011-10-01T12:39:39Z</time>
</trkpt>
<trkpt lat="51.19641534" lon="6.72592945">
<ele>86</ele>
<time>2011-10-01T12:39:43Z</time>
</trkpt>
<trkpt lat="51.19641446" lon="6.72593029">
<ele>86</ele>
<time>2011-10-01T12:39:47Z</time>
</trkpt>
<trkpt lat="51.19641575" lon="6.7259292">
<ele>0</ele>
<time>2011-10-01T12:39:51Z</time>
</trkpt>
<trkpt lat="51.19641856" lon="6.7259287">
<ele>0</ele>
<time>2011-10-01T12:39:55Z</time>
</trkpt>
<trkpt lat="51.19642099" lon="6.7259266">
<ele>85</ele>
<time>2011-10-01T12:39:59Z</time>
</trkpt>
<trkpt lat="51.19642288" lon="6.72592711">
<ele>0</ele>
<time>2011-10-01T12:40:03Z</time>
</trkpt>
<trkpt lat="51.19642313" lon="6.72593012">
<ele>0</ele>
<time>2011-10-01T12:40:07Z</time>
</trkpt>
<trkpt lat="51.19642263" lon="6.72593499">
<ele>85</ele>
<time>2011-10-01T12:40:11Z</time>
</trkpt>
<trkpt lat="51.19642288" lon="6.72594211">
<ele>0</ele>
<time>2011-10-01T12:40:15Z</time>
</trkpt>
<trkpt lat="51.1964225" lon="6.72594764">
<ele>85</ele>
<time>2011-10-01T12:40:19Z</time>
</trkpt>
<trkpt lat="51.19642233" lon="6.72595326">
<ele>84.5</ele>
<time>2011-10-01T12:40:23Z</time>
</trkpt>
<trkpt lat="51.19642271" lon="6.7259577">
<ele>84.5</ele>
<time>2011-10-01T12:40:27Z</time>
</trkpt>
<trkpt lat="51.19642166" lon="6.7259598">
<ele>0</ele>
<time>2011-10-01T12:40:31Z</time>
</trkpt>
<trkpt lat="51.19642292" lon="6.72595963">
<ele>84.5</ele>
<time>2011-10-01T12:40:35Z</time>
</trkpt>
<trkpt lat="51.1964228" lon="6.7259582">
<ele>84.5</ele>
<time>2011-10-01T12:40:40Z</time>
</trkpt>
<trkpt lat="51.19642313" lon="6.72595653">
<ele>0</ele>
<time>2011-10-01T12:40:44Z</time>
</trkpt>
<trkpt lat="51.19642305" lon="6.72595519">
<ele>84.5</ele>
<time>2011-10-01T12:40:48Z</time>
</trkpt>
<trkpt lat="51.1964228" lon="6.72595276">
<ele>0</ele>
<time>2011-10-01T12:40:52Z</time>
</trkpt>
<trkpt lat="51.19637372" lon="6.72588914">
<ele>0</ele>
<time>2011-10-01T12:40:56Z</time>
</trkpt>
<trkpt lat="51.19634225" lon="6.72591018">
<ele>82.5</ele>
<time>2011-10-01T12:41:00Z</time>
</trkpt>
<trkpt lat="51.19631597" lon="6.72591085">
<ele>82.5</ele>
<time>2011-10-01T12:41:04Z</time>
</trkpt>
<trkpt lat="51.19628181" lon="6.72590959">
<ele>0</ele>
<time>2011-10-01T12:41:08Z</time>
</trkpt>
<trkpt lat="51.19619728" lon="6.72592929">
<ele>81.5</ele>
<time>2011-10-01T12:41:12Z</time>
</trkpt>
<trkpt lat="51.19609661" lon="6.72593926">
<ele>80</ele>
<time>2011-10-01T12:41:16Z</time>
</trkpt>
<trkpt lat="51.19599666" lon="6.72594043">
<ele>79</ele>
<time>2011-10-01T12:41:20Z</time>
</trkpt>
<trkpt lat="51.19593271" lon="6.72594463">
<ele>77.5</ele>
<time>2011-10-01T12:41:24Z</time>
</trkpt>
<trkpt lat="51.19592001" lon="6.72594169">
<ele>78</ele>
<time>2011-10-01T12:41:28Z</time>
</trkpt>
<trkpt lat="51.1958895" lon="6.72594764">
<ele>79</ele>
<time>2011-10-01T12:41:32Z</time>
</trkpt>
<trkpt lat="51.1957882" lon="6.72595133">
<ele>77</ele>
<time>2011-10-01T12:41:36Z</time>
</trkpt>
<trkpt lat="51.19562404" lon="6.72595711">
<ele>76.5</ele>
<time>2011-10-01T12:41:40Z</time>
</trkpt>
<trkpt lat="51.19545443" lon="6.72596164">
<ele>75.5</ele>
<time>2011-10-01T12:41:44Z</time>
</trkpt>
<trkpt lat="51.1952821" lon="6.72597874">
<ele>0</ele>
<time>2011-10-01T12:41:48Z</time>
</trkpt>
<trkpt lat="51.19510185" lon="6.72598444">
<ele>0</ele>
<time>2011-10-01T12:41:52Z</time>
</trkpt>
<trkpt lat="51.1949195" lon="6.7259945">
<ele>75</ele>
<time>2011-10-01T12:41:56Z</time>
</trkpt>
<trkpt lat="51.19473841" lon="6.72599978">
<ele>0</ele>
<time>2011-10-01T12:42:00Z</time>
</trkpt>
<trkpt lat="51.19456612" lon="6.7260116">
<ele>0</ele>
<time>2011-10-01T12:42:04Z</time>
</trkpt>
<trkpt lat="51.19439446" lon="6.7260142">
<ele>73.5</ele>
<time>2011-10-01T12:42:08Z</time>
</trkpt>
<trkpt lat="51.19419044" lon="6.72602216">
<ele>0</ele>
<time>2011-10-01T12:42:13Z</time>
</trkpt>
<trkpt lat="51.19404355" lon="6.72603012">
<ele>72.5</ele>
<time>2011-10-01T12:42:17Z</time>
</trkpt>
<trkpt lat="51.19398023" lon="6.72609449">
<ele>72.5</ele>
<time>2011-10-01T12:42:21Z</time>
</trkpt>
<trkpt lat="51.1939568" lon="6.7260903">
<ele>0</ele>
<time>2011-10-01T12:42:25Z</time>
</trkpt>
<trkpt lat="51.19394259" lon="6.72608276">
<ele>73</ele>
<time>2011-10-01T12:42:29Z</time>
</trkpt>
<trkpt lat="51.19392646" lon="6.72607924">
<ele>74.5</ele>
<time>2011-10-01T12:42:33Z</time>
</trkpt>
<trkpt lat="51.19391975" lon="6.7260784">
<ele>75</ele>
<time>2011-10-01T12:42:37Z</time>
</trkpt>
<trkpt lat="51.19391531" lon="6.72607371">
<ele>75.5</ele>
<time>2011-10-01T12:42:41Z</time>
</trkpt>
<trkpt lat="51.19391275" lon="6.72607069">
<ele>0</ele>
<time>2011-10-01T12:42:45Z</time>
</trkpt>
<trkpt lat="51.19390374" lon="6.72606859">
<ele>0</ele>
<time>2011-10-01T12:42:49Z</time>
</trkpt>
<trkpt lat="51.19390521" lon="6.7260618">
<ele>76.5</ele>
<time>2011-10-01T12:42:53Z</time>
</trkpt>
<trkpt lat="51.19390517" lon="6.72605979">
<ele>0</ele>
<time>2011-10-01T12:42:57Z</time>
</trkpt>
<trkpt lat="51.19390441" lon="6.72605962">
<ele>0</ele>
<time>2011-10-01T12:43:00Z</time>
</trkpt>
<trkpt lat="51.19390449" lon="6.72605904">
<ele>0</ele>
<time>2011-10-01T12:43:02Z</time>
</trkpt>
<trkpt lat="51.19390424" lon="6.72605921">
<ele>77</ele>
<time>2011-10-01T12:43:04Z</time>
</trkpt>
<trkpt lat="51.19390399" lon="6.7260587">
<ele>77</ele>
<time>2011-10-01T12:43:06Z</time>
</trkpt>
<trkpt lat="51.19390391" lon="6.72605803">
<ele>0</ele>
<time>2011-10-01T12:43:08Z</time>
</trkpt>
<trkpt lat="51.19390311" lon="6.72605837">
<ele>0</ele>
<time>2011-10-01T12:43:10Z</time>
</trkpt>
<trkpt lat="51.19390194" lon="6.72605845">
<ele>0</ele>
<time>2011-10-01T12:43:12Z</time>
</trkpt>
<trkpt lat="51.19390081" lon="6.72605803">
<ele>77</ele>
<time>2011-10-01T12:43:14Z</time>
</trkpt>
<trkpt lat="51.19389972" lon="6.72605803">
<ele>77</ele>
<time>2011-10-01T12:43:17Z</time>
</trkpt>
<trkpt lat="51.19389817" lon="6.72605862">
<ele>0</ele>
<time>2011-10-01T12:43:19Z</time>
</trkpt>
<trkpt lat="51.19389817" lon="6.72605862">
<ele>0</ele>
<time>2011-10-01T12:43:20Z</time>
</trkpt>
<trkpt lat="51.19388731" lon="6.72602828">
<ele>0</ele>
<time>2011-10-01T12:48:57Z</time>
</trkpt>
<trkpt lat="51.19388731" lon="6.72602828">
<ele>0</ele>
<time>2011-10-01T12:48:57Z</time>
</trkpt>
<trkpt lat="51.19388731" lon="6.72602828">
<ele>75.5</ele>
<time>2011-10-01T12:48:57Z</time>
</trkpt>
<trkpt lat="51.19388756" lon="6.72602668">
<ele>76</ele>
<time>2011-10-01T12:49:01Z</time>
</trkpt>
<trkpt lat="51.19388379" lon="6.72602543">
<ele>76.5</ele>
<time>2011-10-01T12:49:05Z</time>
</trkpt>
<trkpt lat="51.19386728" lon="6.72602233">
<ele>0</ele>
<time>2011-10-01T12:49:09Z</time>
</trkpt>
<trkpt lat="51.19385672" lon="6.72602174">
<ele>0</ele>
<time>2011-10-01T12:49:12Z</time>
</trkpt>
<trkpt lat="51.19385181" lon="6.7260214">
<ele>72</ele>
<time>2011-10-01T12:49:16Z</time>
</trkpt>
<trkpt lat="51.19385332" lon="6.72601939">
<ele>71</ele>
<time>2011-10-01T12:49:20Z</time>
</trkpt>
<trkpt lat="51.19384867" lon="6.72601478">
<ele>71.5</ele>
<time>2011-10-01T12:49:24Z</time>
</trkpt>
<trkpt lat="51.19384448" lon="6.72601227">
<ele>72</ele>
<time>2011-10-01T12:49:28Z</time>
</trkpt>
<trkpt lat="51.19384356" lon="6.72600833">
<ele>72.5</ele>
<time>2011-10-01T12:49:32Z</time>
</trkpt>
<trkpt lat="51.19384268" lon="6.7260095">
<ele>0</ele>
<time>2011-10-01T12:49:36Z</time>
</trkpt>
<trkpt lat="51.19384406" lon="6.72600883">
<ele>0</ele>
<time>2011-10-01T12:49:40Z</time>
</trkpt>
<trkpt lat="51.19384331" lon="6.7260095">
<ele>72.5</ele>
<time>2011-10-01T12:49:44Z</time>
</trkpt>
<trkpt lat="51.19384343" lon="6.72600917">
<ele>0</ele>
<time>2011-10-01T12:49:48Z</time>
</trkpt>
<trkpt lat="51.19384427" lon="6.72600841">
<ele>0</ele>
<time>2011-10-01T12:49:52Z</time>
</trkpt>
<trkpt lat="51.19384033" lon="6.7260183">
<ele>75</ele>
<time>2011-10-01T12:49:56Z</time>
</trkpt>
<trkpt lat="51.1938413" lon="6.72602719">
<ele>76</ele>
<time>2011-10-01T12:50:00Z</time>
</trkpt>
<trkpt lat="51.19384523" lon="6.72603196">
<ele>76.5</ele>
<time>2011-10-01T12:50:04Z</time>
</trkpt>
<trkpt lat="51.19384561" lon="6.72603213">
<ele>76.5</ele>
<time>2011-10-01T12:50:08Z</time>
</trkpt>
<trkpt lat="51.19384536" lon="6.72603188">
<ele>0</ele>
<time>2011-10-01T12:50:12Z</time>
</trkpt>
<trkpt lat="51.19384402" lon="6.72603448">
<ele>76.5</ele>
<time>2011-10-01T12:50:16Z</time>
</trkpt>
<trkpt lat="51.19384381" lon="6.72603641">
<ele>76.5</ele>
<time>2011-10-01T12:50:20Z</time>
</trkpt>
<trkpt lat="51.19384209" lon="6.72604043">
<ele>0</ele>
<time>2011-10-01T12:50:24Z</time>
</trkpt>
<trkpt lat="51.19384092" lon="6.72604269">
<ele>78</ele>
<time>2011-10-01T12:50:28Z</time>
</trkpt>
<trkpt lat="51.19384016" lon="6.72604789">
<ele>79.5</ele>
<time>2011-10-01T12:50:32Z</time>
</trkpt>
<trkpt lat="51.19384071" lon="6.72604705">
<ele>79.5</ele>
<time>2011-10-01T12:50:36Z</time>
</trkpt>
<trkpt lat="51.1938392" lon="6.72604697">
<ele>78.5</ele>
<time>2011-10-01T12:50:40Z</time>
</trkpt>
<trkpt lat="51.1938392" lon="6.72604856">
<ele>79.5</ele>
<time>2011-10-01T12:50:44Z</time>
</trkpt>
<trkpt lat="51.19383442" lon="6.72605703">
<ele>79</ele>
<time>2011-10-01T12:50:48Z</time>
</trkpt>
<trkpt lat="51.19383392" lon="6.72605309">
<ele>76.5</ele>
<time>2011-10-01T12:50:52Z</time>
</trkpt>
<trkpt lat="51.19383417" lon="6.72604378">
<ele>75</ele>
<time>2011-10-01T12:50:56Z</time>
</trkpt>
<trkpt lat="51.19382948" lon="6.72603096">
<ele>0</ele>
<time>2011-10-01T12:51:00Z</time>
</trkpt>
<trkpt lat="51.19382659" lon="6.7260328">
<ele>0</ele>
<time>2011-10-01T12:51:04Z</time>
</trkpt>
<trkpt lat="51.19382667" lon="6.7260354">
<ele>76.5</ele>
<time>2011-10-01T12:51:08Z</time>
</trkpt>
<trkpt lat="51.19382763" lon="6.72603297">
<ele>77.5</ele>
<time>2011-10-01T12:51:12Z</time>
</trkpt>
<trkpt lat="51.19373288" lon="6.72598679">
<ele>77.5</ele>
<time>2011-10-01T12:51:16Z</time>
</trkpt>
<trkpt lat="51.19362534" lon="6.72598142">
<ele>76</ele>
<time>2011-10-01T12:51:20Z</time>
</trkpt>
<trkpt lat="51.19348695" lon="6.72599265">
<ele>75</ele>
<time>2011-10-01T12:51:24Z</time>
</trkpt>
<trkpt lat="51.19334802" lon="6.72600766">
<ele>73</ele>
<time>2011-10-01T12:51:28Z</time>
</trkpt>
<trkpt lat="51.1931899" lon="6.72601487">
<ele>74</ele>
<time>2011-10-01T12:51:32Z</time>
</trkpt>
<trkpt lat="51.19304317" lon="6.72602358">
<ele>71</ele>
<time>2011-10-01T12:51:36Z</time>
</trkpt>
<trkpt lat="51.19288509" lon="6.72602015">
<ele>72.5</ele>
<time>2011-10-01T12:51:40Z</time>
</trkpt>
<trkpt lat="51.19270982" lon="6.72604253">
<ele>72</ele>
<time>2011-10-01T12:51:44Z</time>
</trkpt>
<trkpt lat="51.19254256" lon="6.72605778">
<ele>68.5</ele>
<time>2011-10-01T12:51:48Z</time>
</trkpt>
<trkpt lat="51.19234563" lon="6.72606398">
<ele>69</ele>
<time>2011-10-01T12:51:52Z</time>
</trkpt>
<trkpt lat="51.19214513" lon="6.72606952">
<ele>0</ele>
<time>2011-10-01T12:51:56Z</time>
</trkpt>
<trkpt lat="51.191943" lon="6.72607387">
<ele>0</ele>
<time>2011-10-01T12:52:00Z</time>
</trkpt>
<trkpt lat="51.19173978" lon="6.72608578">
<ele>70</ele>
<time>2011-10-01T12:52:04Z</time>
</trkpt>
<trkpt lat="51.19154931" lon="6.72610288">
<ele>0</ele>
<time>2011-10-01T12:52:08Z</time>
</trkpt>
<trkpt lat="51.19135673" lon="6.72613875">
<ele>68.5</ele>
<time>2011-10-01T12:52:12Z</time>
</trkpt>
<trkpt lat="51.19117279" lon="6.7261727">
<ele>68.5</ele>
<time>2011-10-01T12:52:16Z</time>
</trkpt>
<trkpt lat="51.19099342" lon="6.72620446">
<ele>67.5</ele>
<time>2011-10-01T12:52:20Z</time>
</trkpt>
<trkpt lat="51.19078073" lon="6.7262504">
<ele>67.5</ele>
<time>2011-10-01T12:52:24Z</time>
</trkpt>
<trkpt lat="51.19058011" lon="6.72629038">
<ele>69.5</ele>
<time>2011-10-01T12:52:28Z</time>
</trkpt>
<trkpt lat="51.19039537" lon="6.72633229">
<ele>71</ele>
<time>2011-10-01T12:52:32Z</time>
</trkpt>
<trkpt lat="51.19022052" lon="6.72639021">
<ele>70.5</ele>
<time>2011-10-01T12:52:36Z</time>
</trkpt>
<trkpt lat="51.19002413" lon="6.72645659">
<ele>70.5</ele>
<time>2011-10-01T12:52:40Z</time>
</trkpt>
<trkpt lat="51.18982125" lon="6.7265192">
<ele>71.5</ele>
<time>2011-10-01T12:52:44Z</time>
</trkpt>
<trkpt lat="51.18960144" lon="6.72659665">
<ele>74</ele>
<time>2011-10-01T12:52:48Z</time>
</trkpt>
<trkpt lat="51.18940823" lon="6.72667259">
<ele>75</ele>
<time>2011-10-01T12:52:52Z</time>
</trkpt>
<trkpt lat="51.18923037" lon="6.72675356">
<ele>76.5</ele>
<time>2011-10-01T12:52:56Z</time>
</trkpt>
<trkpt lat="51.18905343" lon="6.7268342">
<ele>79</ele>
<time>2011-10-01T12:53:00Z</time>
</trkpt>
<trkpt lat="51.1888886" lon="6.72693998">
<ele>78.5</ele>
<time>2011-10-01T12:53:04Z</time>
</trkpt>
<trkpt lat="51.18869686" lon="6.7270248">
<ele>82</ele>
<time>2011-10-01T12:53:08Z</time>
</trkpt>
<trkpt lat="51.18849444" lon="6.7271227">
<ele>83.5</ele>
<time>2011-10-01T12:53:12Z</time>
</trkpt>
<trkpt lat="51.18829281" lon="6.72723334">
<ele>84</ele>
<time>2011-10-01T12:53:16Z</time>
</trkpt>
<trkpt lat="51.18809814" lon="6.72734809">
<ele>86</ele>
<time>2011-10-01T12:53:20Z</time>
</trkpt>
<trkpt lat="51.187916" lon="6.72747558">
<ele>86.5</ele>
<time>2011-10-01T12:53:24Z</time>
</trkpt>
<trkpt lat="51.18775033" lon="6.72762486">
<ele>87.5</ele>
<time>2011-10-01T12:53:28Z</time>
</trkpt>
<trkpt lat="51.18761266" lon="6.72775067">
<ele>86.5</ele>
<time>2011-10-01T12:53:32Z</time>
</trkpt>
<trkpt lat="51.18748773" lon="6.72786668">
<ele>86</ele>
<time>2011-10-01T12:53:36Z</time>
</trkpt>
<trkpt lat="51.18736816" lon="6.72785721">
<ele>82.5</ele>
<time>2011-10-01T12:53:40Z</time>
</trkpt>
<trkpt lat="51.18731435" lon="6.7278479">
<ele>81</ele>
<time>2011-10-01T12:53:44Z</time>
</trkpt>
<trkpt lat="51.18724369" lon="6.72784614">
<ele>79</ele>
<time>2011-10-01T12:53:48Z</time>
</trkpt>
<trkpt lat="51.18717462" lon="6.72784681">
<ele>78</ele>
<time>2011-10-01T12:53:52Z</time>
</trkpt>
<trkpt lat="51.18712815" lon="6.72781739">
<ele>78.5</ele>
<time>2011-10-01T12:53:56Z</time>
</trkpt>
<trkpt lat="51.18705174" lon="6.72776417">
<ele>79</ele>
<time>2011-10-01T12:54:00Z</time>
</trkpt>
<trkpt lat="51.18691181" lon="6.72762796">
<ele>79</ele>
<time>2011-10-01T12:54:04Z</time>
</trkpt>
<trkpt lat="51.18676152" lon="6.72747734">
<ele>0</ele>
<time>2011-10-01T12:54:08Z</time>
</trkpt>
<trkpt lat="51.18659539" lon="6.72731968">
<ele>79.5</ele>
<time>2011-10-01T12:54:12Z</time>
</trkpt>
<trkpt lat="51.18643085" lon="6.72717584">
<ele>0</ele>
<time>2011-10-01T12:54:16Z</time>
</trkpt>
<trkpt lat="51.18626934" lon="6.72701449">
<ele>0</ele>
<time>2011-10-01T12:54:20Z</time>
</trkpt>
<trkpt lat="51.18611364" lon="6.72683294">
<ele>79.5</ele>
<time>2011-10-01T12:54:24Z</time>
</trkpt>
<trkpt lat="51.18598096" lon="6.72669615">
<ele>80.5</ele>
<time>2011-10-01T12:54:28Z</time>
</trkpt>
<trkpt lat="51.18587111" lon="6.7265845">
<ele>81.5</ele>
<time>2011-10-01T12:54:32Z</time>
</trkpt>
<trkpt lat="51.18579718" lon="6.72644796">
<ele>81</ele>
<time>2011-10-01T12:54:36Z</time>
</trkpt>
<trkpt lat="51.1858238" lon="6.72625861">
<ele>80</ele>
<time>2011-10-01T12:54:40Z</time>
</trkpt>
<trkpt lat="51.18587086" lon="6.72602794">
<ele>80.5</ele>
<time>2011-10-01T12:54:44Z</time>
</trkpt>
<trkpt lat="51.18592274" lon="6.72578939">
<ele>78.5</ele>
<time>2011-10-01T12:54:48Z</time>
</trkpt>
<trkpt lat="51.18598703" lon="6.72554011">
<ele>76</ele>
<time>2011-10-01T12:54:52Z</time>
</trkpt>
<trkpt lat="51.18605455" lon="6.72527617">
<ele>75</ele>
<time>2011-10-01T12:54:56Z</time>
</trkpt>
<trkpt lat="51.18612483" lon="6.72500325">
<ele>74.5</ele>
<time>2011-10-01T12:55:00Z</time>
</trkpt>
<trkpt lat="51.18618753" lon="6.72471039">
<ele>76.5</ele>
<time>2011-10-01T12:55:04Z</time>
</trkpt>
<trkpt lat="51.18624893" lon="6.72442096">
<ele>78</ele>
<time>2011-10-01T12:55:08Z</time>
</trkpt>
<trkpt lat="51.18631011" lon="6.72412047">
<ele>79.5</ele>
<time>2011-10-01T12:55:12Z</time>
</trkpt>
<trkpt lat="51.18636908" lon="6.72380405">
<ele>80</ele>
<time>2011-10-01T12:55:16Z</time>
</trkpt>
<trkpt lat="51.18642872" lon="6.72351421">
<ele>80.5</ele>
<time>2011-10-01T12:55:20Z</time>
</trkpt>
<trkpt lat="51.18648923" lon="6.72322076">
<ele>80.5</ele>
<time>2011-10-01T12:55:24Z</time>
</trkpt>
<trkpt lat="51.18655264" lon="6.72293552">
<ele>0</ele>
<time>2011-10-01T12:55:28Z</time>
</trkpt>
<trkpt lat="51.18661609" lon="6.72263822">
<ele>82</ele>
<time>2011-10-01T12:55:32Z</time>
</trkpt>
<trkpt lat="51.18668969" lon="6.7223223">
<ele>83</ele>
<time>2011-10-01T12:55:36Z</time>
</trkpt>
<trkpt lat="51.18676404" lon="6.72200295">
<ele>84.5</ele>
<time>2011-10-01T12:55:40Z</time>
</trkpt>
<trkpt lat="51.18682635" lon="6.72168042">
<ele>86</ele>
<time>2011-10-01T12:55:44Z</time>
</trkpt>
<trkpt lat="51.18689203" lon="6.72135696">
<ele>85.5</ele>
<time>2011-10-01T12:55:48Z</time>
</trkpt>
<trkpt lat="51.18694986" lon="6.72105119">
<ele>86.5</ele>
<time>2011-10-01T12:55:52Z</time>
</trkpt>
<trkpt lat="51.18701206" lon="6.72074692">
<ele>85.5</ele>
<time>2011-10-01T12:55:56Z</time>
</trkpt>
<trkpt lat="51.18706775" lon="6.72045381">
<ele>86</ele>
<time>2011-10-01T12:56:00Z</time>
</trkpt>
<trkpt lat="51.1871354" lon="6.72018743">
<ele>88</ele>
<time>2011-10-01T12:56:04Z</time>
</trkpt>
<trkpt lat="51.18720258" lon="6.71990731">
<ele>90.5</ele>
<time>2011-10-01T12:56:08Z</time>
</trkpt>
<trkpt lat="51.18727961" lon="6.71962618">
<ele>89.5</ele>
<time>2011-10-01T12:56:12Z</time>
</trkpt>
<trkpt lat="51.18734402" lon="6.7193246">
<ele>89</ele>
<time>2011-10-01T12:56:16Z</time>
</trkpt>
<trkpt lat="51.18741204" lon="6.71903123">
<ele>90</ele>
<time>2011-10-01T12:56:20Z</time>
</trkpt>
<trkpt lat="51.18747386" lon="6.71873149">
<ele>89.5</ele>
<time>2011-10-01T12:56:24Z</time>
</trkpt>
<trkpt lat="51.18753525" lon="6.71842773">
<ele>91</ele>
<time>2011-10-01T12:56:28Z</time>
</trkpt>
<trkpt lat="51.18760529" lon="6.71813177">
<ele>92.5</ele>
<time>2011-10-01T12:56:32Z</time>
</trkpt>
<trkpt lat="51.18767703" lon="6.71783396">
<ele>92.5</ele>
<time>2011-10-01T12:56:36Z</time>
</trkpt>
<trkpt lat="51.18774769" lon="6.71753095">
<ele>91.5</ele>
<time>2011-10-01T12:56:40Z</time>
</trkpt>
<trkpt lat="51.18782732" lon="6.71724538">
<ele>90.5</ele>
<time>2011-10-01T12:56:44Z</time>
</trkpt>
<trkpt lat="51.18788206" lon="6.71696015">
<ele>89.5</ele>
<time>2011-10-01T12:56:48Z</time>
</trkpt>
<trkpt lat="51.18791931" lon="6.71671556">
<ele>89</ele>
<time>2011-10-01T12:56:52Z</time>
</trkpt>
<trkpt lat="51.18799341" lon="6.71646712">
<ele>89.5</ele>
<time>2011-10-01T12:56:56Z</time>
</trkpt>
<trkpt lat="51.18805422" lon="6.71620712">
<ele>89</ele>
<time>2011-10-01T12:57:00Z</time>
</trkpt>
<trkpt lat="51.18811453" lon="6.71592339">
<ele>87.5</ele>
<time>2011-10-01T12:57:04Z</time>
</trkpt>
<trkpt lat="51.18818179" lon="6.71563614">
<ele>86.5</ele>
<time>2011-10-01T12:57:08Z</time>
</trkpt>
<trkpt lat="51.18826658" lon="6.71536817">
<ele>84</ele>
<time>2011-10-01T12:57:12Z</time>
</trkpt>
<trkpt lat="51.18832231" lon="6.71502426">
<ele>86</ele>
<time>2011-10-01T12:57:16Z</time>
</trkpt>
<trkpt lat="51.18837533" lon="6.71474573">
<ele>90</ele>
<time>2011-10-01T12:57:20Z</time>
</trkpt>
<trkpt lat="51.18843384" lon="6.71452696">
<ele>90.5</ele>
<time>2011-10-01T12:57:24Z</time>
</trkpt>
<trkpt lat="51.1885076" lon="6.71423762">
<ele>89</ele>
<time>2011-10-01T12:57:28Z</time>
</trkpt>
<trkpt lat="51.18859904" lon="6.71391249">
<ele>87</ele>
<time>2011-10-01T12:57:32Z</time>
</trkpt>
<trkpt lat="51.18868584" lon="6.71360512">
<ele>86.5</ele>
<time>2011-10-01T12:57:36Z</time>
</trkpt>
<trkpt lat="51.18874795" lon="6.71327328">
<ele>87.5</ele>
<time>2011-10-01T12:57:40Z</time>
</trkpt>
<trkpt lat="51.18880541" lon="6.71295318">
<ele>87</ele>
<time>2011-10-01T12:57:44Z</time>
</trkpt>
<trkpt lat="51.18885913" lon="6.71263433">
<ele>88</ele>
<time>2011-10-01T12:57:48Z</time>
</trkpt>
<trkpt lat="51.18891299" lon="6.71231431">
<ele>86.5</ele>
<time>2011-10-01T12:57:52Z</time>
</trkpt>
<trkpt lat="51.18896734" lon="6.71198155">
<ele>86.5</ele>
<time>2011-10-01T12:57:56Z</time>
</trkpt>
<trkpt lat="51.18903172" lon="6.71165817">
<ele>85.5</ele>
<time>2011-10-01T12:58:00Z</time>
</trkpt>
<trkpt lat="51.18907731" lon="6.71132709">
<ele>87</ele>
<time>2011-10-01T12:58:04Z</time>
</trkpt>
<trkpt lat="51.18913574" lon="6.71103205">
<ele>87</ele>
<time>2011-10-01T12:58:08Z</time>
</trkpt>
<trkpt lat="51.18918288" lon="6.71072409">
<ele>0</ele>
<time>2011-10-01T12:58:12Z</time>
</trkpt>
<trkpt lat="51.18924303" lon="6.71041145">
<ele>86</ele>
<time>2011-10-01T12:58:16Z</time>
</trkpt>
<trkpt lat="51.18930237" lon="6.71011046">
<ele>0</ele>
<time>2011-10-01T12:58:20Z</time>
</trkpt>
<trkpt lat="51.18937261" lon="6.70981784">
<ele>0</ele>
<time>2011-10-01T12:58:24Z</time>
</trkpt>
<trkpt lat="51.18943141" lon="6.70952925">
<ele>87.5</ele>
<time>2011-10-01T12:58:28Z</time>
</trkpt>
<trkpt lat="51.18947646" lon="6.7092327">
<ele>86.5</ele>
<time>2011-10-01T12:58:32Z</time>
</trkpt>
<trkpt lat="51.18953375" lon="6.70893665">
<ele>87</ele>
<time>2011-10-01T12:58:36Z</time>
</trkpt>
<trkpt lat="51.18957671" lon="6.70863885">
<ele>87.5</ele>
<time>2011-10-01T12:58:40Z</time>
</trkpt>
<trkpt lat="51.18963521" lon="6.70836945">
<ele>87.5</ele>
<time>2011-10-01T12:58:44Z</time>
</trkpt>
<trkpt lat="51.18970432" lon="6.70810182">
<ele>87</ele>
<time>2011-10-01T12:58:48Z</time>
</trkpt>
<trkpt lat="51.18978144" lon="6.70781742">
<ele>85</ele>
<time>2011-10-01T12:58:52Z</time>
</trkpt>
<trkpt lat="51.18984426" lon="6.70752707">
<ele>84.5</ele>
<time>2011-10-01T12:58:56Z</time>
</trkpt>
<trkpt lat="51.18982821" lon="6.70728047">
<ele>84.5</ele>
<time>2011-10-01T12:59:00Z</time>
</trkpt>
<trkpt lat="51.18974451" lon="6.70703874">
<ele>84</ele>
<time>2011-10-01T12:59:04Z</time>
</trkpt>
<trkpt lat="51.18963538" lon="6.70680933">
<ele>84.5</ele>
<time>2011-10-01T12:59:08Z</time>
</trkpt>
<trkpt lat="51.18951699" lon="6.70663934">
<ele>85</ele>
<time>2011-10-01T12:59:12Z</time>
</trkpt>
<trkpt lat="51.1895177" lon="6.70644681">
<ele>84</ele>
<time>2011-10-01T12:59:16Z</time>
</trkpt>
<trkpt lat="51.18961124" lon="6.70624321">
<ele>84</ele>
<time>2011-10-01T12:59:20Z</time>
</trkpt>
<trkpt lat="51.18972473" lon="6.70599896">
<ele>0</ele>
<time>2011-10-01T12:59:24Z</time>
</trkpt>
<trkpt lat="51.18986639" lon="6.70578338">
<ele>84</ele>
<time>2011-10-01T12:59:28Z</time>
</trkpt>
<trkpt lat="51.18999559" lon="6.7055367">
<ele>84</ele>
<time>2011-10-01T12:59:32Z</time>
</trkpt>
<trkpt lat="51.19013033" lon="6.70529463">
<ele>84</ele>
<time>2011-10-01T12:59:36Z</time>
</trkpt>
<trkpt lat="51.19027915" lon="6.70506011">
<ele>83.5</ele>
<time>2011-10-01T12:59:40Z</time>
</trkpt>
<trkpt lat="51.19041926" lon="6.70481427">
<ele>0</ele>
<time>2011-10-01T12:59:44Z</time>
</trkpt>
<trkpt lat="51.19055429" lon="6.70459013">
<ele>0</ele>
<time>2011-10-01T12:59:48Z</time>
</trkpt>
<trkpt lat="51.1906027" lon="6.70449433">
<ele>84</ele>
<time>2011-10-01T12:59:52Z</time>
</trkpt>
<trkpt lat="51.19057436" lon="6.70456197">
<ele>83.5</ele>
<time>2011-10-01T12:59:56Z</time>
</trkpt>
<trkpt lat="51.19050287" lon="6.70466524">
<ele>84.5</ele>
<time>2011-10-01T13:00:00Z</time>
</trkpt>
<trkpt lat="51.19047651" lon="6.70467337">
<ele>85.5</ele>
<time>2011-10-01T13:00:04Z</time>
</trkpt>
<trkpt lat="51.19047102" lon="6.70466742">
<ele>86</ele>
<time>2011-10-01T13:00:08Z</time>
</trkpt>
<trkpt lat="51.19046301" lon="6.70466507">
<ele>86.5</ele>
<time>2011-10-01T13:00:12Z</time>
</trkpt>
<trkpt lat="51.19044797" lon="6.70466725">
<ele>87</ele>
<time>2011-10-01T13:00:16Z</time>
</trkpt>
<trkpt lat="51.19044323" lon="6.70466406">
<ele>87</ele>
<time>2011-10-01T13:00:20Z</time>
</trkpt>
<trkpt lat="51.19042697" lon="6.70464084">
<ele>0</ele>
<time>2011-10-01T13:00:24Z</time>
</trkpt>
<trkpt lat="51.19034089" lon="6.70451445">
<ele>87</ele>
<time>2011-10-01T13:00:28Z</time>
</trkpt>
<trkpt lat="51.1902129" lon="6.70429987">
<ele>86.5</ele>
<time>2011-10-01T13:00:32Z</time>
</trkpt>
<trkpt lat="51.19010611" lon="6.70404615">
<ele>86.5</ele>
<time>2011-10-01T13:00:36Z</time>
</trkpt>
<trkpt lat="51.19011491" lon="6.70377189">
<ele>0</ele>
<time>2011-10-01T13:00:40Z</time>
</trkpt>
<trkpt lat="51.19019269" lon="6.70353469">
<ele>84.5</ele>
<time>2011-10-01T13:00:44Z</time>
</trkpt>
<trkpt lat="51.19025585" lon="6.7033207">
<ele>84.5</ele>
<time>2011-10-01T13:00:48Z</time>
</trkpt>
<trkpt lat="51.19031298" lon="6.70305147">
<ele>0</ele>
<time>2011-10-01T13:00:52Z</time>
</trkpt>
<trkpt lat="51.19037861" lon="6.70277855">
<ele>84.5</ele>
<time>2011-10-01T13:00:56Z</time>
</trkpt>
<trkpt lat="51.19043631" lon="6.70251695">
<ele>84.5</ele>
<time>2011-10-01T13:01:00Z</time>
</trkpt>
<trkpt lat="51.19045656" lon="6.70229274">
<ele>81.5</ele>
<time>2011-10-01T13:01:04Z</time>
</trkpt>
<trkpt lat="51.19050484" lon="6.70202569">
<ele>81.5</ele>
<time>2011-10-01T13:01:08Z</time>
</trkpt>
<trkpt lat="51.19056783" lon="6.70172595">
<ele>81</ele>
<time>2011-10-01T13:01:12Z</time>
</trkpt>
<trkpt lat="51.19063522" lon="6.70142295">
<ele>80.5</ele>
<time>2011-10-01T13:01:16Z</time>
</trkpt>
<trkpt lat="51.19070617" lon="6.70107971">
<ele>80</ele>
<time>2011-10-01T13:01:20Z</time>
</trkpt>
<trkpt lat="51.19078027" lon="6.70073966">
<ele>0</ele>
<time>2011-10-01T13:01:24Z</time>
</trkpt>
<trkpt lat="51.1908503" lon="6.70041444">
<ele>0</ele>
<time>2011-10-01T13:01:28Z</time>
</trkpt>
<trkpt lat="51.19091589" lon="6.70010548">
<ele>81.5</ele>
<time>2011-10-01T13:01:32Z</time>
</trkpt>
<trkpt lat="51.19098244" lon="6.69980826">
<ele>82.5</ele>
<time>2011-10-01T13:01:36Z</time>
</trkpt>
<trkpt lat="51.19104782" lon="6.69954599">
<ele>84</ele>
<time>2011-10-01T13:01:40Z</time>
</trkpt>
<trkpt lat="51.19111462" lon="6.69930811">
<ele>84</ele>
<time>2011-10-01T13:01:44Z</time>
</trkpt>
<trkpt lat="51.1912054" lon="6.69908591">
<ele>83.5</ele>
<time>2011-10-01T13:01:48Z</time>
</trkpt>
<trkpt lat="51.19127094" lon="6.69888323">
<ele>84.5</ele>
<time>2011-10-01T13:01:52Z</time>
</trkpt>
<trkpt lat="51.19129969" lon="6.69866379">
<ele>87</ele>
<time>2011-10-01T13:01:56Z</time>
</trkpt>
<trkpt lat="51.19136599" lon="6.69842868">
<ele>89</ele>
<time>2011-10-01T13:02:00Z</time>
</trkpt>
<trkpt lat="51.19148741" lon="6.69842684">
<ele>88.5</ele>
<time>2011-10-01T13:02:04Z</time>
</trkpt>
<trkpt lat="51.19161556" lon="6.69841602">
<ele>87</ele>
<time>2011-10-01T13:02:08Z</time>
</trkpt>
<trkpt lat="51.19168857" lon="6.69817991">
<ele>86</ele>
<time>2011-10-01T13:02:12Z</time>
</trkpt>
<trkpt lat="51.19177947" lon="6.69788721">
<ele>86.5</ele>
<time>2011-10-01T13:02:16Z</time>
</trkpt>
<trkpt lat="51.19184225" lon="6.6975573">
<ele>86</ele>
<time>2011-10-01T13:02:20Z</time>
</trkpt>
<trkpt lat="51.19190147" lon="6.69724432">
<ele>86</ele>
<time>2011-10-01T13:02:24Z</time>
</trkpt>
<trkpt lat="51.19202213" lon="6.69691516">
<ele>0</ele>
<time>2011-10-01T13:02:29Z</time>
</trkpt>
<trkpt lat="51.19209979" lon="6.696643">
<ele>85.5</ele>
<time>2011-10-01T13:02:33Z</time>
</trkpt>
<trkpt lat="51.19218889" lon="6.69636388">
<ele>85</ele>
<time>2011-10-01T13:02:37Z</time>
</trkpt>
<trkpt lat="51.19230028" lon="6.69610287">
<ele>85</ele>
<time>2011-10-01T13:02:41Z</time>
</trkpt>
<trkpt lat="51.19236378" lon="6.69579995">
<ele>87</ele>
<time>2011-10-01T13:02:45Z</time>
</trkpt>
<trkpt lat="51.19242262" lon="6.69550532">
<ele>88.5</ele>
<time>2011-10-01T13:02:49Z</time>
</trkpt>
<trkpt lat="51.19249147" lon="6.69519972">
<ele>87</ele>
<time>2011-10-01T13:02:53Z</time>
</trkpt>
<trkpt lat="51.19254353" lon="6.69485908">
<ele>87.5</ele>
<time>2011-10-01T13:02:57Z</time>
</trkpt>
<trkpt lat="51.19260098" lon="6.69454769">
<ele>87</ele>
<time>2011-10-01T13:03:01Z</time>
</trkpt>
<trkpt lat="51.19265417" lon="6.69422432">
<ele>86</ele>
<time>2011-10-01T13:03:05Z</time>
</trkpt>
<trkpt lat="51.19271477" lon="6.69393305">
<ele>85.5</ele>
<time>2011-10-01T13:03:09Z</time>
</trkpt>
<trkpt lat="51.19277516" lon="6.69366265">
<ele>86.5</ele>
<time>2011-10-01T13:03:13Z</time>
</trkpt>
<trkpt lat="51.1928146" lon="6.69334757">
<ele>88.5</ele>
<time>2011-10-01T13:03:17Z</time>
</trkpt>
<trkpt lat="51.19285345" lon="6.69305521">
<ele>87.5</ele>
<time>2011-10-01T13:03:21Z</time>
</trkpt>
<trkpt lat="51.1928661" lon="6.69297064">
<ele>86.5</ele>
<time>2011-10-01T13:03:25Z</time>
</trkpt>
<trkpt lat="51.19283492" lon="6.69299754">
<ele>85.5</ele>
<time>2011-10-01T13:03:29Z</time>
</trkpt>
<trkpt lat="51.19281292" lon="6.69304524">
<ele>85.5</ele>
<time>2011-10-01T13:03:33Z</time>
</trkpt>
<trkpt lat="51.19280722" lon="6.69280577">
<ele>83</ele>
<time>2011-10-01T13:03:37Z</time>
</trkpt>
<trkpt lat="51.19287314" lon="6.69242322">
<ele>82.5</ele>
<time>2011-10-01T13:03:41Z</time>
</trkpt>
<trkpt lat="51.19297264" lon="6.69197621">
<ele>0</ele>
<time>2011-10-01T13:03:45Z</time>
</trkpt>
<trkpt lat="51.19305637" lon="6.69161235">
<ele>0</ele>
<time>2011-10-01T13:03:49Z</time>
</trkpt>
<trkpt lat="51.19314933" lon="6.69133449">
<ele>83.5</ele>
<time>2011-10-01T13:03:53Z</time>
</trkpt>
<trkpt lat="51.19321886" lon="6.69105453">
<ele>82.5</ele>
<time>2011-10-01T13:03:57Z</time>
</trkpt>
<trkpt lat="51.19331902" lon="6.69081163">
<ele>79</ele>
<time>2011-10-01T13:04:01Z</time>
</trkpt>
<trkpt lat="51.19335498" lon="6.69049504">
<ele>80</ele>
<time>2011-10-01T13:04:05Z</time>
</trkpt>
<trkpt lat="51.19339265" lon="6.69016697">
<ele>82.5</ele>
<time>2011-10-01T13:04:09Z</time>
</trkpt>
<trkpt lat="51.19347475" lon="6.6898835">
<ele>81.5</ele>
<time>2011-10-01T13:04:13Z</time>
</trkpt>
<trkpt lat="51.19355878" lon="6.68961846">
<ele>77.5</ele>
<time>2011-10-01T13:04:17Z</time>
</trkpt>
<trkpt lat="51.19362542" lon="6.68933398">
<ele>76</ele>
<time>2011-10-01T13:04:21Z</time>
</trkpt>
<trkpt lat="51.1936918" lon="6.68904766">
<ele>75</ele>
<time>2011-10-01T13:04:25Z</time>
</trkpt>
<trkpt lat="51.19374193" lon="6.6887713">
<ele>74.5</ele>
<time>2011-10-01T13:04:29Z</time>
</trkpt>
<trkpt lat="51.19378312" lon="6.68847257">
<ele>76.5</ele>
<time>2011-10-01T13:04:33Z</time>
</trkpt>
<trkpt lat="51.19383115" lon="6.68818449">
<ele>79</ele>
<time>2011-10-01T13:04:37Z</time>
</trkpt>
<trkpt lat="51.19387428" lon="6.68790495">
<ele>80.5</ele>
<time>2011-10-01T13:04:41Z</time>
</trkpt>
<trkpt lat="51.19394087" lon="6.68763614">
<ele>79.5</ele>
<time>2011-10-01T13:04:45Z</time>
</trkpt>
<trkpt lat="51.19397876" lon="6.68731855">
<ele>82</ele>
<time>2011-10-01T13:04:49Z</time>
</trkpt>
<trkpt lat="51.19400265" lon="6.68704354">
<ele>84</ele>
<time>2011-10-01T13:04:53Z</time>
</trkpt>
<trkpt lat="51.19401895" lon="6.68686652">
<ele>86</ele>
<time>2011-10-01T13:04:57Z</time>
</trkpt>
<trkpt lat="51.19402716" lon="6.68682586">
<ele>87</ele>
<time>2011-10-01T13:05:01Z</time>
</trkpt>
<trkpt lat="51.19403358" lon="6.68682301">
<ele>88</ele>
<time>2011-10-01T13:05:05Z</time>
</trkpt>
<trkpt lat="51.19402846" lon="6.68682016">
<ele>89</ele>
<time>2011-10-01T13:05:09Z</time>
</trkpt>
<trkpt lat="51.19404095" lon="6.68681614">
<ele>88.5</ele>
<time>2011-10-01T13:05:13Z</time>
</trkpt>
<trkpt lat="51.19405189" lon="6.68681748">
<ele>88</ele>
<time>2011-10-01T13:05:17Z</time>
</trkpt>
<trkpt lat="51.19404975" lon="6.68681371">
<ele>89</ele>
<time>2011-10-01T13:05:21Z</time>
</trkpt>
<trkpt lat="51.19406786" lon="6.68680273">
<ele>91.5</ele>
<time>2011-10-01T13:05:25Z</time>
</trkpt>
<trkpt lat="51.19408873" lon="6.68679058">
<ele>94.5</ele>
<time>2011-10-01T13:05:29Z</time>
</trkpt>
<trkpt lat="51.1941179" lon="6.68678178">
<ele>96.5</ele>
<time>2011-10-01T13:05:33Z</time>
</trkpt>
<trkpt lat="51.19413713" lon="6.68678194">
<ele>99.5</ele>
<time>2011-10-01T13:05:37Z</time>
</trkpt>
<trkpt lat="51.1941399" lon="6.68678991">
<ele>102</ele>
<time>2011-10-01T13:05:41Z</time>
</trkpt>
<trkpt lat="51.19414711" lon="6.68679242">
<ele>101.5</ele>
<time>2011-10-01T13:05:45Z</time>
</trkpt>
<trkpt lat="51.19415918" lon="6.68679519">
<ele>101.5</ele>
<time>2011-10-01T13:05:49Z</time>
</trkpt>
<trkpt lat="51.19416245" lon="6.68679946">
<ele>0</ele>
<time>2011-10-01T13:05:53Z</time>
</trkpt>
<trkpt lat="51.19416526" lon="6.68679913">
<ele>102</ele>
<time>2011-10-01T13:05:57Z</time>
</trkpt>
<trkpt lat="51.19416953" lon="6.68679854">
<ele>101.5</ele>
<time>2011-10-01T13:06:01Z</time>
</trkpt>
<trkpt lat="51.19417129" lon="6.68680592">
<ele>101</ele>
<time>2011-10-01T13:06:05Z</time>
</trkpt>
<trkpt lat="51.19416676" lon="6.68681497">
<ele>102</ele>
<time>2011-10-01T13:06:09Z</time>
</trkpt>
<trkpt lat="51.19416647" lon="6.68682125">
<ele>101.5</ele>
<time>2011-10-01T13:06:13Z</time>
</trkpt>
<trkpt lat="51.19416865" lon="6.68681966">
<ele>101</ele>
<time>2011-10-01T13:06:17Z</time>
</trkpt>
<trkpt lat="51.19417586" lon="6.68682117">
<ele>100</ele>
<time>2011-10-01T13:06:21Z</time>
</trkpt>
<trkpt lat="51.19418252" lon="6.68682251">
<ele>100</ele>
<time>2011-10-01T13:06:25Z</time>
</trkpt>
<trkpt lat="51.19418525" lon="6.68682268">
<ele>0</ele>
<time>2011-10-01T13:06:29Z</time>
</trkpt>
<trkpt lat="51.19418516" lon="6.68682025">
<ele>100</ele>
<time>2011-10-01T13:06:33Z</time>
</trkpt>
<trkpt lat="51.19418026" lon="6.68682083">
<ele>100.5</ele>
<time>2011-10-01T13:06:37Z</time>
</trkpt>
<trkpt lat="51.194178" lon="6.68682075">
<ele>101</ele>
<time>2011-10-01T13:06:41Z</time>
</trkpt>
<trkpt lat="51.19417624" lon="6.68682151">
<ele>101</ele>
<time>2011-10-01T13:06:45Z</time>
</trkpt>
<trkpt lat="51.19417473" lon="6.68682058">
<ele>0</ele>
<time>2011-10-01T13:06:49Z</time>
</trkpt>
<trkpt lat="51.19417443" lon="6.68681581">
<ele>100.5</ele>
<time>2011-10-01T13:06:53Z</time>
</trkpt>
<trkpt lat="51.19417221" lon="6.68681354">
<ele>0</ele>
<time>2011-10-01T13:06:57Z</time>
</trkpt>
<trkpt lat="51.19416785" lon="6.68681899">
<ele>0</ele>
<time>2011-10-01T13:07:01Z</time>
</trkpt>
<trkpt lat="51.19416245" lon="6.68682352">
<ele>100</ele>
<time>2011-10-01T13:07:05Z</time>
</trkpt>
<trkpt lat="51.19415633" lon="6.68682612">
<ele>100</ele>
<time>2011-10-01T13:07:09Z</time>
</trkpt>
<trkpt lat="51.19414916" lon="6.68682855">
<ele>0</ele>
<time>2011-10-01T13:07:13Z</time>
</trkpt>
<trkpt lat="51.19414698" lon="6.68682553">
<ele>100</ele>
<time>2011-10-01T13:07:17Z</time>
</trkpt>
<trkpt lat="51.19414828" lon="6.68682385">
<ele>100.5</ele>
<time>2011-10-01T13:07:21Z</time>
</trkpt>
<trkpt lat="51.19414862" lon="6.68682436">
<ele>0</ele>
<time>2011-10-01T13:07:25Z</time>
</trkpt>
<trkpt lat="51.1941474" lon="6.68682402">
<ele>0</ele>
<time>2011-10-01T13:07:29Z</time>
</trkpt>
<trkpt lat="51.19414686" lon="6.68682335">
<ele>100.5</ele>
<time>2011-10-01T13:07:33Z</time>
</trkpt>
<trkpt lat="51.19414791" lon="6.68682016">
<ele>100.5</ele>
<time>2011-10-01T13:07:37Z</time>
</trkpt>
<trkpt lat="51.19414879" lon="6.68681161">
<ele>0</ele>
<time>2011-10-01T13:07:41Z</time>
</trkpt>
<trkpt lat="51.19414568" lon="6.68680265">
<ele>102</ele>
<time>2011-10-01T13:07:45Z</time>
</trkpt>
<trkpt lat="51.19414371" lon="6.68679778">
<ele>102.5</ele>
<time>2011-10-01T13:07:49Z</time>
</trkpt>
<trkpt lat="51.1941417" lon="6.68679753">
<ele>102.5</ele>
<time>2011-10-01T13:07:53Z</time>
</trkpt>
<trkpt lat="51.19413915" lon="6.68680147">
<ele>0</ele>
<time>2011-10-01T13:07:57Z</time>
</trkpt>
<trkpt lat="51.19414019" lon="6.6867977">
<ele>103</ele>
<time>2011-10-01T13:08:01Z</time>
</trkpt>
<trkpt lat="51.19414166" lon="6.6867925">
<ele>0</ele>
<time>2011-10-01T13:08:05Z</time>
</trkpt>
<trkpt lat="51.19414133" lon="6.68678747">
<ele>0</ele>
<time>2011-10-01T13:08:09Z</time>
</trkpt>
<trkpt lat="51.1941433" lon="6.68678421">
<ele>103.5</ele>
<time>2011-10-01T13:08:13Z</time>
</trkpt>
<trkpt lat="51.19414242" lon="6.6867863">
<ele>0</ele>
<time>2011-10-01T13:08:17Z</time>
</trkpt>
<trkpt lat="51.19414212" lon="6.68679167">
<ele>0</ele>
<time>2011-10-01T13:08:21Z</time>
</trkpt>
<trkpt lat="51.1941443" lon="6.68679762">
<ele>104</ele>
<time>2011-10-01T13:08:25Z</time>
</trkpt>
<trkpt lat="51.19415168" lon="6.68679602">
<ele>103.5</ele>
<time>2011-10-01T13:08:29Z</time>
</trkpt>
<trkpt lat="51.1941562" lon="6.68679963">
<ele>103</ele>
<time>2011-10-01T13:08:33Z</time>
</trkpt>
<trkpt lat="51.19415784" lon="6.68679929">
<ele>0</ele>
<time>2011-10-01T13:08:37Z</time>
</trkpt>
<trkpt lat="51.19415985" lon="6.68679208">
<ele>0</ele>
<time>2011-10-01T13:08:41Z</time>
</trkpt>
<trkpt lat="51.19416157" lon="6.68678965">
<ele>103</ele>
<time>2011-10-01T13:08:45Z</time>
</trkpt>
<trkpt lat="51.19416425" lon="6.68678915">
<ele>103</ele>
<time>2011-10-01T13:08:49Z</time>
</trkpt>
<trkpt lat="51.19416354" lon="6.68679007">
<ele>0</ele>
<time>2011-10-01T13:08:53Z</time>
</trkpt>
<trkpt lat="51.19416081" lon="6.68679242">
<ele>103</ele>
<time>2011-10-01T13:08:57Z</time>
</trkpt>
<trkpt lat="51.19415977" lon="6.68679343">
<ele>102.5</ele>
<time>2011-10-01T13:09:01Z</time>
</trkpt>
<trkpt lat="51.19417653" lon="6.68667524">
<ele>105</ele>
<time>2011-10-01T13:09:05Z</time>
</trkpt>
<trkpt lat="51.19420184" lon="6.68645723">
<ele>104.5</ele>
<time>2011-10-01T13:09:09Z</time>
</trkpt>
<trkpt lat="51.19425377" lon="6.68620661">
<ele>103</ele>
<time>2011-10-01T13:09:13Z</time>
</trkpt>
<trkpt lat="51.19430817" lon="6.68592355">
<ele>103.5</ele>
<time>2011-10-01T13:09:17Z</time>
</trkpt>
<trkpt lat="51.19438155" lon="6.68567151">
<ele>103.5</ele>
<time>2011-10-01T13:09:21Z</time>
</trkpt>
<trkpt lat="51.19443536" lon="6.68538745">
<ele>102</ele>
<time>2011-10-01T13:09:25Z</time>
</trkpt>
<trkpt lat="51.19449135" lon="6.68508704">
<ele>101.5</ele>
<time>2011-10-01T13:09:29Z</time>
</trkpt>
<trkpt lat="51.19454999" lon="6.68477339">
<ele>0</ele>
<time>2011-10-01T13:09:33Z</time>
</trkpt>
<trkpt lat="51.19461788" lon="6.68444951">
<ele>0</ele>
<time>2011-10-01T13:09:37Z</time>
</trkpt>
<trkpt lat="51.19468942" lon="6.68412957">
<ele>97.5</ele>
<time>2011-10-01T13:09:41Z</time>
</trkpt>
<trkpt lat="51.19473556" lon="6.68378114">
<ele>99</ele>
<time>2011-10-01T13:09:45Z</time>
</trkpt>
<trkpt lat="51.1947742" lon="6.6834586">
<ele>100</ele>
<time>2011-10-01T13:09:49Z</time>
</trkpt>
<trkpt lat="51.19481624" lon="6.68318359">
<ele>101.5</ele>
<time>2011-10-01T13:09:53Z</time>
</trkpt>
<trkpt lat="51.1948387" lon="6.68301537">
<ele>102</ele>
<time>2011-10-01T13:09:57Z</time>
</trkpt>
<trkpt lat="51.1948423" lon="6.68296264">
<ele>102.5</ele>
<time>2011-10-01T13:10:01Z</time>
</trkpt>
<trkpt lat="51.19486305" lon="6.68278813">
<ele>104.5</ele>
<time>2011-10-01T13:10:05Z</time>
</trkpt>
<trkpt lat="51.19489457" lon="6.68252846">
<ele>106</ele>
<time>2011-10-01T13:10:09Z</time>
</trkpt>
<trkpt lat="51.1949444" lon="6.68224826">
<ele>106</ele>
<time>2011-10-01T13:10:13Z</time>
</trkpt>
<trkpt lat="51.19500248" lon="6.68197006">
<ele>103</ele>
<time>2011-10-01T13:10:17Z</time>
</trkpt>
<trkpt lat="51.19506162" lon="6.68166974">
<ele>102.5</ele>
<time>2011-10-01T13:10:21Z</time>
</trkpt>
<trkpt lat="51.19511849" lon="6.68134108">
<ele>102</ele>
<time>2011-10-01T13:10:25Z</time>
</trkpt>
<trkpt lat="51.19517691" lon="6.68104093">
<ele>100.5</ele>
<time>2011-10-01T13:10:29Z</time>
</trkpt>
<trkpt lat="51.19522716" lon="6.68080606">
<ele>98</ele>
<time>2011-10-01T13:10:33Z</time>
</trkpt>
<trkpt lat="51.19529773" lon="6.68070783">
<ele>96.5</ele>
<time>2011-10-01T13:10:37Z</time>
</trkpt>
<trkpt lat="51.1953572" lon="6.68059903">
<ele>96</ele>
<time>2011-10-01T13:10:41Z</time>
</trkpt>
<trkpt lat="51.19537527" lon="6.68046249">
<ele>94.5</ele>
<time>2011-10-01T13:10:45Z</time>
</trkpt>
<trkpt lat="51.19544735" lon="6.6803283">
<ele>94</ele>
<time>2011-10-01T13:10:49Z</time>
</trkpt>
<trkpt lat="51.19552639" lon="6.68011816">
<ele>93</ele>
<time>2011-10-01T13:10:53Z</time>
</trkpt>
<trkpt lat="51.19559274" lon="6.67985891">
<ele>0</ele>
<time>2011-10-01T13:10:57Z</time>
</trkpt>
<trkpt lat="51.195596" lon="6.67957225">
<ele>0</ele>
<time>2011-10-01T13:11:01Z</time>
</trkpt>
<trkpt lat="51.19559336" lon="6.67926966">
<ele>91.5</ele>
<time>2011-10-01T13:11:05Z</time>
</trkpt>
<trkpt lat="51.19566855" lon="6.67895115">
<ele>90.5</ele>
<time>2011-10-01T13:11:09Z</time>
</trkpt>
<trkpt lat="51.19576356" lon="6.6786613">
<ele>89</ele>
<time>2011-10-01T13:11:13Z</time>
</trkpt>
<trkpt lat="51.19585199" lon="6.67839023">
<ele>88</ele>
<time>2011-10-01T13:11:17Z</time>
</trkpt>
<trkpt lat="51.19596938" lon="6.6781252">
<ele>85.5</ele>
<time>2011-10-01T13:11:21Z</time>
</trkpt>
<trkpt lat="51.19610424" lon="6.67786838">
<ele>86.5</ele>
<time>2011-10-01T13:11:25Z</time>
</trkpt>
<trkpt lat="51.19619636" lon="6.67768104">
<ele>86.5</ele>
<time>2011-10-01T13:11:28Z</time>
</trkpt>
<trkpt lat="51.19631371" lon="6.67743394">
<ele>86</ele>
<time>2011-10-01T13:11:32Z</time>
</trkpt>
<trkpt lat="51.1964487" lon="6.67719179">
<ele>86.5</ele>
<time>2011-10-01T13:11:36Z</time>
</trkpt>
<trkpt lat="51.19657254" lon="6.6769514">
<ele>0</ele>
<time>2011-10-01T13:11:40Z</time>
</trkpt>
<trkpt lat="51.19669948" lon="6.67672936">
<ele>0</ele>
<time>2011-10-01T13:11:44Z</time>
</trkpt>
<trkpt lat="51.19683317" lon="6.67651629">
<ele>86</ele>
<time>2011-10-01T13:11:48Z</time>
</trkpt>
<trkpt lat="51.19696967" lon="6.67631085">
<ele>0</ele>
<time>2011-10-01T13:11:52Z</time>
</trkpt>
<trkpt lat="51.19710923" lon="6.67609971">
<ele>85.5</ele>
<time>2011-10-01T13:11:56Z</time>
</trkpt>
<trkpt lat="51.19725856" lon="6.67588773">
<ele>85.5</ele>
<time>2011-10-01T13:12:00Z</time>
</trkpt>
<trkpt lat="51.19740591" lon="6.67568212">
<ele>0</ele>
<time>2011-10-01T13:12:04Z</time>
</trkpt>
<trkpt lat="51.19754928" lon="6.67547056">
<ele>85</ele>
<time>2011-10-01T13:12:08Z</time>
</trkpt>
<trkpt lat="51.19769781" lon="6.67526144">
<ele>85</ele>
<time>2011-10-01T13:12:12Z</time>
</trkpt>
<trkpt lat="51.1978447" lon="6.6750373">
<ele>0</ele>
<time>2011-10-01T13:12:16Z</time>
</trkpt>
<trkpt lat="51.19799101" lon="6.67482541">
<ele>84.5</ele>
<time>2011-10-01T13:12:20Z</time>
</trkpt>
<trkpt lat="51.19812675" lon="6.67463665">
<ele>84.5</ele>
<time>2011-10-01T13:12:24Z</time>
</trkpt>
<trkpt lat="51.19819821" lon="6.67442618">
<ele>0</ele>
<time>2011-10-01T13:12:28Z</time>
</trkpt>
<trkpt lat="51.19816741" lon="6.67425485">
<ele>85</ele>
<time>2011-10-01T13:12:32Z</time>
</trkpt>
<trkpt lat="51.19812742" lon="6.67410809">
<ele>85</ele>
<time>2011-10-01T13:12:36Z</time>
</trkpt>
<trkpt lat="51.19813392" lon="6.67406718">
<ele>84.5</ele>
<time>2011-10-01T13:12:40Z</time>
</trkpt>
<trkpt lat="51.19814356" lon="6.67405997">
<ele>84</ele>
<time>2011-10-01T13:12:44Z</time>
</trkpt>
<trkpt lat="51.19814289" lon="6.67405595">
<ele>84</ele>
<time>2011-10-01T13:12:48Z</time>
</trkpt>
<trkpt lat="51.19814695" lon="6.67404992">
<ele>0</ele>
<time>2011-10-01T13:12:52Z</time>
</trkpt>
<trkpt lat="51.198148" lon="6.67404246">
<ele>0</ele>
<time>2011-10-01T13:12:56Z</time>
</trkpt>
<trkpt lat="51.19813409" lon="6.67404036">
<ele>86</ele>
<time>2011-10-01T13:13:00Z</time>
</trkpt>
<trkpt lat="51.19812172" lon="6.67403156">
<ele>88.5</ele>
<time>2011-10-01T13:13:04Z</time>
</trkpt>
<trkpt lat="51.19813513" lon="6.67403357">
<ele>88</ele>
<time>2011-10-01T13:13:08Z</time>
</trkpt>
<trkpt lat="51.19814109" lon="6.67403433">
<ele>87.5</ele>
<time>2011-10-01T13:13:12Z</time>
</trkpt>
<trkpt lat="51.19814532" lon="6.67403642">
<ele>0</ele>
<time>2011-10-01T13:13:16Z</time>
</trkpt>
<trkpt lat="51.19814121" lon="6.67402024">
<ele>0</ele>
<time>2011-10-01T13:13:20Z</time>
</trkpt>
<trkpt lat="51.19814042" lon="6.6740096">
<ele>89.5</ele>
<time>2011-10-01T13:13:24Z</time>
</trkpt>
<trkpt lat="51.19814016" lon="6.6740044">
<ele>90.5</ele>
<time>2011-10-01T13:13:28Z</time>
</trkpt>
<trkpt lat="51.19814079" lon="6.67399493">
<ele>91</ele>
<time>2011-10-01T13:13:32Z</time>
</trkpt>
<trkpt lat="51.19828433" lon="6.67371062">
<ele>88.5</ele>
<time>2011-10-01T13:13:36Z</time>
</trkpt>
<trkpt lat="51.1984101" lon="6.67356486">
<ele>87</ele>
<time>2011-10-01T13:13:40Z</time>
</trkpt>
<trkpt lat="51.19854509" lon="6.67337308">
<ele>85</ele>
<time>2011-10-01T13:13:44Z</time>
</trkpt>
<trkpt lat="51.19866475" lon="6.67314853">
<ele>84</ele>
<time>2011-10-01T13:13:48Z</time>
</trkpt>
<trkpt lat="51.19877819" lon="6.67290478">
<ele>81</ele>
<time>2011-10-01T13:13:52Z</time>
</trkpt>
<trkpt lat="51.19889768" lon="6.67266958">
<ele>79.5</ele>
<time>2011-10-01T13:13:56Z</time>
</trkpt>
<trkpt lat="51.19901787" lon="6.67245149">
<ele>79</ele>
<time>2011-10-01T13:14:00Z</time>
</trkpt>
<trkpt lat="51.19913417" lon="6.67225133">
<ele>76.5</ele>
<time>2011-10-01T13:14:04Z</time>
</trkpt>
<trkpt lat="51.19926455" lon="6.67204287">
<ele>75.5</ele>
<time>2011-10-01T13:14:08Z</time>
</trkpt>
<trkpt lat="51.19937792" lon="6.67175755">
<ele>75</ele>
<time>2011-10-01T13:14:12Z</time>
</trkpt>
<trkpt lat="51.19954547" lon="6.6714216">
<ele>0</ele>
<time>2011-10-01T13:14:16Z</time>
</trkpt>
<trkpt lat="51.19977543" lon="6.6711025">
<ele>0</ele>
<time>2011-10-01T13:14:20Z</time>
</trkpt>
<trkpt lat="51.19994554" lon="6.6708544">
<ele>75</ele>
<time>2011-10-01T13:14:24Z</time>
</trkpt>
<trkpt lat="51.20014172" lon="6.67068693">
<ele>72</ele>
<time>2011-10-01T13:14:28Z</time>
</trkpt>
<trkpt lat="51.20034393" lon="6.67070428">
<ele>68.5</ele>
<time>2011-10-01T13:14:32Z</time>
</trkpt>
<trkpt lat="51.20047448" lon="6.67054636">
<ele>67</ele>
<time>2011-10-01T13:14:36Z</time>
</trkpt>
<trkpt lat="51.20063164" lon="6.67036255">
<ele>68</ele>
<time>2011-10-01T13:14:40Z</time>
</trkpt>
<trkpt lat="51.20078621" lon="6.67015166">
<ele>68.5</ele>
<time>2011-10-01T13:14:44Z</time>
</trkpt>
<trkpt lat="51.20093167" lon="6.66993884">
<ele>68.5</ele>
<time>2011-10-01T13:14:48Z</time>
</trkpt>
<trkpt lat="51.20107492" lon="6.66973257">
<ele>69.5</ele>
<time>2011-10-01T13:14:52Z</time>
</trkpt>
<trkpt lat="51.20121548" lon="6.66949653">
<ele>70.5</ele>
<time>2011-10-01T13:14:56Z</time>
</trkpt>
<trkpt lat="51.20136573" lon="6.66925781">
<ele>0</ele>
<time>2011-10-01T13:15:00Z</time>
</trkpt>
<trkpt lat="51.20150085" lon="6.66903796">
<ele>0</ele>
<time>2011-10-01T13:15:04Z</time>
</trkpt>
<trkpt lat="51.2016016" lon="6.6688098">
<ele>71.5</ele>
<time>2011-10-01T13:15:08Z</time>
</trkpt>
<trkpt lat="51.2017179" lon="6.66858726">
<ele>70.5</ele>
<time>2011-10-01T13:15:12Z</time>
</trkpt>
<trkpt lat="51.20187732" lon="6.6683861">
<ele>72</ele>
<time>2011-10-01T13:15:16Z</time>
</trkpt>
<trkpt lat="51.20200338" lon="6.66817378">
<ele>72.5</ele>
<time>2011-10-01T13:15:20Z</time>
</trkpt>
<trkpt lat="51.20209936" lon="6.66795501">
<ele>72.5</ele>
<time>2011-10-01T13:15:24Z</time>
</trkpt>
<trkpt lat="51.20225513" lon="6.66773977">
<ele>71.5</ele>
<time>2011-10-01T13:15:28Z</time>
</trkpt>
<trkpt lat="51.20239188" lon="6.66751371">
<ele>70.5</ele>
<time>2011-10-01T13:15:32Z</time>
</trkpt>
<trkpt lat="51.20253614" lon="6.66728463">
<ele>70</ele>
<time>2011-10-01T13:15:36Z</time>
</trkpt>
<trkpt lat="51.20265596" lon="6.66707693">
<ele>69.5</ele>
<time>2011-10-01T13:15:40Z</time>
</trkpt>
<trkpt lat="51.20275419" lon="6.66686486">
<ele>69</ele>
<time>2011-10-01T13:15:44Z</time>
</trkpt>
<trkpt lat="51.20292933" lon="6.66663051">
<ele>67</ele>
<time>2011-10-01T13:15:48Z</time>
</trkpt>
<trkpt lat="51.20313913" lon="6.66643387">
<ele>66.5</ele>
<time>2011-10-01T13:15:52Z</time>
</trkpt>
<trkpt lat="51.20330895" lon="6.66621761">
<ele>64.5</ele>
<time>2011-10-01T13:15:56Z</time>
</trkpt>
<trkpt lat="51.20352281" lon="6.66596389">
<ele>64</ele>
<time>2011-10-01T13:16:01Z</time>
</trkpt>
<trkpt lat="51.20367285" lon="6.66577036">
<ele>62.5</ele>
<time>2011-10-01T13:16:05Z</time>
</trkpt>
<trkpt lat="51.20381073" lon="6.66556978">
<ele>59</ele>
<time>2011-10-01T13:16:09Z</time>
</trkpt>
<trkpt lat="51.20395511" lon="6.66536744">
<ele>56.5</ele>
<time>2011-10-01T13:16:13Z</time>
</trkpt>
<trkpt lat="51.20411177" lon="6.66514758">
<ele>56</ele>
<time>2011-10-01T13:16:17Z</time>
</trkpt>
<trkpt lat="51.20428598" lon="6.66492923">
<ele>57</ele>
<time>2011-10-01T13:16:21Z</time>
</trkpt>
<trkpt lat="51.20445781" lon="6.66473251">
<ele>58</ele>
<time>2011-10-01T13:16:25Z</time>
</trkpt>
<trkpt lat="51.2045918" lon="6.6644979">
<ele>59</ele>
<time>2011-10-01T13:16:29Z</time>
</trkpt>
<trkpt lat="51.20474121" lon="6.66430319">
<ele>59.5</ele>
<time>2011-10-01T13:16:33Z</time>
</trkpt>
<trkpt lat="51.20489246" lon="6.6640871">
<ele>59</ele>
<time>2011-10-01T13:16:37Z</time>
</trkpt>
<trkpt lat="51.20504396" lon="6.66385425">
<ele>58.5</ele>
<time>2011-10-01T13:16:41Z</time>
</trkpt>
<trkpt lat="51.20516466" lon="6.66360296">
<ele>58.5</ele>
<time>2011-10-01T13:16:45Z</time>
</trkpt>
<trkpt lat="51.20530778" lon="6.66339627">
<ele>58.5</ele>
<time>2011-10-01T13:16:49Z</time>
</trkpt>
<trkpt lat="51.20549809" lon="6.66318286">
<ele>0</ele>
<time>2011-10-01T13:16:53Z</time>
</trkpt>
<trkpt lat="51.20566451" lon="6.66296862">
<ele>61.5</ele>
<time>2011-10-01T13:16:57Z</time>
</trkpt>
<trkpt lat="51.20584686" lon="6.66277491">
<ele>63</ele>
<time>2011-10-01T13:17:01Z</time>
</trkpt>
<trkpt lat="51.2059881" lon="6.66256084">
<ele>64</ele>
<time>2011-10-01T13:17:05Z</time>
</trkpt>
<trkpt lat="51.20609719" lon="6.66234325">
<ele>65.5</ele>
<time>2011-10-01T13:17:09Z</time>
</trkpt>
<trkpt lat="51.20624584" lon="6.66210914">
<ele>66.5</ele>
<time>2011-10-01T13:17:13Z</time>
</trkpt>
<trkpt lat="51.20641495" lon="6.66190026">
<ele>66</ele>
<time>2011-10-01T13:17:17Z</time>
</trkpt>
<trkpt lat="51.20656016" lon="6.66168384">
<ele>66.5</ele>
<time>2011-10-01T13:17:21Z</time>
</trkpt>
<trkpt lat="51.20672227" lon="6.66147429">
<ele>68.5</ele>
<time>2011-10-01T13:17:25Z</time>
</trkpt>
<trkpt lat="51.20684054" lon="6.66124186">
<ele>68.5</ele>
<time>2011-10-01T13:17:29Z</time>
</trkpt>
<trkpt lat="51.20697473" lon="6.66106283">
<ele>68</ele>
<time>2011-10-01T13:17:33Z</time>
</trkpt>
<trkpt lat="51.20708198" lon="6.66084833">
<ele>66</ele>
<time>2011-10-01T13:17:37Z</time>
</trkpt>
<trkpt lat="51.20725729" lon="6.66065798">
<ele>64.5</ele>
<time>2011-10-01T13:17:41Z</time>
</trkpt>
<trkpt lat="51.20747467" lon="6.66045606">
<ele>66.5</ele>
<time>2011-10-01T13:17:45Z</time>
</trkpt>
<trkpt lat="51.20760941" lon="6.66023176">
<ele>68</ele>
<time>2011-10-01T13:17:49Z</time>
</trkpt>
<trkpt lat="51.20773627" lon="6.65998877">
<ele>68.5</ele>
<time>2011-10-01T13:17:53Z</time>
</trkpt>
<trkpt lat="51.2078532" lon="6.65981996">
<ele>68</ele>
<time>2011-10-01T13:17:57Z</time>
</trkpt>
<trkpt lat="51.20795143" lon="6.65978593">
<ele>70.5</ele>
<time>2011-10-01T13:18:01Z</time>
</trkpt>
<trkpt lat="51.2079682" lon="6.65974268">
<ele>74.5</ele>
<time>2011-10-01T13:18:05Z</time>
</trkpt>
<trkpt lat="51.20801262" lon="6.65976187">
<ele>73.5</ele>
<time>2011-10-01T13:18:09Z</time>
</trkpt>
<trkpt lat="51.20802167" lon="6.65978719">
<ele>72.5</ele>
<time>2011-10-01T13:18:13Z</time>
</trkpt>
<trkpt lat="51.20804389" lon="6.65980764">
<ele>71.5</ele>
<time>2011-10-01T13:18:17Z</time>
</trkpt>
<trkpt lat="51.20811861" lon="6.6598301">
<ele>73.5</ele>
<time>2011-10-01T13:18:21Z</time>
</trkpt>
<trkpt lat="51.20814757" lon="6.6598363">
<ele>73.5</ele>
<time>2011-10-01T13:18:25Z</time>
</trkpt>
<trkpt lat="51.20814635" lon="6.65983127">
<ele>0</ele>
<time>2011-10-01T13:18:29Z</time>
</trkpt>
<trkpt lat="51.20813751" lon="6.6598177">
<ele>76.5</ele>
<time>2011-10-01T13:18:33Z</time>
</trkpt>
<trkpt lat="51.20814723" lon="6.65981166">
<ele>78</ele>
<time>2011-10-01T13:18:37Z</time>
</trkpt>
<trkpt lat="51.20815063" lon="6.65979506">
<ele>76.5</ele>
<time>2011-10-01T13:18:41Z</time>
</trkpt>
<trkpt lat="51.20815155" lon="6.65978149">
<ele>75.5</ele>
<time>2011-10-01T13:18:45Z</time>
</trkpt>
<trkpt lat="51.20814862" lon="6.65976481">
<ele>76.5</ele>
<time>2011-10-01T13:18:49Z</time>
</trkpt>
<trkpt lat="51.2081479" lon="6.65975475">
<ele>77.5</ele>
<time>2011-10-01T13:18:53Z</time>
</trkpt>
<trkpt lat="51.20816517" lon="6.65975617">
<ele>78.5</ele>
<time>2011-10-01T13:18:57Z</time>
</trkpt>
<trkpt lat="51.20818374" lon="6.65976355">
<ele>80</ele>
<time>2011-10-01T13:19:01Z</time>
</trkpt>
<trkpt lat="51.20821517" lon="6.65977109">
<ele>81</ele>
<time>2011-10-01T13:19:05Z</time>
</trkpt>
<trkpt lat="51.20824296" lon="6.65978082">
<ele>81.5</ele>
<time>2011-10-01T13:19:09Z</time>
</trkpt>
<trkpt lat="51.20826236" lon="6.65978358">
<ele>81</ele>
<time>2011-10-01T13:19:13Z</time>
</trkpt>
<trkpt lat="51.20827221" lon="6.65977973">
<ele>79.5</ele>
<time>2011-10-01T13:19:17Z</time>
</trkpt>
<trkpt lat="51.20828373" lon="6.65978232">
<ele>79</ele>
<time>2011-10-01T13:19:21Z</time>
</trkpt>
<trkpt lat="51.20829396" lon="6.65978065">
<ele>78.5</ele>
<time>2011-10-01T13:19:25Z</time>
</trkpt>
<trkpt lat="51.20829928" lon="6.65977411">
<ele>78.5</ele>
<time>2011-10-01T13:19:29Z</time>
</trkpt>
<trkpt lat="51.2083049" lon="6.65976841">
<ele>78</ele>
<time>2011-10-01T13:19:33Z</time>
</trkpt>
<trkpt lat="51.2083163" lon="6.65976095">
<ele>78</ele>
<time>2011-10-01T13:19:37Z</time>
</trkpt>
<trkpt lat="51.20832983" lon="6.65975869">
<ele>0</ele>
<time>2011-10-01T13:19:41Z</time>
</trkpt>
<trkpt lat="51.2083378" lon="6.65975818">
<ele>77.5</ele>
<time>2011-10-01T13:19:45Z</time>
</trkpt>
<trkpt lat="51.20833939" lon="6.65975726">
<ele>77</ele>
<time>2011-10-01T13:19:49Z</time>
</trkpt>
<trkpt lat="51.2083396" lon="6.65974083">
<ele>0</ele>
<time>2011-10-01T13:19:53Z</time>
</trkpt>
<trkpt lat="51.20833889" lon="6.65972759">
<ele>0</ele>
<time>2011-10-01T13:19:57Z</time>
</trkpt>
<trkpt lat="51.20833667" lon="6.65972399">
<ele>76.5</ele>
<time>2011-10-01T13:20:01Z</time>
</trkpt>
<trkpt lat="51.20833629" lon="6.659726">
<ele>76.5</ele>
<time>2011-10-01T13:20:05Z</time>
</trkpt>
<trkpt lat="51.20833402" lon="6.65973748">
<ele>76.5</ele>
<time>2011-10-01T13:20:09Z</time>
</trkpt>
<trkpt lat="51.20833214" lon="6.65974494">
<ele>0</ele>
<time>2011-10-01T13:20:13Z</time>
</trkpt>
<trkpt lat="51.20833407" lon="6.65974695">
<ele>76.5</ele>
<time>2011-10-01T13:20:17Z</time>
</trkpt>
<trkpt lat="51.20833591" lon="6.65974737">
<ele>77</ele>
<time>2011-10-01T13:20:21Z</time>
</trkpt>
<trkpt lat="51.20834044" lon="6.65974335">
<ele>0</ele>
<time>2011-10-01T13:20:25Z</time>
</trkpt>
<trkpt lat="51.20834626" lon="6.65974058">
<ele>0</ele>
<time>2011-10-01T13:20:29Z</time>
</trkpt>
<trkpt lat="51.2083492" lon="6.65973379">
<ele>77.5</ele>
<time>2011-10-01T13:20:34Z</time>
</trkpt>
<trkpt lat="51.20835104" lon="6.6597296">
<ele>77.5</ele>
<time>2011-10-01T13:20:38Z</time>
</trkpt>
<trkpt lat="51.20835381" lon="6.65972885">
<ele>0</ele>
<time>2011-10-01T13:20:42Z</time>
</trkpt>
<trkpt lat="51.20835691" lon="6.65972725">
<ele>78</ele>
<time>2011-10-01T13:20:46Z</time>
</trkpt>
<trkpt lat="51.20836055" lon="6.65972197">
<ele>0</ele>
<time>2011-10-01T13:20:50Z</time>
</trkpt>
<trkpt lat="51.20836169" lon="6.65971736">
<ele>0</ele>
<time>2011-10-01T13:20:54Z</time>
</trkpt>
<trkpt lat="51.20836194" lon="6.65971485">
<ele>77</ele>
<time>2011-10-01T13:20:58Z</time>
</trkpt>
<trkpt lat="51.20836491" lon="6.6597146">
<ele>77.5</ele>
<time>2011-10-01T13:21:02Z</time>
</trkpt>
<trkpt lat="51.20836512" lon="6.65971166">
<ele>0</ele>
<time>2011-10-01T13:21:06Z</time>
</trkpt>
<trkpt lat="51.20836454" lon="6.65970412">
<ele>0</ele>
<time>2011-10-01T13:21:10Z</time>
</trkpt>
<trkpt lat="51.2083647" lon="6.65969976">
<ele>77</ele>
<time>2011-10-01T13:21:14Z</time>
</trkpt>
<trkpt lat="51.2083663" lon="6.65969725">
<ele>0</ele>
<time>2011-10-01T13:21:18Z</time>
</trkpt>
<trkpt lat="51.20836718" lon="6.65969716">
<ele>77.5</ele>
<time>2011-10-01T13:21:22Z</time>
</trkpt>
<trkpt lat="51.20836835" lon="6.65969633">
<ele>77.5</ele>
<time>2011-10-01T13:21:26Z</time>
</trkpt>
<trkpt lat="51.20851897" lon="6.6595224">
<ele>0</ele>
<time>2011-10-01T13:21:30Z</time>
</trkpt>
<trkpt lat="51.20863389" lon="6.65940271">
<ele>78.5</ele>
<time>2011-10-01T13:21:34Z</time>
</trkpt>
<trkpt lat="51.20870907" lon="6.65927949">
<ele>75.5</ele>
<time>2011-10-01T13:21:38Z</time>
</trkpt>
<trkpt lat="51.20877789" lon="6.65917204">
<ele>75</ele>
<time>2011-10-01T13:21:42Z</time>
</trkpt>
<trkpt lat="51.20886552" lon="6.65904053">
<ele>74.5</ele>
<time>2011-10-01T13:21:46Z</time>
</trkpt>
<trkpt lat="51.20888396" lon="6.65885998">
<ele>74</ele>
<time>2011-10-01T13:21:50Z</time>
</trkpt>
<trkpt lat="51.20892005" lon="6.65864071">
<ele>0</ele>
<time>2011-10-01T13:21:54Z</time>
</trkpt>
<trkpt lat="51.2089703" lon="6.65842244">
<ele>0</ele>
<time>2011-10-01T13:21:58Z</time>
</trkpt>
<trkpt lat="51.20899477" lon="6.65820686">
<ele>72</ele>
<time>2011-10-01T13:22:02Z</time>
</trkpt>
<trkpt lat="51.20912012" lon="6.65803889">
<ele>72.5</ele>
<time>2011-10-01T13:22:06Z</time>
</trkpt>
<trkpt lat="51.20925046" lon="6.65788131">
<ele>73</ele>
<time>2011-10-01T13:22:10Z</time>
</trkpt>
<trkpt lat="51.20929074" lon="6.65772205">
<ele>72</ele>
<time>2011-10-01T13:22:14Z</time>
</trkpt>
<trkpt lat="51.20939019" lon="6.65760772">
<ele>72</ele>
<time>2011-10-01T13:22:18Z</time>
</trkpt>
<trkpt lat="51.20945678" lon="6.65749448">
<ele>0</ele>
<time>2011-10-01T13:22:22Z</time>
</trkpt>
<trkpt lat="51.20947774" lon="6.65735023">
<ele>0</ele>
<time>2011-10-01T13:22:26Z</time>
</trkpt>
<trkpt lat="51.20945213" lon="6.65714253">
<ele>76</ele>
<time>2011-10-01T13:22:30Z</time>
</trkpt>
<trkpt lat="51.20959982" lon="6.65697288">
<ele>80.5</ele>
<time>2011-10-01T13:22:34Z</time>
</trkpt>
<trkpt lat="51.20975187" lon="6.65682284">
<ele>84</ele>
<time>2011-10-01T13:22:38Z</time>
</trkpt>
<trkpt lat="51.20973531" lon="6.65671069">
<ele>82</ele>
<time>2011-10-01T13:22:42Z</time>
</trkpt>
<trkpt lat="51.20978665" lon="6.65681957">
<ele>80.5</ele>
<time>2011-10-01T13:22:46Z</time>
</trkpt>
<trkpt lat="51.20983665" lon="6.65707187">
<ele>81.5</ele>
<time>2011-10-01T13:22:50Z</time>
</trkpt>
<trkpt lat="51.20986406" lon="6.65733104">
<ele>84</ele>
<time>2011-10-01T13:22:54Z</time>
</trkpt>
<trkpt lat="51.20992122" lon="6.65759574">
<ele>84</ele>
<time>2011-10-01T13:22:58Z</time>
</trkpt>
<trkpt lat="51.21000697" lon="6.65782842">
<ele>84</ele>
<time>2011-10-01T13:23:02Z</time>
</trkpt>
<trkpt lat="51.2101003" lon="6.6580171">
<ele>83.5</ele>
<time>2011-10-01T13:23:06Z</time>
</trkpt>
<trkpt lat="51.21022854" lon="6.65790838">
<ele>80.5</ele>
<time>2011-10-01T13:23:10Z</time>
</trkpt>
<trkpt lat="51.21038248" lon="6.65771082">
<ele>80</ele>
<time>2011-10-01T13:23:14Z</time>
</trkpt>
<trkpt lat="51.21054538" lon="6.65747244">
<ele>0</ele>
<time>2011-10-01T13:23:18Z</time>
</trkpt>
<trkpt lat="51.21071218" lon="6.65722132">
<ele>0</ele>
<time>2011-10-01T13:23:22Z</time>
</trkpt>
<trkpt lat="51.21089092" lon="6.65701169">
<ele>78.5</ele>
<time>2011-10-01T13:23:26Z</time>
</trkpt>
<trkpt lat="51.21103731" lon="6.65678026">
<ele>0</ele>
<time>2011-10-01T13:23:30Z</time>
</trkpt>
<trkpt lat="51.2112389" lon="6.65651757">
<ele>79</ele>
<time>2011-10-01T13:23:35Z</time>
</trkpt>
<trkpt lat="51.21138646" lon="6.65630928">
<ele>79</ele>
<time>2011-10-01T13:23:39Z</time>
</trkpt>
<trkpt lat="51.21153306" lon="6.65611558">
<ele>0</ele>
<time>2011-10-01T13:23:43Z</time>
</trkpt>
<trkpt lat="51.2116748" lon="6.6559129">
<ele>79</ele>
<time>2011-10-01T13:23:47Z</time>
</trkpt>
<trkpt lat="51.2118266" lon="6.65571509">
<ele>0</ele>
<time>2011-10-01T13:23:51Z</time>
</trkpt>
<trkpt lat="51.21197609" lon="6.65550537">
<ele>0</ele>
<time>2011-10-01T13:23:55Z</time>
</trkpt>
<trkpt lat="51.21212306" lon="6.65528568">
<ele>81</ele>
<time>2011-10-01T13:23:59Z</time>
</trkpt>
<trkpt lat="51.21227888" lon="6.65506675">
<ele>81.5</ele>
<time>2011-10-01T13:24:03Z</time>
</trkpt>
<trkpt lat="51.21242988" lon="6.65482912">
<ele>81.5</ele>
<time>2011-10-01T13:24:07Z</time>
</trkpt>
<trkpt lat="51.21259622" lon="6.65461195">
<ele>0</ele>
<time>2011-10-01T13:24:11Z</time>
</trkpt>
<trkpt lat="51.21275305" lon="6.65439988">
<ele>80</ele>
<time>2011-10-01T13:24:15Z</time>
</trkpt>
<trkpt lat="51.21293711" lon="6.65425329">
<ele>0</ele>
<time>2011-10-01T13:24:19Z</time>
</trkpt>
<trkpt lat="51.21310827" lon="6.65416678">
<ele>0</ele>
<time>2011-10-01T13:24:23Z</time>
</trkpt>
<trkpt lat="51.21328157" lon="6.65406134">
<ele>79.5</ele>
<time>2011-10-01T13:24:27Z</time>
</trkpt>
<trkpt lat="51.21341576" lon="6.65385992">
<ele>78</ele>
<time>2011-10-01T13:24:31Z</time>
</trkpt>
<trkpt lat="51.21355054" lon="6.65362917">
<ele>76.5</ele>
<time>2011-10-01T13:24:35Z</time>
</trkpt>
<trkpt lat="51.21369622" lon="6.65339456">
<ele>74.5</ele>
<time>2011-10-01T13:24:39Z</time>
</trkpt>
<trkpt lat="51.21381927" lon="6.65315584">
<ele>72.5</ele>
<time>2011-10-01T13:24:43Z</time>
</trkpt>
<trkpt lat="51.21398674" lon="6.65291947">
<ele>70.5</ele>
<time>2011-10-01T13:24:47Z</time>
</trkpt>
<trkpt lat="51.21414415" lon="6.65266743">
<ele>69.5</ele>
<time>2011-10-01T13:24:51Z</time>
</trkpt>
<trkpt lat="51.21428555" lon="6.65241564">
<ele>69.5</ele>
<time>2011-10-01T13:24:55Z</time>
</trkpt>
<trkpt lat="51.21441606" lon="6.65217021">
<ele>70</ele>
<time>2011-10-01T13:24:59Z</time>
</trkpt>
<trkpt lat="51.21456496" lon="6.65193091">
<ele>0</ele>
<time>2011-10-01T13:25:03Z</time>
</trkpt>
<trkpt lat="51.21473922" lon="6.65162363">
<ele>0</ele>
<time>2011-10-01T13:25:08Z</time>
</trkpt>
<trkpt lat="51.21487996" lon="6.65136622">
<ele>69.5</ele>
<time>2011-10-01T13:25:12Z</time>
</trkpt>
<trkpt lat="51.21502195" lon="6.65109465">
<ele>69.5</ele>
<time>2011-10-01T13:25:16Z</time>
</trkpt>
<trkpt lat="51.21514147" lon="6.65082408">
<ele>0</ele>
<time>2011-10-01T13:25:20Z</time>
</trkpt>
<trkpt lat="51.21524306" lon="6.65055217">
<ele>70.5</ele>
<time>2011-10-01T13:25:24Z</time>
</trkpt>
<trkpt lat="51.21540123" lon="6.65035327">
<ele>70.5</ele>
<time>2011-10-01T13:25:28Z</time>
</trkpt>
<trkpt lat="51.21556576" lon="6.65026576">
<ele>69.5</ele>
<time>2011-10-01T13:25:32Z</time>
</trkpt>
<trkpt lat="51.21563496" lon="6.65007005">
<ele>74</ele>
<time>2011-10-01T13:25:36Z</time>
</trkpt>
<trkpt lat="51.21569053" lon="6.64986553">
<ele>76.5</ele>
<time>2011-10-01T13:25:40Z</time>
</trkpt>
<trkpt lat="51.21573546" lon="6.64964525">
<ele>77</ele>
<time>2011-10-01T13:25:44Z</time>
</trkpt>
<trkpt lat="51.21577129" lon="6.64939715">
<ele>76</ele>
<time>2011-10-01T13:25:48Z</time>
</trkpt>
<trkpt lat="51.21579987" lon="6.64911501">
<ele>76.5</ele>
<time>2011-10-01T13:25:52Z</time>
</trkpt>
<trkpt lat="51.21585075" lon="6.64882164">
<ele>76.5</ele>
<time>2011-10-01T13:25:56Z</time>
</trkpt>
<trkpt lat="51.2160064" lon="6.64864177">
<ele>78</ele>
<time>2011-10-01T13:26:00Z</time>
</trkpt>
<trkpt lat="51.21608938" lon="6.64842996">
<ele>77.5</ele>
<time>2011-10-01T13:26:04Z</time>
</trkpt>
<trkpt lat="51.21610355" lon="6.64820801">
<ele>77.5</ele>
<time>2011-10-01T13:26:08Z</time>
</trkpt>
<trkpt lat="51.21607442" lon="6.6479459">
<ele>0</ele>
<time>2011-10-01T13:26:12Z</time>
</trkpt>
<trkpt lat="51.21603159" lon="6.64765413">
<ele>78</ele>
<time>2011-10-01T13:26:16Z</time>
</trkpt>
<trkpt lat="51.21604378" lon="6.64734651">
<ele>77</ele>
<time>2011-10-01T13:26:20Z</time>
</trkpt>
<trkpt lat="51.21608553" lon="6.64702373">
<ele>77.5</ele>
<time>2011-10-01T13:26:24Z</time>
</trkpt>
<trkpt lat="51.2161421" lon="6.64668543">
<ele>0</ele>
<time>2011-10-01T13:26:28Z</time>
</trkpt>
<trkpt lat="51.21618581" lon="6.64634521">
<ele>0</ele>
<time>2011-10-01T13:26:32Z</time>
</trkpt>
<trkpt lat="51.21624235" lon="6.64593659">
<ele>78</ele>
<time>2011-10-01T13:26:37Z</time>
</trkpt>
<trkpt lat="51.21626595" lon="6.64561188">
<ele>79</ele>
<time>2011-10-01T13:26:41Z</time>
</trkpt>
<trkpt lat="51.21628363" lon="6.64529345">
<ele>79</ele>
<time>2011-10-01T13:26:45Z</time>
</trkpt>
<trkpt lat="51.21630932" lon="6.64497603">
<ele>78.5</ele>
<time>2011-10-01T13:26:49Z</time>
</trkpt>
<trkpt lat="51.21632353" lon="6.6446612">
<ele>79</ele>
<time>2011-10-01T13:26:53Z</time>
</trkpt>
<trkpt lat="51.21635806" lon="6.64435166">
<ele>79</ele>
<time>2011-10-01T13:26:57Z</time>
</trkpt>
<trkpt lat="51.21640513" lon="6.64405184">
<ele>0</ele>
<time>2011-10-01T13:27:01Z</time>
</trkpt>
<trkpt lat="51.2164418" lon="6.6437583">
<ele>79</ele>
<time>2011-10-01T13:27:05Z</time>
</trkpt>
<trkpt lat="51.21646359" lon="6.64347257">
<ele>79.5</ele>
<time>2011-10-01T13:27:09Z</time>
</trkpt>
<trkpt lat="51.21643912" lon="6.64320267">
<ele>0</ele>
<time>2011-10-01T13:27:13Z</time>
</trkpt>
<trkpt lat="51.21645362" lon="6.64290545">
<ele>0</ele>
<time>2011-10-01T13:27:17Z</time>
</trkpt>
<trkpt lat="51.21651367" lon="6.64258048">
<ele>79.5</ele>
<time>2011-10-01T13:27:21Z</time>
</trkpt>
<trkpt lat="51.21653798" lon="6.64226054">
<ele>80</ele>
<time>2011-10-01T13:27:25Z</time>
</trkpt>
<trkpt lat="51.21655487" lon="6.64194153">
<ele>80.5</ele>
<time>2011-10-01T13:27:29Z</time>
</trkpt>
<trkpt lat="51.21656342" lon="6.64161304">
<ele>81</ele>
<time>2011-10-01T13:27:33Z</time>
</trkpt>
<trkpt lat="51.21659204" lon="6.6412931">
<ele>81</ele>
<time>2011-10-01T13:27:37Z</time>
</trkpt>
<trkpt lat="51.21662079" lon="6.6409792">
<ele>81</ele>
<time>2011-10-01T13:27:41Z</time>
</trkpt>
<trkpt lat="51.21664615" lon="6.64067628">
<ele>81.5</ele>
<time>2011-10-01T13:27:45Z</time>
</trkpt>
<trkpt lat="51.21666438" lon="6.64037688">
<ele>0</ele>
<time>2011-10-01T13:27:49Z</time>
</trkpt>
<trkpt lat="51.21667029" lon="6.64007194">
<ele>0</ele>
<time>2011-10-01T13:27:53Z</time>
</trkpt>
<trkpt lat="51.21669657" lon="6.63976693">
<ele>80.5</ele>
<time>2011-10-01T13:27:57Z</time>
</trkpt>
<trkpt lat="51.21671656" lon="6.63945294">
<ele>81.5</ele>
<time>2011-10-01T13:28:01Z</time>
</trkpt>
<trkpt lat="51.21673961" lon="6.63914029">
<ele>81</ele>
<time>2011-10-01T13:28:05Z</time>
</trkpt>
<trkpt lat="51.21675063" lon="6.63878482">
<ele>80</ele>
<time>2011-10-01T13:28:10Z</time>
</trkpt>
<trkpt lat="51.2167627" lon="6.63853604">
<ele>80</ele>
<time>2011-10-01T13:28:14Z</time>
</trkpt>
<trkpt lat="51.2167741" lon="6.6383016">
<ele>80.5</ele>
<time>2011-10-01T13:28:18Z</time>
</trkpt>
<trkpt lat="51.21678039" lon="6.63819909">
<ele>82</ele>
<time>2011-10-01T13:28:22Z</time>
</trkpt>
<trkpt lat="51.21677414" lon="6.6381778">
<ele>84.5</ele>
<time>2011-10-01T13:28:26Z</time>
</trkpt>
<trkpt lat="51.21677225" lon="6.63816967">
<ele>89</ele>
<time>2011-10-01T13:28:30Z</time>
</trkpt>
<trkpt lat="51.21678768" lon="6.63816154">
<ele>89.5</ele>
<time>2011-10-01T13:28:34Z</time>
</trkpt>
<trkpt lat="51.21681613" lon="6.63817914">
<ele>90</ele>
<time>2011-10-01T13:28:38Z</time>
</trkpt>
<trkpt lat="51.21681739" lon="6.63817713">
<ele>0</ele>
<time>2011-10-01T13:28:42Z</time>
</trkpt>
<trkpt lat="51.21683948" lon="6.63810706">
<ele>0</ele>
<time>2011-10-01T13:28:46Z</time>
</trkpt>
<trkpt lat="51.2168549" lon="6.63798259">
<ele>89.5</ele>
<time>2011-10-01T13:28:50Z</time>
</trkpt>
<trkpt lat="51.216858" lon="6.63786884">
<ele>89.5</ele>
<time>2011-10-01T13:28:54Z</time>
</trkpt>
<trkpt lat="51.21686731" lon="6.63786046">
<ele>0</ele>
<time>2011-10-01T13:28:58Z</time>
</trkpt>
<trkpt lat="51.21686743" lon="6.63785476">
<ele>87</ele>
<time>2011-10-01T13:29:02Z</time>
</trkpt>
<trkpt lat="51.21686584" lon="6.63784713">
<ele>85</ele>
<time>2011-10-01T13:29:06Z</time>
</trkpt>
<trkpt lat="51.2168484" lon="6.63783758">
<ele>84.5</ele>
<time>2011-10-01T13:29:10Z</time>
</trkpt>
<trkpt lat="51.21683998" lon="6.63783146">
<ele>0</ele>
<time>2011-10-01T13:29:14Z</time>
</trkpt>
<trkpt lat="51.21684614" lon="6.63783557">
<ele>0</ele>
<time>2011-10-01T13:29:18Z</time>
</trkpt>
<trkpt lat="51.21684874" lon="6.63781218">
<ele>84</ele>
<time>2011-10-01T13:29:22Z</time>
</trkpt>
<trkpt lat="51.21684723" lon="6.63782408">
<ele>0</ele>
<time>2011-10-01T13:29:26Z</time>
</trkpt>
<trkpt lat="51.21684744" lon="6.63782618">
<ele>84.5</ele>
<time>2011-10-01T13:29:30Z</time>
</trkpt>
<trkpt lat="51.21683453" lon="6.63783339">
<ele>87</ele>
<time>2011-10-01T13:29:34Z</time>
</trkpt>
<trkpt lat="51.21682787" lon="6.63783582">
<ele>88</ele>
<time>2011-10-01T13:29:38Z</time>
</trkpt>
<trkpt lat="51.21683269" lon="6.63772853">
<ele>87.5</ele>
<time>2011-10-01T13:29:41Z</time>
</trkpt>
<trkpt lat="51.21682866" lon="6.63745394">
<ele>87</ele>
<time>2011-10-01T13:29:45Z</time>
</trkpt>
<trkpt lat="51.21683696" lon="6.63715152">
<ele>86.5</ele>
<time>2011-10-01T13:29:49Z</time>
</trkpt>
<trkpt lat="51.2168163" lon="6.63682563">
<ele>0</ele>
<time>2011-10-01T13:29:53Z</time>
</trkpt>
<trkpt lat="51.21679648" lon="6.6364886">
<ele>0</ele>
<time>2011-10-01T13:29:57Z</time>
</trkpt>
<trkpt lat="51.21679824" lon="6.6361462">
<ele>85</ele>
<time>2011-10-01T13:30:01Z</time>
</trkpt>
<trkpt lat="51.21681295" lon="6.63579432">
<ele>84</ele>
<time>2011-10-01T13:30:05Z</time>
</trkpt>
<trkpt lat="51.21683135" lon="6.63544069">
<ele>83.5</ele>
<time>2011-10-01T13:30:09Z</time>
</trkpt>
<trkpt lat="51.21684166" lon="6.63509343">
<ele>83.5</ele>
<time>2011-10-01T13:30:13Z</time>
</trkpt>
<trkpt lat="51.21686202" lon="6.63475513">
<ele>83.5</ele>
<time>2011-10-01T13:30:17Z</time>
</trkpt>
<trkpt lat="51.21687912" lon="6.63441282">
<ele>83.5</ele>
<time>2011-10-01T13:30:21Z</time>
</trkpt>
<trkpt lat="51.21687242" lon="6.63406782">
<ele>0</ele>
<time>2011-10-01T13:30:25Z</time>
</trkpt>
<trkpt lat="51.21689228" lon="6.63372927">
<ele>84</ele>
<time>2011-10-01T13:30:29Z</time>
</trkpt>
<trkpt lat="51.21690347" lon="6.63339878">
<ele>85</ele>
<time>2011-10-01T13:30:33Z</time>
</trkpt>
<trkpt lat="51.21692447" lon="6.63306333">
<ele>85.5</ele>
<time>2011-10-01T13:30:37Z</time>
</trkpt>
<trkpt lat="51.21694283" lon="6.6327221">
<ele>85.5</ele>
<time>2011-10-01T13:30:41Z</time>
</trkpt>
<trkpt lat="51.21696529" lon="6.63237702">
<ele>0</ele>
<time>2011-10-01T13:30:45Z</time>
</trkpt>
<trkpt lat="51.21698251" lon="6.63203697">
<ele>85.5</ele>
<time>2011-10-01T13:30:49Z</time>
</trkpt>
<trkpt lat="51.2169994" lon="6.63169155">
<ele>86</ele>
<time>2011-10-01T13:30:53Z</time>
</trkpt>
<trkpt lat="51.21702057" lon="6.63134722">
<ele>0</ele>
<time>2011-10-01T13:30:57Z</time>
</trkpt>
<trkpt lat="51.21703846" lon="6.63100189">
<ele>0</ele>
<time>2011-10-01T13:31:01Z</time>
</trkpt>
<trkpt lat="51.21704676" lon="6.63065429">
<ele>86</ele>
<time>2011-10-01T13:31:05Z</time>
</trkpt>
<trkpt lat="51.21706214" lon="6.6303227">
<ele>0</ele>
<time>2011-10-01T13:31:09Z</time>
</trkpt>
<trkpt lat="51.21709588" lon="6.6299922">
<ele>86</ele>
<time>2011-10-01T13:31:13Z</time>
</trkpt>
<trkpt lat="51.21711658" lon="6.62966598">
<ele>86</ele>
<time>2011-10-01T13:31:17Z</time>
</trkpt>
<trkpt lat="51.21712664" lon="6.62934219">
<ele>86</ele>
<time>2011-10-01T13:31:21Z</time>
</trkpt>
<trkpt lat="51.21714575" lon="6.62902703">
<ele>0</ele>
<time>2011-10-01T13:31:25Z</time>
</trkpt>
<trkpt lat="51.2171543" lon="6.62870868">
<ele>86.5</ele>
<time>2011-10-01T13:31:29Z</time>
</trkpt>
<trkpt lat="51.21720933" lon="6.62840459">
<ele>87</ele>
<time>2011-10-01T13:31:33Z</time>
</trkpt>
<trkpt lat="51.21723427" lon="6.62808834">
<ele>0</ele>
<time>2011-10-01T13:31:37Z</time>
</trkpt>
<trkpt lat="51.21722433" lon="6.62777133">
<ele>0</ele>
<time>2011-10-01T13:31:41Z</time>
</trkpt>
<trkpt lat="51.21724851" lon="6.62746556">
<ele>86.5</ele>
<time>2011-10-01T13:31:45Z</time>
</trkpt>
<trkpt lat="51.21727341" lon="6.62714965">
<ele>0</ele>
<time>2011-10-01T13:31:49Z</time>
</trkpt>
<trkpt lat="51.21728736" lon="6.62683516">
<ele>86.5</ele>
<time>2011-10-01T13:31:53Z</time>
</trkpt>
<trkpt lat="51.21729176" lon="6.62652461">
<ele>87</ele>
<time>2011-10-01T13:31:57Z</time>
</trkpt>
<trkpt lat="51.21732278" lon="6.62622252">
<ele>0</ele>
<time>2011-10-01T13:32:01Z</time>
</trkpt>
<trkpt lat="51.2173343" lon="6.62591625">
<ele>0</ele>
<time>2011-10-01T13:32:05Z</time>
</trkpt>
<trkpt lat="51.21736184" lon="6.62560998">
<ele>86.5</ele>
<time>2011-10-01T13:32:09Z</time>
</trkpt>
<trkpt lat="51.21738162" lon="6.62530571">
<ele>87</ele>
<time>2011-10-01T13:32:13Z</time>
</trkpt>
<trkpt lat="51.21739335" lon="6.62498745">
<ele>86.5</ele>
<time>2011-10-01T13:32:17Z</time>
</trkpt>
<trkpt lat="51.21743086" lon="6.62467581">
<ele>87</ele>
<time>2011-10-01T13:32:21Z</time>
</trkpt>
<trkpt lat="51.2174501" lon="6.6243749">
<ele>0</ele>
<time>2011-10-01T13:32:25Z</time>
</trkpt>
<trkpt lat="51.21744587" lon="6.62407072">
<ele>0</ele>
<time>2011-10-01T13:32:29Z</time>
</trkpt>
<trkpt lat="51.21746887" lon="6.62376487">
<ele>87</ele>
<time>2011-10-01T13:32:33Z</time>
</trkpt>
<trkpt lat="51.21749276" lon="6.62345658">
<ele>0</ele>
<time>2011-10-01T13:32:37Z</time>
</trkpt>
<trkpt lat="51.21754012" lon="6.62307797">
<ele>86.5</ele>
<time>2011-10-01T13:32:42Z</time>
</trkpt>
<trkpt lat="51.21755299" lon="6.62277957">
<ele>86.5</ele>
<time>2011-10-01T13:32:46Z</time>
</trkpt>
<trkpt lat="51.21757247" lon="6.6224795">
<ele>0</ele>
<time>2011-10-01T13:32:50Z</time>
</trkpt>
<trkpt lat="51.21754942" lon="6.6221718">
<ele>87</ele>
<time>2011-10-01T13:32:54Z</time>
</trkpt>
<trkpt lat="51.2175747" lon="6.62186561">
<ele>87.5</ele>
<time>2011-10-01T13:32:58Z</time>
</trkpt>
<trkpt lat="51.21774925" lon="6.6215911">
<ele>88</ele>
<time>2011-10-01T13:33:02Z</time>
</trkpt>
<trkpt lat="51.2178153" lon="6.62129221">
<ele>88</ele>
<time>2011-10-01T13:33:06Z</time>
</trkpt>
<trkpt lat="51.21796135" lon="6.62101133">
<ele>88</ele>
<time>2011-10-01T13:33:10Z</time>
</trkpt>
<trkpt lat="51.21811281" lon="6.62073598">
<ele>87.5</ele>
<time>2011-10-01T13:33:14Z</time>
</trkpt>
<trkpt lat="51.21826419" lon="6.6204629">
<ele>0</ele>
<time>2011-10-01T13:33:18Z</time>
</trkpt>
<trkpt lat="51.21834059" lon="6.62016073">
<ele>0</ele>
<time>2011-10-01T13:33:22Z</time>
</trkpt>
<trkpt lat="51.21845169" lon="6.61985706">
<ele>86.5</ele>
<time>2011-10-01T13:33:26Z</time>
</trkpt>
<trkpt lat="51.2185392" lon="6.61955246">
<ele>0</ele>
<time>2011-10-01T13:33:30Z</time>
</trkpt>
<trkpt lat="51.21868651" lon="6.61925926">
<ele>0</ele>
<time>2011-10-01T13:33:34Z</time>
</trkpt>
<trkpt lat="51.21879741" lon="6.61896388">
<ele>85.5</ele>
<time>2011-10-01T13:33:38Z</time>
</trkpt>
<trkpt lat="51.21889065" lon="6.61866515">
<ele>0</ele>
<time>2011-10-01T13:33:42Z</time>
</trkpt>
<trkpt lat="51.21894916" lon="6.61836063">
<ele>0</ele>
<time>2011-10-01T13:33:46Z</time>
</trkpt>
<trkpt lat="51.21907246" lon="6.61805964">
<ele>86</ele>
<time>2011-10-01T13:33:50Z</time>
</trkpt>
<trkpt lat="51.21919739" lon="6.61775127">
<ele>85.5</ele>
<time>2011-10-01T13:33:54Z</time>
</trkpt>
<trkpt lat="51.21926579" lon="6.61742991">
<ele>85</ele>
<time>2011-10-01T13:33:58Z</time>
</trkpt>
<trkpt lat="51.21933557" lon="6.61711458">
<ele>85</ele>
<time>2011-10-01T13:34:02Z</time>
</trkpt>
<trkpt lat="51.21939952" lon="6.61680856">
<ele>85</ele>
<time>2011-10-01T13:34:06Z</time>
</trkpt>
<trkpt lat="51.21951699" lon="6.61651695">
<ele>0</ele>
<time>2011-10-01T13:34:10Z</time>
</trkpt>
<trkpt lat="51.21959679" lon="6.61614982">
<ele>84.5</ele>
<time>2011-10-01T13:34:15Z</time>
</trkpt>
<trkpt lat="51.21969578" lon="6.61586191">
<ele>84.5</ele>
<time>2011-10-01T13:34:19Z</time>
</trkpt>
<trkpt lat="51.21980022" lon="6.61556594">
<ele>84.5</ele>
<time>2011-10-01T13:34:23Z</time>
</trkpt>
<trkpt lat="51.21987951" lon="6.61527475">
<ele>84.5</ele>
<time>2011-10-01T13:34:27Z</time>
</trkpt>
<trkpt lat="51.21998864" lon="6.61500016">
<ele>0</ele>
<time>2011-10-01T13:34:31Z</time>
</trkpt>
<trkpt lat="51.22009011" lon="6.61471744">
<ele>84.5</ele>
<time>2011-10-01T13:34:35Z</time>
</trkpt>
<trkpt lat="51.2201813" lon="6.61444092">
<ele>84.5</ele>
<time>2011-10-01T13:34:39Z</time>
</trkpt>
<trkpt lat="51.22027107" lon="6.61417161">
<ele>0</ele>
<time>2011-10-01T13:34:43Z</time>
</trkpt>
<trkpt lat="51.22034743" lon="6.61389031">
<ele>85</ele>
<time>2011-10-01T13:34:47Z</time>
</trkpt>
<trkpt lat="51.22040434" lon="6.61360768">
<ele>83.5</ele>
<time>2011-10-01T13:34:51Z</time>
</trkpt>
<trkpt lat="51.2205219" lon="6.61332789">
<ele>84</ele>
<time>2011-10-01T13:34:55Z</time>
</trkpt>
<trkpt lat="51.22062906" lon="6.61304575">
<ele>0</ele>
<time>2011-10-01T13:34:59Z</time>
</trkpt>
<trkpt lat="51.22072692" lon="6.61276253">
<ele>0</ele>
<time>2011-10-01T13:35:03Z</time>
</trkpt>
<trkpt lat="51.22082507" lon="6.61247335">
<ele>84</ele>
<time>2011-10-01T13:35:07Z</time>
</trkpt>
<trkpt lat="51.22093894" lon="6.61219072">
<ele>84</ele>
<time>2011-10-01T13:35:11Z</time>
</trkpt>
<trkpt lat="51.22105365" lon="6.61190447">
<ele>84</ele>
<time>2011-10-01T13:35:15Z</time>
</trkpt>
<trkpt lat="51.22114991" lon="6.61160993">
<ele>0</ele>
<time>2011-10-01T13:35:19Z</time>
</trkpt>
<trkpt lat="51.22124719" lon="6.61132185">
<ele>84.5</ele>
<time>2011-10-01T13:35:23Z</time>
</trkpt>
<trkpt lat="51.22134559" lon="6.61103108">
<ele>84</ele>
<time>2011-10-01T13:35:27Z</time>
</trkpt>
<trkpt lat="51.22142639" lon="6.61074249">
<ele>0</ele>
<time>2011-10-01T13:35:31Z</time>
</trkpt>
<trkpt lat="51.22148804" lon="6.61044854">
<ele>0</ele>
<time>2011-10-01T13:35:35Z</time>
</trkpt>
<trkpt lat="51.22157144" lon="6.61015802">
<ele>83.5</ele>
<time>2011-10-01T13:35:39Z</time>
</trkpt>
<trkpt lat="51.22169939" lon="6.60980414">
<ele>83</ele>
<time>2011-10-01T13:35:44Z</time>
</trkpt>
<trkpt lat="51.22176305" lon="6.60952887">
<ele>84</ele>
<time>2011-10-01T13:35:48Z</time>
</trkpt>
<trkpt lat="51.2218343" lon="6.60925537">
<ele>84</ele>
<time>2011-10-01T13:35:52Z</time>
</trkpt>
<trkpt lat="51.2219086" lon="6.6089833">
<ele>0</ele>
<time>2011-10-01T13:35:56Z</time>
</trkpt>
<trkpt lat="51.22198286" lon="6.60870032">
<ele>84</ele>
<time>2011-10-01T13:36:00Z</time>
</trkpt>
<trkpt lat="51.22211203" lon="6.60843143">
<ele>84.5</ele>
<time>2011-10-01T13:36:04Z</time>
</trkpt>
<trkpt lat="51.22217804" lon="6.60819012">
<ele>0</ele>
<time>2011-10-01T13:36:08Z</time>
</trkpt>
<trkpt lat="51.22229995" lon="6.60800848">
<ele>0</ele>
<time>2011-10-01T13:36:12Z</time>
</trkpt>
<trkpt lat="51.22243348" lon="6.60780178">
<ele>85</ele>
<time>2011-10-01T13:36:16Z</time>
</trkpt>
<trkpt lat="51.22252237" lon="6.6075111">
<ele>84.5</ele>
<time>2011-10-01T13:36:20Z</time>
</trkpt>
<trkpt lat="51.22264529" lon="6.60722243">
<ele>85.5</ele>
<time>2011-10-01T13:36:24Z</time>
</trkpt>
<trkpt lat="51.22272588" lon="6.6069278">
<ele>85.5</ele>
<time>2011-10-01T13:36:28Z</time>
</trkpt>
<trkpt lat="51.22282877" lon="6.60664332">
<ele>0</ele>
<time>2011-10-01T13:36:32Z</time>
</trkpt>
<trkpt lat="51.22291862" lon="6.60636429">
<ele>85.5</ele>
<time>2011-10-01T13:36:36Z</time>
</trkpt>
<trkpt lat="51.22299678" lon="6.60608509">
<ele>85.5</ele>
<time>2011-10-01T13:36:40Z</time>
</trkpt>
<trkpt lat="51.22304054" lon="6.60580404">
<ele>86</ele>
<time>2011-10-01T13:36:44Z</time>
</trkpt>
<trkpt lat="51.22314577" lon="6.60553507">
<ele>0</ele>
<time>2011-10-01T13:36:48Z</time>
</trkpt>
<trkpt lat="51.2232425" lon="6.6052645">
<ele>0</ele>
<time>2011-10-01T13:36:52Z</time>
</trkpt>
<trkpt lat="51.22333503" lon="6.60499142">
<ele>85.5</ele>
<time>2011-10-01T13:36:56Z</time>
</trkpt>
<trkpt lat="51.22342254" lon="6.60471791">
<ele>0</ele>
<time>2011-10-01T13:37:00Z</time>
</trkpt>
<trkpt lat="51.2235173" lon="6.60443544">
<ele>86</ele>
<time>2011-10-01T13:37:04Z</time>
</trkpt>
<trkpt lat="51.22359609" lon="6.6041492">
<ele>85.5</ele>
<time>2011-10-01T13:37:08Z</time>
</trkpt>
<trkpt lat="51.22366327" lon="6.60386438">
<ele>85</ele>
<time>2011-10-01T13:37:12Z</time>
</trkpt>
<trkpt lat="51.22376993" lon="6.60350715">
<ele>0</ele>
<time>2011-10-01T13:37:17Z</time>
</trkpt>
<trkpt lat="51.22388028" lon="6.60322585">
<ele>0</ele>
<time>2011-10-01T13:37:21Z</time>
</trkpt>
<trkpt lat="51.22396636" lon="6.60294447">
<ele>85.5</ele>
<time>2011-10-01T13:37:25Z</time>
</trkpt>
<trkpt lat="51.22405504" lon="6.60266795">
<ele>0</ele>
<time>2011-10-01T13:37:29Z</time>
</trkpt>
<trkpt lat="51.22408555" lon="6.60244851">
<ele>0</ele>
<time>2011-10-01T13:37:32Z</time>
</trkpt>
<trkpt lat="51.22414141" lon="6.60215548">
<ele>86.5</ele>
<time>2011-10-01T13:37:36Z</time>
</trkpt>
<trkpt lat="51.22417213" lon="6.60185876">
<ele>0</ele>
<time>2011-10-01T13:37:40Z</time>
</trkpt>
<trkpt lat="51.22422641" lon="6.60155291">
<ele>87</ele>
<time>2011-10-01T13:37:44Z</time>
</trkpt>
<trkpt lat="51.22433101" lon="6.60125803">
<ele>87</ele>
<time>2011-10-01T13:37:48Z</time>
</trkpt>
<trkpt lat="51.22445775" lon="6.60097405">
<ele>0</ele>
<time>2011-10-01T13:37:52Z</time>
</trkpt>
<trkpt lat="51.22454919" lon="6.6006827">
<ele>0</ele>
<time>2011-10-01T13:37:56Z</time>
</trkpt>
<trkpt lat="51.22464483" lon="6.60040283">
<ele>87</ele>
<time>2011-10-01T13:38:00Z</time>
</trkpt>
<trkpt lat="51.22473246" lon="6.60012321">
<ele>0</ele>
<time>2011-10-01T13:38:04Z</time>
</trkpt>
<trkpt lat="51.22481804" lon="6.59984157">
<ele>0</ele>
<time>2011-10-01T13:38:08Z</time>
</trkpt>
<trkpt lat="51.22489834" lon="6.59956573">
<ele>86</ele>
<time>2011-10-01T13:38:12Z</time>
</trkpt>
<trkpt lat="51.22499151" lon="6.59929415">
<ele>85.5</ele>
<time>2011-10-01T13:38:16Z</time>
</trkpt>
<trkpt lat="51.22503099" lon="6.59900171">
<ele>85.5</ele>
<time>2011-10-01T13:38:20Z</time>
</trkpt>
<trkpt lat="51.2250529" lon="6.59872686">
<ele>0</ele>
<time>2011-10-01T13:38:24Z</time>
</trkpt>
<trkpt lat="51.22516271" lon="6.59849485">
<ele>86.5</ele>
<time>2011-10-01T13:38:28Z</time>
</trkpt>
<trkpt lat="51.22526199" lon="6.59829696">
<ele>87</ele>
<time>2011-10-01T13:38:32Z</time>
</trkpt>
<trkpt lat="51.22534795" lon="6.59825295">
<ele>88.5</ele>
<time>2011-10-01T13:38:36Z</time>
</trkpt>
<trkpt lat="51.22544023" lon="6.59826016">
<ele>90</ele>
<time>2011-10-01T13:38:40Z</time>
</trkpt>
<trkpt lat="51.22556965" lon="6.59827768">
<ele>90.5</ele>
<time>2011-10-01T13:38:44Z</time>
</trkpt>
<trkpt lat="51.22565825" lon="6.59830526">
<ele>90.5</ele>
<time>2011-10-01T13:38:49Z</time>
</trkpt>
<trkpt lat="51.22569228" lon="6.59832126">
<ele>0</ele>
<time>2011-10-01T13:38:53Z</time>
</trkpt>
<trkpt lat="51.22577266" lon="6.59834406">
<ele>91.5</ele>
<time>2011-10-01T13:38:57Z</time>
</trkpt>
<trkpt lat="51.22580962" lon="6.59834012">
<ele>91.5</ele>
<time>2011-10-01T13:39:01Z</time>
</trkpt>
<trkpt lat="51.22584525" lon="6.59821406">
<ele>91.5</ele>
<time>2011-10-01T13:39:05Z</time>
</trkpt>
<trkpt lat="51.22587731" lon="6.59801289">
<ele>91</ele>
<time>2011-10-01T13:39:09Z</time>
</trkpt>
<trkpt lat="51.22588988" lon="6.59781114">
<ele>90</ele>
<time>2011-10-01T13:39:13Z</time>
</trkpt>
<trkpt lat="51.22593225" lon="6.59758592">
<ele>89</ele>
<time>2011-10-01T13:39:17Z</time>
</trkpt>
<trkpt lat="51.22599076" lon="6.59731527">
<ele>89</ele>
<time>2011-10-01T13:39:21Z</time>
</trkpt>
<trkpt lat="51.22605664" lon="6.59702366">
<ele>0</ele>
<time>2011-10-01T13:39:25Z</time>
</trkpt>
<trkpt lat="51.22611422" lon="6.59673046">
<ele>88</ele>
<time>2011-10-01T13:39:29Z</time>
</trkpt>
<trkpt lat="51.22616112" lon="6.59643349">
<ele>87</ele>
<time>2011-10-01T13:39:33Z</time>
</trkpt>
<trkpt lat="51.22624334" lon="6.59613518">
<ele>87.5</ele>
<time>2011-10-01T13:39:37Z</time>
</trkpt>
<trkpt lat="51.22628446" lon="6.59583041">
<ele>87</ele>
<time>2011-10-01T13:39:41Z</time>
</trkpt>
<trkpt lat="51.22634443" lon="6.59552774">
<ele>87</ele>
<time>2011-10-01T13:39:45Z</time>
</trkpt>
<trkpt lat="51.22643617" lon="6.59522415">
<ele>87</ele>
<time>2011-10-01T13:39:49Z</time>
</trkpt>
<trkpt lat="51.2265285" lon="6.59492601">
<ele>87.5</ele>
<time>2011-10-01T13:39:53Z</time>
</trkpt>
<trkpt lat="51.22661923" lon="6.59463465">
<ele>0</ele>
<time>2011-10-01T13:39:57Z</time>
</trkpt>
<trkpt lat="51.22671076" lon="6.59433953">
<ele>0</ele>
<time>2011-10-01T13:40:01Z</time>
</trkpt>
<trkpt lat="51.22677484" lon="6.59404482">
<ele>87.5</ele>
<time>2011-10-01T13:40:05Z</time>
</trkpt>
<trkpt lat="51.22677555" lon="6.59375279">
<ele>88.5</ele>
<time>2011-10-01T13:40:09Z</time>
</trkpt>
<trkpt lat="51.22682903" lon="6.59356311">
<ele>88.5</ele>
<time>2011-10-01T13:40:13Z</time>
</trkpt>
<trkpt lat="51.2268911" lon="6.59358574">
<ele>0</ele>
<time>2011-10-01T13:40:18Z</time>
</trkpt>
<trkpt lat="51.22689743" lon="6.59362958">
<ele>0</ele>
<time>2011-10-01T13:40:22Z</time>
</trkpt>
<trkpt lat="51.22686168" lon="6.59360393">
<ele>88</ele>
<time>2011-10-01T13:40:26Z</time>
</trkpt>
<trkpt lat="51.22682916" lon="6.59357627">
<ele>88</ele>
<time>2011-10-01T13:40:30Z</time>
</trkpt>
<trkpt lat="51.22685183" lon="6.59357602">
<ele>88</ele>
<time>2011-10-01T13:40:34Z</time>
</trkpt>
<trkpt lat="51.22687848" lon="6.59358473">
<ele>0</ele>
<time>2011-10-01T13:40:38Z</time>
</trkpt>
<trkpt lat="51.22687945" lon="6.59358004">
<ele>87.5</ele>
<time>2011-10-01T13:40:42Z</time>
</trkpt>
<trkpt lat="51.2268908" lon="6.593588">
<ele>88.5</ele>
<time>2011-10-01T13:40:46Z</time>
</trkpt>
<trkpt lat="51.22692115" lon="6.59360452">
<ele>89.5</ele>
<time>2011-10-01T13:40:50Z</time>
</trkpt>
<trkpt lat="51.22692655" lon="6.59360644">
<ele>91</ele>
<time>2011-10-01T13:40:54Z</time>
</trkpt>
<trkpt lat="51.22692245" lon="6.59360711">
<ele>92</ele>
<time>2011-10-01T13:40:58Z</time>
</trkpt>
<trkpt lat="51.22692069" lon="6.59361055">
<ele>92</ele>
<time>2011-10-01T13:41:02Z</time>
</trkpt>
<trkpt lat="51.22691968" lon="6.5936103">
<ele>0</ele>
<time>2011-10-01T13:41:06Z</time>
</trkpt>
<trkpt lat="51.22691855" lon="6.59361164">
<ele>0</ele>
<time>2011-10-01T13:41:10Z</time>
</trkpt>
<trkpt lat="51.22691997" lon="6.59361307">
<ele>90.5</ele>
<time>2011-10-01T13:41:14Z</time>
</trkpt>
<trkpt lat="51.22693435" lon="6.59360804">
<ele>89</ele>
<time>2011-10-01T13:41:18Z</time>
</trkpt>
<trkpt lat="51.22693619" lon="6.59360711">
<ele>88</ele>
<time>2011-10-01T13:41:22Z</time>
</trkpt>
<trkpt lat="51.22695094" lon="6.59360376">
<ele>87.5</ele>
<time>2011-10-01T13:41:26Z</time>
</trkpt>
<trkpt lat="51.2269605" lon="6.59359471">
<ele>86.5</ele>
<time>2011-10-01T13:41:30Z</time>
</trkpt>
<trkpt lat="51.226967" lon="6.5935927">
<ele>86</ele>
<time>2011-10-01T13:41:34Z</time>
</trkpt>
<trkpt lat="51.22697395" lon="6.59359161">
<ele>86</ele>
<time>2011-10-01T13:41:38Z</time>
</trkpt>
<trkpt lat="51.22697747" lon="6.59358842">
<ele>0</ele>
<time>2011-10-01T13:41:42Z</time>
</trkpt>
<trkpt lat="51.22698187" lon="6.59358809">
<ele>86</ele>
<time>2011-10-01T13:41:46Z</time>
</trkpt>
<trkpt lat="51.2269807" lon="6.59359178">
<ele>86.5</ele>
<time>2011-10-01T13:41:51Z</time>
</trkpt>
<trkpt lat="51.22697622" lon="6.59359111">
<ele>0</ele>
<time>2011-10-01T13:41:55Z</time>
</trkpt>
<trkpt lat="51.22697215" lon="6.59358616">
<ele>0</ele>
<time>2011-10-01T13:41:59Z</time>
</trkpt>
<trkpt lat="51.22697362" lon="6.59358767">
<ele>87.5</ele>
<time>2011-10-01T13:42:03Z</time>
</trkpt>
<trkpt lat="51.22697936" lon="6.59359002">
<ele>88</ele>
<time>2011-10-01T13:42:07Z</time>
</trkpt>
<trkpt lat="51.22697999" lon="6.59359077">
<ele>88.5</ele>
<time>2011-10-01T13:42:11Z</time>
</trkpt>
<trkpt lat="51.2269815" lon="6.59358893">
<ele>88.5</ele>
<time>2011-10-01T13:42:15Z</time>
</trkpt>
<trkpt lat="51.22698573" lon="6.59359186">
<ele>0</ele>
<time>2011-10-01T13:42:19Z</time>
</trkpt>
<trkpt lat="51.22698674" lon="6.59359354">
<ele>88.5</ele>
<time>2011-10-01T13:42:23Z</time>
</trkpt>
<trkpt lat="51.22698196" lon="6.59359287">
<ele>89</ele>
<time>2011-10-01T13:42:27Z</time>
</trkpt>
<trkpt lat="51.22698053" lon="6.59359362">
<ele>89.5</ele>
<time>2011-10-01T13:42:31Z</time>
</trkpt>
<trkpt lat="51.22698393" lon="6.59359446">
<ele>90</ele>
<time>2011-10-01T13:42:35Z</time>
</trkpt>
<trkpt lat="51.22698602" lon="6.59359387">
<ele>0</ele>
<time>2011-10-01T13:42:39Z</time>
</trkpt>
<trkpt lat="51.22698665" lon="6.5935927">
<ele>0</ele>
<time>2011-10-01T13:42:43Z</time>
</trkpt>
<trkpt lat="51.22698782" lon="6.59359152">
<ele>89</ele>
<time>2011-10-01T13:42:47Z</time>
</trkpt>
<trkpt lat="51.22698741" lon="6.59359136">
<ele>88.5</ele>
<time>2011-10-01T13:42:51Z</time>
</trkpt>
<trkpt lat="51.22698694" lon="6.59359412">
<ele>88</ele>
<time>2011-10-01T13:42:55Z</time>
</trkpt>
<trkpt lat="51.22698803" lon="6.59359924">
<ele>0</ele>
<time>2011-10-01T13:42:59Z</time>
</trkpt>
<trkpt lat="51.22699105" lon="6.59360183">
<ele>0</ele>
<time>2011-10-01T13:43:03Z</time>
</trkpt>
<trkpt lat="51.22699587" lon="6.5936041">
<ele>88</ele>
<time>2011-10-01T13:43:07Z</time>
</trkpt>
<trkpt lat="51.22700161" lon="6.5936041">
<ele>87.5</ele>
<time>2011-10-01T13:43:11Z</time>
</trkpt>
<trkpt lat="51.22700547" lon="6.59360385">
<ele>0</ele>
<time>2011-10-01T13:43:15Z</time>
</trkpt>
<trkpt lat="51.22700807" lon="6.59360242">
<ele>0</ele>
<time>2011-10-01T13:43:20Z</time>
</trkpt>
<trkpt lat="51.22700673" lon="6.5936015">
<ele>87</ele>
<time>2011-10-01T13:43:24Z</time>
</trkpt>
<trkpt lat="51.22700597" lon="6.59360108">
<ele>86.5</ele>
<time>2011-10-01T13:43:28Z</time>
</trkpt>
<trkpt lat="51.22700417" lon="6.59360452">
<ele>0</ele>
<time>2011-10-01T13:43:32Z</time>
</trkpt>
<trkpt lat="51.22700513" lon="6.59360862">
<ele>0</ele>
<time>2011-10-01T13:43:36Z</time>
</trkpt>
<trkpt lat="51.22700836" lon="6.59360887">
<ele>86.5</ele>
<time>2011-10-01T13:43:40Z</time>
</trkpt>
<trkpt lat="51.22701125" lon="6.59360611">
<ele>0</ele>
<time>2011-10-01T13:43:44Z</time>
</trkpt>
<trkpt lat="51.22701498" lon="6.59360276">
<ele>85.5</ele>
<time>2011-10-01T13:43:48Z</time>
</trkpt>
<trkpt lat="51.22702064" lon="6.59360183">
<ele>85</ele>
<time>2011-10-01T13:43:52Z</time>
</trkpt>
<trkpt lat="51.22702647" lon="6.59359982">
<ele>85</ele>
<time>2011-10-01T13:43:56Z</time>
</trkpt>
<trkpt lat="51.22702768" lon="6.59359773">
<ele>0</ele>
<time>2011-10-01T13:44:00Z</time>
</trkpt>
<trkpt lat="51.22702831" lon="6.59359513">
<ele>84.5</ele>
<time>2011-10-01T13:44:04Z</time>
</trkpt>
<trkpt lat="51.22702915" lon="6.59359437">
<ele>84.5</ele>
<time>2011-10-01T13:44:08Z</time>
</trkpt>
<trkpt lat="51.22703011" lon="6.59359639">
<ele>0</ele>
<time>2011-10-01T13:44:12Z</time>
</trkpt>
<trkpt lat="51.2270307" lon="6.59359764">
<ele>84</ele>
<time>2011-10-01T13:44:16Z</time>
</trkpt>
<trkpt lat="51.22703158" lon="6.59359572">
<ele>83.5</ele>
<time>2011-10-01T13:44:20Z</time>
</trkpt>
<trkpt lat="51.22703237" lon="6.59359605">
<ele>83</ele>
<time>2011-10-01T13:44:24Z</time>
</trkpt>
<trkpt lat="51.22703447" lon="6.59359756">
<ele>83</ele>
<time>2011-10-01T13:44:28Z</time>
</trkpt>
<trkpt lat="51.22703766" lon="6.59360024">
<ele>0</ele>
<time>2011-10-01T13:44:32Z</time>
</trkpt>
<trkpt lat="51.22703958" lon="6.59360016">
<ele>82.5</ele>
<time>2011-10-01T13:44:36Z</time>
</trkpt>
<trkpt lat="51.22704013" lon="6.59359789">
<ele>82</ele>
<time>2011-10-01T13:44:40Z</time>
</trkpt>
<trkpt lat="51.22703967" lon="6.59359672">
<ele>82</ele>
<time>2011-10-01T13:44:44Z</time>
</trkpt>
<trkpt lat="51.22704055" lon="6.59359613">
<ele>0</ele>
<time>2011-10-01T13:44:48Z</time>
</trkpt>
<trkpt lat="51.22704105" lon="6.59359597">
<ele>83</ele>
<time>2011-10-01T13:44:53Z</time>
</trkpt>
<trkpt lat="51.2270434" lon="6.59359639">
<ele>83</ele>
<time>2011-10-01T13:44:57Z</time>
</trkpt>
<trkpt lat="51.22704541" lon="6.59359563">
<ele>0</ele>
<time>2011-10-01T13:45:01Z</time>
</trkpt>
<trkpt lat="51.22704629" lon="6.59359429">
<ele>82</ele>
<time>2011-10-01T13:45:05Z</time>
</trkpt>
<trkpt lat="51.22704637" lon="6.59359379">
<ele>82</ele>
<time>2011-10-01T13:45:09Z</time>
</trkpt>
<trkpt lat="51.2270465" lon="6.59359379">
<ele>0</ele>
<time>2011-10-01T13:45:13Z</time>
</trkpt>
<trkpt lat="51.22704587" lon="6.59359152">
<ele>82</ele>
<time>2011-10-01T13:45:17Z</time>
</trkpt>
<trkpt lat="51.22704646" lon="6.59358733">
<ele>81.5</ele>
<time>2011-10-01T13:45:21Z</time>
</trkpt>
<trkpt lat="51.22704847" lon="6.59358423">
<ele>81.5</ele>
<time>2011-10-01T13:45:25Z</time>
</trkpt>
<trkpt lat="51.22705094" lon="6.59358121">
<ele>0</ele>
<time>2011-10-01T13:45:29Z</time>
</trkpt>
<trkpt lat="51.22705396" lon="6.59358356">
<ele>81</ele>
<time>2011-10-01T13:45:33Z</time>
</trkpt>
<trkpt lat="51.22705538" lon="6.59358323">
<ele>0</ele>
<time>2011-10-01T13:45:37Z</time>
</trkpt>
<trkpt lat="51.22705924" lon="6.59358423">
<ele>0</ele>
<time>2011-10-01T13:45:41Z</time>
</trkpt>
<trkpt lat="51.22706247" lon="6.59358733">
<ele>80.5</ele>
<time>2011-10-01T13:45:45Z</time>
</trkpt>
<trkpt lat="51.22706448" lon="6.59358842">
<ele>0</ele>
<time>2011-10-01T13:45:49Z</time>
</trkpt>
<trkpt lat="51.2270667" lon="6.59358616">
<ele>0</ele>
<time>2011-10-01T13:45:53Z</time>
</trkpt>
<trkpt lat="51.22706787" lon="6.59358566">
<ele>81</ele>
<time>2011-10-01T13:45:57Z</time>
</trkpt>
<trkpt lat="51.22706796" lon="6.59358767">
<ele>0</ele>
<time>2011-10-01T13:46:01Z</time>
</trkpt>
<trkpt lat="51.22706674" lon="6.59358976">
<ele>81.5</ele>
<time>2011-10-01T13:46:05Z</time>
</trkpt>
<trkpt lat="51.22721585" lon="6.59366797">
<ele>81.5</ele>
<time>2011-10-01T13:46:09Z</time>
</trkpt>
<trkpt lat="51.22726254" lon="6.59353931">
<ele>82</ele>
<time>2011-10-01T13:46:13Z</time>
</trkpt>
<trkpt lat="51.22730399" lon="6.59329983">
<ele>81.5</ele>
<time>2011-10-01T13:46:17Z</time>
</trkpt>
<trkpt lat="51.22729037" lon="6.59303849">
<ele>81.5</ele>
<time>2011-10-01T13:46:21Z</time>
</trkpt>
<trkpt lat="51.22722466" lon="6.59264915">
<ele>83</ele>
<time>2011-10-01T13:46:26Z</time>
</trkpt>
<trkpt lat="51.2272555" lon="6.59234514">
<ele>83.5</ele>
<time>2011-10-01T13:46:30Z</time>
</trkpt>
<trkpt lat="51.2272765" lon="6.59203467">
<ele>83.5</ele>
<time>2011-10-01T13:46:34Z</time>
</trkpt>
<trkpt lat="51.227269" lon="6.59172362">
<ele>84.5</ele>
<time>2011-10-01T13:46:38Z</time>
</trkpt>
<trkpt lat="51.22721942" lon="6.59139982">
<ele>85.5</ele>
<time>2011-10-01T13:46:42Z</time>
</trkpt>
<trkpt lat="51.22717227" lon="6.59108559">
<ele>87</ele>
<time>2011-10-01T13:46:46Z</time>
</trkpt>
<trkpt lat="51.22712533" lon="6.59076255">
<ele>87.5</ele>
<time>2011-10-01T13:46:50Z</time>
</trkpt>
<trkpt lat="51.2271457" lon="6.59044881">
<ele>0</ele>
<time>2011-10-01T13:46:54Z</time>
</trkpt>
<trkpt lat="51.22718991" lon="6.59015805">
<ele>0</ele>
<time>2011-10-01T13:46:58Z</time>
</trkpt>
<trkpt lat="51.22724251" lon="6.58984758">
<ele>88</ele>
<time>2011-10-01T13:47:02Z</time>
</trkpt>
<trkpt lat="51.22721552" lon="6.58954063">
<ele>0</ele>
<time>2011-10-01T13:47:06Z</time>
</trkpt>
<trkpt lat="51.2272159" lon="6.58922195">
<ele>89</ele>
<time>2011-10-01T13:47:10Z</time>
</trkpt>
<trkpt lat="51.22727671" lon="6.58890302">
<ele>88</ele>
<time>2011-10-01T13:47:14Z</time>
</trkpt>
<trkpt lat="51.22730567" lon="6.58858803">
<ele>88</ele>
<time>2011-10-01T13:47:18Z</time>
</trkpt>
<trkpt lat="51.22735885" lon="6.58826784">
<ele>88.5</ele>
<time>2011-10-01T13:47:22Z</time>
</trkpt>
<trkpt lat="51.22735944" lon="6.58795436">
<ele>0</ele>
<time>2011-10-01T13:47:26Z</time>
</trkpt>
<trkpt lat="51.22738383" lon="6.58764364">
<ele>0</ele>
<time>2011-10-01T13:47:30Z</time>
</trkpt>
<trkpt lat="51.22742142" lon="6.58733116">
<ele>89.5</ele>
<time>2011-10-01T13:47:34Z</time>
</trkpt>
<trkpt lat="51.22745688" lon="6.58702657">
<ele>0</ele>
<time>2011-10-01T13:47:38Z</time>
</trkpt>
<trkpt lat="51.22751526" lon="6.58671677">
<ele>88.5</ele>
<time>2011-10-01T13:47:42Z</time>
</trkpt>
<trkpt lat="51.22752636" lon="6.58641251">
<ele>88.5</ele>
<time>2011-10-01T13:47:46Z</time>
</trkpt>
<trkpt lat="51.22751915" lon="6.58611076">
<ele>0</ele>
<time>2011-10-01T13:47:50Z</time>
</trkpt>
<trkpt lat="51.22750746" lon="6.58574036">
<ele>89.5</ele>
<time>2011-10-01T13:47:55Z</time>
</trkpt>
<trkpt lat="51.22746455" lon="6.58547767">
<ele>90</ele>
<time>2011-10-01T13:47:59Z</time>
</trkpt>
<trkpt lat="51.22743718" lon="6.58525832">
<ele>89</ele>
<time>2011-10-01T13:48:03Z</time>
</trkpt>
<trkpt lat="51.22748659" lon="6.58520828">
<ele>88.5</ele>
<time>2011-10-01T13:48:07Z</time>
</trkpt>
<trkpt lat="51.2275751" lon="6.58524206">
<ele>0</ele>
<time>2011-10-01T13:48:11Z</time>
</trkpt>
<trkpt lat="51.22774194" lon="6.58534859">
<ele>0</ele>
<time>2011-10-01T13:48:15Z</time>
</trkpt>
<trkpt lat="51.22795707" lon="6.58536997">
<ele>86.5</ele>
<time>2011-10-01T13:48:19Z</time>
</trkpt>
<trkpt lat="51.22818996" lon="6.58535907">
<ele>86</ele>
<time>2011-10-01T13:48:23Z</time>
</trkpt>
<trkpt lat="51.22841434" lon="6.58535924">
<ele>0</ele>
<time>2011-10-01T13:48:27Z</time>
</trkpt>
<trkpt lat="51.22861266" lon="6.58536242">
<ele>0</ele>
<time>2011-10-01T13:48:31Z</time>
</trkpt>
<trkpt lat="51.22881906" lon="6.58536988">
<ele>86.5</ele>
<time>2011-10-01T13:48:35Z</time>
</trkpt>
<trkpt lat="51.22900296" lon="6.58537441">
<ele>0</ele>
<time>2011-10-01T13:48:39Z</time>
</trkpt>
<trkpt lat="51.22915999" lon="6.58539461">
<ele>0</ele>
<time>2011-10-01T13:48:43Z</time>
</trkpt>
<trkpt lat="51.22926481" lon="6.58556962">
<ele>87</ele>
<time>2011-10-01T13:48:47Z</time>
</trkpt>
<trkpt lat="51.22933861" lon="6.58583768">
<ele>86</ele>
<time>2011-10-01T13:48:51Z</time>
</trkpt>
<trkpt lat="51.22938132" lon="6.58614647">
<ele>85.5</ele>
<time>2011-10-01T13:48:55Z</time>
</trkpt>
<trkpt lat="51.22939737" lon="6.58645215">
<ele>86</ele>
<time>2011-10-01T13:48:59Z</time>
</trkpt>
<trkpt lat="51.22942457" lon="6.5867788">
<ele>85</ele>
<time>2011-10-01T13:49:03Z</time>
</trkpt>
<trkpt lat="51.22942742" lon="6.58714651">
<ele>85</ele>
<time>2011-10-01T13:49:07Z</time>
</trkpt>
<trkpt lat="51.22944301" lon="6.58751783">
<ele>0</ele>
<time>2011-10-01T13:49:11Z</time>
</trkpt>
<trkpt lat="51.22945139" lon="6.58788999">
<ele>85.5</ele>
<time>2011-10-01T13:49:15Z</time>
</trkpt>
<trkpt lat="51.22944674" lon="6.58827312">
<ele>85</ele>
<time>2011-10-01T13:49:19Z</time>
</trkpt>
<trkpt lat="51.22943999" lon="6.58865014">
<ele>85.5</ele>
<time>2011-10-01T13:49:23Z</time>
</trkpt>
<trkpt lat="51.229434" lon="6.58908541">
<ele>85.5</ele>
<time>2011-10-01T13:49:28Z</time>
</trkpt>
<trkpt lat="51.22943115" lon="6.58942329">
<ele>85.5</ele>
<time>2011-10-01T13:49:32Z</time>
</trkpt>
<trkpt lat="51.2294348" lon="6.58976317">
<ele>0</ele>
<time>2011-10-01T13:49:36Z</time>
</trkpt>
<trkpt lat="51.22956425" lon="6.58999049">
<ele>85.5</ele>
<time>2011-10-01T13:49:40Z</time>
</trkpt>
<trkpt lat="51.22977577" lon="6.59000826">
<ele>86</ele>
<time>2011-10-01T13:49:44Z</time>
</trkpt>
<trkpt lat="51.22998762" lon="6.59002444">
<ele>86</ele>
<time>2011-10-01T13:49:48Z</time>
</trkpt>
<trkpt lat="51.23020358" lon="6.59003953">
<ele>0</ele>
<time>2011-10-01T13:49:52Z</time>
</trkpt>
<trkpt lat="51.23041271" lon="6.59004883">
<ele>86</ele>
<time>2011-10-01T13:49:56Z</time>
</trkpt>
<trkpt lat="51.23062884" lon="6.59007037">
<ele>86.5</ele>
<time>2011-10-01T13:50:00Z</time>
</trkpt>
<trkpt lat="51.23083939" lon="6.59008143">
<ele>0</ele>
<time>2011-10-01T13:50:04Z</time>
</trkpt>
<trkpt lat="51.23105397" lon="6.59009283">
<ele>0</ele>
<time>2011-10-01T13:50:08Z</time>
</trkpt>
<trkpt lat="51.23126063" lon="6.59011044">
<ele>87</ele>
<time>2011-10-01T13:50:12Z</time>
</trkpt>
<trkpt lat="51.23146179" lon="6.59011764">
<ele>87</ele>
<time>2011-10-01T13:50:16Z</time>
</trkpt>
<trkpt lat="51.23166719" lon="6.59012938">
<ele>87.5</ele>
<time>2011-10-01T13:50:20Z</time>
</trkpt>
<trkpt lat="51.23186827" lon="6.59014723">
<ele>87</ele>
<time>2011-10-01T13:50:24Z</time>
</trkpt>
<trkpt lat="51.23207996" lon="6.59023365">
<ele>87.5</ele>
<time>2011-10-01T13:50:28Z</time>
</trkpt>
<trkpt lat="51.2322587" lon="6.59044144">
<ele>0</ele>
<time>2011-10-01T13:50:32Z</time>
</trkpt>
<trkpt lat="51.23242261" lon="6.5906649">
<ele>0</ele>
<time>2011-10-01T13:50:36Z</time>
</trkpt>
<trkpt lat="51.23257021" lon="6.59085425">
<ele>88</ele>
<time>2011-10-01T13:50:40Z</time>
</trkpt>
<trkpt lat="51.23270051" lon="6.59103923">
<ele>87.5</ele>
<time>2011-10-01T13:50:44Z</time>
</trkpt>
<trkpt lat="51.23282431" lon="6.59120142">
<ele>88</ele>
<time>2011-10-01T13:50:48Z</time>
</trkpt>
<trkpt lat="51.23291819" lon="6.59133101">
<ele>0</ele>
<time>2011-10-01T13:50:52Z</time>
</trkpt>
<trkpt lat="51.23298575" lon="6.59144676">
<ele>0</ele>
<time>2011-10-01T13:50:57Z</time>
</trkpt>
<trkpt lat="51.23309798" lon="6.59157467">
<ele>88</ele>
<time>2011-10-01T13:51:01Z</time>
</trkpt>
<trkpt lat="51.23320003" lon="6.59174114">
<ele>87.5</ele>
<time>2011-10-01T13:51:05Z</time>
</trkpt>
<trkpt lat="51.23327597" lon="6.59188824">
<ele>0</ele>
<time>2011-10-01T13:51:09Z</time>
</trkpt>
<trkpt lat="51.23335426" lon="6.59202654">
<ele>0</ele>
<time>2011-10-01T13:51:13Z</time>
</trkpt>
<trkpt lat="51.23349813" lon="6.59212117">
<ele>88.5</ele>
<time>2011-10-01T13:51:17Z</time>
</trkpt>
<trkpt lat="51.23365982" lon="6.59217624">
<ele>88.5</ele>
<time>2011-10-01T13:51:21Z</time>
</trkpt>
<trkpt lat="51.23381618" lon="6.59226123">
<ele>89</ele>
<time>2011-10-01T13:51:25Z</time>
</trkpt>
<trkpt lat="51.2339632" lon="6.59233633">
<ele>89</ele>
<time>2011-10-01T13:51:29Z</time>
</trkpt>
<trkpt lat="51.23408642" lon="6.59240926">
<ele>0</ele>
<time>2011-10-01T13:51:33Z</time>
</trkpt>
<trkpt lat="51.23419035" lon="6.59247698">
<ele>90</ele>
<time>2011-10-01T13:51:37Z</time>
</trkpt>
<trkpt lat="51.23429957" lon="6.59255535">
<ele>90</ele>
<time>2011-10-01T13:51:41Z</time>
</trkpt>
<trkpt lat="51.23432752" lon="6.59273054">
<ele>0</ele>
<time>2011-10-01T13:51:45Z</time>
</trkpt>
<trkpt lat="51.23434768" lon="6.59298216">
<ele>92</ele>
<time>2011-10-01T13:51:49Z</time>
</trkpt>
<trkpt lat="51.23438687" lon="6.59331752">
<ele>0</ele>
<time>2011-10-01T13:51:53Z</time>
</trkpt>
<trkpt lat="51.23443536" lon="6.59371239">
<ele>0</ele>
<time>2011-10-01T13:51:57Z</time>
</trkpt>
<trkpt lat="51.23448896" lon="6.59409637">
<ele>90</ele>
<time>2011-10-01T13:52:01Z</time>
</trkpt>
<trkpt lat="51.23453112" lon="6.59445126">
<ele>0</ele>
<time>2011-10-01T13:52:05Z</time>
</trkpt>
<trkpt lat="51.23457068" lon="6.5947872">
<ele>0</ele>
<time>2011-10-01T13:52:09Z</time>
</trkpt>
<trkpt lat="51.2346172" lon="6.59511468">
<ele>90</ele>
<time>2011-10-01T13:52:13Z</time>
</trkpt>
<trkpt lat="51.23467349" lon="6.59543588">
<ele>90</ele>
<time>2011-10-01T13:52:17Z</time>
</trkpt>
<trkpt lat="51.23471774" lon="6.59576369">
<ele>90</ele>
<time>2011-10-01T13:52:21Z</time>
</trkpt>
<trkpt lat="51.23476497" lon="6.59607894">
<ele>0</ele>
<time>2011-10-01T13:52:25Z</time>
</trkpt>
<trkpt lat="51.23482071" lon="6.59645738">
<ele>90</ele>
<time>2011-10-01T13:52:30Z</time>
</trkpt>
<trkpt lat="51.23487423" lon="6.5967629">
<ele>89.5</ele>
<time>2011-10-01T13:52:34Z</time>
</trkpt>
<trkpt lat="51.23492607" lon="6.59708493">
<ele>89</ele>
<time>2011-10-01T13:52:38Z</time>
</trkpt>
<trkpt lat="51.23496979" lon="6.59740613">
<ele>89</ele>
<time>2011-10-01T13:52:42Z</time>
</trkpt>
<trkpt lat="51.2350132" lon="6.59775322">
<ele>0</ele>
<time>2011-10-01T13:52:46Z</time>
</trkpt>
<trkpt lat="51.23504966" lon="6.59810945">
<ele>0</ele>
<time>2011-10-01T13:52:50Z</time>
</trkpt>
<trkpt lat="51.23510792" lon="6.59847373">
<ele>86.5</ele>
<time>2011-10-01T13:52:54Z</time>
</trkpt>
<trkpt lat="51.23515226" lon="6.59884547">
<ele>86</ele>
<time>2011-10-01T13:52:58Z</time>
</trkpt>
<trkpt lat="51.23519149" lon="6.5991877">
<ele>86</ele>
<time>2011-10-01T13:53:02Z</time>
</trkpt>
<trkpt lat="51.23523097" lon="6.59952834">
<ele>86.5</ele>
<time>2011-10-01T13:53:06Z</time>
</trkpt>
<trkpt lat="51.23527811" lon="6.59987971">
<ele>86.5</ele>
<time>2011-10-01T13:53:10Z</time>
</trkpt>
<trkpt lat="51.23531575" lon="6.60023955">
<ele>87</ele>
<time>2011-10-01T13:53:14Z</time>
</trkpt>
<trkpt lat="51.23535653" lon="6.60062">
<ele>87</ele>
<time>2011-10-01T13:53:18Z</time>
</trkpt>
<trkpt lat="51.23539848" lon="6.60100364">
<ele>0</ele>
<time>2011-10-01T13:53:22Z</time>
</trkpt>
<trkpt lat="51.23544206" lon="6.60138695">
<ele>87</ele>
<time>2011-10-01T13:53:26Z</time>
</trkpt>
<trkpt lat="51.23549231" lon="6.60177025">
<ele>87.5</ele>
<time>2011-10-01T13:53:30Z</time>
</trkpt>
<trkpt lat="51.23553804" lon="6.60215037">
<ele>87.5</ele>
<time>2011-10-01T13:53:34Z</time>
</trkpt>
<trkpt lat="51.23556511" lon="6.60253057">
<ele>88</ele>
<time>2011-10-01T13:53:38Z</time>
</trkpt>
<trkpt lat="51.23561113" lon="6.60289661">
<ele>88.5</ele>
<time>2011-10-01T13:53:42Z</time>
</trkpt>
<trkpt lat="51.23565413" lon="6.60325343">
<ele>88.5</ele>
<time>2011-10-01T13:53:46Z</time>
</trkpt>
<trkpt lat="51.23568992" lon="6.60361502">
<ele>88</ele>
<time>2011-10-01T13:53:50Z</time>
</trkpt>
<trkpt lat="51.2357294" lon="6.60397427">
<ele>88</ele>
<time>2011-10-01T13:53:54Z</time>
</trkpt>
<trkpt lat="51.23576816" lon="6.60433226">
<ele>0</ele>
<time>2011-10-01T13:53:59Z</time>
</trkpt>
<trkpt lat="51.23581736" lon="6.60478933">
<ele>89</ele>
<time>2011-10-01T13:54:03Z</time>
</trkpt>
<trkpt lat="51.23586124" lon="6.60514229">
<ele>0</ele>
<time>2011-10-01T13:54:07Z</time>
</trkpt>
<trkpt lat="51.23589645" lon="6.60548704">
<ele>0</ele>
<time>2011-10-01T13:54:11Z</time>
</trkpt>
<trkpt lat="51.23592415" lon="6.6058265">
<ele>89.5</ele>
<time>2011-10-01T13:54:15Z</time>
</trkpt>
<trkpt lat="51.23595525" lon="6.60616287">
<ele>0</ele>
<time>2011-10-01T13:54:19Z</time>
</trkpt>
<trkpt lat="51.23598794" lon="6.60650603">
<ele>0</ele>
<time>2011-10-01T13:54:23Z</time>
</trkpt>
<trkpt lat="51.23601413" lon="6.60684675">
<ele>89</ele>
<time>2011-10-01T13:54:27Z</time>
</trkpt>
<trkpt lat="51.2360342" lon="6.60718211">
<ele>0</ele>
<time>2011-10-01T13:54:31Z</time>
</trkpt>
<trkpt lat="51.23606308" lon="6.60750439">
<ele>89.5</ele>
<time>2011-10-01T13:54:35Z</time>
</trkpt>
<trkpt lat="51.23608466" lon="6.60780933">
<ele>90</ele>
<time>2011-10-01T13:54:39Z</time>
</trkpt>
<trkpt lat="51.23610025" lon="6.60809817">
<ele>90</ele>
<time>2011-10-01T13:54:43Z</time>
</trkpt>
<trkpt lat="51.23613219" lon="6.6083995">
<ele>89.5</ele>
<time>2011-10-01T13:54:47Z</time>
</trkpt>
<trkpt lat="51.23615708" lon="6.60871365">
<ele>89.5</ele>
<time>2011-10-01T13:54:51Z</time>
</trkpt>
<trkpt lat="51.23619367" lon="6.60897844">
<ele>0</ele>
<time>2011-10-01T13:54:55Z</time>
</trkpt>
<trkpt lat="51.23618189" lon="6.60900551">
<ele>88.5</ele>
<time>2011-10-01T13:54:59Z</time>
</trkpt>
<trkpt lat="51.23616651" lon="6.60884927">
<ele>88</ele>
<time>2011-10-01T13:55:03Z</time>
</trkpt>
<trkpt lat="51.23616035" lon="6.60873368">
<ele>87</ele>
<time>2011-10-01T13:55:07Z</time>
</trkpt>
<trkpt lat="51.2361593" lon="6.60873368">
<ele>87.5</ele>
<time>2011-10-01T13:55:11Z</time>
</trkpt>
<trkpt lat="51.23615469" lon="6.60873285">
<ele>87</ele>
<time>2011-10-01T13:55:15Z</time>
</trkpt>
<trkpt lat="51.23615235" lon="6.60872664">
<ele>87.5</ele>
<time>2011-10-01T13:55:19Z</time>
</trkpt>
<trkpt lat="51.23615842" lon="6.60872974">
<ele>90</ele>
<time>2011-10-01T13:55:23Z</time>
</trkpt>
<trkpt lat="51.23614719" lon="6.60872488">
<ele>91</ele>
<time>2011-10-01T13:55:27Z</time>
</trkpt>
<trkpt lat="51.23614665" lon="6.60872924">
<ele>91</ele>
<time>2011-10-01T13:55:32Z</time>
</trkpt>
<trkpt lat="51.23612234" lon="6.60872061">
<ele>0</ele>
<time>2011-10-01T13:55:36Z</time>
</trkpt>
<trkpt lat="51.23611555" lon="6.60872773">
<ele>90</ele>
<time>2011-10-01T13:55:40Z</time>
</trkpt>
<trkpt lat="51.23611639" lon="6.60872472">
<ele>89.5</ele>
<time>2011-10-01T13:55:44Z</time>
</trkpt>
<trkpt lat="51.23612029" lon="6.60871692">
<ele>88.5</ele>
<time>2011-10-01T13:55:48Z</time>
</trkpt>
<trkpt lat="51.23612351" lon="6.60871063">
<ele>88</ele>
<time>2011-10-01T13:55:52Z</time>
</trkpt>
<trkpt lat="51.23611857" lon="6.60870066">
<ele>88.5</ele>
<time>2011-10-01T13:55:56Z</time>
</trkpt>
<trkpt lat="51.23611588" lon="6.60869647">
<ele>0</ele>
<time>2011-10-01T13:56:00Z</time>
</trkpt>
<trkpt lat="51.23610817" lon="6.60869119">
<ele>0</ele>
<time>2011-10-01T13:56:04Z</time>
</trkpt>
<trkpt lat="51.23610524" lon="6.60870116">
<ele>88.5</ele>
<time>2011-10-01T13:56:08Z</time>
</trkpt>
<trkpt lat="51.23611232" lon="6.60870795">
<ele>88.5</ele>
<time>2011-10-01T13:56:12Z</time>
</trkpt>
<trkpt lat="51.23611341" lon="6.60871097">
<ele>89.5</ele>
<time>2011-10-01T13:56:16Z</time>
</trkpt>
<trkpt lat="51.23611287" lon="6.60871382">
<ele>89.5</ele>
<time>2011-10-01T13:56:20Z</time>
</trkpt>
<trkpt lat="51.23611383" lon="6.60871332">
<ele>0</ele>
<time>2011-10-01T13:56:24Z</time>
</trkpt>
<trkpt lat="51.23611735" lon="6.60871323">
<ele>90</ele>
<time>2011-10-01T13:56:28Z</time>
</trkpt>
<trkpt lat="51.23612217" lon="6.6087134">
<ele>90</ele>
<time>2011-10-01T13:56:32Z</time>
</trkpt>
<trkpt lat="51.23612607" lon="6.60871726">
<ele>0</ele>
<time>2011-10-01T13:56:36Z</time>
</trkpt>
<trkpt lat="51.2361306" lon="6.60872061">
<ele>90.5</ele>
<time>2011-10-01T13:56:40Z</time>
</trkpt>
<trkpt lat="51.23613793" lon="6.60872363">
<ele>91</ele>
<time>2011-10-01T13:56:44Z</time>
</trkpt>
<trkpt lat="51.23614304" lon="6.60872614">
<ele>0</ele>
<time>2011-10-01T13:56:48Z</time>
</trkpt>
<trkpt lat="51.23614371" lon="6.60872773">
<ele>0</ele>
<time>2011-10-01T13:56:52Z</time>
</trkpt>
<trkpt lat="51.23614183" lon="6.60873067">
<ele>92</ele>
<time>2011-10-01T13:56:56Z</time>
</trkpt>
<trkpt lat="51.2361407" lon="6.60873318">
<ele>92.5</ele>
<time>2011-10-01T13:57:00Z</time>
</trkpt>
<trkpt lat="51.23614375" lon="6.60873167">
<ele>0</ele>
<time>2011-10-01T13:57:05Z</time>
</trkpt>
<trkpt lat="51.23614241" lon="6.60873427">
<ele>0</ele>
<time>2011-10-01T13:57:09Z</time>
</trkpt>
<trkpt lat="51.23614158" lon="6.60874039">
<ele>93.5</ele>
<time>2011-10-01T13:57:13Z</time>
</trkpt>
<trkpt lat="51.23614086" lon="6.60874089">
<ele>0</ele>
<time>2011-10-01T13:57:17Z</time>
</trkpt>
<trkpt lat="51.23614216" lon="6.60874081">
<ele>93.5</ele>
<time>2011-10-01T13:57:21Z</time>
</trkpt>
<trkpt lat="51.23614208" lon="6.60874014">
<ele>93.5</ele>
<time>2011-10-01T13:57:25Z</time>
</trkpt>
<trkpt lat="51.2361399" lon="6.60874165">
<ele>0</ele>
<time>2011-10-01T13:57:29Z</time>
</trkpt>
<trkpt lat="51.23613789" lon="6.60873938">
<ele>94.5</ele>
<time>2011-10-01T13:57:33Z</time>
</trkpt>
<trkpt lat="51.23613428" lon="6.60874316">
<ele>95</ele>
<time>2011-10-01T13:57:37Z</time>
</trkpt>
<trkpt lat="51.23613189" lon="6.60874483">
<ele>0</ele>
<time>2011-10-01T13:57:41Z</time>
</trkpt>
<trkpt lat="51.23612925" lon="6.60874441">
<ele>0</ele>
<time>2011-10-01T13:57:45Z</time>
</trkpt>
<trkpt lat="51.23612707" lon="6.60874425">
<ele>95.5</ele>
<time>2011-10-01T13:57:49Z</time>
</trkpt>
<trkpt lat="51.23612431" lon="6.60874441">
<ele>0</ele>
<time>2011-10-01T13:57:53Z</time>
</trkpt>
<trkpt lat="51.23612251" lon="6.6087429">
<ele>96</ele>
<time>2011-10-01T13:57:57Z</time>
</trkpt>
<trkpt lat="51.23612104" lon="6.60873972">
<ele>96</ele>
<time>2011-10-01T13:58:01Z</time>
</trkpt>
<trkpt lat="51.23612154" lon="6.60873787">
<ele>0</ele>
<time>2011-10-01T13:58:05Z</time>
</trkpt>
<trkpt lat="51.23612339" lon="6.60873628">
<ele>95</ele>
<time>2011-10-01T13:58:09Z</time>
</trkpt>
<trkpt lat="51.23612309" lon="6.60873787">
<ele>0</ele>
<time>2011-10-01T13:58:13Z</time>
</trkpt>
<trkpt lat="51.23613701" lon="6.60892949">
<ele>0</ele>
<time>2011-10-01T13:58:17Z</time>
</trkpt>
<trkpt lat="51.23615134" lon="6.60915177">
<ele>99</ele>
<time>2011-10-01T13:58:21Z</time>
</trkpt>
<trkpt lat="51.236172" lon="6.60939535">
<ele>99.5</ele>
<time>2011-10-01T13:58:25Z</time>
</trkpt>
<trkpt lat="51.23619145" lon="6.60966567">
<ele>0</ele>
<time>2011-10-01T13:58:29Z</time>
</trkpt>
<trkpt lat="51.23622573" lon="6.60999784">
<ele>0</ele>
<time>2011-10-01T13:58:34Z</time>
</trkpt>
<trkpt lat="51.2362567" lon="6.61030554">
<ele>97</ele>
<time>2011-10-01T13:58:38Z</time>
</trkpt>
<trkpt lat="51.23628013" lon="6.6106026">
<ele>97</ele>
<time>2011-10-01T13:58:42Z</time>
</trkpt>
<trkpt lat="51.23628641" lon="6.61086587">
<ele>0</ele>
<time>2011-10-01T13:58:46Z</time>
</trkpt>
<trkpt lat="51.23620322" lon="6.61110627">
<ele>95.5</ele>
<time>2011-10-01T13:58:50Z</time>
</trkpt>
<trkpt lat="51.23610268" lon="6.61135043">
<ele>94.5</ele>
<time>2011-10-01T13:58:54Z</time>
</trkpt>
<trkpt lat="51.23605704" lon="6.61162569">
<ele>94</ele>
<time>2011-10-01T13:58:58Z</time>
</trkpt>
<trkpt lat="51.23599896" lon="6.61191051">
<ele>94</ele>
<time>2011-10-01T13:59:02Z</time>
</trkpt>
<trkpt lat="51.23592159" lon="6.6121991">
<ele>0</ele>
<time>2011-10-01T13:59:06Z</time>
</trkpt>
<trkpt lat="51.23583027" lon="6.61249355">
<ele>94</ele>
<time>2011-10-01T13:59:10Z</time>
</trkpt>
<trkpt lat="51.23574478" lon="6.61278742">
<ele>94</ele>
<time>2011-10-01T13:59:14Z</time>
</trkpt>
<trkpt lat="51.23566766" lon="6.61307526">
<ele>0</ele>
<time>2011-10-01T13:59:18Z</time>
</trkpt>
<trkpt lat="51.23559348" lon="6.61336921">
<ele>94</ele>
<time>2011-10-01T13:59:22Z</time>
</trkpt>
<trkpt lat="51.23551268" lon="6.61366082">
<ele>94</ele>
<time>2011-10-01T13:59:26Z</time>
</trkpt>
<trkpt lat="51.23542878" lon="6.61395536">
<ele>93.5</ele>
<time>2011-10-01T13:59:30Z</time>
</trkpt>
<trkpt lat="51.2353468" lon="6.61424101">
<ele>93.5</ele>
<time>2011-10-01T13:59:34Z</time>
</trkpt>
<trkpt lat="51.2352673" lon="6.61452122">
<ele>0</ele>
<time>2011-10-01T13:59:38Z</time>
</trkpt>
<trkpt lat="51.23518834" lon="6.61479824">
<ele>92.5</ele>
<time>2011-10-01T13:59:42Z</time>
</trkpt>
<trkpt lat="51.23510809" lon="6.61506881">
<ele>92.5</ele>
<time>2011-10-01T13:59:46Z</time>
</trkpt>
<trkpt lat="51.23501454" lon="6.61533653">
<ele>92</ele>
<time>2011-10-01T13:59:50Z</time>
</trkpt>
<trkpt lat="51.23493152" lon="6.61560475">
<ele>0</ele>
<time>2011-10-01T13:59:54Z</time>
</trkpt>
<trkpt lat="51.23487344" lon="6.6158521">
<ele>0</ele>
<time>2011-10-01T13:59:58Z</time>
</trkpt>
<trkpt lat="51.23485789" lon="6.61598839">
<ele>91.5</ele>
<time>2011-10-01T14:00:02Z</time>
</trkpt>
<trkpt lat="51.23496379" lon="6.61604731">
<ele>91.5</ele>
<time>2011-10-01T14:00:07Z</time>
</trkpt>
<trkpt lat="51.23512146" lon="6.61616055">
<ele>90.5</ele>
<time>2011-10-01T14:00:11Z</time>
</trkpt>
<trkpt lat="51.23528172" lon="6.61630405">
<ele>90.5</ele>
<time>2011-10-01T14:00:15Z</time>
</trkpt>
<trkpt lat="51.23543364" lon="6.61647454">
<ele>89</ele>
<time>2011-10-01T14:00:19Z</time>
</trkpt>
<trkpt lat="51.23556624" lon="6.61665626">
<ele>89</ele>
<time>2011-10-01T14:00:23Z</time>
</trkpt>
<trkpt lat="51.23568757" lon="6.61686111">
<ele>0</ele>
<time>2011-10-01T14:00:27Z</time>
</trkpt>
<trkpt lat="51.23579427" lon="6.61703588">
<ele>89</ele>
<time>2011-10-01T14:00:31Z</time>
</trkpt>
<trkpt lat="51.23588052" lon="6.61713805">
<ele>89</ele>
<time>2011-10-01T14:00:35Z</time>
</trkpt>
<trkpt lat="51.23598609" lon="6.61719144">
<ele>90</ele>
<time>2011-10-01T14:00:39Z</time>
</trkpt>
<trkpt lat="51.23600172" lon="6.61725079">
<ele>90.5</ele>
<time>2011-10-01T14:00:43Z</time>
</trkpt>
<trkpt lat="51.23598685" lon="6.61734433">
<ele>90</ele>
<time>2011-10-01T14:00:47Z</time>
</trkpt>
<trkpt lat="51.23594364" lon="6.61734793">
<ele>89.5</ele>
<time>2011-10-01T14:00:51Z</time>
</trkpt>
<trkpt lat="51.23594858" lon="6.61734265">
<ele>89.5</ele>
<time>2011-10-01T14:00:55Z</time>
</trkpt>
<trkpt lat="51.23595885" lon="6.6173393">
<ele>89.5</ele>
<time>2011-10-01T14:00:59Z</time>
</trkpt>
<trkpt lat="51.2359648" lon="6.61733243">
<ele>89.5</ele>
<time>2011-10-01T14:01:03Z</time>
</trkpt>
<trkpt lat="51.23596451" lon="6.61733586">
<ele>90</ele>
<time>2011-10-01T14:01:07Z</time>
</trkpt>
<trkpt lat="51.2359643" lon="6.61733327">
<ele>89.5</ele>
<time>2011-10-01T14:01:11Z</time>
</trkpt>
<trkpt lat="51.23597373" lon="6.61733402">
<ele>88.5</ele>
<time>2011-10-01T14:01:15Z</time>
</trkpt>
<trkpt lat="51.23594682" lon="6.6173543">
<ele>88.5</ele>
<time>2011-10-01T14:01:19Z</time>
</trkpt>
<trkpt lat="51.2358633" lon="6.61744558">
<ele>89</ele>
<time>2011-10-01T14:01:23Z</time>
</trkpt>
<trkpt lat="51.23581443" lon="6.61756335">
<ele>0</ele>
<time>2011-10-01T14:01:27Z</time>
</trkpt>
<trkpt lat="51.23581007" lon="6.61758221">
<ele>0</ele>
<time>2011-10-01T14:01:31Z</time>
</trkpt>
<trkpt lat="51.2358055" lon="6.61757391">
<ele>89.5</ele>
<time>2011-10-01T14:01:36Z</time>
</trkpt>
<trkpt lat="51.23580253" lon="6.61757441">
<ele>0</ele>
<time>2011-10-01T14:01:40Z</time>
</trkpt>
<trkpt lat="51.23582344" lon="6.61760241">
<ele>0</ele>
<time>2011-10-01T14:01:44Z</time>
</trkpt>
<trkpt lat="51.23589167" lon="6.61773987">
<ele>90.5</ele>
<time>2011-10-01T14:01:48Z</time>
</trkpt>
<trkpt lat="51.23595512" lon="6.61796568">
<ele>91</ele>
<time>2011-10-01T14:01:52Z</time>
</trkpt>
<trkpt lat="51.23608248" lon="6.61814421">
<ele>91</ele>
<time>2011-10-01T14:01:56Z</time>
</trkpt>
<trkpt lat="51.23623809" lon="6.61832895">
<ele>0</ele>
<time>2011-10-01T14:02:00Z</time>
</trkpt>
<trkpt lat="51.23640858" lon="6.61853146">
<ele>90.5</ele>
<time>2011-10-01T14:02:04Z</time>
</trkpt>
<trkpt lat="51.23659483" lon="6.61871754">
<ele>90</ele>
<time>2011-10-01T14:02:08Z</time>
</trkpt>
<trkpt lat="51.23678878" lon="6.6188918">
<ele>0</ele>
<time>2011-10-01T14:02:12Z</time>
</trkpt>
<trkpt lat="51.23699041" lon="6.61907251">
<ele>0</ele>
<time>2011-10-01T14:02:16Z</time>
</trkpt>
<trkpt lat="51.23718483" lon="6.61924467">
<ele>89</ele>
<time>2011-10-01T14:02:20Z</time>
</trkpt>
<trkpt lat="51.23736529" lon="6.6194186">
<ele>0</ele>
<time>2011-10-01T14:02:24Z</time>
</trkpt>
<trkpt lat="51.23751009" lon="6.61962396">
<ele>88.5</ele>
<time>2011-10-01T14:02:28Z</time>
</trkpt>
<trkpt lat="51.23772311" lon="6.61978673">
<ele>89</ele>
<time>2011-10-01T14:02:32Z</time>
</trkpt>
<trkpt lat="51.23793488" lon="6.61995965">
<ele>89.5</ele>
<time>2011-10-01T14:02:36Z</time>
</trkpt>
<trkpt lat="51.23812603" lon="6.62012343">
<ele>89.5</ele>
<time>2011-10-01T14:02:40Z</time>
</trkpt>
<trkpt lat="51.23831228" lon="6.62028504">
<ele>90</ele>
<time>2011-10-01T14:02:44Z</time>
</trkpt>
<trkpt lat="51.23849106" lon="6.62042895">
<ele>0</ele>
<time>2011-10-01T14:02:48Z</time>
</trkpt>
<trkpt lat="51.2386647" lon="6.62059047">
<ele>0</ele>
<time>2011-10-01T14:02:52Z</time>
</trkpt>
<trkpt lat="51.23883745" lon="6.62074998">
<ele>90.5</ele>
<time>2011-10-01T14:02:56Z</time>
</trkpt>
<trkpt lat="51.23901355" lon="6.62090027">
<ele>91</ele>
<time>2011-10-01T14:03:00Z</time>
</trkpt>
<trkpt lat="51.23918525" lon="6.62104561">
<ele>0</ele>
<time>2011-10-01T14:03:04Z</time>
</trkpt>
<trkpt lat="51.23923278" lon="6.62108978">
<ele>0</ele>
<time>2011-10-01T14:03:09Z</time>
</trkpt>
<trkpt lat="51.23913073" lon="6.62099381">
<ele>90.5</ele>
<time>2011-10-01T14:03:13Z</time>
</trkpt>
<trkpt lat="51.239004" lon="6.62096741">
<ele>88</ele>
<time>2011-10-01T14:03:17Z</time>
</trkpt>
<trkpt lat="51.23893878" lon="6.62123177">
<ele>86.5</ele>
<time>2011-10-01T14:03:21Z</time>
</trkpt>
<trkpt lat="51.23887257" lon="6.62151944">
<ele>87.5</ele>
<time>2011-10-01T14:03:25Z</time>
</trkpt>
<trkpt lat="51.23880342" lon="6.62180015">
<ele>88</ele>
<time>2011-10-01T14:03:29Z</time>
</trkpt>
<trkpt lat="51.2387411" lon="6.62207382">
<ele>0</ele>
<time>2011-10-01T14:03:33Z</time>
</trkpt>
<trkpt lat="51.23866977" lon="6.62233944">
<ele>0</ele>
<time>2011-10-01T14:03:37Z</time>
</trkpt>
<trkpt lat="51.23860481" lon="6.62261512">
<ele>88</ele>
<time>2011-10-01T14:03:41Z</time>
</trkpt>
<trkpt lat="51.23853729" lon="6.62287907">
<ele>88.5</ele>
<time>2011-10-01T14:03:45Z</time>
</trkpt>
<trkpt lat="51.23847983" lon="6.62314519">
<ele>89</ele>
<time>2011-10-01T14:03:49Z</time>
</trkpt>
<trkpt lat="51.23841797" lon="6.62340922">
<ele>89</ele>
<time>2011-10-01T14:03:53Z</time>
</trkpt>
<trkpt lat="51.23835268" lon="6.62367568">
<ele>0</ele>
<time>2011-10-01T14:03:57Z</time>
</trkpt>
<trkpt lat="51.2382865" lon="6.62393343">
<ele>89</ele>
<time>2011-10-01T14:04:01Z</time>
</trkpt>
<trkpt lat="51.23823579" lon="6.62418379">
<ele>89</ele>
<time>2011-10-01T14:04:05Z</time>
</trkpt>
<trkpt lat="51.23818144" lon="6.62442888">
<ele>0</ele>
<time>2011-10-01T14:04:09Z</time>
</trkpt>
<trkpt lat="51.23812524" lon="6.62465989">
<ele>89</ele>
<time>2011-10-01T14:04:13Z</time>
</trkpt>
<trkpt lat="51.23808035" lon="6.62486533">
<ele>0</ele>
<time>2011-10-01T14:04:17Z</time>
</trkpt>
<trkpt lat="51.23804678" lon="6.62500707">
<ele>0</ele>
<time>2011-10-01T14:04:21Z</time>
</trkpt>
<trkpt lat="51.2380174" lon="6.62513447">
<ele>89.5</ele>
<time>2011-10-01T14:04:25Z</time>
</trkpt>
<trkpt lat="51.2380047" lon="6.62523505">
<ele>89</ele>
<time>2011-10-01T14:04:29Z</time>
</trkpt>
<trkpt lat="51.23800651" lon="6.62523857">
<ele>0</ele>
<time>2011-10-01T14:04:33Z</time>
</trkpt>
<trkpt lat="51.23800521" lon="6.62523447">
<ele>0</ele>
<time>2011-10-01T14:04:38Z</time>
</trkpt>
<trkpt lat="51.2380086" lon="6.62522449">
<ele>88.5</ele>
<time>2011-10-01T14:04:42Z</time>
</trkpt>
<trkpt lat="51.23800785" lon="6.62522064">
<ele>89</ele>
<time>2011-10-01T14:04:46Z</time>
</trkpt>
<trkpt lat="51.23800684" lon="6.62521745">
<ele>89</ele>
<time>2011-10-01T14:04:50Z</time>
</trkpt>
<trkpt lat="51.23800286" lon="6.62521829">
<ele>0</ele>
<time>2011-10-01T14:04:54Z</time>
</trkpt>
<trkpt lat="51.2379993" lon="6.62522114">
<ele>89.5</ele>
<time>2011-10-01T14:04:58Z</time>
</trkpt>
<trkpt lat="51.23800605" lon="6.62521913">
<ele>89.5</ele>
<time>2011-10-01T14:05:02Z</time>
</trkpt>
<trkpt lat="51.23800835" lon="6.62522466">
<ele>0</ele>
<time>2011-10-01T14:05:06Z</time>
</trkpt>
<trkpt lat="51.23800843" lon="6.6252229">
<ele>90</ele>
<time>2011-10-01T14:05:10Z</time>
</trkpt>
<trkpt lat="51.23801627" lon="6.62522089">
<ele>0</ele>
<time>2011-10-01T14:05:14Z</time>
</trkpt>
<trkpt lat="51.238012" lon="6.62521318">
<ele>0</ele>
<time>2011-10-01T14:05:18Z</time>
</trkpt>
<trkpt lat="51.23801124" lon="6.62521485">
<ele>90</ele>
<time>2011-10-01T14:05:22Z</time>
</trkpt>
<trkpt lat="51.23801103" lon="6.625212">
<ele>0</ele>
<time>2011-10-01T14:05:26Z</time>
</trkpt>
<trkpt lat="51.23801154" lon="6.62521108">
<ele>0</ele>
<time>2011-10-01T14:05:30Z</time>
</trkpt>
<trkpt lat="51.2380117" lon="6.6252141">
<ele>90</ele>
<time>2011-10-01T14:05:34Z</time>
</trkpt>
<trkpt lat="51.23801388" lon="6.62521804">
<ele>0</ele>
<time>2011-10-01T14:05:38Z</time>
</trkpt>
<trkpt lat="51.23801476" lon="6.62521879">
<ele>0</ele>
<time>2011-10-01T14:05:42Z</time>
</trkpt>
<trkpt lat="51.2380156" lon="6.62521938">
<ele>90.5</ele>
<time>2011-10-01T14:05:46Z</time>
</trkpt>
<trkpt lat="51.23801745" lon="6.62522323">
<ele>0</ele>
<time>2011-10-01T14:05:50Z</time>
</trkpt>
<trkpt lat="51.23801757" lon="6.62522516">
<ele>0</ele>
<time>2011-10-01T14:05:54Z</time>
</trkpt>
<trkpt lat="51.23801786" lon="6.62522474">
<ele>91</ele>
<time>2011-10-01T14:05:58Z</time>
</trkpt>
<trkpt lat="51.23801698" lon="6.625226">
<ele>0</ele>
<time>2011-10-01T14:06:02Z</time>
</trkpt>
<trkpt lat="51.23801585" lon="6.62522675">
<ele>91.5</ele>
<time>2011-10-01T14:06:06Z</time>
</trkpt>
<trkpt lat="51.23801652" lon="6.62522516">
<ele>91</ele>
<time>2011-10-01T14:06:11Z</time>
</trkpt>
<trkpt lat="51.23801548" lon="6.62522382">
<ele>91</ele>
<time>2011-10-01T14:06:15Z</time>
</trkpt>
<trkpt lat="51.23801577" lon="6.62522432">
<ele>0</ele>
<time>2011-10-01T14:06:19Z</time>
</trkpt>
<trkpt lat="51.23801451" lon="6.6252224">
<ele>91</ele>
<time>2011-10-01T14:06:23Z</time>
</trkpt>
<trkpt lat="51.23801351" lon="6.62521997">
<ele>0</ele>
<time>2011-10-01T14:06:27Z</time>
</trkpt>
<trkpt lat="51.23801485" lon="6.62521846">
<ele>0</ele>
<time>2011-10-01T14:06:31Z</time>
</trkpt>
<trkpt lat="51.2380146" lon="6.62521636">
<ele>91.5</ele>
<time>2011-10-01T14:06:35Z</time>
</trkpt>
<trkpt lat="51.23801409" lon="6.6252151">
<ele>0</ele>
<time>2011-10-01T14:06:39Z</time>
</trkpt>
<trkpt lat="51.23801288" lon="6.62521368">
<ele>0</ele>
<time>2011-10-01T14:06:43Z</time>
</trkpt>
<trkpt lat="51.23801204" lon="6.62521552">
<ele>91</ele>
<time>2011-10-01T14:06:47Z</time>
</trkpt>
<trkpt lat="51.23801116" lon="6.62521628">
<ele>0</ele>
<time>2011-10-01T14:06:51Z</time>
</trkpt>
<trkpt lat="51.23801099" lon="6.62521636">
<ele>91</ele>
<time>2011-10-01T14:06:55Z</time>
</trkpt>
<trkpt lat="51.23800982" lon="6.62521586">
<ele>91</ele>
<time>2011-10-01T14:06:59Z</time>
</trkpt>
<trkpt lat="51.23800806" lon="6.62521577">
<ele>0</ele>
<time>2011-10-01T14:07:03Z</time>
</trkpt>
<trkpt lat="51.23800831" lon="6.62521452">
<ele>91</ele>
<time>2011-10-01T14:07:07Z</time>
</trkpt>
<trkpt lat="51.23800961" lon="6.62521251">
<ele>0</ele>
<time>2011-10-01T14:07:11Z</time>
</trkpt>
<trkpt lat="51.2380107" lon="6.62521351">
<ele>0</ele>
<time>2011-10-01T14:07:15Z</time>
</trkpt>
<trkpt lat="51.23801183" lon="6.62521368">
<ele>91.5</ele>
<time>2011-10-01T14:07:19Z</time>
</trkpt>
<trkpt lat="51.23801393" lon="6.62521418">
<ele>0</ele>
<time>2011-10-01T14:07:23Z</time>
</trkpt>
<trkpt lat="51.23801627" lon="6.62521477">
<ele>0</ele>
<time>2011-10-01T14:07:27Z</time>
</trkpt>
<trkpt lat="51.23801736" lon="6.62521712">
<ele>91</ele>
<time>2011-10-01T14:07:31Z</time>
</trkpt>
<trkpt lat="51.23801778" lon="6.62522047">
<ele>0</ele>
<time>2011-10-01T14:07:35Z</time>
</trkpt>
<trkpt lat="51.23801874" lon="6.62522164">
<ele>91</ele>
<time>2011-10-01T14:07:39Z</time>
</trkpt>
<trkpt lat="51.23801849" lon="6.62522273">
<ele>91</ele>
<time>2011-10-01T14:07:44Z</time>
</trkpt>
<trkpt lat="51.23801837" lon="6.62522349">
<ele>0</ele>
<time>2011-10-01T14:07:48Z</time>
</trkpt>
<trkpt lat="51.23801795" lon="6.62522474">
<ele>91</ele>
<time>2011-10-01T14:07:52Z</time>
</trkpt>
<trkpt lat="51.23801803" lon="6.62522541">
<ele>0</ele>
<time>2011-10-01T14:07:56Z</time>
</trkpt>
<trkpt lat="51.23802021" lon="6.62522558">
<ele>0</ele>
<time>2011-10-01T14:08:00Z</time>
</trkpt>
<trkpt lat="51.23802218" lon="6.62522592">
<ele>90.5</ele>
<time>2011-10-01T14:08:04Z</time>
</trkpt>
<trkpt lat="51.2380221" lon="6.62522432">
<ele>0</ele>
<time>2011-10-01T14:08:08Z</time>
</trkpt>
<trkpt lat="51.23802185" lon="6.62522248">
<ele>0</ele>
<time>2011-10-01T14:08:12Z</time>
</trkpt>
<trkpt lat="51.23802285" lon="6.62522206">
<ele>90.5</ele>
<time>2011-10-01T14:08:16Z</time>
</trkpt>
<trkpt lat="51.23802356" lon="6.62522206">
<ele>0</ele>
<time>2011-10-01T14:08:20Z</time>
</trkpt>
<trkpt lat="51.23802486" lon="6.62522483">
<ele>90</ele>
<time>2011-10-01T14:08:24Z</time>
</trkpt>
<trkpt lat="51.23802453" lon="6.62522701">
<ele>90</ele>
<time>2011-10-01T14:08:28Z</time>
</trkpt>
<trkpt lat="51.23802436" lon="6.62522776">
<ele>0</ele>
<time>2011-10-01T14:08:32Z</time>
</trkpt>
<trkpt lat="51.2380244" lon="6.62522717">
<ele>89.5</ele>
<time>2011-10-01T14:08:36Z</time>
</trkpt>
<trkpt lat="51.23802369" lon="6.62522432">
<ele>0</ele>
<time>2011-10-01T14:08:40Z</time>
</trkpt>
<trkpt lat="51.23802348" lon="6.62522365">
<ele>0</ele>
<time>2011-10-01T14:08:44Z</time>
</trkpt>
<trkpt lat="51.23802319" lon="6.62522349">
<ele>88.5</ele>
<time>2011-10-01T14:08:48Z</time>
</trkpt>
<trkpt lat="51.23802289" lon="6.62522491">
<ele>88.5</ele>
<time>2011-10-01T14:08:52Z</time>
</trkpt>
<trkpt lat="51.23802273" lon="6.62522642">
<ele>0</ele>
<time>2011-10-01T14:08:56Z</time>
</trkpt>
<trkpt lat="51.23802281" lon="6.62522684">
<ele>88</ele>
<time>2011-10-01T14:09:00Z</time>
</trkpt>
<trkpt lat="51.23802315" lon="6.62522659">
<ele>88</ele>
<time>2011-10-01T14:09:04Z</time>
</trkpt>
<trkpt lat="51.23802235" lon="6.62522525">
<ele>0</ele>
<time>2011-10-01T14:09:08Z</time>
</trkpt>
<trkpt lat="51.23802231" lon="6.62522416">
<ele>88</ele>
<time>2011-10-01T14:09:13Z</time>
</trkpt>
<trkpt lat="51.23802273" lon="6.62522625">
<ele>87.5</ele>
<time>2011-10-01T14:09:17Z</time>
</trkpt>
<trkpt lat="51.23802239" lon="6.62522801">
<ele>0</ele>
<time>2011-10-01T14:09:21Z</time>
</trkpt>
<trkpt lat="51.23802247" lon="6.62522893">
<ele>0</ele>
<time>2011-10-01T14:09:25Z</time>
</trkpt>
<trkpt lat="51.23802126" lon="6.62522977">
<ele>87.5</ele>
<time>2011-10-01T14:09:29Z</time>
</trkpt>
<trkpt lat="51.23802097" lon="6.6252296">
<ele>0</ele>
<time>2011-10-01T14:09:33Z</time>
</trkpt>
<trkpt lat="51.23802113" lon="6.6252296">
<ele>88</ele>
<time>2011-10-01T14:09:37Z</time>
</trkpt>
<trkpt lat="51.23802189" lon="6.62522927">
<ele>88</ele>
<time>2011-10-01T14:09:41Z</time>
</trkpt>
<trkpt lat="51.23802277" lon="6.62522826">
<ele>0</ele>
<time>2011-10-01T14:09:45Z</time>
</trkpt>
<trkpt lat="51.23802201" lon="6.62522701">
<ele>88</ele>
<time>2011-10-01T14:09:49Z</time>
</trkpt>
<trkpt lat="51.23802059" lon="6.62522458">
<ele>0</ele>
<time>2011-10-01T14:09:53Z</time>
</trkpt>
<trkpt lat="51.23802306" lon="6.62522458">
<ele>0</ele>
<time>2011-10-01T14:09:57Z</time>
</trkpt>
<trkpt lat="51.23802436" lon="6.6252265">
<ele>88</ele>
<time>2011-10-01T14:10:01Z</time>
</trkpt>
<trkpt lat="51.23802482" lon="6.62522726">
<ele>0</ele>
<time>2011-10-01T14:10:05Z</time>
</trkpt>
<trkpt lat="51.23802365" lon="6.62522986">
<ele>0</ele>
<time>2011-10-01T14:10:09Z</time>
</trkpt>
<trkpt lat="51.23802247" lon="6.62523019">
<ele>87.5</ele>
<time>2011-10-01T14:10:13Z</time>
</trkpt>
<trkpt lat="51.23802218" lon="6.62523044">
<ele>0</ele>
<time>2011-10-01T14:10:17Z</time>
</trkpt>
<trkpt lat="51.23802088" lon="6.62523011">
<ele>88</ele>
<time>2011-10-01T14:10:21Z</time>
</trkpt>
<trkpt lat="51.23802134" lon="6.62522977">
<ele>87.5</ele>
<time>2011-10-01T14:10:25Z</time>
</trkpt>
<trkpt lat="51.23802164" lon="6.6252296">
<ele>88</ele>
<time>2011-10-01T14:10:29Z</time>
</trkpt>
<trkpt lat="51.23802122" lon="6.62522919">
<ele>0</ele>
<time>2011-10-01T14:10:33Z</time>
</trkpt>
<trkpt lat="51.23802172" lon="6.62523111">
<ele>0</ele>
<time>2011-10-01T14:10:37Z</time>
</trkpt>
<trkpt lat="51.23802193" lon="6.62523262">
<ele>87.5</ele>
<time>2011-10-01T14:10:41Z</time>
</trkpt>
<trkpt lat="51.2380234" lon="6.62523287">
<ele>87.5</ele>
<time>2011-10-01T14:10:46Z</time>
</trkpt>
<trkpt lat="51.23802444" lon="6.62523254">
<ele>0</ele>
<time>2011-10-01T14:10:50Z</time>
</trkpt>
<trkpt lat="51.23802524" lon="6.62523287">
<ele>87</ele>
<time>2011-10-01T14:10:54Z</time>
</trkpt>
<trkpt lat="51.23802604" lon="6.62523229">
<ele>87</ele>
<time>2011-10-01T14:10:58Z</time>
</trkpt>
<trkpt lat="51.23802641" lon="6.62523036">
<ele>0</ele>
<time>2011-10-01T14:11:02Z</time>
</trkpt>
<trkpt lat="51.23802746" lon="6.62523145">
<ele>87</ele>
<time>2011-10-01T14:11:06Z</time>
</trkpt>
<trkpt lat="51.23802843" lon="6.62523287">
<ele>0</ele>
<time>2011-10-01T14:11:10Z</time>
</trkpt>
<trkpt lat="51.23802817" lon="6.62523103">
<ele>0</ele>
<time>2011-10-01T14:11:14Z</time>
</trkpt>
<trkpt lat="51.23802864" lon="6.62523245">
<ele>87</ele>
<time>2011-10-01T14:11:18Z</time>
</trkpt>
<trkpt lat="51.23802914" lon="6.62523103">
<ele>0</ele>
<time>2011-10-01T14:11:22Z</time>
</trkpt>
<trkpt lat="51.23802851" lon="6.62522826">
<ele>0</ele>
<time>2011-10-01T14:11:26Z</time>
</trkpt>
<trkpt lat="51.23802893" lon="6.62522726">
<ele>86.5</ele>
<time>2011-10-01T14:11:30Z</time>
</trkpt>
<trkpt lat="51.23802905" lon="6.62522692">
<ele>0</ele>
<time>2011-10-01T14:11:34Z</time>
</trkpt>
<trkpt lat="51.23803065" lon="6.6252265">
<ele>86.5</ele>
<time>2011-10-01T14:11:38Z</time>
</trkpt>
<trkpt lat="51.23803086" lon="6.62522684">
<ele>86.5</ele>
<time>2011-10-01T14:11:42Z</time>
</trkpt>
<trkpt lat="51.23803157" lon="6.62522567">
<ele>0</ele>
<time>2011-10-01T14:11:46Z</time>
</trkpt>
<trkpt lat="51.2380327" lon="6.62522675">
<ele>87</ele>
<time>2011-10-01T14:11:50Z</time>
</trkpt>
<trkpt lat="51.23803362" lon="6.62522634">
<ele>0</ele>
<time>2011-10-01T14:11:54Z</time>
</trkpt>
<trkpt lat="51.23803505" lon="6.62522575">
<ele>0</ele>
<time>2011-10-01T14:11:58Z</time>
</trkpt>
<trkpt lat="51.23803593" lon="6.62522659">
<ele>86.5</ele>
<time>2011-10-01T14:12:02Z</time>
</trkpt>
<trkpt lat="51.2380379" lon="6.62522374">
<ele>87</ele>
<time>2011-10-01T14:12:06Z</time>
</trkpt>
<trkpt lat="51.23803962" lon="6.62522365">
<ele>0</ele>
<time>2011-10-01T14:12:10Z</time>
</trkpt>
<trkpt lat="51.23804066" lon="6.62522298">
<ele>0</ele>
<time>2011-10-01T14:12:15Z</time>
</trkpt>
<trkpt lat="51.23804112" lon="6.62522357">
<ele>87.5</ele>
<time>2011-10-01T14:12:19Z</time>
</trkpt>
<trkpt lat="51.23804091" lon="6.62522223">
<ele>0</ele>
<time>2011-10-01T14:12:23Z</time>
</trkpt>
<trkpt lat="51.23804108" lon="6.62521938">
<ele>0</ele>
<time>2011-10-01T14:12:27Z</time>
</trkpt>
<trkpt lat="51.23804075" lon="6.62521896">
<ele>87.5</ele>
<time>2011-10-01T14:12:31Z</time>
</trkpt>
<trkpt lat="51.2380397" lon="6.62521904">
<ele>0</ele>
<time>2011-10-01T14:12:35Z</time>
</trkpt>
<trkpt lat="51.23803899" lon="6.62521946">
<ele>88</ele>
<time>2011-10-01T14:12:39Z</time>
</trkpt>
<trkpt lat="51.23803827" lon="6.62522097">
<ele>88</ele>
<time>2011-10-01T14:12:43Z</time>
</trkpt>
<trkpt lat="51.23803765" lon="6.6252234">
<ele>0</ele>
<time>2011-10-01T14:12:47Z</time>
</trkpt>
<trkpt lat="51.23803685" lon="6.62522256">
<ele>87.5</ele>
<time>2011-10-01T14:12:51Z</time>
</trkpt>
<trkpt lat="51.23803534" lon="6.62522416">
<ele>0</ele>
<time>2011-10-01T14:12:55Z</time>
</trkpt>
<trkpt lat="51.23803316" lon="6.62522533">
<ele>0</ele>
<time>2011-10-01T14:12:59Z</time>
</trkpt>
<trkpt lat="51.23803073" lon="6.62522516">
<ele>87.5</ele>
<time>2011-10-01T14:13:03Z</time>
</trkpt>
<trkpt lat="51.23802851" lon="6.62522717">
<ele>0</ele>
<time>2011-10-01T14:13:07Z</time>
</trkpt>
<trkpt lat="51.23802667" lon="6.62522726">
<ele>0</ele>
<time>2011-10-01T14:13:11Z</time>
</trkpt>
<trkpt lat="51.23802482" lon="6.62522491">
<ele>87</ele>
<time>2011-10-01T14:13:15Z</time>
</trkpt>
<trkpt lat="51.23802423" lon="6.62522424">
<ele>0</ele>
<time>2011-10-01T14:13:19Z</time>
</trkpt>
<trkpt lat="51.23802403" lon="6.62522097">
<ele>87</ele>
<time>2011-10-01T14:13:23Z</time>
</trkpt>
<trkpt lat="51.23802373" lon="6.62521963">
<ele>87</ele>
<time>2011-10-01T14:13:27Z</time>
</trkpt>
<trkpt lat="51.23802361" lon="6.62521896">
<ele>0</ele>
<time>2011-10-01T14:13:31Z</time>
</trkpt>
<trkpt lat="51.23802407" lon="6.62521686">
<ele>87</ele>
<time>2011-10-01T14:13:35Z</time>
</trkpt>
<trkpt lat="51.23802453" lon="6.62521435">
<ele>0</ele>
<time>2011-10-01T14:13:39Z</time>
</trkpt>
<trkpt lat="51.23802549" lon="6.62521309">
<ele>0</ele>
<time>2011-10-01T14:13:43Z</time>
</trkpt>
<trkpt lat="51.2380247" lon="6.62521175">
<ele>86.5</ele>
<time>2011-10-01T14:13:48Z</time>
</trkpt>
<trkpt lat="51.23802398" lon="6.62521125">
<ele>0</ele>
<time>2011-10-01T14:13:52Z</time>
</trkpt>
<trkpt lat="51.23802377" lon="6.62521024">
<ele>0</ele>
<time>2011-10-01T14:13:56Z</time>
</trkpt>
<trkpt lat="51.23802214" lon="6.62520798">
<ele>87</ele>
<time>2011-10-01T14:14:00Z</time>
</trkpt>
<trkpt lat="51.2380203" lon="6.62520387">
<ele>0</ele>
<time>2011-10-01T14:14:04Z</time>
</trkpt>
<trkpt lat="51.23801937" lon="6.6252037">
<ele>0</ele>
<time>2011-10-01T14:14:08Z</time>
</trkpt>
<trkpt lat="51.23801979" lon="6.6252037">
<ele>87.5</ele>
<time>2011-10-01T14:14:12Z</time>
</trkpt>
<trkpt lat="51.23801975" lon="6.62520496">
<ele>87.5</ele>
<time>2011-10-01T14:14:16Z</time>
</trkpt>
<trkpt lat="51.23801962" lon="6.62520731">
<ele>0</ele>
<time>2011-10-01T14:14:20Z</time>
</trkpt>
<trkpt lat="51.23801937" lon="6.62520739">
<ele>87</ele>
<time>2011-10-01T14:14:24Z</time>
</trkpt>
<trkpt lat="51.23801883" lon="6.62520932">
<ele>0</ele>
<time>2011-10-01T14:14:28Z</time>
</trkpt>
<trkpt lat="51.23801908" lon="6.62520974">
<ele>0</ele>
<time>2011-10-01T14:14:32Z</time>
</trkpt>
<trkpt lat="51.23801908" lon="6.62520899">
<ele>87</ele>
<time>2011-10-01T14:14:36Z</time>
</trkpt>
<trkpt lat="51.23801912" lon="6.62521058">
<ele>0</ele>
<time>2011-10-01T14:14:40Z</time>
</trkpt>
<trkpt lat="51.23801988" lon="6.625211">
<ele>0</ele>
<time>2011-10-01T14:14:44Z</time>
</trkpt>
<trkpt lat="51.23802017" lon="6.625211">
<ele>87</ele>
<time>2011-10-01T14:14:48Z</time>
</trkpt>
<trkpt lat="51.23802034" lon="6.62520672">
<ele>0</ele>
<time>2011-10-01T14:14:52Z</time>
</trkpt>
<trkpt lat="51.23802092" lon="6.62520588">
<ele>87</ele>
<time>2011-10-01T14:14:56Z</time>
</trkpt>
<trkpt lat="51.23802235" lon="6.62520748">
<ele>87</ele>
<time>2011-10-01T14:15:00Z</time>
</trkpt>
<trkpt lat="51.23802361" lon="6.62520697">
<ele>0</ele>
<time>2011-10-01T14:15:04Z</time>
</trkpt>
<trkpt lat="51.23802486" lon="6.62520664">
<ele>86.5</ele>
<time>2011-10-01T14:15:08Z</time>
</trkpt>
<trkpt lat="51.23802524" lon="6.62520672">
<ele>0</ele>
<time>2011-10-01T14:15:12Z</time>
</trkpt>
<trkpt lat="51.23802558" lon="6.62520664">
<ele>0</ele>
<time>2011-10-01T14:15:17Z</time>
</trkpt>
<trkpt lat="51.2380265" lon="6.62520697">
<ele>86.5</ele>
<time>2011-10-01T14:15:21Z</time>
</trkpt>
<trkpt lat="51.23802444" lon="6.62521049">
<ele>0</ele>
<time>2011-10-01T14:15:25Z</time>
</trkpt>
<trkpt lat="51.23802298" lon="6.62521519">
<ele>0</ele>
<time>2011-10-01T14:15:29Z</time>
</trkpt>
<trkpt lat="51.23802243" lon="6.62521686">
<ele>86</ele>
<time>2011-10-01T14:15:33Z</time>
</trkpt>
<trkpt lat="51.23802155" lon="6.62521812">
<ele>0</ele>
<time>2011-10-01T14:15:37Z</time>
</trkpt>
<trkpt lat="51.23802185" lon="6.62521913">
<ele>86</ele>
<time>2011-10-01T14:15:41Z</time>
</trkpt>
<trkpt lat="51.23802193" lon="6.62522005">
<ele>86</ele>
<time>2011-10-01T14:15:45Z</time>
</trkpt>
<trkpt lat="51.2380221" lon="6.62522214">
<ele>0</ele>
<time>2011-10-01T14:15:49Z</time>
</trkpt>
<trkpt lat="51.23802352" lon="6.62522315">
<ele>86</ele>
<time>2011-10-01T14:15:53Z</time>
</trkpt>
<trkpt lat="51.23802243" lon="6.62522282">
<ele>0</ele>
<time>2011-10-01T14:15:57Z</time>
</trkpt>
<trkpt lat="51.23802214" lon="6.62522491">
<ele>0</ele>
<time>2011-10-01T14:16:01Z</time>
</trkpt>
<trkpt lat="51.23799507" lon="6.6252985">
<ele>86.5</ele>
<time>2011-10-01T14:16:05Z</time>
</trkpt>
<trkpt lat="51.23796204" lon="6.62544955">
<ele>86</ele>
<time>2011-10-01T14:16:09Z</time>
</trkpt>
<trkpt lat="51.23790689" lon="6.62567007">
<ele>86</ele>
<time>2011-10-01T14:16:13Z</time>
</trkpt>
<trkpt lat="51.23785232" lon="6.62592229">
<ele>86</ele>
<time>2011-10-01T14:16:17Z</time>
</trkpt>
<trkpt lat="51.23778875" lon="6.62619637">
<ele>0</ele>
<time>2011-10-01T14:16:21Z</time>
</trkpt>
<trkpt lat="51.23771637" lon="6.62649016">
<ele>85.5</ele>
<time>2011-10-01T14:16:25Z</time>
</trkpt>
<trkpt lat="51.23765384" lon="6.6267899">
<ele>85.5</ele>
<time>2011-10-01T14:16:29Z</time>
</trkpt>
<trkpt lat="51.23758297" lon="6.6270815">
<ele>0</ele>
<time>2011-10-01T14:16:33Z</time>
</trkpt>
<trkpt lat="51.23751742" lon="6.62736984">
<ele>85</ele>
<time>2011-10-01T14:16:37Z</time>
</trkpt>
<trkpt lat="51.23744911" lon="6.62767268">
<ele>85</ele>
<time>2011-10-01T14:16:41Z</time>
</trkpt>
<trkpt lat="51.23737996" lon="6.62797376">
<ele>0</ele>
<time>2011-10-01T14:16:45Z</time>
</trkpt>
<trkpt lat="51.23728914" lon="6.62835237">
<ele>84.5</ele>
<time>2011-10-01T14:16:50Z</time>
</trkpt>
<trkpt lat="51.23722267" lon="6.62866736">
<ele>85</ele>
<time>2011-10-01T14:16:54Z</time>
</trkpt>
<trkpt lat="51.23716987" lon="6.62895788">
<ele>84.5</ele>
<time>2011-10-01T14:16:58Z</time>
</trkpt>
<trkpt lat="51.23717163" lon="6.62908578">
<ele>85.5</ele>
<time>2011-10-01T14:17:02Z</time>
</trkpt>
<trkpt lat="51.23717909" lon="6.62912761">
<ele>86</ele>
<time>2011-10-01T14:17:06Z</time>
</trkpt>
<trkpt lat="51.23713626" lon="6.62924713">
<ele>85.5</ele>
<time>2011-10-01T14:17:10Z</time>
</trkpt>
<trkpt lat="51.23715097" lon="6.62934914">
<ele>0</ele>
<time>2011-10-01T14:17:14Z</time>
</trkpt>
<trkpt lat="51.23723567" lon="6.62947839">
<ele>0</ele>
<time>2011-10-01T14:17:18Z</time>
</trkpt>
<trkpt lat="51.23739538" lon="6.62962147">
<ele>84.5</ele>
<time>2011-10-01T14:17:22Z</time>
</trkpt>
<trkpt lat="51.23753452" lon="6.62983714">
<ele>85</ele>
<time>2011-10-01T14:17:26Z</time>
</trkpt>
<trkpt lat="51.23762014" lon="6.63012237">
<ele>85</ele>
<time>2011-10-01T14:17:30Z</time>
</trkpt>
<trkpt lat="51.23772902" lon="6.6303854">
<ele>0</ele>
<time>2011-10-01T14:17:34Z</time>
</trkpt>
<trkpt lat="51.23787395" lon="6.63059251">
<ele>85</ele>
<time>2011-10-01T14:17:38Z</time>
</trkpt>
<trkpt lat="51.23805114" lon="6.63073216">
<ele>0</ele>
<time>2011-10-01T14:17:42Z</time>
</trkpt>
<trkpt lat="51.23823454" lon="6.63082025">
<ele>0</ele>
<time>2011-10-01T14:17:46Z</time>
</trkpt>
<trkpt lat="51.23840905" lon="6.63091538">
<ele>85.5</ele>
<time>2011-10-01T14:17:50Z</time>
</trkpt>
<trkpt lat="51.238567" lon="6.63101463">
<ele>86</ele>
<time>2011-10-01T14:17:54Z</time>
</trkpt>
<trkpt lat="51.23867672" lon="6.63113214">
<ele>0</ele>
<time>2011-10-01T14:17:58Z</time>
</trkpt>
<trkpt lat="51.23875589" lon="6.63125787">
<ele>0</ele>
<time>2011-10-01T14:18:02Z</time>
</trkpt>
<trkpt lat="51.23884" lon="6.6313551">
<ele>85.5</ele>
<time>2011-10-01T14:18:06Z</time>
</trkpt>
<trkpt lat="51.23895069" lon="6.63150623">
<ele>85.5</ele>
<time>2011-10-01T14:18:10Z</time>
</trkpt>
<trkpt lat="51.23907281" lon="6.63166749">
<ele>85.5</ele>
<time>2011-10-01T14:18:14Z</time>
</trkpt>
<trkpt lat="51.23919854" lon="6.6318379">
<ele>0</ele>
<time>2011-10-01T14:18:18Z</time>
</trkpt>
<trkpt lat="51.2393176" lon="6.63196396">
<ele>87</ele>
<time>2011-10-01T14:18:22Z</time>
</trkpt>
<trkpt lat="51.23945683" lon="6.6320363">
<ele>87.5</ele>
<time>2011-10-01T14:18:26Z</time>
</trkpt>
<trkpt lat="51.23958784" lon="6.63202649">
<ele>87.5</ele>
<time>2011-10-01T14:18:30Z</time>
</trkpt>
<trkpt lat="51.23967078" lon="6.63202255">
<ele>0</ele>
<time>2011-10-01T14:18:34Z</time>
</trkpt>
<trkpt lat="51.23976893" lon="6.63197201">
<ele>87</ele>
<time>2011-10-01T14:18:38Z</time>
</trkpt>
<trkpt lat="51.2398219" lon="6.63174746">
<ele>87</ele>
<time>2011-10-01T14:18:42Z</time>
</trkpt>
<trkpt lat="51.23982383" lon="6.6314623">
<ele>87.5</ele>
<time>2011-10-01T14:18:46Z</time>
</trkpt>
<trkpt lat="51.23982752" lon="6.63115988">
<ele>87</ele>
<time>2011-10-01T14:18:50Z</time>
</trkpt>
<trkpt lat="51.23983603" lon="6.63084204">
<ele>87.5</ele>
<time>2011-10-01T14:18:54Z</time>
</trkpt>
<trkpt lat="51.23984843" lon="6.63051808">
<ele>88</ele>
<time>2011-10-01T14:18:58Z</time>
</trkpt>
<trkpt lat="51.23986222" lon="6.63018658">
<ele>0</ele>
<time>2011-10-01T14:19:02Z</time>
</trkpt>
<trkpt lat="51.23988016" lon="6.62986949">
<ele>0</ele>
<time>2011-10-01T14:19:06Z</time>
</trkpt>
<trkpt lat="51.23990501" lon="6.62956506">
<ele>88.5</ele>
<time>2011-10-01T14:19:10Z</time>
</trkpt>
<trkpt lat="51.23994084" lon="6.62925937">
<ele>0</ele>
<time>2011-10-01T14:19:14Z</time>
</trkpt>
<trkpt lat="51.24004411" lon="6.62899325">
<ele>0</ele>
<time>2011-10-01T14:19:18Z</time>
</trkpt>
<trkpt lat="51.24023559" lon="6.6288676">
<ele>87</ele>
<time>2011-10-01T14:19:22Z</time>
</trkpt>
<trkpt lat="51.24045687" lon="6.62870759">
<ele>86</ele>
<time>2011-10-01T14:19:26Z</time>
</trkpt>
<trkpt lat="51.240702" lon="6.62853442">
<ele>85</ele>
<time>2011-10-01T14:19:30Z</time>
</trkpt>
<trkpt lat="51.24093267" lon="6.62836293">
<ele>85</ele>
<time>2011-10-01T14:19:34Z</time>
</trkpt>
<trkpt lat="51.24116213" lon="6.62819671">
<ele>0</ele>
<time>2011-10-01T14:19:38Z</time>
</trkpt>
<trkpt lat="51.24138408" lon="6.6280414">
<ele>83.5</ele>
<time>2011-10-01T14:19:42Z</time>
</trkpt>
<trkpt lat="51.24159409" lon="6.62788616">
<ele>0</ele>
<time>2011-10-01T14:19:46Z</time>
</trkpt>
<trkpt lat="51.24179794" lon="6.62774418">
<ele>0</ele>
<time>2011-10-01T14:19:50Z</time>
</trkpt>
<trkpt lat="51.24205878" lon="6.62755659">
<ele>82.5</ele>
<time>2011-10-01T14:19:55Z</time>
</trkpt>
<trkpt lat="51.24225663" lon="6.62741401">
<ele>83.5</ele>
<time>2011-10-01T14:19:59Z</time>
</trkpt>
<trkpt lat="51.24245629" lon="6.62728837">
<ele>82</ele>
<time>2011-10-01T14:20:03Z</time>
</trkpt>
<trkpt lat="51.24266027" lon="6.62714018">
<ele>81</ele>
<time>2011-10-01T14:20:07Z</time>
</trkpt>
<trkpt lat="51.24286856" lon="6.62699467">
<ele>80.5</ele>
<time>2011-10-01T14:20:11Z</time>
</trkpt>
<trkpt lat="51.24307995" lon="6.62685167">
<ele>80</ele>
<time>2011-10-01T14:20:15Z</time>
</trkpt>
<trkpt lat="51.24329146" lon="6.62670432">
<ele>79.5</ele>
<time>2011-10-01T14:20:19Z</time>
</trkpt>
<trkpt lat="51.2434925" lon="6.6265609">
<ele>79.5</ele>
<time>2011-10-01T14:20:23Z</time>
</trkpt>
<trkpt lat="51.24367678" lon="6.62642294">
<ele>0</ele>
<time>2011-10-01T14:20:27Z</time>
</trkpt>
<trkpt lat="51.24385846" lon="6.62629478">
<ele>79</ele>
<time>2011-10-01T14:20:31Z</time>
</trkpt>
<trkpt lat="51.24404022" lon="6.62615648">
<ele>79.5</ele>
<time>2011-10-01T14:20:35Z</time>
</trkpt>
<trkpt lat="51.24422248" lon="6.62601667">
<ele>80</ele>
<time>2011-10-01T14:20:39Z</time>
</trkpt>
<trkpt lat="51.244397" lon="6.6258766">
<ele>80</ele>
<time>2011-10-01T14:20:43Z</time>
</trkpt>
<trkpt lat="51.24457972" lon="6.62573721">
<ele>0</ele>
<time>2011-10-01T14:20:47Z</time>
</trkpt>
<trkpt lat="51.24476752" lon="6.62559824">
<ele>0</ele>
<time>2011-10-01T14:20:51Z</time>
</trkpt>
<trkpt lat="51.2449567" lon="6.62543898">
<ele>80.5</ele>
<time>2011-10-01T14:20:55Z</time>
</trkpt>
<trkpt lat="51.24514449" lon="6.62528543">
<ele>81.5</ele>
<time>2011-10-01T14:20:59Z</time>
</trkpt>
<trkpt lat="51.2453356" lon="6.62512776">
<ele>82</ele>
<time>2011-10-01T14:21:03Z</time>
</trkpt>
<trkpt lat="51.2455278" lon="6.62498016">
<ele>82</ele>
<time>2011-10-01T14:21:07Z</time>
</trkpt>
<trkpt lat="51.24571865" lon="6.62483037">
<ele>82</ele>
<time>2011-10-01T14:21:11Z</time>
</trkpt>
<trkpt lat="51.24591567" lon="6.62468227">
<ele>0</ele>
<time>2011-10-01T14:21:15Z</time>
</trkpt>
<trkpt lat="51.24610678" lon="6.62453558">
<ele>82.5</ele>
<time>2011-10-01T14:21:19Z</time>
</trkpt>
<trkpt lat="51.24633213" lon="6.62435261">
<ele>82</ele>
<time>2011-10-01T14:21:24Z</time>
</trkpt>
<trkpt lat="51.2465195" lon="6.62420659">
<ele>82</ele>
<time>2011-10-01T14:21:28Z</time>
</trkpt>
<trkpt lat="51.24670541" lon="6.62406209">
<ele>82.5</ele>
<time>2011-10-01T14:21:32Z</time>
</trkpt>
<trkpt lat="51.24689296" lon="6.62392085">
<ele>0</ele>
<time>2011-10-01T14:21:36Z</time>
</trkpt>
<trkpt lat="51.24708055" lon="6.62377333">
<ele>0</ele>
<time>2011-10-01T14:21:40Z</time>
</trkpt>
<trkpt lat="51.24727945" lon="6.62362581">
<ele>83.5</ele>
<time>2011-10-01T14:21:44Z</time>
</trkpt>
<trkpt lat="51.24747328" lon="6.62346689">
<ele>82.5</ele>
<time>2011-10-01T14:21:48Z</time>
</trkpt>
<trkpt lat="51.2476664" lon="6.6233187">
<ele>83</ele>
<time>2011-10-01T14:21:52Z</time>
</trkpt>
<trkpt lat="51.24785436" lon="6.62317428">
<ele>83</ele>
<time>2011-10-01T14:21:56Z</time>
</trkpt>
<trkpt lat="51.24803365" lon="6.6230317">
<ele>83</ele>
<time>2011-10-01T14:22:00Z</time>
</trkpt>
<trkpt lat="51.24821621" lon="6.62289466">
<ele>0</ele>
<time>2011-10-01T14:22:04Z</time>
</trkpt>
<trkpt lat="51.24839944" lon="6.62275937">
<ele>83</ele>
<time>2011-10-01T14:22:08Z</time>
</trkpt>
<trkpt lat="51.24858049" lon="6.62261445">
<ele>0</ele>
<time>2011-10-01T14:22:12Z</time>
</trkpt>
<trkpt lat="51.24875592" lon="6.62247766">
<ele>0</ele>
<time>2011-10-01T14:22:16Z</time>
</trkpt>
<trkpt lat="51.2489311" lon="6.62234246">
<ele>83.5</ele>
<time>2011-10-01T14:22:20Z</time>
</trkpt>
<trkpt lat="51.24910503" lon="6.62220407">
<ele>0</ele>
<time>2011-10-01T14:22:24Z</time>
</trkpt>
<trkpt lat="51.24927401" lon="6.62207147">
<ele>0</ele>
<time>2011-10-01T14:22:28Z</time>
</trkpt>
<trkpt lat="51.24944303" lon="6.62193778">
<ele>83.5</ele>
<time>2011-10-01T14:22:32Z</time>
</trkpt>
<trkpt lat="51.24958648" lon="6.62198137">
<ele>82.5</ele>
<time>2011-10-01T14:22:36Z</time>
</trkpt>
<trkpt lat="51.24961968" lon="6.62225772">
<ele>0</ele>
<time>2011-10-01T14:22:40Z</time>
</trkpt>
<trkpt lat="51.24965396" lon="6.62255175">
<ele>0</ele>
<time>2011-10-01T14:22:44Z</time>
</trkpt>
<trkpt lat="51.2496931" lon="6.62284546">
<ele>82</ele>
<time>2011-10-01T14:22:48Z</time>
</trkpt>
<trkpt lat="51.24972906" lon="6.62313153">
<ele>82</ele>
<time>2011-10-01T14:22:52Z</time>
</trkpt>
<trkpt lat="51.24976213" lon="6.62337913">
<ele>83</ele>
<time>2011-10-01T14:22:57Z</time>
</trkpt>
<trkpt lat="51.2497589" lon="6.6233757">
<ele>83.5</ele>
<time>2011-10-01T14:23:01Z</time>
</trkpt>
<trkpt lat="51.24975412" lon="6.62336446">
<ele>0</ele>
<time>2011-10-01T14:23:05Z</time>
</trkpt>
<trkpt lat="51.2497532" lon="6.62336631">
<ele>0</ele>
<time>2011-10-01T14:23:09Z</time>
</trkpt>
<trkpt lat="51.24974599" lon="6.6233596">
<ele>84.5</ele>
<time>2011-10-01T14:23:13Z</time>
</trkpt>
<trkpt lat="51.24974478" lon="6.62335868">
<ele>85</ele>
<time>2011-10-01T14:23:17Z</time>
</trkpt>
<trkpt lat="51.2497449" lon="6.62335801">
<ele>84</ele>
<time>2011-10-01T14:23:21Z</time>
</trkpt>
<trkpt lat="51.2497493" lon="6.62336404">
<ele>84</ele>
<time>2011-10-01T14:23:25Z</time>
</trkpt>
<trkpt lat="51.24974821" lon="6.62336656">
<ele>0</ele>
<time>2011-10-01T14:23:29Z</time>
</trkpt>
<trkpt lat="51.24974821" lon="6.62337067">
<ele>83.5</ele>
<time>2011-10-01T14:23:33Z</time>
</trkpt>
<trkpt lat="51.24974968" lon="6.62337452">
<ele>83.5</ele>
<time>2011-10-01T14:23:37Z</time>
</trkpt>
<trkpt lat="51.24975152" lon="6.62337846">
<ele>0</ele>
<time>2011-10-01T14:23:41Z</time>
</trkpt>
<trkpt lat="51.24975253" lon="6.62338165">
<ele>83</ele>
<time>2011-10-01T14:23:45Z</time>
</trkpt>
<trkpt lat="51.24975144" lon="6.62338777">
<ele>83.5</ele>
<time>2011-10-01T14:23:49Z</time>
</trkpt>
<trkpt lat="51.24974763" lon="6.62338525">
<ele>84</ele>
<time>2011-10-01T14:23:53Z</time>
</trkpt>
<trkpt lat="51.2497426" lon="6.62338005">
<ele>84</ele>
<time>2011-10-01T14:23:57Z</time>
</trkpt>
<trkpt lat="51.24974105" lon="6.62337746">
<ele>84</ele>
<time>2011-10-01T14:24:01Z</time>
</trkpt>
<trkpt lat="51.24974385" lon="6.62337712">
<ele>84</ele>
<time>2011-10-01T14:24:05Z</time>
</trkpt>
<trkpt lat="51.24974607" lon="6.6233757">
<ele>85</ele>
<time>2011-10-01T14:24:09Z</time>
</trkpt>
<trkpt lat="51.24974436" lon="6.62337947">
<ele>85</ele>
<time>2011-10-01T14:24:13Z</time>
</trkpt>
<trkpt lat="51.24974113" lon="6.62337486">
<ele>0</ele>
<time>2011-10-01T14:24:17Z</time>
</trkpt>
<trkpt lat="51.24974184" lon="6.62337486">
<ele>85</ele>
<time>2011-10-01T14:24:21Z</time>
</trkpt>
<trkpt lat="51.24973991" lon="6.62337377">
<ele>84.5</ele>
<time>2011-10-01T14:24:26Z</time>
</trkpt>
<trkpt lat="51.24974302" lon="6.62337494">
<ele>85</ele>
<time>2011-10-01T14:24:30Z</time>
</trkpt>
<trkpt lat="51.24974197" lon="6.62337536">
<ele>0</ele>
<time>2011-10-01T14:24:34Z</time>
</trkpt>
<trkpt lat="51.24973979" lon="6.62337285">
<ele>0</ele>
<time>2011-10-01T14:24:38Z</time>
</trkpt>
<trkpt lat="51.24974264" lon="6.6233741">
<ele>84.5</ele>
<time>2011-10-01T14:24:42Z</time>
</trkpt>
<trkpt lat="51.24974654" lon="6.6233731">
<ele>85</ele>
<time>2011-10-01T14:24:46Z</time>
</trkpt>
<trkpt lat="51.249748" lon="6.62337109">
<ele>0</ele>
<time>2011-10-01T14:24:50Z</time>
</trkpt>
<trkpt lat="51.24974398" lon="6.62337444">
<ele>0</ele>
<time>2011-10-01T14:24:54Z</time>
</trkpt>
<trkpt lat="51.24974318" lon="6.62337343">
<ele>85</ele>
<time>2011-10-01T14:24:58Z</time>
</trkpt>
<trkpt lat="51.2497413" lon="6.62337586">
<ele>0</ele>
<time>2011-10-01T14:25:02Z</time>
</trkpt>
<trkpt lat="51.249741" lon="6.62337637">
<ele>85</ele>
<time>2011-10-01T14:25:06Z</time>
</trkpt>
<trkpt lat="51.24974163" lon="6.6233762">
<ele>85</ele>
<time>2011-10-01T14:25:10Z</time>
</trkpt>
<trkpt lat="51.2497413" lon="6.62337586">
<ele>0</ele>
<time>2011-10-01T14:25:14Z</time>
</trkpt>
<trkpt lat="51.24974046" lon="6.62337628">
<ele>85</ele>
<time>2011-10-01T14:25:18Z</time>
</trkpt>
<trkpt lat="51.24973987" lon="6.62337653">
<ele>0</ele>
<time>2011-10-01T14:25:22Z</time>
</trkpt>
<trkpt lat="51.24974079" lon="6.62337922">
<ele>0</ele>
<time>2011-10-01T14:25:26Z</time>
</trkpt>
<trkpt lat="51.24973945" lon="6.6233819">
<ele>85</ele>
<time>2011-10-01T14:25:30Z</time>
</trkpt>
<trkpt lat="51.24973635" lon="6.62338391">
<ele>0</ele>
<time>2011-10-01T14:25:34Z</time>
</trkpt>
<trkpt lat="51.24973815" lon="6.62338424">
<ele>0</ele>
<time>2011-10-01T14:25:38Z</time>
</trkpt>
<trkpt lat="51.24973782" lon="6.62338332">
<ele>85</ele>
<time>2011-10-01T14:25:42Z</time>
</trkpt>
<trkpt lat="51.24974553" lon="6.62338869">
<ele>85</ele>
<time>2011-10-01T14:25:46Z</time>
</trkpt>
<trkpt lat="51.24974721" lon="6.623386">
<ele>85.5</ele>
<time>2011-10-01T14:25:50Z</time>
</trkpt>
<trkpt lat="51.24974863" lon="6.62338877">
<ele>85</ele>
<time>2011-10-01T14:25:54Z</time>
</trkpt>
<trkpt lat="51.24974687" lon="6.62338617">
<ele>85</ele>
<time>2011-10-01T14:25:59Z</time>
</trkpt>
<trkpt lat="51.24974997" lon="6.62339061">
<ele>85</ele>
<time>2011-10-01T14:26:03Z</time>
</trkpt>
<trkpt lat="51.24974788" lon="6.62338919">
<ele>0</ele>
<time>2011-10-01T14:26:07Z</time>
</trkpt>
<trkpt lat="51.24974767" lon="6.62339145">
<ele>85</ele>
<time>2011-10-01T14:26:11Z</time>
</trkpt>
<trkpt lat="51.24974549" lon="6.6233917">
<ele>0</ele>
<time>2011-10-01T14:26:15Z</time>
</trkpt>
<trkpt lat="51.24974578" lon="6.62339179">
<ele>0</ele>
<time>2011-10-01T14:26:19Z</time>
</trkpt>
<trkpt lat="51.2497467" lon="6.62339103">
<ele>85.5</ele>
<time>2011-10-01T14:26:23Z</time>
</trkpt>
<trkpt lat="51.2497462" lon="6.62339154">
<ele>0</ele>
<time>2011-10-01T14:26:27Z</time>
</trkpt>
<trkpt lat="51.24974591" lon="6.62339732">
<ele>0</ele>
<time>2011-10-01T14:26:31Z</time>
</trkpt>
<trkpt lat="51.24974431" lon="6.62339548">
<ele>85.5</ele>
<time>2011-10-01T14:26:35Z</time>
</trkpt>
<trkpt lat="51.24974851" lon="6.62340092">
<ele>86</ele>
<time>2011-10-01T14:26:39Z</time>
</trkpt>
<trkpt lat="51.24974934" lon="6.62339916">
<ele>85.5</ele>
<time>2011-10-01T14:26:43Z</time>
</trkpt>
<trkpt lat="51.2497488" lon="6.62340084">
<ele>0</ele>
<time>2011-10-01T14:26:47Z</time>
</trkpt>
<trkpt lat="51.24974964" lon="6.62340092">
<ele>0</ele>
<time>2011-10-01T14:26:51Z</time>
</trkpt>
<trkpt lat="51.249748" lon="6.62340067">
<ele>85.5</ele>
<time>2011-10-01T14:26:55Z</time>
</trkpt>
<trkpt lat="51.24975119" lon="6.62340101">
<ele>85.5</ele>
<time>2011-10-01T14:26:59Z</time>
</trkpt>
<trkpt lat="51.24974947" lon="6.62339841">
<ele>86</ele>
<time>2011-10-01T14:27:03Z</time>
</trkpt>
<trkpt lat="51.24974892" lon="6.62339824">
<ele>0</ele>
<time>2011-10-01T14:27:07Z</time>
</trkpt>
<trkpt lat="51.24974607" lon="6.6233959">
<ele>0</ele>
<time>2011-10-01T14:27:11Z</time>
</trkpt>
<trkpt lat="51.2497454" lon="6.6233943">
<ele>86</ele>
<time>2011-10-01T14:27:15Z</time>
</trkpt>
<trkpt lat="51.2497449" lon="6.62339263">
<ele>0</ele>
<time>2011-10-01T14:27:19Z</time>
</trkpt>
<trkpt lat="51.24974595" lon="6.62339447">
<ele>0</ele>
<time>2011-10-01T14:27:23Z</time>
</trkpt>
<trkpt lat="51.2497467" lon="6.62339631">
<ele>86</ele>
<time>2011-10-01T14:27:27Z</time>
</trkpt>
<trkpt lat="51.24974855" lon="6.62339564">
<ele>0</ele>
<time>2011-10-01T14:27:32Z</time>
</trkpt>
<trkpt lat="51.24974922" lon="6.62339514">
<ele>86</ele>
<time>2011-10-01T14:27:36Z</time>
</trkpt>
<trkpt lat="51.24974913" lon="6.62339539">
<ele>86</ele>
<time>2011-10-01T14:27:40Z</time>
</trkpt>
<trkpt lat="51.24975094" lon="6.62339665">
<ele>0</ele>
<time>2011-10-01T14:27:44Z</time>
</trkpt>
<trkpt lat="51.24975249" lon="6.62339715">
<ele>86</ele>
<time>2011-10-01T14:27:48Z</time>
</trkpt>
<trkpt lat="51.24975341" lon="6.62339732">
<ele>0</ele>
<time>2011-10-01T14:27:52Z</time>
</trkpt>
<trkpt lat="51.24975416" lon="6.62339715">
<ele>0</ele>
<time>2011-10-01T14:27:56Z</time>
</trkpt>
<trkpt lat="51.24975483" lon="6.62339623">
<ele>86</ele>
<time>2011-10-01T14:28:00Z</time>
</trkpt>
<trkpt lat="51.24975488" lon="6.62339573">
<ele>86</ele>
<time>2011-10-01T14:28:04Z</time>
</trkpt>
<trkpt lat="51.24975492" lon="6.62339305">
<ele>0</ele>
<time>2011-10-01T14:28:08Z</time>
</trkpt>
<trkpt lat="51.24975588" lon="6.62339631">
<ele>0</ele>
<time>2011-10-01T14:28:12Z</time>
</trkpt>
<trkpt lat="51.24975479" lon="6.62339439">
<ele>86</ele>
<time>2011-10-01T14:28:16Z</time>
</trkpt>
<trkpt lat="51.24975345" lon="6.6233933">
<ele>0</ele>
<time>2011-10-01T14:28:20Z</time>
</trkpt>
<trkpt lat="51.24975161" lon="6.62339346">
<ele>0</ele>
<time>2011-10-01T14:28:24Z</time>
</trkpt>
<trkpt lat="51.24975035" lon="6.62339196">
<ele>86</ele>
<time>2011-10-01T14:28:28Z</time>
</trkpt>
<trkpt lat="51.24975215" lon="6.62339581">
<ele>0</ele>
<time>2011-10-01T14:28:32Z</time>
</trkpt>
<trkpt lat="51.24975211" lon="6.62339657">
<ele>86</ele>
<time>2011-10-01T14:28:36Z</time>
</trkpt>
<trkpt lat="51.24975211" lon="6.62339841">
<ele>86</ele>
<time>2011-10-01T14:28:40Z</time>
</trkpt>
<trkpt lat="51.24975211" lon="6.62340025">
<ele>0</ele>
<time>2011-10-01T14:28:44Z</time>
</trkpt>
<trkpt lat="51.2497527" lon="6.62340134">
<ele>86</ele>
<time>2011-10-01T14:28:48Z</time>
</trkpt>
<trkpt lat="51.24975265" lon="6.62339849">
<ele>0</ele>
<time>2011-10-01T14:28:52Z</time>
</trkpt>
<trkpt lat="51.24975333" lon="6.62339942">
<ele>0</ele>
<time>2011-10-01T14:28:56Z</time>
</trkpt>
<trkpt lat="51.2497524" lon="6.62339598">
<ele>86</ele>
<time>2011-10-01T14:29:02Z</time>
</trkpt>
<trkpt lat="51.2497524" lon="6.62339321">
<ele>0</ele>
<time>2011-10-01T14:29:06Z</time>
</trkpt>
<trkpt lat="51.24975295" lon="6.62339447">
<ele>0</ele>
<time>2011-10-01T14:29:10Z</time>
</trkpt>
<trkpt lat="51.24975278" lon="6.62339548">
<ele>86</ele>
<time>2011-10-01T14:29:14Z</time>
</trkpt>
<trkpt lat="51.2497812" lon="6.62360779">
<ele>86</ele>
<time>2011-10-01T14:29:18Z</time>
</trkpt>
<trkpt lat="51.2498133" lon="6.62385271">
<ele>85.5</ele>
<time>2011-10-01T14:29:22Z</time>
</trkpt>
<trkpt lat="51.24985906" lon="6.6241242">
<ele>85.5</ele>
<time>2011-10-01T14:29:26Z</time>
</trkpt>
<trkpt lat="51.24989951" lon="6.62441757">
<ele>0</ele>
<time>2011-10-01T14:29:30Z</time>
</trkpt>
<trkpt lat="51.24994711" lon="6.62471085">
<ele>86</ele>
<time>2011-10-01T14:29:34Z</time>
</trkpt>
<trkpt lat="51.24999179" lon="6.62501369">
<ele>85.5</ele>
<time>2011-10-01T14:29:38Z</time>
</trkpt>
<trkpt lat="51.25005851" lon="6.62530093">
<ele>86.5</ele>
<time>2011-10-01T14:29:42Z</time>
</trkpt>
<trkpt lat="51.25013944" lon="6.62558215">
<ele>86</ele>
<time>2011-10-01T14:29:46Z</time>
</trkpt>
<trkpt lat="51.25024165" lon="6.62584702">
<ele>0</ele>
<time>2011-10-01T14:29:50Z</time>
</trkpt>
<trkpt lat="51.25034647" lon="6.62610099">
<ele>0</ele>
<time>2011-10-01T14:29:54Z</time>
</trkpt>
<trkpt lat="51.25044789" lon="6.62633752">
<ele>87</ele>
<time>2011-10-01T14:29:58Z</time>
</trkpt>
<trkpt lat="51.25046646" lon="6.62638438">
<ele>87</ele>
<time>2011-10-01T14:30:02Z</time>
</trkpt>
<trkpt lat="51.25046667" lon="6.62637298">
<ele>87.5</ele>
<time>2011-10-01T14:30:06Z</time>
</trkpt>
<trkpt lat="51.25046134" lon="6.62637005">
<ele>86.5</ele>
<time>2011-10-01T14:30:10Z</time>
</trkpt>
<trkpt lat="51.25046516" lon="6.62638622">
<ele>85</ele>
<time>2011-10-01T14:30:14Z</time>
</trkpt>
<trkpt lat="51.25046499" lon="6.62639259">
<ele>85</ele>
<time>2011-10-01T14:30:18Z</time>
</trkpt>
<trkpt lat="51.25047098" lon="6.62639754">
<ele>86</ele>
<time>2011-10-01T14:30:22Z</time>
</trkpt>
<trkpt lat="51.25047056" lon="6.62639427">
<ele>87</ele>
<time>2011-10-01T14:30:26Z</time>
</trkpt>
<trkpt lat="51.25046336" lon="6.62638907">
<ele>87</ele>
<time>2011-10-01T14:30:30Z</time>
</trkpt>
<trkpt lat="51.25045707" lon="6.62638203">
<ele>86.5</ele>
<time>2011-10-01T14:30:35Z</time>
</trkpt>
<trkpt lat="51.25045636" lon="6.62638195">
<ele>86.5</ele>
<time>2011-10-01T14:30:39Z</time>
</trkpt>
<trkpt lat="51.25045703" lon="6.62638647">
<ele>86.5</ele>
<time>2011-10-01T14:30:43Z</time>
</trkpt>
<trkpt lat="51.25045527" lon="6.6263853">
<ele>0</ele>
<time>2011-10-01T14:30:47Z</time>
</trkpt>
<trkpt lat="51.25045954" lon="6.62637801">
<ele>87</ele>
<time>2011-10-01T14:30:51Z</time>
</trkpt>
<trkpt lat="51.25046072" lon="6.62637801">
<ele>87.5</ele>
<time>2011-10-01T14:30:55Z</time>
</trkpt>
<trkpt lat="51.25045632" lon="6.6263822">
<ele>88</ele>
<time>2011-10-01T14:30:59Z</time>
</trkpt>
<trkpt lat="51.25045179" lon="6.62639008">
<ele>0</ele>
<time>2011-10-01T14:31:03Z</time>
</trkpt>
<trkpt lat="51.25044932" lon="6.62640148">
<ele>0</ele>
<time>2011-10-01T14:31:07Z</time>
</trkpt>
<trkpt lat="51.25045129" lon="6.62640383">
<ele>91.5</ele>
<time>2011-10-01T14:31:11Z</time>
</trkpt>
<trkpt lat="51.25045091" lon="6.62640181">
<ele>91.5</ele>
<time>2011-10-01T14:31:15Z</time>
</trkpt>
<trkpt lat="51.25045053" lon="6.62639787">
<ele>90.5</ele>
<time>2011-10-01T14:31:19Z</time>
</trkpt>
<trkpt lat="51.25045083" lon="6.62639259">
<ele>90</ele>
<time>2011-10-01T14:31:23Z</time>
</trkpt>
<trkpt lat="51.25045242" lon="6.62638958">
<ele>89</ele>
<time>2011-10-01T14:31:27Z</time>
</trkpt>
<trkpt lat="51.2504538" lon="6.62638983">
<ele>88.5</ele>
<time>2011-10-01T14:31:31Z</time>
</trkpt>
<trkpt lat="51.25045736" lon="6.62638991">
<ele>0</ele>
<time>2011-10-01T14:31:35Z</time>
</trkpt>
<trkpt lat="51.25045996" lon="6.62638857">
<ele>0</ele>
<time>2011-10-01T14:31:39Z</time>
</trkpt>
<trkpt lat="51.25045891" lon="6.62638731">
<ele>88</ele>
<time>2011-10-01T14:31:43Z</time>
</trkpt>
<trkpt lat="51.25045782" lon="6.62639192">
<ele>0</ele>
<time>2011-10-01T14:31:47Z</time>
</trkpt>
<trkpt lat="51.25045585" lon="6.62639821">
<ele>88.5</ele>
<time>2011-10-01T14:31:51Z</time>
</trkpt>
<trkpt lat="51.2504564" lon="6.62639729">
<ele>88.5</ele>
<time>2011-10-01T14:31:55Z</time>
</trkpt>
<trkpt lat="51.25045485" lon="6.62639989">
<ele>0</ele>
<time>2011-10-01T14:31:59Z</time>
</trkpt>
<trkpt lat="51.25045397" lon="6.62639997">
<ele>88.5</ele>
<time>2011-10-01T14:32:03Z</time>
</trkpt>
<trkpt lat="51.25045238" lon="6.62640047">
<ele>88</ele>
<time>2011-10-01T14:32:09Z</time>
</trkpt>
<trkpt lat="51.25045414" lon="6.6264024">
<ele>0</ele>
<time>2011-10-01T14:32:13Z</time>
</trkpt>
<trkpt lat="51.25045497" lon="6.62640223">
<ele>0</ele>
<time>2011-10-01T14:32:17Z</time>
</trkpt>
<trkpt lat="51.25045661" lon="6.62639963">
<ele>87.5</ele>
<time>2011-10-01T14:32:21Z</time>
</trkpt>
<trkpt lat="51.25045757" lon="6.62639251">
<ele>0</ele>
<time>2011-10-01T14:32:25Z</time>
</trkpt>
<trkpt lat="51.25045669" lon="6.62638622">
<ele>87</ele>
<time>2011-10-01T14:32:29Z</time>
</trkpt>
<trkpt lat="51.25045552" lon="6.62638279">
<ele>87</ele>
<time>2011-10-01T14:32:33Z</time>
</trkpt>
<trkpt lat="51.25045476" lon="6.62637667">
<ele>0</ele>
<time>2011-10-01T14:32:37Z</time>
</trkpt>
<trkpt lat="51.25045489" lon="6.62637918">
<ele>86.5</ele>
<time>2011-10-01T14:32:41Z</time>
</trkpt>
<trkpt lat="51.2504546" lon="6.62638497">
<ele>0</ele>
<time>2011-10-01T14:32:45Z</time>
</trkpt>
<trkpt lat="51.25045464" lon="6.62638647">
<ele>0</ele>
<time>2011-10-01T14:32:49Z</time>
</trkpt>
<trkpt lat="51.250452" lon="6.62638849">
<ele>85.5</ele>
<time>2011-10-01T14:32:53Z</time>
</trkpt>
<trkpt lat="51.25045108" lon="6.62638731">
<ele>85.5</ele>
<time>2011-10-01T14:32:57Z</time>
</trkpt>
<trkpt lat="51.25044999" lon="6.62638388">
<ele>0</ele>
<time>2011-10-01T14:33:01Z</time>
</trkpt>
<trkpt lat="51.25045154" lon="6.62637952">
<ele>85</ele>
<time>2011-10-01T14:33:05Z</time>
</trkpt>
<trkpt lat="51.25045623" lon="6.62637751">
<ele>85.5</ele>
<time>2011-10-01T14:33:09Z</time>
</trkpt>
<trkpt lat="51.25046109" lon="6.62637499">
<ele>85.5</ele>
<time>2011-10-01T14:33:13Z</time>
</trkpt>
<trkpt lat="51.25046222" lon="6.62637373">
<ele>0</ele>
<time>2011-10-01T14:33:17Z</time>
</trkpt>
<trkpt lat="51.25048997" lon="6.62640936">
<ele>84.5</ele>
<time>2011-10-01T14:33:21Z</time>
</trkpt>
<trkpt lat="51.25054768" lon="6.62653358">
<ele>85</ele>
<time>2011-10-01T14:33:25Z</time>
</trkpt>
<trkpt lat="51.25063242" lon="6.62674044">
<ele>84.5</ele>
<time>2011-10-01T14:33:29Z</time>
</trkpt>
<trkpt lat="51.25072831" lon="6.62696717">
<ele>85</ele>
<time>2011-10-01T14:33:33Z</time>
</trkpt>
<trkpt lat="51.25089079" lon="6.62735785">
<ele>85.5</ele>
<time>2011-10-01T14:33:39Z</time>
</trkpt>
<trkpt lat="51.25099804" lon="6.62761593">
<ele>85.5</ele>
<time>2011-10-01T14:33:43Z</time>
</trkpt>
<trkpt lat="51.25109908" lon="6.62786823">
<ele>0</ele>
<time>2011-10-01T14:33:47Z</time>
</trkpt>
<trkpt lat="51.25120339" lon="6.62812153">
<ele>86</ele>
<time>2011-10-01T14:33:51Z</time>
</trkpt>
<trkpt lat="51.25130951" lon="6.62838656">
<ele>0</ele>
<time>2011-10-01T14:33:55Z</time>
</trkpt>
<trkpt lat="51.25141671" lon="6.62865403">
<ele>0</ele>
<time>2011-10-01T14:33:59Z</time>
</trkpt>
<trkpt lat="51.25152849" lon="6.62892611">
<ele>86</ele>
<time>2011-10-01T14:34:03Z</time>
</trkpt>
<trkpt lat="51.25164483" lon="6.62920212">
<ele>0</ele>
<time>2011-10-01T14:34:07Z</time>
</trkpt>
<trkpt lat="51.25175882" lon="6.62949197">
<ele>0</ele>
<time>2011-10-01T14:34:11Z</time>
</trkpt>
<trkpt lat="51.25187378" lon="6.62977109">
<ele>86</ele>
<time>2011-10-01T14:34:15Z</time>
</trkpt>
<trkpt lat="51.25199557" lon="6.63005121">
<ele>0</ele>
<time>2011-10-01T14:34:19Z</time>
</trkpt>
<trkpt lat="51.2521179" lon="6.6303429">
<ele>86</ele>
<time>2011-10-01T14:34:23Z</time>
</trkpt>
<trkpt lat="51.25223625" lon="6.63062545">
<ele>86</ele>
<time>2011-10-01T14:34:27Z</time>
</trkpt>
<trkpt lat="51.25235938" lon="6.63090223">
<ele>0</ele>
<time>2011-10-01T14:34:31Z</time>
</trkpt>
<trkpt lat="51.25247803" lon="6.63118361">
<ele>85.5</ele>
<time>2011-10-01T14:34:35Z</time>
</trkpt>
<trkpt lat="51.25259827" lon="6.63146054">
<ele>0</ele>
<time>2011-10-01T14:34:39Z</time>
</trkpt>
<trkpt lat="51.25272505" lon="6.63172927">
<ele>0</ele>
<time>2011-10-01T14:34:43Z</time>
</trkpt>
<trkpt lat="51.25284834" lon="6.63201752">
<ele>85</ele>
<time>2011-10-01T14:34:47Z</time>
</trkpt>
<trkpt lat="51.25297877" lon="6.63230896">
<ele>85</ele>
<time>2011-10-01T14:34:51Z</time>
</trkpt>
<trkpt lat="51.25311522" lon="6.6326123">
<ele>0</ele>
<time>2011-10-01T14:34:55Z</time>
</trkpt>
<trkpt lat="51.25325264" lon="6.63291355">
<ele>84.5</ele>
<time>2011-10-01T14:34:59Z</time>
</trkpt>
<trkpt lat="51.25338797" lon="6.63320951">
<ele>85</ele>
<time>2011-10-01T14:35:03Z</time>
</trkpt>
<trkpt lat="51.25351571" lon="6.63350506">
<ele>85</ele>
<time>2011-10-01T14:35:07Z</time>
</trkpt>
<trkpt lat="51.2536642" lon="6.6338659">
<ele>85</ele>
<time>2011-10-01T14:35:12Z</time>
</trkpt>
<trkpt lat="51.25378054" lon="6.63413378">
<ele>84.5</ele>
<time>2011-10-01T14:35:16Z</time>
</trkpt>
<trkpt lat="51.25388954" lon="6.63439513">
<ele>0</ele>
<time>2011-10-01T14:35:20Z</time>
</trkpt>
<trkpt lat="51.25399872" lon="6.63464785">
<ele>0</ele>
<time>2011-10-01T14:35:24Z</time>
</trkpt>
<trkpt lat="51.25410475" lon="6.63489947">
<ele>85</ele>
<time>2011-10-01T14:35:28Z</time>
</trkpt>
<trkpt lat="51.25421476" lon="6.63514665">
<ele>85</ele>
<time>2011-10-01T14:35:32Z</time>
</trkpt>
<trkpt lat="51.25431912" lon="6.6354075">
<ele>85</ele>
<time>2011-10-01T14:35:36Z</time>
</trkpt>
<trkpt lat="51.25442561" lon="6.63565736">
<ele>0</ele>
<time>2011-10-01T14:35:40Z</time>
</trkpt>
<trkpt lat="51.25453005" lon="6.63590346">
<ele>85.5</ele>
<time>2011-10-01T14:35:44Z</time>
</trkpt>
<trkpt lat="51.25463528" lon="6.63614167">
<ele>0</ele>
<time>2011-10-01T14:35:48Z</time>
</trkpt>
<trkpt lat="51.25473402" lon="6.63636169">
<ele>0</ele>
<time>2011-10-01T14:35:52Z</time>
</trkpt>
<trkpt lat="51.25482572" lon="6.63659731">
<ele>86</ele>
<time>2011-10-01T14:35:56Z</time>
</trkpt>
<trkpt lat="51.25486373" lon="6.63683955">
<ele>85.5</ele>
<time>2011-10-01T14:36:00Z</time>
</trkpt>
<trkpt lat="51.25472044" lon="6.63697667">
<ele>0</ele>
<time>2011-10-01T14:36:04Z</time>
</trkpt>
<trkpt lat="51.2545505" lon="6.63711204">
<ele>0</ele>
<time>2011-10-01T14:36:08Z</time>
</trkpt>
<trkpt lat="51.25436299" lon="6.63724733">
<ele>86</ele>
<time>2011-10-01T14:36:12Z</time>
</trkpt>
<trkpt lat="51.2541762" lon="6.63738982">
<ele>0</ele>
<time>2011-10-01T14:36:16Z</time>
</trkpt>
<trkpt lat="51.25399289" lon="6.63752954">
<ele>86.5</ele>
<time>2011-10-01T14:36:20Z</time>
</trkpt>
<trkpt lat="51.2538113" lon="6.63765569">
<ele>87</ele>
<time>2011-10-01T14:36:24Z</time>
</trkpt>
<trkpt lat="51.25364152" lon="6.63778595">
<ele>87</ele>
<time>2011-10-01T14:36:28Z</time>
</trkpt>
<trkpt lat="51.25346596" lon="6.63791779">
<ele>86.5</ele>
<time>2011-10-01T14:36:32Z</time>
</trkpt>
<trkpt lat="51.25328579" lon="6.63805266">
<ele>0</ele>
<time>2011-10-01T14:36:36Z</time>
</trkpt>
<trkpt lat="51.25305005" lon="6.63821611">
<ele>0</ele>
<time>2011-10-01T14:36:41Z</time>
</trkpt>
<trkpt lat="51.2528584" lon="6.6383534">
<ele>86.5</ele>
<time>2011-10-01T14:36:45Z</time>
</trkpt>
<trkpt lat="51.25266671" lon="6.63851065">
<ele>86</ele>
<time>2011-10-01T14:36:49Z</time>
</trkpt>
<trkpt lat="51.25247279" lon="6.63866378">
<ele>86</ele>
<time>2011-10-01T14:36:53Z</time>
</trkpt>
<trkpt lat="51.25227561" lon="6.63880879">
<ele>0</ele>
<time>2011-10-01T14:36:57Z</time>
</trkpt>
<trkpt lat="51.25208626" lon="6.63894692">
<ele>86</ele>
<time>2011-10-01T14:37:01Z</time>
</trkpt>
<trkpt lat="51.25190349" lon="6.6390864">
<ele>86.5</ele>
<time>2011-10-01T14:37:05Z</time>
</trkpt>
<trkpt lat="51.25171964" lon="6.63922017">
<ele>86</ele>
<time>2011-10-01T14:37:09Z</time>
</trkpt>
<trkpt lat="51.25153796" lon="6.63936694">
<ele>86</ele>
<time>2011-10-01T14:37:13Z</time>
</trkpt>
<trkpt lat="51.25134756" lon="6.63951145">
<ele>0</ele>
<time>2011-10-01T14:37:17Z</time>
</trkpt>
<trkpt lat="51.25116731" lon="6.63966089">
<ele>85</ele>
<time>2011-10-01T14:37:21Z</time>
</trkpt>
<trkpt lat="51.25098781" lon="6.63979316">
<ele>0</ele>
<time>2011-10-01T14:37:25Z</time>
</trkpt>
<trkpt lat="51.25081946" lon="6.63993808">
<ele>0</ele>
<time>2011-10-01T14:37:29Z</time>
</trkpt>
<trkpt lat="51.25063716" lon="6.64004261">
<ele>85</ele>
<time>2011-10-01T14:37:33Z</time>
</trkpt>
<trkpt lat="51.25045552" lon="6.64017219">
<ele>85</ele>
<time>2011-10-01T14:37:37Z</time>
</trkpt>
<trkpt lat="51.2502919" lon="6.64035643">
<ele>84.5</ele>
<time>2011-10-01T14:37:41Z</time>
</trkpt>
<trkpt lat="51.2500925" lon="6.64052063">
<ele>84</ele>
<time>2011-10-01T14:37:45Z</time>
</trkpt>
<trkpt lat="51.24990613" lon="6.64068139">
<ele>0</ele>
<time>2011-10-01T14:37:49Z</time>
</trkpt>
<trkpt lat="51.24971929" lon="6.64082455">
<ele>0</ele>
<time>2011-10-01T14:37:53Z</time>
</trkpt>
<trkpt lat="51.24953414" lon="6.64097291">
<ele>84</ele>
<time>2011-10-01T14:37:57Z</time>
</trkpt>
<trkpt lat="51.24934894" lon="6.64112513">
<ele>0</ele>
<time>2011-10-01T14:38:01Z</time>
</trkpt>
<trkpt lat="51.24916697" lon="6.64126913">
<ele>0</ele>
<time>2011-10-01T14:38:05Z</time>
</trkpt>
<trkpt lat="51.24899024" lon="6.64140416">
<ele>84.5</ele>
<time>2011-10-01T14:38:09Z</time>
</trkpt>
<trkpt lat="51.24872985" lon="6.64161522">
<ele>0</ele>
<time>2011-10-01T14:38:15Z</time>
</trkpt>
<trkpt lat="51.24856465" lon="6.64174531">
<ele>84</ele>
<time>2011-10-01T14:38:19Z</time>
</trkpt>
<trkpt lat="51.24839181" lon="6.64188093">
<ele>83.5</ele>
<time>2011-10-01T14:38:23Z</time>
</trkpt>
<trkpt lat="51.24821776" lon="6.64201864">
<ele>84</ele>
<time>2011-10-01T14:38:27Z</time>
</trkpt>
<trkpt lat="51.24804266" lon="6.64215141">
<ele>84</ele>
<time>2011-10-01T14:38:31Z</time>
</trkpt>
<trkpt lat="51.24787155" lon="6.64228778">
<ele>0</ele>
<time>2011-10-01T14:38:35Z</time>
</trkpt>
<trkpt lat="51.24769951" lon="6.64242474">
<ele>84.5</ele>
<time>2011-10-01T14:38:39Z</time>
</trkpt>
<trkpt lat="51.24752324" lon="6.64256422">
<ele>0</ele>
<time>2011-10-01T14:38:43Z</time>
</trkpt>
<trkpt lat="51.24734751" lon="6.64270478">
<ele>0</ele>
<time>2011-10-01T14:38:47Z</time>
</trkpt>
<trkpt lat="51.24716839" lon="6.64283437">
<ele>85</ele>
<time>2011-10-01T14:38:51Z</time>
</trkpt>
<trkpt lat="51.24697699" lon="6.64289128">
<ele>84.5</ele>
<time>2011-10-01T14:38:55Z</time>
</trkpt>
<trkpt lat="51.24680076" lon="6.64300167">
<ele>84</ele>
<time>2011-10-01T14:38:59Z</time>
</trkpt>
<trkpt lat="51.24664494" lon="6.64322237">
<ele>0</ele>
<time>2011-10-01T14:39:03Z</time>
</trkpt>
<trkpt lat="51.24647194" lon="6.64340157">
<ele>0</ele>
<time>2011-10-01T14:39:07Z</time>
</trkpt>
<trkpt lat="51.24628812" lon="6.64352135">
<ele>83.5</ele>
<time>2011-10-01T14:39:11Z</time>
</trkpt>
<trkpt lat="51.24611101" lon="6.64366501">
<ele>84</ele>
<time>2011-10-01T14:39:15Z</time>
</trkpt>
<trkpt lat="51.24593399" lon="6.64379342">
<ele>84</ele>
<time>2011-10-01T14:39:19Z</time>
</trkpt>
<trkpt lat="51.24576693" lon="6.64392661">
<ele>0</ele>
<time>2011-10-01T14:39:23Z</time>
</trkpt>
<trkpt lat="51.24559909" lon="6.64405469">
<ele>84</ele>
<time>2011-10-01T14:39:27Z</time>
</trkpt>
<trkpt lat="51.24542277" lon="6.64418972">
<ele>0</ele>
<time>2011-10-01T14:39:31Z</time>
</trkpt>
<trkpt lat="51.24523439" lon="6.64433984">
<ele>0</ele>
<time>2011-10-01T14:39:35Z</time>
</trkpt>
<trkpt lat="51.24504538" lon="6.64448317">
<ele>84</ele>
<time>2011-10-01T14:39:39Z</time>
</trkpt>
<trkpt lat="51.2448518" lon="6.64462273">
<ele>84.5</ele>
<time>2011-10-01T14:39:44Z</time>
</trkpt>
<trkpt lat="51.24456292" lon="6.64484225">
<ele>84.5</ele>
<time>2011-10-01T14:39:49Z</time>
</trkpt>
<trkpt lat="51.24438409" lon="6.64495038">
<ele>0</ele>
<time>2011-10-01T14:39:53Z</time>
</trkpt>
<trkpt lat="51.24424436" lon="6.64508533">
<ele>84.5</ele>
<time>2011-10-01T14:39:57Z</time>
</trkpt>
<trkpt lat="51.2440986" lon="6.64527216">
<ele>84</ele>
<time>2011-10-01T14:40:01Z</time>
</trkpt>
<trkpt lat="51.24389509" lon="6.64536428">
<ele>83.5</ele>
<time>2011-10-01T14:40:05Z</time>
</trkpt>
<trkpt lat="51.24368462" lon="6.64548405">
<ele>83</ele>
<time>2011-10-01T14:40:09Z</time>
</trkpt>
<trkpt lat="51.24349602" lon="6.64565245">
<ele>0</ele>
<time>2011-10-01T14:40:13Z</time>
</trkpt>
<trkpt lat="51.24331074" lon="6.64579963">
<ele>0</ele>
<time>2011-10-01T14:40:17Z</time>
</trkpt>
<trkpt lat="51.24313829" lon="6.64594464">
<ele>84</ele>
<time>2011-10-01T14:40:21Z</time>
</trkpt>
<trkpt lat="51.24296009" lon="6.64610398">
<ele>84</ele>
<time>2011-10-01T14:40:25Z</time>
</trkpt>
<trkpt lat="51.24278105" lon="6.6462805">
<ele>0</ele>
<time>2011-10-01T14:40:29Z</time>
</trkpt>
<trkpt lat="51.24260331" lon="6.64645175">
<ele>84.5</ele>
<time>2011-10-01T14:40:33Z</time>
</trkpt>
<trkpt lat="51.24243119" lon="6.64662408">
<ele>84.5</ele>
<time>2011-10-01T14:40:37Z</time>
</trkpt>
<trkpt lat="51.2422708" lon="6.64678149">
<ele>0</ele>
<time>2011-10-01T14:40:41Z</time>
</trkpt>
<trkpt lat="51.24210995" lon="6.64696698">
<ele>83.5</ele>
<time>2011-10-01T14:40:45Z</time>
</trkpt>
<trkpt lat="51.24193276" lon="6.64715943">
<ele>83.5</ele>
<time>2011-10-01T14:40:49Z</time>
</trkpt>
<trkpt lat="51.24175833" lon="6.6473528">
<ele>84</ele>
<time>2011-10-01T14:40:53Z</time>
</trkpt>
<trkpt lat="51.24159882" lon="6.64752957">
<ele>84</ele>
<time>2011-10-01T14:40:57Z</time>
</trkpt>
<trkpt lat="51.2414402" lon="6.64770886">
<ele>84</ele>
<time>2011-10-01T14:41:01Z</time>
</trkpt>
<trkpt lat="51.24128065" lon="6.64788136">
<ele>84.5</ele>
<time>2011-10-01T14:41:05Z</time>
</trkpt>
<trkpt lat="51.24113325" lon="6.6480682">
<ele>85</ele>
<time>2011-10-01T14:41:09Z</time>
</trkpt>
<trkpt lat="51.24098208" lon="6.648251">
<ele>0</ele>
<time>2011-10-01T14:41:13Z</time>
</trkpt>
<trkpt lat="51.24079588" lon="6.64847899">
<ele>0</ele>
<time>2011-10-01T14:41:18Z</time>
</trkpt>
<trkpt lat="51.24066235" lon="6.64866708">
<ele>84.5</ele>
<time>2011-10-01T14:41:22Z</time>
</trkpt>
<trkpt lat="51.24053285" lon="6.64884143">
<ele>84.5</ele>
<time>2011-10-01T14:41:26Z</time>
</trkpt>
<trkpt lat="51.24040117" lon="6.64900496">
<ele>0</ele>
<time>2011-10-01T14:41:30Z</time>
</trkpt>
<trkpt lat="51.24030332" lon="6.64914393">
<ele>85</ele>
<time>2011-10-01T14:41:34Z</time>
</trkpt>
<trkpt lat="51.24028957" lon="6.6491969">
<ele>84</ele>
<time>2011-10-01T14:41:38Z</time>
</trkpt>
<trkpt lat="51.24029347" lon="6.64918877">
<ele>84</ele>
<time>2011-10-01T14:41:42Z</time>
</trkpt>
<trkpt lat="51.24031279" lon="6.64919254">
<ele>82.5</ele>
<time>2011-10-01T14:41:46Z</time>
</trkpt>
<trkpt lat="51.24032343" lon="6.6491855">
<ele>82.5</ele>
<time>2011-10-01T14:41:50Z</time>
</trkpt>
<trkpt lat="51.24032532" lon="6.64919212">
<ele>82.5</ele>
<time>2011-10-01T14:41:54Z</time>
</trkpt>
<trkpt lat="51.24032322" lon="6.64918617">
<ele>84.5</ele>
<time>2011-10-01T14:41:58Z</time>
</trkpt>
<trkpt lat="51.24032339" lon="6.64918651">
<ele>84</ele>
<time>2011-10-01T14:42:02Z</time>
</trkpt>
<trkpt lat="51.2403298" lon="6.64918626">
<ele>86</ele>
<time>2011-10-01T14:42:06Z</time>
</trkpt>
<trkpt lat="51.2403324" lon="6.64919958">
<ele>85</ele>
<time>2011-10-01T14:42:10Z</time>
</trkpt>
<trkpt lat="51.24033588" lon="6.64920453">
<ele>87</ele>
<time>2011-10-01T14:42:14Z</time>
</trkpt>
<trkpt lat="51.24034221" lon="6.64920872">
<ele>86.5</ele>
<time>2011-10-01T14:42:18Z</time>
</trkpt>
<trkpt lat="51.24034535" lon="6.64921098">
<ele>87</ele>
<time>2011-10-01T14:42:22Z</time>
</trkpt>
<trkpt lat="51.2403425" lon="6.64921073">
<ele>87</ele>
<time>2011-10-01T14:42:26Z</time>
</trkpt>
<trkpt lat="51.24033802" lon="6.64921165">
<ele>0</ele>
<time>2011-10-01T14:42:30Z</time>
</trkpt>
<trkpt lat="51.24033676" lon="6.64920755">
<ele>86.5</ele>
<time>2011-10-01T14:42:34Z</time>
</trkpt>
<trkpt lat="51.24033433" lon="6.64921065">
<ele>86</ele>
<time>2011-10-01T14:42:38Z</time>
</trkpt>
<trkpt lat="51.24032968" lon="6.64921199">
<ele>86.5</ele>
<time>2011-10-01T14:42:42Z</time>
</trkpt>
<trkpt lat="51.24032834" lon="6.64921409">
<ele>86</ele>
<time>2011-10-01T14:42:46Z</time>
</trkpt>
<trkpt lat="51.24033324" lon="6.64921165">
<ele>0</ele>
<time>2011-10-01T14:42:52Z</time>
</trkpt>
<trkpt lat="51.24033638" lon="6.64921015">
<ele>0</ele>
<time>2011-10-01T14:42:56Z</time>
</trkpt>
<trkpt lat="51.24033785" lon="6.64920663">
<ele>87</ele>
<time>2011-10-01T14:43:00Z</time>
</trkpt>
<trkpt lat="51.24033538" lon="6.6492078">
<ele>87.5</ele>
<time>2011-10-01T14:43:04Z</time>
</trkpt>
<trkpt lat="51.24033513" lon="6.64920922">
<ele>88.5</ele>
<time>2011-10-01T14:43:08Z</time>
</trkpt>
<trkpt lat="51.24033684" lon="6.64920537">
<ele>89.5</ele>
<time>2011-10-01T14:43:12Z</time>
</trkpt>
<trkpt lat="51.24033697" lon="6.6492031">
<ele>90</ele>
<time>2011-10-01T14:43:16Z</time>
</trkpt>
<trkpt lat="51.2403371" lon="6.64920009">
<ele>89</ele>
<time>2011-10-01T14:43:20Z</time>
</trkpt>
<trkpt lat="51.24033915" lon="6.64919967">
<ele>89</ele>
<time>2011-10-01T14:43:24Z</time>
</trkpt>
<trkpt lat="51.24034015" lon="6.64919917">
<ele>0</ele>
<time>2011-10-01T14:43:28Z</time>
</trkpt>
<trkpt lat="51.24033814" lon="6.64919497">
<ele>89.5</ele>
<time>2011-10-01T14:43:32Z</time>
</trkpt>
<trkpt lat="51.24033508" lon="6.64919296">
<ele>89</ele>
<time>2011-10-01T14:43:36Z</time>
</trkpt>
<trkpt lat="51.24033479" lon="6.64918953">
<ele>89.5</ele>
<time>2011-10-01T14:43:40Z</time>
</trkpt>
<trkpt lat="51.24033471" lon="6.64918626">
<ele>0</ele>
<time>2011-10-01T14:43:44Z</time>
</trkpt>
<trkpt lat="51.24033622" lon="6.64918575">
<ele>0</ele>
<time>2011-10-01T14:43:48Z</time>
</trkpt>
<trkpt lat="51.24033638" lon="6.64918358">
<ele>89.5</ele>
<time>2011-10-01T14:43:52Z</time>
</trkpt>
<trkpt lat="51.24033751" lon="6.64918064">
<ele>0</ele>
<time>2011-10-01T14:43:56Z</time>
</trkpt>
<trkpt lat="51.2403389" lon="6.64918131">
<ele>0</ele>
<time>2011-10-01T14:44:00Z</time>
</trkpt>
<trkpt lat="51.24033827" lon="6.64917938">
<ele>89.5</ele>
<time>2011-10-01T14:44:04Z</time>
</trkpt>
<trkpt lat="51.24033714" lon="6.64918005">
<ele>0</ele>
<time>2011-10-01T14:44:08Z</time>
</trkpt>
<trkpt lat="51.24033642" lon="6.64917838">
<ele>90</ele>
<time>2011-10-01T14:44:12Z</time>
</trkpt>
<trkpt lat="51.24033718" lon="6.64917687">
<ele>90</ele>
<time>2011-10-01T14:44:16Z</time>
</trkpt>
<trkpt lat="51.24033563" lon="6.64918031">
<ele>0</ele>
<time>2011-10-01T14:44:22Z</time>
</trkpt>
<trkpt lat="51.2403342" lon="6.64918114">
<ele>90</ele>
<time>2011-10-01T14:44:26Z</time>
</trkpt>
<trkpt lat="51.24033374" lon="6.64917628">
<ele>90</ele>
<time>2011-10-01T14:44:30Z</time>
</trkpt>
<trkpt lat="51.24033353" lon="6.6491762">
<ele>90</ele>
<time>2011-10-01T14:44:34Z</time>
</trkpt>
<trkpt lat="51.2403319" lon="6.64917771">
<ele>0</ele>
<time>2011-10-01T14:44:38Z</time>
</trkpt>
<trkpt lat="51.24033332" lon="6.64930067">
<ele>88.5</ele>
<time>2011-10-01T14:44:42Z</time>
</trkpt>
<trkpt lat="51.24034954" lon="6.64937242">
<ele>88</ele>
<time>2011-10-01T14:44:46Z</time>
</trkpt>
<trkpt lat="51.24036476" lon="6.64943989">
<ele>0</ele>
<time>2011-10-01T14:44:50Z</time>
</trkpt>
<trkpt lat="51.24037548" lon="6.6494979">
<ele>0</ele>
<time>2011-10-01T14:44:54Z</time>
</trkpt>
<trkpt lat="51.24037934" lon="6.64949865">
<ele>89</ele>
<time>2011-10-01T14:44:58Z</time>
</trkpt>
<trkpt lat="51.24038076" lon="6.64949521">
<ele>90</ele>
<time>2011-10-01T14:45:02Z</time>
</trkpt>
<trkpt lat="51.24037276" lon="6.64950142">
<ele>89</ele>
<time>2011-10-01T14:45:06Z</time>
</trkpt>
<trkpt lat="51.24036798" lon="6.64949949">
<ele>88.5</ele>
<time>2011-10-01T14:45:10Z</time>
</trkpt>
<trkpt lat="51.24036702" lon="6.64949731">
<ele>87.5</ele>
<time>2011-10-01T14:45:14Z</time>
</trkpt>
<trkpt lat="51.24036023" lon="6.64949077">
<ele>87.5</ele>
<time>2011-10-01T14:45:18Z</time>
</trkpt>
<trkpt lat="51.24035491" lon="6.64948968">
<ele>0</ele>
<time>2011-10-01T14:45:22Z</time>
</trkpt>
<trkpt lat="51.24035277" lon="6.64948851">
<ele>87</ele>
<time>2011-10-01T14:45:26Z</time>
</trkpt>
<trkpt lat="51.24035503" lon="6.6494865">
<ele>87.5</ele>
<time>2011-10-01T14:45:30Z</time>
</trkpt>
<trkpt lat="51.24035336" lon="6.64948189">
<ele>87.5</ele>
<time>2011-10-01T14:45:34Z</time>
</trkpt>
<trkpt lat="51.24035361" lon="6.64947971">
<ele>0</ele>
<time>2011-10-01T14:45:38Z</time>
</trkpt>
<trkpt lat="51.24035843" lon="6.64948381">
<ele>87</ele>
<time>2011-10-01T14:45:42Z</time>
</trkpt>
<trkpt lat="51.24035809" lon="6.64948541">
<ele>86.5</ele>
<time>2011-10-01T14:45:46Z</time>
</trkpt>
<trkpt lat="51.24035738" lon="6.64948524">
<ele>85.5</ele>
<time>2011-10-01T14:45:50Z</time>
</trkpt>
<trkpt lat="51.24035901" lon="6.64948943">
<ele>85</ele>
<time>2011-10-01T14:45:56Z</time>
</trkpt>
<trkpt lat="51.24036182" lon="6.64949086">
<ele>0</ele>
<time>2011-10-01T14:46:00Z</time>
</trkpt>
<trkpt lat="51.24036333" lon="6.64949203">
<ele>0</ele>
<time>2011-10-01T14:46:04Z</time>
</trkpt>
<trkpt lat="51.24036576" lon="6.64949454">
<ele>86</ele>
<time>2011-10-01T14:46:08Z</time>
</trkpt>
<trkpt lat="51.24036819" lon="6.6494979">
<ele>86.5</ele>
<time>2011-10-01T14:46:12Z</time>
</trkpt>
<trkpt lat="51.24036832" lon="6.64949982">
<ele>87</ele>
<time>2011-10-01T14:46:16Z</time>
</trkpt>
<trkpt lat="51.24037004" lon="6.64949748">
<ele>87.5</ele>
<time>2011-10-01T14:46:20Z</time>
</trkpt>
<trkpt lat="51.24036916" lon="6.64949488">
<ele>88</ele>
<time>2011-10-01T14:46:24Z</time>
</trkpt>
<trkpt lat="51.24036828" lon="6.64949907">
<ele>0</ele>
<time>2011-10-01T14:46:28Z</time>
</trkpt>
<trkpt lat="51.2403674" lon="6.64950326">
<ele>0</ele>
<time>2011-10-01T14:46:32Z</time>
</trkpt>
<trkpt lat="51.24036593" lon="6.6495098">
<ele>89</ele>
<time>2011-10-01T14:46:36Z</time>
</trkpt>
<trkpt lat="51.24036438" lon="6.64951374">
<ele>89</ele>
<time>2011-10-01T14:46:40Z</time>
</trkpt>
<trkpt lat="51.24036438" lon="6.64951935">
<ele>0</ele>
<time>2011-10-01T14:46:44Z</time>
</trkpt>
<trkpt lat="51.2403658" lon="6.64951994">
<ele>89.5</ele>
<time>2011-10-01T14:46:48Z</time>
</trkpt>
<trkpt lat="51.24036937" lon="6.64951961">
<ele>90</ele>
<time>2011-10-01T14:46:52Z</time>
</trkpt>
<trkpt lat="51.24037175" lon="6.64951994">
<ele>90</ele>
<time>2011-10-01T14:46:56Z</time>
</trkpt>
<trkpt lat="51.24037209" lon="6.64951818">
<ele>90</ele>
<time>2011-10-01T14:47:00Z</time>
</trkpt>
<trkpt lat="51.24037293" lon="6.64951684">
<ele>90</ele>
<time>2011-10-01T14:47:04Z</time>
</trkpt>
<trkpt lat="51.24037502" lon="6.64951726">
<ele>0</ele>
<time>2011-10-01T14:47:08Z</time>
</trkpt>
<trkpt lat="51.24037645" lon="6.64951885">
<ele>90.5</ele>
<time>2011-10-01T14:47:12Z</time>
</trkpt>
<trkpt lat="51.240378" lon="6.64951944">
<ele>90.5</ele>
<time>2011-10-01T14:47:16Z</time>
</trkpt>
<trkpt lat="51.24037649" lon="6.64952137">
<ele>0</ele>
<time>2011-10-01T14:47:20Z</time>
</trkpt>
<trkpt lat="51.24037754" lon="6.64952254">
<ele>90.5</ele>
<time>2011-10-01T14:47:26Z</time>
</trkpt>
<trkpt lat="51.2403785" lon="6.64952321">
<ele>0</ele>
<time>2011-10-01T14:47:30Z</time>
</trkpt>
<trkpt lat="51.2403785" lon="6.64952422">
<ele>0</ele>
<time>2011-10-01T14:47:34Z</time>
</trkpt>
<trkpt lat="51.24038064" lon="6.64952371">
<ele>90</ele>
<time>2011-10-01T14:47:38Z</time>
</trkpt>
<trkpt lat="51.24038165" lon="6.64951994">
<ele>0</ele>
<time>2011-10-01T14:47:42Z</time>
</trkpt>
<trkpt lat="51.24038039" lon="6.64951952">
<ele>0</ele>
<time>2011-10-01T14:47:46Z</time>
</trkpt>
<trkpt lat="51.240378" lon="6.64952153">
<ele>89</ele>
<time>2011-10-01T14:47:50Z</time>
</trkpt>
<trkpt lat="51.2403767" lon="6.64951952">
<ele>0</ele>
<time>2011-10-01T14:47:54Z</time>
</trkpt>
<trkpt lat="51.24037712" lon="6.64951919">
<ele>89</ele>
<time>2011-10-01T14:47:58Z</time>
</trkpt>
<trkpt lat="51.24037548" lon="6.64952011">
<ele>88.5</ele>
<time>2011-10-01T14:48:02Z</time>
</trkpt>
<trkpt lat="51.24037364" lon="6.64952028">
<ele>88</ele>
<time>2011-10-01T14:48:06Z</time>
</trkpt>
<trkpt lat="51.24037419" lon="6.64952044">
<ele>88</ele>
<time>2011-10-01T14:48:10Z</time>
</trkpt>
<trkpt lat="51.24037435" lon="6.64952338">
<ele>0</ele>
<time>2011-10-01T14:48:14Z</time>
</trkpt>
<trkpt lat="51.24037242" lon="6.64952296">
<ele>88</ele>
<time>2011-10-01T14:48:18Z</time>
</trkpt>
<trkpt lat="51.24037242" lon="6.64952514">
<ele>88</ele>
<time>2011-10-01T14:48:22Z</time>
</trkpt>
<trkpt lat="51.24037083" lon="6.6495295">
<ele>88</ele>
<time>2011-10-01T14:48:26Z</time>
</trkpt>
<trkpt lat="51.24036958" lon="6.64953486">
<ele>0</ele>
<time>2011-10-01T14:48:30Z</time>
</trkpt>
<trkpt lat="51.24036714" lon="6.64953805">
<ele>88</ele>
<time>2011-10-01T14:48:34Z</time>
</trkpt>
<trkpt lat="51.24036568" lon="6.64953955">
<ele>88</ele>
<time>2011-10-01T14:48:38Z</time>
</trkpt>
<trkpt lat="51.24036501" lon="6.64954173">
<ele>0</ele>
<time>2011-10-01T14:48:42Z</time>
</trkpt>
<trkpt lat="51.24036279" lon="6.64954266">
<ele>88</ele>
<time>2011-10-01T14:48:46Z</time>
</trkpt>
<trkpt lat="51.24036203" lon="6.64954391">
<ele>0</ele>
<time>2011-10-01T14:48:50Z</time>
</trkpt>
<trkpt lat="51.24036077" lon="6.64954333">
<ele>0</ele>
<time>2011-10-01T14:48:54Z</time>
</trkpt>
<trkpt lat="51.2403609" lon="6.64954307">
<ele>88.5</ele>
<time>2011-10-01T14:49:00Z</time>
</trkpt>
<trkpt lat="51.24036065" lon="6.6495393">
<ele>88.5</ele>
<time>2011-10-01T14:49:04Z</time>
</trkpt>
<trkpt lat="51.2403604" lon="6.64953704">
<ele>0</ele>
<time>2011-10-01T14:49:08Z</time>
</trkpt>
<trkpt lat="51.24036086" lon="6.6495388">
<ele>88.5</ele>
<time>2011-10-01T14:49:12Z</time>
</trkpt>
<trkpt lat="51.24036128" lon="6.64953788">
<ele>0</ele>
<time>2011-10-01T14:49:16Z</time>
</trkpt>
<trkpt lat="51.2403627" lon="6.64953771">
<ele>0</ele>
<time>2011-10-01T14:49:20Z</time>
</trkpt>
<trkpt lat="51.2403627" lon="6.64953704">
<ele>88</ele>
<time>2011-10-01T14:49:24Z</time>
</trkpt>
<trkpt lat="51.24036312" lon="6.64953536">
<ele>0</ele>
<time>2011-10-01T14:49:28Z</time>
</trkpt>
<trkpt lat="51.240363" lon="6.6495336">
<ele>0</ele>
<time>2011-10-01T14:49:32Z</time>
</trkpt>
<trkpt lat="51.24036212" lon="6.64953201">
<ele>88</ele>
<time>2011-10-01T14:49:36Z</time>
</trkpt>
<trkpt lat="51.24036132" lon="6.64953159">
<ele>0</ele>
<time>2011-10-01T14:49:40Z</time>
</trkpt>
<trkpt lat="51.24036182" lon="6.64952874">
<ele>87.5</ele>
<time>2011-10-01T14:49:44Z</time>
</trkpt>
<trkpt lat="51.24036237" lon="6.64952899">
<ele>87.5</ele>
<time>2011-10-01T14:49:48Z</time>
</trkpt>
<trkpt lat="51.24036149" lon="6.64952497">
<ele>0</ele>
<time>2011-10-01T14:49:52Z</time>
</trkpt>
<trkpt lat="51.24036115" lon="6.64952271">
<ele>87</ele>
<time>2011-10-01T14:49:56Z</time>
</trkpt>
<trkpt lat="51.24036241" lon="6.64952422">
<ele>0</ele>
<time>2011-10-01T14:50:00Z</time>
</trkpt>
<trkpt lat="51.24036333" lon="6.64952505">
<ele>0</ele>
<time>2011-10-01T14:50:04Z</time>
</trkpt>
<trkpt lat="51.24036413" lon="6.64952639">
<ele>87.5</ele>
<time>2011-10-01T14:50:08Z</time>
</trkpt>
<trkpt lat="51.24036551" lon="6.64953">
<ele>0</ele>
<time>2011-10-01T14:50:12Z</time>
</trkpt>
<trkpt lat="51.24036693" lon="6.64953126">
<ele>0</ele>
<time>2011-10-01T14:50:16Z</time>
</trkpt>
<trkpt lat="51.24041647" lon="6.64962815">
<ele>85.5</ele>
<time>2011-10-01T14:50:20Z</time>
</trkpt>
<trkpt lat="51.24046199" lon="6.64974776">
<ele>85</ele>
<time>2011-10-01T14:50:24Z</time>
</trkpt>
<trkpt lat="51.24052954" lon="6.64993979">
<ele>83</ele>
<time>2011-10-01T14:50:28Z</time>
</trkpt>
<trkpt lat="51.2406751" lon="6.65035042">
<ele>81.5</ele>
<time>2011-10-01T14:50:34Z</time>
</trkpt>
<trkpt lat="51.2407862" lon="6.65068754">
<ele>81</ele>
<time>2011-10-01T14:50:38Z</time>
</trkpt>
<trkpt lat="51.24090308" lon="6.65102902">
<ele>81</ele>
<time>2011-10-01T14:50:42Z</time>
</trkpt>
<trkpt lat="51.24101331" lon="6.65136086">
<ele>80.5</ele>
<time>2011-10-01T14:50:46Z</time>
</trkpt>
<trkpt lat="51.24108749" lon="6.65164123">
<ele>80.5</ele>
<time>2011-10-01T14:50:50Z</time>
</trkpt>
<trkpt lat="51.24110647" lon="6.65181885">
<ele>0</ele>
<time>2011-10-01T14:50:54Z</time>
</trkpt>
<trkpt lat="51.24100626" lon="6.65192898">
<ele>79.5</ele>
<time>2011-10-01T14:50:58Z</time>
</trkpt>
<trkpt lat="51.24085635" lon="6.65202479">
<ele>78</ele>
<time>2011-10-01T14:51:02Z</time>
</trkpt>
<trkpt lat="51.24071516" lon="6.65213568">
<ele>79</ele>
<time>2011-10-01T14:51:06Z</time>
</trkpt>
<trkpt lat="51.24057988" lon="6.65229787">
<ele>81</ele>
<time>2011-10-01T14:51:10Z</time>
</trkpt>
<trkpt lat="51.24043923" lon="6.65243902">
<ele>81.5</ele>
<time>2011-10-01T14:51:14Z</time>
</trkpt>
<trkpt lat="51.24030348" lon="6.65257188">
<ele>82.5</ele>
<time>2011-10-01T14:51:18Z</time>
</trkpt>
<trkpt lat="51.24016728" lon="6.65270858">
<ele>0</ele>
<time>2011-10-01T14:51:22Z</time>
</trkpt>
<trkpt lat="51.2400203" lon="6.65286013">
<ele>0</ele>
<time>2011-10-01T14:51:26Z</time>
</trkpt>
<trkpt lat="51.23986105" lon="6.65302408">
<ele>82.5</ele>
<time>2011-10-01T14:51:30Z</time>
</trkpt>
<trkpt lat="51.23970422" lon="6.65319758">
<ele>82.5</ele>
<time>2011-10-01T14:51:34Z</time>
</trkpt>
<trkpt lat="51.2395287" lon="6.65336631">
<ele>81.5</ele>
<time>2011-10-01T14:51:38Z</time>
</trkpt>
<trkpt lat="51.23935004" lon="6.65354015">
<ele>82</ele>
<time>2011-10-01T14:51:42Z</time>
</trkpt>
<trkpt lat="51.23918106" lon="6.65369371">
<ele>81</ele>
<time>2011-10-01T14:51:46Z</time>
</trkpt>
<trkpt lat="51.23901137" lon="6.65383654">
<ele>81</ele>
<time>2011-10-01T14:51:50Z</time>
</trkpt>
<trkpt lat="51.23883862" lon="6.65397769">
<ele>0</ele>
<time>2011-10-01T14:51:54Z</time>
</trkpt>
<trkpt lat="51.23865217" lon="6.65411809">
<ele>80</ele>
<time>2011-10-01T14:51:58Z</time>
</trkpt>
<trkpt lat="51.23835566" lon="6.65433425">
<ele>79.5</ele>
<time>2011-10-01T14:52:04Z</time>
</trkpt>
<trkpt lat="51.23814959" lon="6.65443819">
<ele>79.5</ele>
<time>2011-10-01T14:52:08Z</time>
</trkpt>
<trkpt lat="51.23794188" lon="6.65452084">
<ele>0</ele>
<time>2011-10-01T14:52:12Z</time>
</trkpt>
<trkpt lat="51.23773355" lon="6.65460549">
<ele>80</ele>
<time>2011-10-01T14:52:16Z</time>
</trkpt>
<trkpt lat="51.2375398" lon="6.65466584">
<ele>80.5</ele>
<time>2011-10-01T14:52:20Z</time>
</trkpt>
<trkpt lat="51.23734807" lon="6.65462913">
<ele>81</ele>
<time>2011-10-01T14:52:24Z</time>
</trkpt>
<trkpt lat="51.23717154" lon="6.65458202">
<ele>0</ele>
<time>2011-10-01T14:52:28Z</time>
</trkpt>
<trkpt lat="51.23701107" lon="6.65453517">
<ele>0</ele>
<time>2011-10-01T14:52:32Z</time>
</trkpt>
<trkpt lat="51.23687273" lon="6.6544941">
<ele>82</ele>
<time>2011-10-01T14:52:36Z</time>
</trkpt>
<trkpt lat="51.23671704" lon="6.65446015">
<ele>83</ele>
<time>2011-10-01T14:52:40Z</time>
</trkpt>
<trkpt lat="51.23650921" lon="6.6543988">
<ele>82.5</ele>
<time>2011-10-01T14:52:44Z</time>
</trkpt>
<trkpt lat="51.23627678" lon="6.65429503">
<ele>81</ele>
<time>2011-10-01T14:52:48Z</time>
</trkpt>
<trkpt lat="51.23604309" lon="6.65416687">
<ele>80</ele>
<time>2011-10-01T14:52:52Z</time>
</trkpt>
<trkpt lat="51.23581007" lon="6.65404634">
<ele>78.5</ele>
<time>2011-10-01T14:52:56Z</time>
</trkpt>
<trkpt lat="51.23557969" lon="6.65398121">
<ele>77</ele>
<time>2011-10-01T14:53:00Z</time>
</trkpt>
<trkpt lat="51.23534638" lon="6.65393754">
<ele>75.5</ele>
<time>2011-10-01T14:53:04Z</time>
</trkpt>
<trkpt lat="51.23511626" lon="6.65389429">
<ele>75</ele>
<time>2011-10-01T14:53:08Z</time>
</trkpt>
<trkpt lat="51.23489908" lon="6.65386571">
<ele>75</ele>
<time>2011-10-01T14:53:12Z</time>
</trkpt>
<trkpt lat="51.23468539" lon="6.65383067">
<ele>74.5</ele>
<time>2011-10-01T14:53:16Z</time>
</trkpt>
<trkpt lat="51.23449038" lon="6.65379806">
<ele>0</ele>
<time>2011-10-01T14:53:20Z</time>
</trkpt>
<trkpt lat="51.23429856" lon="6.65376286">
<ele>0</ele>
<time>2011-10-01T14:53:24Z</time>
</trkpt>
<trkpt lat="51.23412225" lon="6.65377803">
<ele>72.5</ele>
<time>2011-10-01T14:53:28Z</time>
</trkpt>
<trkpt lat="51.23407125" lon="6.65402756">
<ele>72.5</ele>
<time>2011-10-01T14:53:32Z</time>
</trkpt>
<trkpt lat="51.23412393" lon="6.65450918">
<ele>73</ele>
<time>2011-10-01T14:53:38Z</time>
</trkpt>
<trkpt lat="51.23416776" lon="6.65484454">
<ele>71.5</ele>
<time>2011-10-01T14:53:42Z</time>
</trkpt>
<trkpt lat="51.23422686" lon="6.6551799">
<ele>72</ele>
<time>2011-10-01T14:53:46Z</time>
</trkpt>
<trkpt lat="51.2342999" lon="6.6555192">
<ele>72</ele>
<time>2011-10-01T14:53:50Z</time>
</trkpt>
<trkpt lat="51.2343709" lon="6.65584568">
<ele>0</ele>
<time>2011-10-01T14:53:54Z</time>
</trkpt>
<trkpt lat="51.23443594" lon="6.65615547">
<ele>71.5</ele>
<time>2011-10-01T14:53:58Z</time>
</trkpt>
<trkpt lat="51.2344719" lon="6.65646418">
<ele>70</ele>
<time>2011-10-01T14:54:02Z</time>
</trkpt>
<trkpt lat="51.23448938" lon="6.65679979">
<ele>70.5</ele>
<time>2011-10-01T14:54:06Z</time>
</trkpt>
<trkpt lat="51.23447253" lon="6.65711788">
<ele>71</ele>
<time>2011-10-01T14:54:10Z</time>
</trkpt>
<trkpt lat="51.23444738" lon="6.65742391">
<ele>71</ele>
<time>2011-10-01T14:54:14Z</time>
</trkpt>
<trkpt lat="51.23442626" lon="6.65773689">
<ele>0</ele>
<time>2011-10-01T14:54:18Z</time>
</trkpt>
<trkpt lat="51.23440749" lon="6.65803503">
<ele>74</ele>
<time>2011-10-01T14:54:22Z</time>
</trkpt>
<trkpt lat="51.23439051" lon="6.65829261">
<ele>76</ele>
<time>2011-10-01T14:54:26Z</time>
</trkpt>
<trkpt lat="51.23436365" lon="6.6585118">
<ele>77</ele>
<time>2011-10-01T14:54:30Z</time>
</trkpt>
<trkpt lat="51.23435292" lon="6.65878111">
<ele>77</ele>
<time>2011-10-01T14:54:34Z</time>
</trkpt>
<trkpt lat="51.23433222" lon="6.65909828">
<ele>77</ele>
<time>2011-10-01T14:54:38Z</time>
</trkpt>
<trkpt lat="51.23431952" lon="6.65942626">
<ele>77</ele>
<time>2011-10-01T14:54:42Z</time>
</trkpt>
<trkpt lat="51.23430363" lon="6.65973664">
<ele>0</ele>
<time>2011-10-01T14:54:46Z</time>
</trkpt>
<trkpt lat="51.23428444" lon="6.66005147">
<ele>77.5</ele>
<time>2011-10-01T14:54:50Z</time>
</trkpt>
<trkpt lat="51.23426545" lon="6.66039303">
<ele>78.5</ele>
<time>2011-10-01T14:54:54Z</time>
</trkpt>
<trkpt lat="51.23424433" lon="6.66073719">
<ele>78</ele>
<time>2011-10-01T14:54:58Z</time>
</trkpt>
<trkpt lat="51.23422983" lon="6.66107565">
<ele>78</ele>
<time>2011-10-01T14:55:02Z</time>
</trkpt>
<trkpt lat="51.23419689" lon="6.6616069">
<ele>79</ele>
<time>2011-10-01T14:55:08Z</time>
</trkpt>
<trkpt lat="51.23417627" lon="6.66197537">
<ele>79</ele>
<time>2011-10-01T14:55:12Z</time>
</trkpt>
<trkpt lat="51.23415892" lon="6.66236923">
<ele>79</ele>
<time>2011-10-01T14:55:16Z</time>
</trkpt>
<trkpt lat="51.23413771" lon="6.66274608">
<ele>79</ele>
<time>2011-10-01T14:55:20Z</time>
</trkpt>
<trkpt lat="51.2341217" lon="6.66310307">
<ele>78.5</ele>
<time>2011-10-01T14:55:24Z</time>
</trkpt>
<trkpt lat="51.23411353" lon="6.66342845">
<ele>77</ele>
<time>2011-10-01T14:55:28Z</time>
</trkpt>
<trkpt lat="51.23410234" lon="6.66375744">
<ele>76</ele>
<time>2011-10-01T14:55:32Z</time>
</trkpt>
<trkpt lat="51.23409476" lon="6.66407956">
<ele>75</ele>
<time>2011-10-01T14:55:36Z</time>
</trkpt>
<trkpt lat="51.23407695" lon="6.66440704">
<ele>75.5</ele>
<time>2011-10-01T14:55:40Z</time>
</trkpt>
<trkpt lat="51.23407762" lon="6.66474265">
<ele>76.5</ele>
<time>2011-10-01T14:55:44Z</time>
</trkpt>
<trkpt lat="51.2341101" lon="6.66506116">
<ele>76</ele>
<time>2011-10-01T14:55:48Z</time>
</trkpt>
<trkpt lat="51.23414111" lon="6.66537548">
<ele>76.5</ele>
<time>2011-10-01T14:55:52Z</time>
</trkpt>
<trkpt lat="51.23420326" lon="6.66567505">
<ele>0</ele>
<time>2011-10-01T14:55:56Z</time>
</trkpt>
<trkpt lat="51.23437136" lon="6.6658608">
<ele>0</ele>
<time>2011-10-01T14:56:00Z</time>
</trkpt>
<trkpt lat="51.2345465" lon="6.66605626">
<ele>77.5</ele>
<time>2011-10-01T14:56:04Z</time>
</trkpt>
<trkpt lat="51.23472629" lon="6.66624284">
<ele>77.5</ele>
<time>2011-10-01T14:56:08Z</time>
</trkpt>
<trkpt lat="51.23489988" lon="6.66642632">
<ele>0</ele>
<time>2011-10-01T14:56:12Z</time>
</trkpt>
<trkpt lat="51.23506241" lon="6.66660368">
<ele>77.5</ele>
<time>2011-10-01T14:56:16Z</time>
</trkpt>
<trkpt lat="51.23522296" lon="6.66677861">
<ele>78.5</ele>
<time>2011-10-01T14:56:20Z</time>
</trkpt>
<trkpt lat="51.23538218" lon="6.66693552">
<ele>79</ele>
<time>2011-10-01T14:56:24Z</time>
</trkpt>
<trkpt lat="51.23555023" lon="6.66709847">
<ele>79.5</ele>
<time>2011-10-01T14:56:28Z</time>
</trkpt>
<trkpt lat="51.23573044" lon="6.66728907">
<ele>79.5</ele>
<time>2011-10-01T14:56:32Z</time>
</trkpt>
<trkpt lat="51.23592235" lon="6.66748839">
<ele>0</ele>
<time>2011-10-01T14:56:36Z</time>
</trkpt>
<trkpt lat="51.23622011" lon="6.66773734">
<ele>80.5</ele>
<time>2011-10-01T14:56:42Z</time>
</trkpt>
<trkpt lat="51.2364155" lon="6.6678826">
<ele>80.5</ele>
<time>2011-10-01T14:56:46Z</time>
</trkpt>
<trkpt lat="51.23660116" lon="6.66801243">
<ele>81</ele>
<time>2011-10-01T14:56:50Z</time>
</trkpt>
<trkpt lat="51.23675991" lon="6.66815777">
<ele>81.5</ele>
<time>2011-10-01T14:56:54Z</time>
</trkpt>
<trkpt lat="51.236732" lon="6.66839959">
<ele>81.5</ele>
<time>2011-10-01T14:56:58Z</time>
</trkpt>
<trkpt lat="51.23662362" lon="6.66865507">
<ele>82</ele>
<time>2011-10-01T14:57:02Z</time>
</trkpt>
<trkpt lat="51.23650564" lon="6.66891198">
<ele>81.5</ele>
<time>2011-10-01T14:57:06Z</time>
</trkpt>
<trkpt lat="51.23639056" lon="6.66918355">
<ele>81.5</ele>
<time>2011-10-01T14:57:10Z</time>
</trkpt>
<trkpt lat="51.23628541" lon="6.6694402">
<ele>0</ele>
<time>2011-10-01T14:57:14Z</time>
</trkpt>
<trkpt lat="51.23618705" lon="6.66972133">
<ele>82</ele>
<time>2011-10-01T14:57:18Z</time>
</trkpt>
<trkpt lat="51.23610289" lon="6.67004127">
<ele>82</ele>
<time>2011-10-01T14:57:22Z</time>
</trkpt>
<trkpt lat="51.23604812" lon="6.67038049">
<ele>0</ele>
<time>2011-10-01T14:57:26Z</time>
</trkpt>
<trkpt lat="51.2360104" lon="6.67072582">
<ele>82</ele>
<time>2011-10-01T14:57:30Z</time>
</trkpt>
<trkpt lat="51.2359749" lon="6.67105565">
<ele>81.5</ele>
<time>2011-10-01T14:57:34Z</time>
</trkpt>
<trkpt lat="51.23593949" lon="6.67137609">
<ele>0</ele>
<time>2011-10-01T14:57:38Z</time>
</trkpt>
<trkpt lat="51.2359037" lon="6.67170022">
<ele>0</ele>
<time>2011-10-01T14:57:42Z</time>
</trkpt>
<trkpt lat="51.23586807" lon="6.67201756">
<ele>82</ele>
<time>2011-10-01T14:57:46Z</time>
</trkpt>
<trkpt lat="51.23583006" lon="6.67232115">
<ele>82</ele>
<time>2011-10-01T14:57:50Z</time>
</trkpt>
<trkpt lat="51.23579121" lon="6.67261552">
<ele>82</ele>
<time>2011-10-01T14:57:54Z</time>
</trkpt>
<trkpt lat="51.23575144" lon="6.67287854">
<ele>0</ele>
<time>2011-10-01T14:57:58Z</time>
</trkpt>
<trkpt lat="51.23569352" lon="6.67312539">
<ele>82.5</ele>
<time>2011-10-01T14:58:02Z</time>
</trkpt>
<trkpt lat="51.23563258" lon="6.67338842">
<ele>82</ele>
<time>2011-10-01T14:58:06Z</time>
</trkpt>
<trkpt lat="51.23556855" lon="6.67365949">
<ele>0</ele>
<time>2011-10-01T14:58:12Z</time>
</trkpt>
<trkpt lat="51.23541885" lon="6.67405838">
<ele>0</ele>
<time>2011-10-01T14:58:16Z</time>
</trkpt>
<trkpt lat="51.23530598" lon="6.67431721">
<ele>82</ele>
<time>2011-10-01T14:58:20Z</time>
</trkpt>
<trkpt lat="51.23522175" lon="6.67456976">
<ele>0</ele>
<time>2011-10-01T14:58:24Z</time>
</trkpt>
<trkpt lat="51.23530234" lon="6.67479004">
<ele>82</ele>
<time>2011-10-01T14:58:28Z</time>
</trkpt>
<trkpt lat="51.2354007" lon="6.67499984">
<ele>82</ele>
<time>2011-10-01T14:58:32Z</time>
</trkpt>
<trkpt lat="51.23546553" lon="6.67526077">
<ele>0</ele>
<time>2011-10-01T14:58:36Z</time>
</trkpt>
<trkpt lat="51.23555472" lon="6.6755263">
<ele>81.5</ele>
<time>2011-10-01T14:58:40Z</time>
</trkpt>
<trkpt lat="51.23566825" lon="6.67576921">
<ele>81.5</ele>
<time>2011-10-01T14:58:44Z</time>
</trkpt>
<trkpt lat="51.23582725" lon="6.67594657">
<ele>81.5</ele>
<time>2011-10-01T14:58:48Z</time>
</trkpt>
<trkpt lat="51.23601388" lon="6.67606954">
<ele>0</ele>
<time>2011-10-01T14:58:52Z</time>
</trkpt>
<trkpt lat="51.23621584" lon="6.67616484">
<ele>81.5</ele>
<time>2011-10-01T14:58:56Z</time>
</trkpt>
<trkpt lat="51.23642182" lon="6.67623374">
<ele>82.5</ele>
<time>2011-10-01T14:59:00Z</time>
</trkpt>
<trkpt lat="51.23663221" lon="6.67627783">
<ele>83</ele>
<time>2011-10-01T14:59:04Z</time>
</trkpt>
<trkpt lat="51.2368361" lon="6.67631739">
<ele>83</ele>
<time>2011-10-01T14:59:08Z</time>
</trkpt>
<trkpt lat="51.23703831" lon="6.67635494">
<ele>0</ele>
<time>2011-10-01T14:59:12Z</time>
</trkpt>
<trkpt lat="51.2372324" lon="6.6763862">
<ele>82.5</ele>
<time>2011-10-01T14:59:16Z</time>
</trkpt>
<trkpt lat="51.23740586" lon="6.67641973">
<ele>83</ele>
<time>2011-10-01T14:59:20Z</time>
</trkpt>
<trkpt lat="51.23758674" lon="6.67647447">
<ele>82</ele>
<time>2011-10-01T14:59:24Z</time>
</trkpt>
<trkpt lat="51.23776188" lon="6.67662106">
<ele>81</ele>
<time>2011-10-01T14:59:28Z</time>
</trkpt>
<trkpt lat="51.2379268" lon="6.67684193">
<ele>81</ele>
<time>2011-10-01T14:59:32Z</time>
</trkpt>
<trkpt lat="51.23807243" lon="6.67708375">
<ele>80</ele>
<time>2011-10-01T14:59:36Z</time>
</trkpt>
<trkpt lat="51.23822083" lon="6.67732213">
<ele>80.5</ele>
<time>2011-10-01T14:59:40Z</time>
</trkpt>
<trkpt lat="51.23844073" lon="6.67766453">
<ele>81</ele>
<time>2011-10-01T14:59:46Z</time>
</trkpt>
<trkpt lat="51.23858947" lon="6.67788422">
<ele>80.5</ele>
<time>2011-10-01T14:59:50Z</time>
</trkpt>
<trkpt lat="51.23873531" lon="6.67809477">
<ele>81</ele>
<time>2011-10-01T14:59:54Z</time>
</trkpt>
<trkpt lat="51.23888221" lon="6.6783184">
<ele>81.5</ele>
<time>2011-10-01T14:59:58Z</time>
</trkpt>
<trkpt lat="51.23902839" lon="6.67853214">
<ele>81.5</ele>
<time>2011-10-01T15:00:02Z</time>
</trkpt>
<trkpt lat="51.23917536" lon="6.67873909">
<ele>0</ele>
<time>2011-10-01T15:00:06Z</time>
</trkpt>
<trkpt lat="51.23929887" lon="6.67895325">
<ele>81.5</ele>
<time>2011-10-01T15:00:10Z</time>
</trkpt>
<trkpt lat="51.23930063" lon="6.67925214">
<ele>81.5</ele>
<time>2011-10-01T15:00:14Z</time>
</trkpt>
<trkpt lat="51.23928282" lon="6.67954677">
<ele>0</ele>
<time>2011-10-01T15:00:18Z</time>
</trkpt>
<trkpt lat="51.23927347" lon="6.6798367">
<ele>83</ele>
<time>2011-10-01T15:00:22Z</time>
</trkpt>
<trkpt lat="51.23925122" lon="6.68011221">
<ele>83</ele>
<time>2011-10-01T15:00:26Z</time>
</trkpt>
<trkpt lat="51.23923207" lon="6.68037507">
<ele>83</ele>
<time>2011-10-01T15:00:30Z</time>
</trkpt>
<trkpt lat="51.2392166" lon="6.68064262">
<ele>0</ele>
<time>2011-10-01T15:00:34Z</time>
</trkpt>
<trkpt lat="51.23920235" lon="6.68090547">
<ele>83.5</ele>
<time>2011-10-01T15:00:38Z</time>
</trkpt>
<trkpt lat="51.23919141" lon="6.681168">
<ele>0</ele>
<time>2011-10-01T15:00:42Z</time>
</trkpt>
<trkpt lat="51.23917436" lon="6.6814301">
<ele>0</ele>
<time>2011-10-01T15:00:46Z</time>
</trkpt>
<trkpt lat="51.23916195" lon="6.68168248">
<ele>83.5</ele>
<time>2011-10-01T15:00:50Z</time>
</trkpt>
<trkpt lat="51.23917599" lon="6.68193377">
<ele>83.5</ele>
<time>2011-10-01T15:00:54Z</time>
</trkpt>
<trkpt lat="51.23921229" lon="6.68220995">
<ele>83</ele>
<time>2011-10-01T15:00:58Z</time>
</trkpt>
<trkpt lat="51.23925185" lon="6.68249544">
<ele>83</ele>
<time>2011-10-01T15:01:02Z</time>
</trkpt>
<trkpt lat="51.23928978" lon="6.68278185">
<ele>0</ele>
<time>2011-10-01T15:01:06Z</time>
</trkpt>
<trkpt lat="51.23933026" lon="6.6830763">
<ele>83</ele>
<time>2011-10-01T15:01:10Z</time>
</trkpt>
<trkpt lat="51.23936421" lon="6.68337118">
<ele>83</ele>
<time>2011-10-01T15:01:14Z</time>
</trkpt>
<trkpt lat="51.23942167" lon="6.68381668">
<ele>82.5</ele>
<time>2011-10-01T15:01:20Z</time>
</trkpt>
<trkpt lat="51.23946378" lon="6.68410937">
<ele>83</ele>
<time>2011-10-01T15:01:24Z</time>
</trkpt>
<trkpt lat="51.23950259" lon="6.68440182">
<ele>83</ele>
<time>2011-10-01T15:01:28Z</time>
</trkpt>
<trkpt lat="51.23954413" lon="6.6846951">
<ele>83</ele>
<time>2011-10-01T15:01:32Z</time>
</trkpt>
<trkpt lat="51.23957145" lon="6.68498964">
<ele>0</ele>
<time>2011-10-01T15:01:36Z</time>
</trkpt>
<trkpt lat="51.2395997" lon="6.68529105">
<ele>82.5</ele>
<time>2011-10-01T15:01:40Z</time>
</trkpt>
<trkpt lat="51.23963658" lon="6.6856047">
<ele>82.5</ele>
<time>2011-10-01T15:01:44Z</time>
</trkpt>
<trkpt lat="51.23966244" lon="6.68592657">
<ele>82.5</ele>
<time>2011-10-01T15:01:48Z</time>
</trkpt>
<trkpt lat="51.23970108" lon="6.68623427">
<ele>82.5</ele>
<time>2011-10-01T15:01:52Z</time>
</trkpt>
<trkpt lat="51.2397056" lon="6.68653384">
<ele>0</ele>
<time>2011-10-01T15:01:56Z</time>
</trkpt>
<trkpt lat="51.23971344" lon="6.68671128">
<ele>82.5</ele>
<time>2011-10-01T15:02:00Z</time>
</trkpt>
<trkpt lat="51.23971491" lon="6.68671061">
<ele>82.5</ele>
<time>2011-10-01T15:02:04Z</time>
</trkpt>
<trkpt lat="51.23971466" lon="6.6867107">
<ele>84.5</ele>
<time>2011-10-01T15:02:08Z</time>
</trkpt>
<trkpt lat="51.23971042" lon="6.68670324">
<ele>84</ele>
<time>2011-10-01T15:02:12Z</time>
</trkpt>
<trkpt lat="51.23970363" lon="6.6866915">
<ele>83.5</ele>
<time>2011-10-01T15:02:16Z</time>
</trkpt>
<trkpt lat="51.2397315" lon="6.68671053">
<ele>0</ele>
<time>2011-10-01T15:02:20Z</time>
</trkpt>
<trkpt lat="51.23973536" lon="6.68657541">
<ele>0</ele>
<time>2011-10-01T15:02:24Z</time>
</trkpt>
<trkpt lat="51.23972027" lon="6.68631323">
<ele>83.5</ele>
<time>2011-10-01T15:02:28Z</time>
</trkpt>
<trkpt lat="51.23969165" lon="6.68604685">
<ele>0</ele>
<time>2011-10-01T15:02:32Z</time>
</trkpt>
<trkpt lat="51.23967358" lon="6.68577452">
<ele>84</ele>
<time>2011-10-01T15:02:36Z</time>
</trkpt>
<trkpt lat="51.2396525" lon="6.68548836">
<ele>84</ele>
<time>2011-10-01T15:02:40Z</time>
</trkpt>
<trkpt lat="51.23962694" lon="6.68522567">
<ele>0</ele>
<time>2011-10-01T15:02:44Z</time>
</trkpt>
<trkpt lat="51.23966436" lon="6.68494849">
<ele>84.5</ele>
<time>2011-10-01T15:02:50Z</time>
</trkpt>
<trkpt lat="51.23970057" lon="6.68494538">
<ele>84.5</ele>
<time>2011-10-01T15:02:54Z</time>
</trkpt>
<trkpt lat="51.23971076" lon="6.68491001">
<ele>84.5</ele>
<time>2011-10-01T15:02:58Z</time>
</trkpt>
<trkpt lat="51.23970129" lon="6.68491328">
<ele>83.5</ele>
<time>2011-10-01T15:03:02Z</time>
</trkpt>
<trkpt lat="51.23969353" lon="6.68490951">
<ele>84.5</ele>
<time>2011-10-01T15:03:06Z</time>
</trkpt>
<trkpt lat="51.23968519" lon="6.68492409">
<ele>85</ele>
<time>2011-10-01T15:03:10Z</time>
</trkpt>
<trkpt lat="51.23967878" lon="6.68491697">
<ele>83.5</ele>
<time>2011-10-01T15:03:14Z</time>
</trkpt>
<trkpt lat="51.23968561" lon="6.68491211">
<ele>82</ele>
<time>2011-10-01T15:03:18Z</time>
</trkpt>
<trkpt lat="51.23968905" lon="6.68490415">
<ele>83.5</ele>
<time>2011-10-01T15:03:22Z</time>
</trkpt>
<trkpt lat="51.23968096" lon="6.68491328">
<ele>81</ele>
<time>2011-10-01T15:03:26Z</time>
</trkpt>
<trkpt lat="51.23968507" lon="6.68491303">
<ele>81.5</ele>
<time>2011-10-01T15:03:30Z</time>
</trkpt>
<trkpt lat="51.23969341" lon="6.6849137">
<ele>82.5</ele>
<time>2011-10-01T15:03:34Z</time>
</trkpt>
<trkpt lat="51.23970632" lon="6.68489937">
<ele>0</ele>
<time>2011-10-01T15:03:38Z</time>
</trkpt>
<trkpt lat="51.2397059" lon="6.68490901">
<ele>0</ele>
<time>2011-10-01T15:03:42Z</time>
</trkpt>
<trkpt lat="51.23971436" lon="6.68490825">
<ele>82</ele>
<time>2011-10-01T15:03:46Z</time>
</trkpt>
<trkpt lat="51.23971562" lon="6.68491404">
<ele>81.5</ele>
<time>2011-10-01T15:03:50Z</time>
</trkpt>
<trkpt lat="51.23971683" lon="6.68491487">
<ele>81.5</ele>
<time>2011-10-01T15:03:54Z</time>
</trkpt>
<trkpt lat="51.2397147" lon="6.68491923">
<ele>79.5</ele>
<time>2011-10-01T15:03:58Z</time>
</trkpt>
<trkpt lat="51.23971629" lon="6.68491362">
<ele>80.5</ele>
<time>2011-10-01T15:04:02Z</time>
</trkpt>
<trkpt lat="51.23971134" lon="6.68491906">
<ele>79.5</ele>
<time>2011-10-01T15:04:06Z</time>
</trkpt>
<trkpt lat="51.23971256" lon="6.68491605">
<ele>80.5</ele>
<time>2011-10-01T15:04:10Z</time>
</trkpt>
<trkpt lat="51.23970979" lon="6.68492309">
<ele>79.5</ele>
<time>2011-10-01T15:04:14Z</time>
</trkpt>
<trkpt lat="51.2397108" lon="6.68492611">
<ele>80.5</ele>
<time>2011-10-01T15:04:18Z</time>
</trkpt>
<trkpt lat="51.23971168" lon="6.68493113">
<ele>80</ele>
<time>2011-10-01T15:04:24Z</time>
</trkpt>
<trkpt lat="51.23970795" lon="6.68492887">
<ele>80</ele>
<time>2011-10-01T15:04:28Z</time>
</trkpt>
<trkpt lat="51.23970564" lon="6.68491915">
<ele>80</ele>
<time>2011-10-01T15:04:32Z</time>
</trkpt>
<trkpt lat="51.23970569" lon="6.68491445">
<ele>79.5</ele>
<time>2011-10-01T15:04:36Z</time>
</trkpt>
<trkpt lat="51.23970531" lon="6.68491362">
<ele>79</ele>
<time>2011-10-01T15:04:40Z</time>
</trkpt>
<trkpt lat="51.23970816" lon="6.68491932">
<ele>78.5</ele>
<time>2011-10-01T15:04:44Z</time>
</trkpt>
<trkpt lat="51.23970745" lon="6.68492242">
<ele>78</ele>
<time>2011-10-01T15:04:48Z</time>
</trkpt>
<trkpt lat="51.23970606" lon="6.68492787">
<ele>77.5</ele>
<time>2011-10-01T15:04:52Z</time>
</trkpt>
<trkpt lat="51.23970766" lon="6.68492535">
<ele>78.5</ele>
<time>2011-10-01T15:04:56Z</time>
</trkpt>
<trkpt lat="51.2397077" lon="6.68492619">
<ele>79</ele>
<time>2011-10-01T15:05:00Z</time>
</trkpt>
<trkpt lat="51.23970707" lon="6.68492652">
<ele>0</ele>
<time>2011-10-01T15:05:04Z</time>
</trkpt>
<trkpt lat="51.2397072" lon="6.68492376">
<ele>0</ele>
<time>2011-10-01T15:05:08Z</time>
</trkpt>
<trkpt lat="51.23984835" lon="6.68488386">
<ele>79.5</ele>
<time>2011-10-01T15:05:12Z</time>
</trkpt>
<trkpt lat="51.23998711" lon="6.68480666">
<ele>0</ele>
<time>2011-10-01T15:05:16Z</time>
</trkpt>
<trkpt lat="51.24012826" lon="6.68466275">
<ele>0</ele>
<time>2011-10-01T15:05:20Z</time>
</trkpt>
<trkpt lat="51.24031019" lon="6.68457583">
<ele>79</ele>
<time>2011-10-01T15:05:24Z</time>
</trkpt>
<trkpt lat="51.24049099" lon="6.68448354">
<ele>0</ele>
<time>2011-10-01T15:05:28Z</time>
</trkpt>
<trkpt lat="51.24067505" lon="6.68439151">
<ele>78.5</ele>
<time>2011-10-01T15:05:32Z</time>
</trkpt>
<trkpt lat="51.24086377" lon="6.68428816">
<ele>78.5</ele>
<time>2011-10-01T15:05:36Z</time>
</trkpt>
<trkpt lat="51.2410734" lon="6.68419881">
<ele>78.5</ele>
<time>2011-10-01T15:05:40Z</time>
</trkpt>
<trkpt lat="51.24127662" lon="6.68412454">
<ele>0</ele>
<time>2011-10-01T15:05:44Z</time>
</trkpt>
<trkpt lat="51.24146404" lon="6.6840051">
<ele>77.5</ele>
<time>2011-10-01T15:05:48Z</time>
</trkpt>
<trkpt lat="51.24161999" lon="6.68365424">
<ele>77</ele>
<time>2011-10-01T15:05:54Z</time>
</trkpt>
<trkpt lat="51.2416862" lon="6.68341711">
<ele>77.5</ele>
<time>2011-10-01T15:05:58Z</time>
</trkpt>
<trkpt lat="51.24177204" lon="6.68322693">
<ele>77.5</ele>
<time>2011-10-01T15:06:02Z</time>
</trkpt>
<trkpt lat="51.24180837" lon="6.68308334">
<ele>0</ele>
<time>2011-10-01T15:06:06Z</time>
</trkpt>
<trkpt lat="51.2417678" lon="6.68298511">
<ele>78.5</ele>
<time>2011-10-01T15:06:10Z</time>
</trkpt>
<trkpt lat="51.24179496" lon="6.68294077">
<ele>78.5</ele>
<time>2011-10-01T15:06:14Z</time>
</trkpt>
<trkpt lat="51.24182216" lon="6.6830442">
<ele>78.5</ele>
<time>2011-10-01T15:06:18Z</time>
</trkpt>
<trkpt lat="51.24181805" lon="6.68306231">
<ele>0</ele>
<time>2011-10-01T15:06:22Z</time>
</trkpt>
<trkpt lat="51.24181948" lon="6.68306096">
<ele>79</ele>
<time>2011-10-01T15:06:26Z</time>
</trkpt>
<trkpt lat="51.24182681" lon="6.68307655">
<ele>80</ele>
<time>2011-10-01T15:06:30Z</time>
</trkpt>
<trkpt lat="51.24182953" lon="6.68307823">
<ele>80.5</ele>
<time>2011-10-01T15:06:34Z</time>
</trkpt>
<trkpt lat="51.24183616" lon="6.68307723">
<ele>82.5</ele>
<time>2011-10-01T15:06:38Z</time>
</trkpt>
<trkpt lat="51.24184001" lon="6.68308519">
<ele>83.5</ele>
<time>2011-10-01T15:06:42Z</time>
</trkpt>
<trkpt lat="51.24184207" lon="6.68309064">
<ele>83.5</ele>
<time>2011-10-01T15:06:46Z</time>
</trkpt>
<trkpt lat="51.24184014" lon="6.6830924">
<ele>83</ele>
<time>2011-10-01T15:06:50Z</time>
</trkpt>
<trkpt lat="51.2418388" lon="6.68309181">
<ele>81.5</ele>
<time>2011-10-01T15:06:54Z</time>
</trkpt>
<trkpt lat="51.24183813" lon="6.68308779">
<ele>80.5</ele>
<time>2011-10-01T15:06:58Z</time>
</trkpt>
<trkpt lat="51.24183813" lon="6.68308745">
<ele>0</ele>
<time>2011-10-01T15:07:02Z</time>
</trkpt>
<trkpt lat="51.24183821" lon="6.68308712">
<ele>0</ele>
<time>2011-10-01T15:07:06Z</time>
</trkpt>
<trkpt lat="51.24183804" lon="6.68308712">
<ele>80.5</ele>
<time>2011-10-01T15:07:10Z</time>
</trkpt>
<trkpt lat="51.24183754" lon="6.68308737">
<ele>0</ele>
<time>2011-10-01T15:07:14Z</time>
</trkpt>
<trkpt lat="51.24183771" lon="6.68308745">
<ele>0</ele>
<time>2011-10-01T15:07:18Z</time>
</trkpt>
<trkpt lat="51.24183767" lon="6.68308737">
<ele>80.5</ele>
<time>2011-10-01T15:07:20Z</time>
</trkpt>
<trkpt lat="51.24178021" lon="6.68305828">
<ele>0</ele>
<time>2011-10-01T15:11:24Z</time>
</trkpt>
<trkpt lat="51.24178021" lon="6.68305828">
<ele>0</ele>
<time>2011-10-01T15:11:24Z</time>
</trkpt>
<trkpt lat="51.24178021" lon="6.68305828">
<ele>86.5</ele>
<time>2011-10-01T15:11:24Z</time>
</trkpt>
<trkpt lat="51.24177698" lon="6.68305644">
<ele>86</ele>
<time>2011-10-01T15:11:28Z</time>
</trkpt>
<trkpt lat="51.24176919" lon="6.68305116">
<ele>86</ele>
<time>2011-10-01T15:11:31Z</time>
</trkpt>
<trkpt lat="51.24176667" lon="6.68304948">
<ele>86</ele>
<time>2011-10-01T15:11:35Z</time>
</trkpt>
<trkpt lat="51.24176608" lon="6.68305141">
<ele>0</ele>
<time>2011-10-01T15:11:38Z</time>
</trkpt>
<trkpt lat="51.24176776" lon="6.68305183">
<ele>0</ele>
<time>2011-10-01T15:11:41Z</time>
</trkpt>
<trkpt lat="51.24176927" lon="6.68305954">
<ele>85.5</ele>
<time>2011-10-01T15:11:44Z</time>
</trkpt>
<trkpt lat="51.24177451" lon="6.68307203">
<ele>85</ele>
<time>2011-10-01T15:11:48Z</time>
</trkpt>
<trkpt lat="51.24177417" lon="6.68307153">
<ele>85</ele>
<time>2011-10-01T15:11:51Z</time>
</trkpt>
<trkpt lat="51.24178201" lon="6.68306826">
<ele>84.5</ele>
<time>2011-10-01T15:11:53Z</time>
</trkpt>
<trkpt lat="51.24178398" lon="6.68306599">
<ele>84.5</ele>
<time>2011-10-01T15:11:55Z</time>
</trkpt>
<trkpt lat="51.24178519" lon="6.68306842">
<ele>84.5</ele>
<time>2011-10-01T15:11:57Z</time>
</trkpt>
<trkpt lat="51.24178863" lon="6.68307111">
<ele>85.5</ele>
<time>2011-10-01T15:11:59Z</time>
</trkpt>
<trkpt lat="51.24179081" lon="6.68307127">
<ele>85.5</ele>
<time>2011-10-01T15:12:02Z</time>
</trkpt>
<trkpt lat="51.24179136" lon="6.68307052">
<ele>85.5</ele>
<time>2011-10-01T15:12:04Z</time>
</trkpt>
<trkpt lat="51.24179291" lon="6.68306834">
<ele>85.5</ele>
<time>2011-10-01T15:12:06Z</time>
</trkpt>
<trkpt lat="51.24179316" lon="6.68306968">
<ele>0</ele>
<time>2011-10-01T15:12:10Z</time>
</trkpt>
<trkpt lat="51.24179509" lon="6.68306817">
<ele>0</ele>
<time>2011-10-01T15:12:12Z</time>
</trkpt>
<trkpt lat="51.24179601" lon="6.68306742">
<ele>86</ele>
<time>2011-10-01T15:12:15Z</time>
</trkpt>
<trkpt lat="51.24179735" lon="6.68306172">
<ele>85.5</ele>
<time>2011-10-01T15:12:18Z</time>
</trkpt>
<trkpt lat="51.24179483" lon="6.68305929">
<ele>85.5</ele>
<time>2011-10-01T15:12:22Z</time>
</trkpt>
<trkpt lat="51.24179144" lon="6.68306063">
<ele>85.5</ele>
<time>2011-10-01T15:12:27Z</time>
</trkpt>
<trkpt lat="51.24179207" lon="6.68306281">
<ele>85.5</ele>
<time>2011-10-01T15:12:31Z</time>
</trkpt>
<trkpt lat="51.24181093" lon="6.68306432">
<ele>87.5</ele>
<time>2011-10-01T15:12:35Z</time>
</trkpt>
<trkpt lat="51.24181587" lon="6.68306381">
<ele>88.5</ele>
<time>2011-10-01T15:12:39Z</time>
</trkpt>
<trkpt lat="51.241816" lon="6.68307396">
<ele>89.5</ele>
<time>2011-10-01T15:12:43Z</time>
</trkpt>
<trkpt lat="51.24181361" lon="6.68307823">
<ele>89.5</ele>
<time>2011-10-01T15:12:47Z</time>
</trkpt>
<trkpt lat="51.24181617" lon="6.68307555">
<ele>88</ele>
<time>2011-10-01T15:12:51Z</time>
</trkpt>
<trkpt lat="51.2418147" lon="6.68307689">
<ele>88</ele>
<time>2011-10-01T15:12:55Z</time>
</trkpt>
<trkpt lat="51.24181478" lon="6.68307664">
<ele>88</ele>
<time>2011-10-01T15:12:57Z</time>
</trkpt>
<trkpt lat="51.24181482" lon="6.68307521">
<ele>88.5</ele>
<time>2011-10-01T15:13:00Z</time>
</trkpt>
<trkpt lat="51.24181524" lon="6.68307597">
<ele>88</ele>
<time>2011-10-01T15:13:02Z</time>
</trkpt>
<trkpt lat="51.24181575" lon="6.68307547">
<ele>87.5</ele>
<time>2011-10-01T15:13:06Z</time>
</trkpt>
<trkpt lat="51.24181575" lon="6.68307681">
<ele>87.5</ele>
<time>2011-10-01T15:13:10Z</time>
</trkpt>
<trkpt lat="51.24181407" lon="6.68308628">
<ele>0</ele>
<time>2011-10-01T15:13:14Z</time>
</trkpt>
<trkpt lat="51.24181998" lon="6.68308108">
<ele>86</ele>
<time>2011-10-01T15:13:18Z</time>
</trkpt>
<trkpt lat="51.24184068" lon="6.68305267">
<ele>84</ele>
<time>2011-10-01T15:13:22Z</time>
</trkpt>
<trkpt lat="51.24184626" lon="6.68304361">
<ele>83</ele>
<time>2011-10-01T15:13:26Z</time>
</trkpt>
<trkpt lat="51.24184328" lon="6.68304143">
<ele>82</ele>
<time>2011-10-01T15:13:30Z</time>
</trkpt>
<trkpt lat="51.24183301" lon="6.68304848">
<ele>81.5</ele>
<time>2011-10-01T15:13:34Z</time>
</trkpt>
<trkpt lat="51.24183155" lon="6.68305543">
<ele>0</ele>
<time>2011-10-01T15:13:38Z</time>
</trkpt>
<trkpt lat="51.24186218" lon="6.68323003">
<ele>0</ele>
<time>2011-10-01T15:13:42Z</time>
</trkpt>
<trkpt lat="51.24196046" lon="6.68332013">
<ele>80.5</ele>
<time>2011-10-01T15:13:46Z</time>
</trkpt>
<trkpt lat="51.24209683" lon="6.68340596">
<ele>79</ele>
<time>2011-10-01T15:13:50Z</time>
</trkpt>
<trkpt lat="51.2422524" lon="6.68348568">
<ele>77.5</ele>
<time>2011-10-01T15:13:54Z</time>
</trkpt>
<trkpt lat="51.24241577" lon="6.68357855">
<ele>77.5</ele>
<time>2011-10-01T15:13:58Z</time>
</trkpt>
<trkpt lat="51.2425692" lon="6.68366371">
<ele>0</ele>
<time>2011-10-01T15:14:02Z</time>
</trkpt>
<trkpt lat="51.24272242" lon="6.68374929">
<ele>76.5</ele>
<time>2011-10-01T15:14:06Z</time>
</trkpt>
<trkpt lat="51.2428577" lon="6.68383487">
<ele>76</ele>
<time>2011-10-01T15:14:10Z</time>
</trkpt>
<trkpt lat="51.24300086" lon="6.68392648">
<ele>77</ele>
<time>2011-10-01T15:14:14Z</time>
</trkpt>
<trkpt lat="51.24312613" lon="6.6840134">
<ele>77.5</ele>
<time>2011-10-01T15:14:18Z</time>
</trkpt>
<trkpt lat="51.2432211" lon="6.68407467">
<ele>78.5</ele>
<time>2011-10-01T15:14:22Z</time>
</trkpt>
<trkpt lat="51.24335307" lon="6.6841424">
<ele>78.5</ele>
<time>2011-10-01T15:14:26Z</time>
</trkpt>
<trkpt lat="51.24349561" lon="6.68422747">
<ele>78.5</ele>
<time>2011-10-01T15:14:30Z</time>
</trkpt>
<trkpt lat="51.24364091" lon="6.68430517">
<ele>77.5</ele>
<time>2011-10-01T15:14:34Z</time>
</trkpt>
<trkpt lat="51.24377669" lon="6.68438036">
<ele>78</ele>
<time>2011-10-01T15:14:38Z</time>
</trkpt>
<trkpt lat="51.24391851" lon="6.6844501">
<ele>79</ele>
<time>2011-10-01T15:14:42Z</time>
</trkpt>
<trkpt lat="51.24406168" lon="6.68450802">
<ele>79.5</ele>
<time>2011-10-01T15:14:46Z</time>
</trkpt>
<trkpt lat="51.24420451" lon="6.68455646">
<ele>79.5</ele>
<time>2011-10-01T15:14:50Z</time>
</trkpt>
<trkpt lat="51.24436485" lon="6.68459787">
<ele>0</ele>
<time>2011-10-01T15:14:54Z</time>
</trkpt>
<trkpt lat="51.24449452" lon="6.68463584">
<ele>80</ele>
<time>2011-10-01T15:14:58Z</time>
</trkpt>
<trkpt lat="51.24470411" lon="6.68469619">
<ele>80</ele>
<time>2011-10-01T15:15:02Z</time>
</trkpt>
<trkpt lat="51.24487707" lon="6.6847246">
<ele>80</ele>
<time>2011-10-01T15:15:06Z</time>
</trkpt>
<trkpt lat="51.24505405" lon="6.68474849">
<ele>0</ele>
<time>2011-10-01T15:15:10Z</time>
</trkpt>
<trkpt lat="51.24523866" lon="6.68475252">
<ele>79.5</ele>
<time>2011-10-01T15:15:14Z</time>
</trkpt>
<trkpt lat="51.24542629" lon="6.68476207">
<ele>0</ele>
<time>2011-10-01T15:15:18Z</time>
</trkpt>
<trkpt lat="51.24561459" lon="6.68476199">
<ele>0</ele>
<time>2011-10-01T15:15:22Z</time>
</trkpt>
<trkpt lat="51.24580553" lon="6.68476165">
<ele>79.5</ele>
<time>2011-10-01T15:15:26Z</time>
</trkpt>
<trkpt lat="51.24599949" lon="6.68476635">
<ele>79</ele>
<time>2011-10-01T15:15:30Z</time>
</trkpt>
<trkpt lat="51.24618997" lon="6.68477682">
<ele>0</ele>
<time>2011-10-01T15:15:34Z</time>
</trkpt>
<trkpt lat="51.24637575" lon="6.68477657">
<ele>0</ele>
<time>2011-10-01T15:15:38Z</time>
</trkpt>
<trkpt lat="51.24655634" lon="6.68477666">
<ele>79</ele>
<time>2011-10-01T15:15:42Z</time>
</trkpt>
<trkpt lat="51.24673819" lon="6.68477029">
<ele>79</ele>
<time>2011-10-01T15:15:46Z</time>
</trkpt>
<trkpt lat="51.2469267" lon="6.68477339">
<ele>0</ele>
<time>2011-10-01T15:15:50Z</time>
</trkpt>
<trkpt lat="51.24711227" lon="6.68476727">
<ele>79</ele>
<time>2011-10-01T15:15:54Z</time>
</trkpt>
<trkpt lat="51.2472968" lon="6.68475771">
<ele>79</ele>
<time>2011-10-01T15:15:58Z</time>
</trkpt>
<trkpt lat="51.24748003" lon="6.68476031">
<ele>79.5</ele>
<time>2011-10-01T15:16:02Z</time>
</trkpt>
<trkpt lat="51.24767461" lon="6.68473944">
<ele>79.5</ele>
<time>2011-10-01T15:16:06Z</time>
</trkpt>
<trkpt lat="51.24786534" lon="6.68469678">
<ele>79.5</ele>
<time>2011-10-01T15:16:10Z</time>
</trkpt>
<trkpt lat="51.24804442" lon="6.68461363">
<ele>80</ele>
<time>2011-10-01T15:16:14Z</time>
</trkpt>
<trkpt lat="51.24821122" lon="6.68451942">
<ele>80.5</ele>
<time>2011-10-01T15:16:18Z</time>
</trkpt>
<trkpt lat="51.24832144" lon="6.68453199">
<ele>80</ele>
<time>2011-10-01T15:16:22Z</time>
</trkpt>
<trkpt lat="51.24841876" lon="6.6843838">
<ele>79</ele>
<time>2011-10-01T15:16:26Z</time>
</trkpt>
<trkpt lat="51.2485732" lon="6.68434381">
<ele>79</ele>
<time>2011-10-01T15:16:30Z</time>
</trkpt>
<trkpt lat="51.2486926" lon="6.68434666">
<ele>79.5</ele>
<time>2011-10-01T15:16:34Z</time>
</trkpt>
<trkpt lat="51.24870471" lon="6.68439947">
<ele>79</ele>
<time>2011-10-01T15:16:38Z</time>
</trkpt>
<trkpt lat="51.24855597" lon="6.68436712">
<ele>79.5</ele>
<time>2011-10-01T15:16:42Z</time>
</trkpt>
<trkpt lat="51.24838682" lon="6.68435547">
<ele>80</ele>
<time>2011-10-01T15:16:46Z</time>
</trkpt>
<trkpt lat="51.2482383" lon="6.68449653">
<ele>80.5</ele>
<time>2011-10-01T15:16:50Z</time>
</trkpt>
<trkpt lat="51.24816328" lon="6.6847671">
<ele>81.5</ele>
<time>2011-10-01T15:16:54Z</time>
</trkpt>
<trkpt lat="51.24810293" lon="6.68505946">
<ele>82</ele>
<time>2011-10-01T15:16:58Z</time>
</trkpt>
<trkpt lat="51.24803856" lon="6.68535199">
<ele>81</ele>
<time>2011-10-01T15:17:02Z</time>
</trkpt>
<trkpt lat="51.24797397" lon="6.68563538">
<ele>80</ele>
<time>2011-10-01T15:17:06Z</time>
</trkpt>
<trkpt lat="51.24790734" lon="6.68592422">
<ele>82</ele>
<time>2011-10-01T15:17:10Z</time>
</trkpt>
<trkpt lat="51.24782951" lon="6.6862015">
<ele>84</ele>
<time>2011-10-01T15:17:14Z</time>
</trkpt>
<trkpt lat="51.24776853" lon="6.68649754">
<ele>86</ele>
<time>2011-10-01T15:17:18Z</time>
</trkpt>
<trkpt lat="51.24769875" lon="6.68677926">
<ele>85.5</ele>
<time>2011-10-01T15:17:22Z</time>
</trkpt>
<trkpt lat="51.24760081" lon="6.68703541">
<ele>85.5</ele>
<time>2011-10-01T15:17:26Z</time>
</trkpt>
<trkpt lat="51.24747739" lon="6.68726424">
<ele>0</ele>
<time>2011-10-01T15:17:30Z</time>
</trkpt>
<trkpt lat="51.24736985" lon="6.68751268">
<ele>84</ele>
<time>2011-10-01T15:17:34Z</time>
</trkpt>
<trkpt lat="51.247253" lon="6.68773698">
<ele>0</ele>
<time>2011-10-01T15:17:38Z</time>
</trkpt>
<trkpt lat="51.24718469" lon="6.68788911">
<ele>0</ele>
<time>2011-10-01T15:17:42Z</time>
</trkpt>
<trkpt lat="51.247282" lon="6.6878394">
<ele>84</ele>
<time>2011-10-01T15:17:46Z</time>
</trkpt>
<trkpt lat="51.24740773" lon="6.68763069">
<ele>84</ele>
<time>2011-10-01T15:17:50Z</time>
</trkpt>
<trkpt lat="51.24753476" lon="6.68738058">
<ele>84</ele>
<time>2011-10-01T15:17:54Z</time>
</trkpt>
<trkpt lat="51.24765621" lon="6.68711898">
<ele>0</ele>
<time>2011-10-01T15:17:58Z</time>
</trkpt>
<trkpt lat="51.24780185" lon="6.68706827">
<ele>83.5</ele>
<time>2011-10-01T15:18:02Z</time>
</trkpt>
<trkpt lat="51.24782943" lon="6.68733548">
<ele>83</ele>
<time>2011-10-01T15:18:06Z</time>
</trkpt>
<trkpt lat="51.24785855" lon="6.68763212">
<ele>82.5</ele>
<time>2011-10-01T15:18:10Z</time>
</trkpt>
<trkpt lat="51.24789397" lon="6.68794468">
<ele>81</ele>
<time>2011-10-01T15:18:14Z</time>
</trkpt>
<trkpt lat="51.24794128" lon="6.6882507">
<ele>81</ele>
<time>2011-10-01T15:18:18Z</time>
</trkpt>
<trkpt lat="51.24798969" lon="6.68855036">
<ele>0</ele>
<time>2011-10-01T15:18:22Z</time>
</trkpt>
<trkpt lat="51.24803612" lon="6.68885873">
<ele>81.5</ele>
<time>2011-10-01T15:18:26Z</time>
</trkpt>
<trkpt lat="51.24808688" lon="6.68916827">
<ele>81.5</ele>
<time>2011-10-01T15:18:30Z</time>
</trkpt>
<trkpt lat="51.24816319" lon="6.68947756">
<ele>0</ele>
<time>2011-10-01T15:18:34Z</time>
</trkpt>
<trkpt lat="51.24823725" lon="6.68978409">
<ele>81.5</ele>
<time>2011-10-01T15:18:38Z</time>
</trkpt>
<trkpt lat="51.24830652" lon="6.69007896">
<ele>0</ele>
<time>2011-10-01T15:18:42Z</time>
</trkpt>
<trkpt lat="51.24837559" lon="6.69037828">
<ele>0</ele>
<time>2011-10-01T15:18:46Z</time>
</trkpt>
<trkpt lat="51.24844131" lon="6.69068104">
<ele>82</ele>
<time>2011-10-01T15:18:50Z</time>
</trkpt>
<trkpt lat="51.24849977" lon="6.6909874">
<ele>81.5</ele>
<time>2011-10-01T15:18:54Z</time>
</trkpt>
<trkpt lat="51.24855413" lon="6.69128831">
<ele>0</ele>
<time>2011-10-01T15:18:58Z</time>
</trkpt>
<trkpt lat="51.24860056" lon="6.69158201">
<ele>0</ele>
<time>2011-10-01T15:19:02Z</time>
</trkpt>
<trkpt lat="51.24864624" lon="6.69186867">
<ele>81</ele>
<time>2011-10-01T15:19:06Z</time>
</trkpt>
<trkpt lat="51.2486848" lon="6.69213186">
<ele>0</ele>
<time>2011-10-01T15:19:10Z</time>
</trkpt>
<trkpt lat="51.24866393" lon="6.69236546">
<ele>81.5</ele>
<time>2011-10-01T15:19:14Z</time>
</trkpt>
<trkpt lat="51.24853405" lon="6.69252489">
<ele>81.5</ele>
<time>2011-10-01T15:19:18Z</time>
</trkpt>
<trkpt lat="51.24841536" lon="6.69265883">
<ele>0</ele>
<time>2011-10-01T15:19:22Z</time>
</trkpt>
<trkpt lat="51.24839391" lon="6.69268004">
<ele>81.5</ele>
<time>2011-10-01T15:19:25Z</time>
</trkpt>
<trkpt lat="51.2483934" lon="6.69268222">
<ele>82</ele>
<time>2011-10-01T15:19:28Z</time>
</trkpt>
<trkpt lat="51.24839156" lon="6.69268305">
<ele>82.5</ele>
<time>2011-10-01T15:19:31Z</time>
</trkpt>
<trkpt lat="51.24839076" lon="6.69267844">
<ele>82</ele>
<time>2011-10-01T15:19:35Z</time>
</trkpt>
<trkpt lat="51.24839282" lon="6.692673">
<ele>0</ele>
<time>2011-10-01T15:19:38Z</time>
</trkpt>
<trkpt lat="51.24839428" lon="6.69266696">
<ele>0</ele>
<time>2011-10-01T15:19:42Z</time>
</trkpt>
<trkpt lat="51.24839671" lon="6.69266755">
<ele>80</ele>
<time>2011-10-01T15:19:46Z</time>
</trkpt>
<trkpt lat="51.24839453" lon="6.69267668">
<ele>81</ele>
<time>2011-10-01T15:19:50Z</time>
</trkpt>
<trkpt lat="51.24839596" lon="6.69267945">
<ele>81.5</ele>
<time>2011-10-01T15:19:54Z</time>
</trkpt>
<trkpt lat="51.24838825" lon="6.69268196">
<ele>83</ele>
<time>2011-10-01T15:19:58Z</time>
</trkpt>
<trkpt lat="51.24839152" lon="6.69268901">
<ele>83.5</ele>
<time>2011-10-01T15:20:02Z</time>
</trkpt>
<trkpt lat="51.24840246" lon="6.69269286">
<ele>85</ele>
<time>2011-10-01T15:20:06Z</time>
</trkpt>
<trkpt lat="51.2484165" lon="6.69276972">
<ele>80</ele>
<time>2011-10-01T15:20:10Z</time>
</trkpt>
<trkpt lat="51.24846603" lon="6.69294323">
<ele>78</ele>
<time>2011-10-01T15:20:14Z</time>
</trkpt>
<trkpt lat="51.24858677" lon="6.69312277">
<ele>77.5</ele>
<time>2011-10-01T15:20:18Z</time>
</trkpt>
<trkpt lat="51.24869574" lon="6.6933381">
<ele>77</ele>
<time>2011-10-01T15:20:22Z</time>
</trkpt>
<trkpt lat="51.24880148" lon="6.69359886">
<ele>0</ele>
<time>2011-10-01T15:20:26Z</time>
</trkpt>
<trkpt lat="51.24890872" lon="6.69387253">
<ele>0</ele>
<time>2011-10-01T15:20:30Z</time>
</trkpt>
<trkpt lat="51.24899833" lon="6.69415534">
<ele>77</ele>
<time>2011-10-01T15:20:34Z</time>
</trkpt>
<trkpt lat="51.249072" lon="6.69447728">
<ele>78.5</ele>
<time>2011-10-01T15:20:38Z</time>
</trkpt>
<trkpt lat="51.24912271" lon="6.69482077">
<ele>78</ele>
<time>2011-10-01T15:20:42Z</time>
</trkpt>
<trkpt lat="51.24918931" lon="6.6951817">
<ele>78.5</ele>
<time>2011-10-01T15:20:46Z</time>
</trkpt>
<trkpt lat="51.24924081" lon="6.69553391">
<ele>0</ele>
<time>2011-10-01T15:20:50Z</time>
</trkpt>
<trkpt lat="51.2493007" lon="6.69587086">
<ele>0</ele>
<time>2011-10-01T15:20:54Z</time>
</trkpt>
<trkpt lat="51.24938565" lon="6.69617931">
<ele>79</ele>
<time>2011-10-01T15:20:58Z</time>
</trkpt>
<trkpt lat="51.24949839" lon="6.69646908">
<ele>0</ele>
<time>2011-10-01T15:21:02Z</time>
</trkpt>
<trkpt lat="51.24962512" lon="6.6967559">
<ele>78</ele>
<time>2011-10-01T15:21:06Z</time>
</trkpt>
<trkpt lat="51.2497602" lon="6.69704005">
<ele>77</ele>
<time>2011-10-01T15:21:10Z</time>
</trkpt>
<trkpt lat="51.24990894" lon="6.69729101">
<ele>76.5</ele>
<time>2011-10-01T15:21:14Z</time>
</trkpt>
<trkpt lat="51.25006312" lon="6.69751874">
<ele>75.5</ele>
<time>2011-10-01T15:21:18Z</time>
</trkpt>
<trkpt lat="51.25022477" lon="6.69774522">
<ele>75</ele>
<time>2011-10-01T15:21:22Z</time>
</trkpt>
<trkpt lat="51.25038528" lon="6.69796349">
<ele>75</ele>
<time>2011-10-01T15:21:26Z</time>
</trkpt>
<trkpt lat="51.25055908" lon="6.69814705">
<ele>74.5</ele>
<time>2011-10-01T15:21:30Z</time>
</trkpt>
<trkpt lat="51.25073853" lon="6.69833003">
<ele>74.5</ele>
<time>2011-10-01T15:21:34Z</time>
</trkpt>
<trkpt lat="51.25091812" lon="6.69851837">
<ele>0</ele>
<time>2011-10-01T15:21:38Z</time>
</trkpt>
<trkpt lat="51.25109489" lon="6.69870696">
<ele>74</ele>
<time>2011-10-01T15:21:42Z</time>
</trkpt>
<trkpt lat="51.2512689" lon="6.69891207">
<ele>73</ele>
<time>2011-10-01T15:21:46Z</time>
</trkpt>
<trkpt lat="51.2514533" lon="6.69909655">
<ele>73</ele>
<time>2011-10-01T15:21:50Z</time>
</trkpt>
<trkpt lat="51.25163825" lon="6.69928699">
<ele>0</ele>
<time>2011-10-01T15:21:54Z</time>
</trkpt>
<trkpt lat="51.251826" lon="6.69946644">
<ele>74</ele>
<time>2011-10-01T15:21:58Z</time>
</trkpt>
<trkpt lat="51.25201619" lon="6.69961849">
<ele>74.5</ele>
<time>2011-10-01T15:22:02Z</time>
</trkpt>
<trkpt lat="51.25221941" lon="6.69971664">
<ele>0</ele>
<time>2011-10-01T15:22:06Z</time>
</trkpt>
<trkpt lat="51.25240838" lon="6.69979703">
<ele>0</ele>
<time>2011-10-01T15:22:10Z</time>
</trkpt>
<trkpt lat="51.25252166" lon="6.69983625">
<ele>74</ele>
<time>2011-10-01T15:22:13Z</time>
</trkpt>
<trkpt lat="51.25265522" lon="6.69983366">
<ele>70.5</ele>
<time>2011-10-01T15:22:17Z</time>
</trkpt>
<trkpt lat="51.25282152" lon="6.6998272">
<ele>68.5</ele>
<time>2011-10-01T15:22:21Z</time>
</trkpt>
<trkpt lat="51.25301414" lon="6.69986911">
<ele>68</ele>
<time>2011-10-01T15:22:25Z</time>
</trkpt>
<trkpt lat="51.25320721" lon="6.69992921">
<ele>67</ele>
<time>2011-10-01T15:22:29Z</time>
</trkpt>
<trkpt lat="51.2533912" lon="6.69998671">
<ele>68</ele>
<time>2011-10-01T15:22:33Z</time>
</trkpt>
<trkpt lat="51.25357275" lon="6.7000401">
<ele>68</ele>
<time>2011-10-01T15:22:37Z</time>
</trkpt>
<trkpt lat="51.25372618" lon="6.70009534">
<ele>68.5</ele>
<time>2011-10-01T15:22:41Z</time>
</trkpt>
<trkpt lat="51.25386465" lon="6.70015569">
<ele>69</ele>
<time>2011-10-01T15:22:45Z</time>
</trkpt>
<trkpt lat="51.25401364" lon="6.70019374">
<ele>69.5</ele>
<time>2011-10-01T15:22:49Z</time>
</trkpt>
<trkpt lat="51.25416019" lon="6.70018779">
<ele>69.5</ele>
<time>2011-10-01T15:22:53Z</time>
</trkpt>
<trkpt lat="51.25424795" lon="6.70020087">
<ele>71.5</ele>
<time>2011-10-01T15:22:57Z</time>
</trkpt>
<trkpt lat="51.25430244" lon="6.70031595">
<ele>73.5</ele>
<time>2011-10-01T15:23:01Z</time>
</trkpt>
<trkpt lat="51.2543324" lon="6.70045014">
<ele>74</ele>
<time>2011-10-01T15:23:05Z</time>
</trkpt>
<trkpt lat="51.25431857" lon="6.70049599">
<ele>75.5</ele>
<time>2011-10-01T15:23:09Z</time>
</trkpt>
<trkpt lat="51.25433152" lon="6.70053564">
<ele>76.5</ele>
<time>2011-10-01T15:23:13Z</time>
</trkpt>
<trkpt lat="51.254364" lon="6.70057545">
<ele>76</ele>
<time>2011-10-01T15:23:17Z</time>
</trkpt>
<trkpt lat="51.254386" lon="6.70060689">
<ele>76</ele>
<time>2011-10-01T15:23:21Z</time>
</trkpt>
<trkpt lat="51.25448462" lon="6.70067905">
<ele>75</ele>
<time>2011-10-01T15:23:25Z</time>
</trkpt>
<trkpt lat="51.25463654" lon="6.70080671">
<ele>74.5</ele>
<time>2011-10-01T15:23:29Z</time>
</trkpt>
<trkpt lat="51.25474852" lon="6.70090813">
<ele>74</ele>
<time>2011-10-01T15:23:32Z</time>
</trkpt>
<trkpt lat="51.25482312" lon="6.70097594">
<ele>74</ele>
<time>2011-10-01T15:23:34Z</time>
</trkpt>
<trkpt lat="51.25490036" lon="6.70104895">
<ele>74</ele>
<time>2011-10-01T15:23:36Z</time>
</trkpt>
<trkpt lat="51.25501934" lon="6.70115607">
<ele>73.5</ele>
<time>2011-10-01T15:23:39Z</time>
</trkpt>
<trkpt lat="51.255183" lon="6.7013118">
<ele>0</ele>
<time>2011-10-01T15:23:43Z</time>
</trkpt>
<trkpt lat="51.25534971" lon="6.70150878">
<ele>0</ele>
<time>2011-10-01T15:23:47Z</time>
</trkpt>
<trkpt lat="51.25551433" lon="6.70170332">
<ele>74</ele>
<time>2011-10-01T15:23:51Z</time>
</trkpt>
<trkpt lat="51.25567921" lon="6.70190172">
<ele>75</ele>
<time>2011-10-01T15:23:55Z</time>
</trkpt>
<trkpt lat="51.25583305" lon="6.70210842">
<ele>75</ele>
<time>2011-10-01T15:23:59Z</time>
</trkpt>
<trkpt lat="51.25596042" lon="6.70234429">
<ele>0</ele>
<time>2011-10-01T15:24:03Z</time>
</trkpt>
<trkpt lat="51.2559701" lon="6.70258711">
<ele>76</ele>
<time>2011-10-01T15:24:07Z</time>
</trkpt>
<trkpt lat="51.25591591" lon="6.70286556">
<ele>76</ele>
<time>2011-10-01T15:24:11Z</time>
</trkpt>
<trkpt lat="51.25602219" lon="6.70314568">
<ele>76.5</ele>
<time>2011-10-01T15:24:15Z</time>
</trkpt>
<trkpt lat="51.25613283" lon="6.70344877">
<ele>77</ele>
<time>2011-10-01T15:24:19Z</time>
</trkpt>
<trkpt lat="51.25625689" lon="6.70373677">
<ele>77.5</ele>
<time>2011-10-01T15:24:23Z</time>
</trkpt>
<trkpt lat="51.25637566" lon="6.70402243">
<ele>77</ele>
<time>2011-10-01T15:24:27Z</time>
</trkpt>
<trkpt lat="51.25649573" lon="6.7042935">
<ele>76.5</ele>
<time>2011-10-01T15:24:31Z</time>
</trkpt>
<trkpt lat="51.25661756" lon="6.70457002">
<ele>77</ele>
<time>2011-10-01T15:24:35Z</time>
</trkpt>
<trkpt lat="51.25673088" lon="6.70484453">
<ele>77</ele>
<time>2011-10-01T15:24:39Z</time>
</trkpt>
<trkpt lat="51.2568432" lon="6.705114">
<ele>77</ele>
<time>2011-10-01T15:24:43Z</time>
</trkpt>
<trkpt lat="51.25696306" lon="6.70537971">
<ele>0</ele>
<time>2011-10-01T15:24:47Z</time>
</trkpt>
<trkpt lat="51.25707701" lon="6.70565061">
<ele>76</ele>
<time>2011-10-01T15:24:51Z</time>
</trkpt>
<trkpt lat="51.25719587" lon="6.70591079">
<ele>76</ele>
<time>2011-10-01T15:24:55Z</time>
</trkpt>
<trkpt lat="51.25727478" lon="6.70610533">
<ele>0</ele>
<time>2011-10-01T15:24:58Z</time>
</trkpt>
<trkpt lat="51.25737206" lon="6.7063391">
<ele>77.5</ele>
<time>2011-10-01T15:25:02Z</time>
</trkpt>
<trkpt lat="51.25746128" lon="6.70655318">
<ele>77</ele>
<time>2011-10-01T15:25:06Z</time>
</trkpt>
<trkpt lat="51.25754506" lon="6.70671017">
<ele>0</ele>
<time>2011-10-01T15:25:10Z</time>
</trkpt>
<trkpt lat="51.25761077" lon="6.70684311">
<ele>0</ele>
<time>2011-10-01T15:25:14Z</time>
</trkpt>
<trkpt lat="51.25768265" lon="6.70704385">
<ele>76.5</ele>
<time>2011-10-01T15:25:18Z</time>
</trkpt>
<trkpt lat="51.25776965" lon="6.70725751">
<ele>76.5</ele>
<time>2011-10-01T15:25:22Z</time>
</trkpt>
<trkpt lat="51.25785808" lon="6.70745239">
<ele>76.5</ele>
<time>2011-10-01T15:25:26Z</time>
</trkpt>
<trkpt lat="51.25793939" lon="6.70765531">
<ele>77</ele>
<time>2011-10-01T15:25:30Z</time>
</trkpt>
<trkpt lat="51.25801998" lon="6.70783678">
<ele>0</ele>
<time>2011-10-01T15:25:34Z</time>
</trkpt>
<trkpt lat="51.25809198" lon="6.70801406">
<ele>0</ele>
<time>2011-10-01T15:25:38Z</time>
</trkpt>
<trkpt lat="51.25815719" lon="6.70818999">
<ele>76.5</ele>
<time>2011-10-01T15:25:42Z</time>
</trkpt>
<trkpt lat="51.25818481" lon="6.70825403">
<ele>76.5</ele>
<time>2011-10-01T15:25:46Z</time>
</trkpt>
<trkpt lat="51.25818321" lon="6.70824121">
<ele>0</ele>
<time>2011-10-01T15:25:50Z</time>
</trkpt>
<trkpt lat="51.25817777" lon="6.70824355">
<ele>76.5</ele>
<time>2011-10-01T15:25:54Z</time>
</trkpt>
<trkpt lat="51.25818192" lon="6.70825982">
<ele>76.5</ele>
<time>2011-10-01T15:25:58Z</time>
</trkpt>
<trkpt lat="51.25818439" lon="6.70825864">
<ele>0</ele>
<time>2011-10-01T15:26:02Z</time>
</trkpt>
<trkpt lat="51.25819549" lon="6.70830583">
<ele>77.5</ele>
<time>2011-10-01T15:26:06Z</time>
</trkpt>
<trkpt lat="51.2581965" lon="6.7083096">
<ele>78</ele>
<time>2011-10-01T15:26:10Z</time>
</trkpt>
<trkpt lat="51.25819667" lon="6.70829913">
<ele>0</ele>
<time>2011-10-01T15:26:14Z</time>
</trkpt>
<trkpt lat="51.25819147" lon="6.70828488">
<ele>0</ele>
<time>2011-10-01T15:26:18Z</time>
</trkpt>
<trkpt lat="51.25819612" lon="6.70825537">
<ele>77.5</ele>
<time>2011-10-01T15:26:22Z</time>
</trkpt>
<trkpt lat="51.25819751" lon="6.70824624">
<ele>78.5</ele>
<time>2011-10-01T15:26:27Z</time>
</trkpt>
<trkpt lat="51.25818657" lon="6.7082288">
<ele>79</ele>
<time>2011-10-01T15:26:31Z</time>
</trkpt>
<trkpt lat="51.25814659" lon="6.70813409">
<ele>78.5</ele>
<time>2011-10-01T15:26:35Z</time>
</trkpt>
<trkpt lat="51.2580696" lon="6.70795438">
<ele>0</ele>
<time>2011-10-01T15:26:39Z</time>
</trkpt>
<trkpt lat="51.25798544" lon="6.70774944">
<ele>0</ele>
<time>2011-10-01T15:26:43Z</time>
</trkpt>
<trkpt lat="51.25790162" lon="6.70752455">
<ele>78</ele>
<time>2011-10-01T15:26:47Z</time>
</trkpt>
<trkpt lat="51.25779643" lon="6.70729766">
<ele>77.5</ele>
<time>2011-10-01T15:26:51Z</time>
</trkpt>
<trkpt lat="51.25772447" lon="6.7071213">
<ele>77.5</ele>
<time>2011-10-01T15:26:55Z</time>
</trkpt>
<trkpt lat="51.25764258" lon="6.70693128">
<ele>0</ele>
<time>2011-10-01T15:26:59Z</time>
</trkpt>
<trkpt lat="51.25758923" lon="6.70676842">
<ele>78</ele>
<time>2011-10-01T15:27:03Z</time>
</trkpt>
<trkpt lat="51.25752381" lon="6.70663171">
<ele>79</ele>
<time>2011-10-01T15:27:07Z</time>
</trkpt>
<trkpt lat="51.25743035" lon="6.706422">
<ele>76.5</ele>
<time>2011-10-01T15:27:11Z</time>
</trkpt>
<trkpt lat="51.2573314" lon="6.70621136">
<ele>75</ele>
<time>2011-10-01T15:27:15Z</time>
</trkpt>
<trkpt lat="51.25723137" lon="6.70596762">
<ele>74</ele>
<time>2011-10-01T15:27:19Z</time>
</trkpt>
<trkpt lat="51.2571359" lon="6.70573108">
<ele>73</ele>
<time>2011-10-01T15:27:23Z</time>
</trkpt>
<trkpt lat="51.25704583" lon="6.70551843">
<ele>72.5</ele>
<time>2011-10-01T15:27:27Z</time>
</trkpt>
<trkpt lat="51.25696901" lon="6.70535565">
<ele>0</ele>
<time>2011-10-01T15:27:31Z</time>
</trkpt>
<trkpt lat="51.25680209" lon="6.70534082">
<ele>0</ele>
<time>2011-10-01T15:27:35Z</time>
</trkpt>
<trkpt lat="51.25665075" lon="6.70550267">
<ele>73</ele>
<time>2011-10-01T15:27:39Z</time>
</trkpt>
<trkpt lat="51.25650072" lon="6.70566889">
<ele>73.5</ele>
<time>2011-10-01T15:27:43Z</time>
</trkpt>
<trkpt lat="51.25634904" lon="6.70582797">
<ele>0</ele>
<time>2011-10-01T15:27:47Z</time>
</trkpt>
<trkpt lat="51.25619662" lon="6.70599444">
<ele>0</ele>
<time>2011-10-01T15:27:51Z</time>
</trkpt>
<trkpt lat="51.25610434" lon="6.70622838">
<ele>73.5</ele>
<time>2011-10-01T15:27:55Z</time>
</trkpt>
<trkpt lat="51.25616452" lon="6.706508">
<ele>72.5</ele>
<time>2011-10-01T15:27:59Z</time>
</trkpt>
<trkpt lat="51.25622022" lon="6.70679768">
<ele>74</ele>
<time>2011-10-01T15:28:03Z</time>
</trkpt>
<trkpt lat="51.25619595" lon="6.70708442">
<ele>74</ele>
<time>2011-10-01T15:28:07Z</time>
</trkpt>
<trkpt lat="51.25610195" lon="6.70733848">
<ele>0</ele>
<time>2011-10-01T15:28:11Z</time>
</trkpt>
<trkpt lat="51.25597865" lon="6.70756001">
<ele>75</ele>
<time>2011-10-01T15:28:15Z</time>
</trkpt>
<trkpt lat="51.25588402" lon="6.70772932">
<ele>75</ele>
<time>2011-10-01T15:28:18Z</time>
</trkpt>
<trkpt lat="51.25574555" lon="6.70793443">
<ele>74.5</ele>
<time>2011-10-01T15:28:22Z</time>
</trkpt>
<trkpt lat="51.25561244" lon="6.70815546">
<ele>75</ele>
<time>2011-10-01T15:28:26Z</time>
</trkpt>
<trkpt lat="51.25547934" lon="6.70837062">
<ele>75</ele>
<time>2011-10-01T15:28:30Z</time>
</trkpt>
<trkpt lat="51.25535805" lon="6.70858537">
<ele>75.5</ele>
<time>2011-10-01T15:28:34Z</time>
</trkpt>
<trkpt lat="51.25523517" lon="6.70878855">
<ele>76</ele>
<time>2011-10-01T15:28:38Z</time>
</trkpt>
<trkpt lat="51.25510404" lon="6.70898166">
<ele>0</ele>
<time>2011-10-01T15:28:42Z</time>
</trkpt>
<trkpt lat="51.25495828" lon="6.70916406">
<ele>0</ele>
<time>2011-10-01T15:28:46Z</time>
</trkpt>
<trkpt lat="51.25479177" lon="6.70930118">
<ele>74.5</ele>
<time>2011-10-01T15:28:50Z</time>
</trkpt>
<trkpt lat="51.25460896" lon="6.70937612">
<ele>74</ele>
<time>2011-10-01T15:28:54Z</time>
</trkpt>
<trkpt lat="51.25442221" lon="6.70942373">
<ele>74</ele>
<time>2011-10-01T15:28:58Z</time>
</trkpt>
<trkpt lat="51.25423743" lon="6.70944317">
<ele>74.5</ele>
<time>2011-10-01T15:29:02Z</time>
</trkpt>
<trkpt lat="51.25407663" lon="6.70946622">
<ele>75.5</ele>
<time>2011-10-01T15:29:06Z</time>
</trkpt>
<trkpt lat="51.25397009" lon="6.70955457">
<ele>74.5</ele>
<time>2011-10-01T15:29:10Z</time>
</trkpt>
<trkpt lat="51.25395496" lon="6.70977568">
<ele>74</ele>
<time>2011-10-01T15:29:14Z</time>
</trkpt>
<trkpt lat="51.25395773" lon="6.7100786">
<ele>74</ele>
<time>2011-10-01T15:29:18Z</time>
</trkpt>
<trkpt lat="51.25396544" lon="6.7103889">
<ele>74</ele>
<time>2011-10-01T15:29:22Z</time>
</trkpt>
<trkpt lat="51.25396909" lon="6.71054447">
<ele>0</ele>
<time>2011-10-01T15:29:24Z</time>
</trkpt>
<trkpt lat="51.25396884" lon="6.71069845">
<ele>0</ele>
<time>2011-10-01T15:29:27Z</time>
</trkpt>
<trkpt lat="51.25397022" lon="6.71100338">
<ele>0</ele>
<time>2011-10-01T15:29:30Z</time>
</trkpt>
<trkpt lat="51.2539721" lon="6.7113037">
<ele>76</ele>
<time>2011-10-01T15:29:34Z</time>
</trkpt>
<trkpt lat="51.25397076" lon="6.71160394">
<ele>75.5</ele>
<time>2011-10-01T15:29:38Z</time>
</trkpt>
<trkpt lat="51.25396796" lon="6.71189957">
<ele>0</ele>
<time>2011-10-01T15:29:42Z</time>
</trkpt>
<trkpt lat="51.25396037" lon="6.71218841">
<ele>0</ele>
<time>2011-10-01T15:29:46Z</time>
</trkpt>
<trkpt lat="51.25396171" lon="6.71248337">
<ele>76</ele>
<time>2011-10-01T15:29:50Z</time>
</trkpt>
<trkpt lat="51.25396234" lon="6.71277272">
<ele>76</ele>
<time>2011-10-01T15:29:54Z</time>
</trkpt>
<trkpt lat="51.25396184" lon="6.71306206">
<ele>76.5</ele>
<time>2011-10-01T15:29:58Z</time>
</trkpt>
<trkpt lat="51.25395706" lon="6.71334906">
<ele>76.5</ele>
<time>2011-10-01T15:30:02Z</time>
</trkpt>
<trkpt lat="51.2539535" lon="6.71363312">
<ele>0</ele>
<time>2011-10-01T15:30:06Z</time>
</trkpt>
<trkpt lat="51.25395429" lon="6.71392238">
<ele>76.5</ele>
<time>2011-10-01T15:30:10Z</time>
</trkpt>
<trkpt lat="51.25394474" lon="6.7142134">
<ele>76.5</ele>
<time>2011-10-01T15:30:14Z</time>
</trkpt>
<trkpt lat="51.25393493" lon="6.71450509">
<ele>0</ele>
<time>2011-10-01T15:30:18Z</time>
</trkpt>
<trkpt lat="51.25393434" lon="6.71479334">
<ele>77</ele>
<time>2011-10-01T15:30:22Z</time>
</trkpt>
<trkpt lat="51.25393636" lon="6.71507799">
<ele>77.5</ele>
<time>2011-10-01T15:30:26Z</time>
</trkpt>
<trkpt lat="51.25393401" lon="6.71536457">
<ele>78</ele>
<time>2011-10-01T15:30:30Z</time>
</trkpt>
<trkpt lat="51.25392156" lon="6.7156514">
<ele>0</ele>
<time>2011-10-01T15:30:34Z</time>
</trkpt>
<trkpt lat="51.25390471" lon="6.71592347">
<ele>0</ele>
<time>2011-10-01T15:30:38Z</time>
</trkpt>
<trkpt lat="51.25387978" lon="6.71620871">
<ele>78</ele>
<time>2011-10-01T15:30:42Z</time>
</trkpt>
<trkpt lat="51.25384022" lon="6.7165025">
<ele>0</ele>
<time>2011-10-01T15:30:46Z</time>
</trkpt>
<trkpt lat="51.2537797" lon="6.71679955">
<ele>78</ele>
<time>2011-10-01T15:30:50Z</time>
</trkpt>
<trkpt lat="51.25369777" lon="6.71709468">
<ele>78.5</ele>
<time>2011-10-01T15:30:54Z</time>
</trkpt>
<trkpt lat="51.25359496" lon="6.71737212">
<ele>0</ele>
<time>2011-10-01T15:30:59Z</time>
</trkpt>
<trkpt lat="51.25344547" lon="6.71770421">
<ele>0</ele>
<time>2011-10-01T15:31:03Z</time>
</trkpt>
<trkpt lat="51.25332733" lon="6.71796589">
<ele>79</ele>
<time>2011-10-01T15:31:07Z</time>
</trkpt>
<trkpt lat="51.25320072" lon="6.7182145">
<ele>79</ele>
<time>2011-10-01T15:31:11Z</time>
</trkpt>
<trkpt lat="51.25307415" lon="6.7184595">
<ele>79</ele>
<time>2011-10-01T15:31:15Z</time>
</trkpt>
<trkpt lat="51.25295173" lon="6.71869704">
<ele>0</ele>
<time>2011-10-01T15:31:19Z</time>
</trkpt>
<trkpt lat="51.25282412" lon="6.71892445">
<ele>79.5</ele>
<time>2011-10-01T15:31:23Z</time>
</trkpt>
<trkpt lat="51.25269713" lon="6.71912201">
<ele>79.5</ele>
<time>2011-10-01T15:31:27Z</time>
</trkpt>
<trkpt lat="51.25261164" lon="6.71931127">
<ele>0</ele>
<time>2011-10-01T15:31:31Z</time>
</trkpt>
<trkpt lat="51.25253658" lon="6.71936156">
<ele>79.5</ele>
<time>2011-10-01T15:31:35Z</time>
</trkpt>
<trkpt lat="51.25238654" lon="6.71947564">
<ele>80</ele>
<time>2011-10-01T15:31:39Z</time>
</trkpt>
<trkpt lat="51.25221241" lon="6.7196069">
<ele>80.5</ele>
<time>2011-10-01T15:31:43Z</time>
</trkpt>
<trkpt lat="51.25202792" lon="6.71973322">
<ele>80.5</ele>
<time>2011-10-01T15:31:47Z</time>
</trkpt>
<trkpt lat="51.25183296" lon="6.7198654">
<ele>80.5</ele>
<time>2011-10-01T15:31:51Z</time>
</trkpt>
<trkpt lat="51.25163129" lon="6.71999037">
<ele>0</ele>
<time>2011-10-01T15:31:55Z</time>
</trkpt>
<trkpt lat="51.25143088" lon="6.72012666">
<ele>79.5</ele>
<time>2011-10-01T15:31:59Z</time>
</trkpt>
<trkpt lat="51.25123164" lon="6.72026454">
<ele>79.5</ele>
<time>2011-10-01T15:32:03Z</time>
</trkpt>
<trkpt lat="51.25103404" lon="6.72040804">
<ele>80</ele>
<time>2011-10-01T15:32:07Z</time>
</trkpt>
<trkpt lat="51.25085311" lon="6.7205683">
<ele>80</ele>
<time>2011-10-01T15:32:11Z</time>
</trkpt>
<trkpt lat="51.25068904" lon="6.72075354">
<ele>80</ele>
<time>2011-10-01T15:32:15Z</time>
</trkpt>
<trkpt lat="51.25053393" lon="6.72093786">
<ele>0</ele>
<time>2011-10-01T15:32:19Z</time>
</trkpt>
<trkpt lat="51.25039131" lon="6.7211376">
<ele>80</ele>
<time>2011-10-01T15:32:23Z</time>
</trkpt>
<trkpt lat="51.25025188" lon="6.72134355">
<ele>79</ele>
<time>2011-10-01T15:32:27Z</time>
</trkpt>
<trkpt lat="51.25012842" lon="6.72157036">
<ele>79</ele>
<time>2011-10-01T15:32:31Z</time>
</trkpt>
<trkpt lat="51.25000952" lon="6.72182048">
<ele>0</ele>
<time>2011-10-01T15:32:35Z</time>
</trkpt>
<trkpt lat="51.24990554" lon="6.72207772">
<ele>79.5</ele>
<time>2011-10-01T15:32:39Z</time>
</trkpt>
<trkpt lat="51.24981363" lon="6.72233362">
<ele>79</ele>
<time>2011-10-01T15:32:43Z</time>
</trkpt>
<trkpt lat="51.24973597" lon="6.7225611">
<ele>79</ele>
<time>2011-10-01T15:32:47Z</time>
</trkpt>
<trkpt lat="51.24972474" lon="6.72263947">
<ele>0</ele>
<time>2011-10-01T15:32:51Z</time>
</trkpt>
<trkpt lat="51.24972441" lon="6.72263461">
<ele>79.5</ele>
<time>2011-10-01T15:32:55Z</time>
</trkpt>
<trkpt lat="51.24972776" lon="6.72265573">
<ele>79</ele>
<time>2011-10-01T15:32:59Z</time>
</trkpt>
<trkpt lat="51.24967977" lon="6.72278532">
<ele>79.5</ele>
<time>2011-10-01T15:33:03Z</time>
</trkpt>
<trkpt lat="51.24960668" lon="6.72299637">
<ele>80</ele>
<time>2011-10-01T15:33:07Z</time>
</trkpt>
<trkpt lat="51.24953561" lon="6.7232371">
<ele>80</ele>
<time>2011-10-01T15:33:11Z</time>
</trkpt>
<trkpt lat="51.2494582" lon="6.72348931">
<ele>80</ele>
<time>2011-10-01T15:33:15Z</time>
</trkpt>
<trkpt lat="51.24937396" lon="6.72374245">
<ele>0</ele>
<time>2011-10-01T15:33:19Z</time>
</trkpt>
<trkpt lat="51.24928784" lon="6.72398879">
<ele>80</ele>
<time>2011-10-01T15:33:23Z</time>
</trkpt>
<trkpt lat="51.24920368" lon="6.72424276">
<ele>80.5</ele>
<time>2011-10-01T15:33:27Z</time>
</trkpt>
<trkpt lat="51.24912556" lon="6.72451375">
<ele>80.5</ele>
<time>2011-10-01T15:33:31Z</time>
</trkpt>
<trkpt lat="51.24904644" lon="6.724801">
<ele>79.5</ele>
<time>2011-10-01T15:33:35Z</time>
</trkpt>
<trkpt lat="51.24898718" lon="6.72509847">
<ele>78.5</ele>
<time>2011-10-01T15:33:39Z</time>
</trkpt>
<trkpt lat="51.24894523" lon="6.72540793">
<ele>78</ele>
<time>2011-10-01T15:33:43Z</time>
</trkpt>
<trkpt lat="51.24892033" lon="6.72570918">
<ele>78</ele>
<time>2011-10-01T15:33:47Z</time>
</trkpt>
<trkpt lat="51.24891493" lon="6.72602216">
<ele>0</ele>
<time>2011-10-01T15:33:51Z</time>
</trkpt>
<trkpt lat="51.24892444" lon="6.72637311">
<ele>77.5</ele>
<time>2011-10-01T15:33:55Z</time>
</trkpt>
<trkpt lat="51.24893538" lon="6.72672808">
<ele>77.5</ele>
<time>2011-10-01T15:34:00Z</time>
</trkpt>
<trkpt lat="51.24893969" lon="6.72716444">
<ele>77</ele>
<time>2011-10-01T15:34:04Z</time>
</trkpt>
<trkpt lat="51.24895202" lon="6.72749687">
<ele>0</ele>
<time>2011-10-01T15:34:08Z</time>
</trkpt>
<trkpt lat="51.24894661" lon="6.72781941">
<ele>0</ele>
<time>2011-10-01T15:34:12Z</time>
</trkpt>
<trkpt lat="51.2489363" lon="6.72813255">
<ele>77.5</ele>
<time>2011-10-01T15:34:16Z</time>
</trkpt>
<trkpt lat="51.24891304" lon="6.72844855">
<ele>0</ele>
<time>2011-10-01T15:34:20Z</time>
</trkpt>
<trkpt lat="51.24886954" lon="6.72875499">
<ele>0</ele>
<time>2011-10-01T15:34:24Z</time>
</trkpt>
<trkpt lat="51.24880848" lon="6.7290699">
<ele>77.5</ele>
<time>2011-10-01T15:34:28Z</time>
</trkpt>
<trkpt lat="51.24874456" lon="6.72937442">
<ele>0</ele>
<time>2011-10-01T15:34:32Z</time>
</trkpt>
<trkpt lat="51.24868182" lon="6.72967298">
<ele>77</ele>
<time>2011-10-01T15:34:36Z</time>
</trkpt>
<trkpt lat="51.2486304" lon="6.72995478">
<ele>77.5</ele>
<time>2011-10-01T15:34:40Z</time>
</trkpt>
<trkpt lat="51.24858166" lon="6.73023155">
<ele>0</ele>
<time>2011-10-01T15:34:44Z</time>
</trkpt>
<trkpt lat="51.24852332" lon="6.73050455">
<ele>0</ele>
<time>2011-10-01T15:34:48Z</time>
</trkpt>
<trkpt lat="51.24843653" lon="6.73076313">
<ele>77.5</ele>
<time>2011-10-01T15:34:52Z</time>
</trkpt>
<trkpt lat="51.24835154" lon="6.73102649">
<ele>0</ele>
<time>2011-10-01T15:34:56Z</time>
</trkpt>
<trkpt lat="51.24830782" lon="6.73120712">
<ele>78</ele>
<time>2011-10-01T15:35:00Z</time>
</trkpt>
<trkpt lat="51.24831792" lon="6.73125205">
<ele>78</ele>
<time>2011-10-01T15:35:04Z</time>
</trkpt>
<trkpt lat="51.24832664" lon="6.73126386">
<ele>78.5</ele>
<time>2011-10-01T15:35:08Z</time>
</trkpt>
<trkpt lat="51.24829751" lon="6.73134249">
<ele>78.5</ele>
<time>2011-10-01T15:35:12Z</time>
</trkpt>
<trkpt lat="51.24827656" lon="6.73143368">
<ele>78.5</ele>
<time>2011-10-01T15:35:16Z</time>
</trkpt>
<trkpt lat="51.24819823" lon="6.7316325">
<ele>0</ele>
<time>2011-10-01T15:35:20Z</time>
</trkpt>
<trkpt lat="51.24810863" lon="6.73185948">
<ele>78</ele>
<time>2011-10-01T15:35:24Z</time>
</trkpt>
<trkpt lat="51.24800721" lon="6.73211354">
<ele>0</ele>
<time>2011-10-01T15:35:28Z</time>
</trkpt>
<trkpt lat="51.24789816" lon="6.73237304">
<ele>0</ele>
<time>2011-10-01T15:35:32Z</time>
</trkpt>
<trkpt lat="51.24779435" lon="6.73262928">
<ele>78</ele>
<time>2011-10-01T15:35:36Z</time>
</trkpt>
<trkpt lat="51.24770341" lon="6.73288886">
<ele>0</ele>
<time>2011-10-01T15:35:40Z</time>
</trkpt>
<trkpt lat="51.24762277" lon="6.73316111">
<ele>0</ele>
<time>2011-10-01T15:35:44Z</time>
</trkpt>
<trkpt lat="51.24754771" lon="6.73344551">
<ele>78</ele>
<time>2011-10-01T15:35:48Z</time>
</trkpt>
<trkpt lat="51.24747353" lon="6.73372949">
<ele>78</ele>
<time>2011-10-01T15:35:52Z</time>
</trkpt>
<trkpt lat="51.24740107" lon="6.73400693">
<ele>78.5</ele>
<time>2011-10-01T15:35:56Z</time>
</trkpt>
<trkpt lat="51.24732706" lon="6.73429904">
<ele>0</ele>
<time>2011-10-01T15:36:00Z</time>
</trkpt>
<trkpt lat="51.24725162" lon="6.73459014">
<ele>0</ele>
<time>2011-10-01T15:36:04Z</time>
</trkpt>
<trkpt lat="51.24718251" lon="6.73487085">
<ele>79.5</ele>
<time>2011-10-01T15:36:08Z</time>
</trkpt>
<trkpt lat="51.24711495" lon="6.73515416">
<ele>79.5</ele>
<time>2011-10-01T15:36:12Z</time>
</trkpt>
<trkpt lat="51.24703943" lon="6.73543177">
<ele>0</ele>
<time>2011-10-01T15:36:16Z</time>
</trkpt>
<trkpt lat="51.24696986" lon="6.73571105">
<ele>78.5</ele>
<time>2011-10-01T15:36:20Z</time>
</trkpt>
<trkpt lat="51.2468964" lon="6.73599687">
<ele>79</ele>
<time>2011-10-01T15:36:24Z</time>
</trkpt>
<trkpt lat="51.24682293" lon="6.73628085">
<ele>78.5</ele>
<time>2011-10-01T15:36:28Z</time>
</trkpt>
<trkpt lat="51.24678554" lon="6.73658713">
<ele>79</ele>
<time>2011-10-01T15:36:32Z</time>
</trkpt>
<trkpt lat="51.24670231" lon="6.73687547">
<ele>79.5</ele>
<time>2011-10-01T15:36:36Z</time>
</trkpt>
<trkpt lat="51.24661745" lon="6.73715869">
<ele>79.5</ele>
<time>2011-10-01T15:36:40Z</time>
</trkpt>
<trkpt lat="51.24652336" lon="6.73742247">
<ele>79.5</ele>
<time>2011-10-01T15:36:44Z</time>
</trkpt>
<trkpt lat="51.24642651" lon="6.73768482">
<ele>0</ele>
<time>2011-10-01T15:36:48Z</time>
</trkpt>
<trkpt lat="51.24632697" lon="6.73796402">
<ele>79</ele>
<time>2011-10-01T15:36:52Z</time>
</trkpt>
<trkpt lat="51.24622396" lon="6.73823903">
<ele>79</ele>
<time>2011-10-01T15:36:56Z</time>
</trkpt>
<trkpt lat="51.24611336" lon="6.7385101">
<ele>0</ele>
<time>2011-10-01T15:37:01Z</time>
</trkpt>
<trkpt lat="51.2459689" lon="6.73884597">
<ele>79</ele>
<time>2011-10-01T15:37:05Z</time>
</trkpt>
<trkpt lat="51.24584417" lon="6.73910497">
<ele>79</ele>
<time>2011-10-01T15:37:09Z</time>
</trkpt>
<trkpt lat="51.24572595" lon="6.73935886">
<ele>0</ele>
<time>2011-10-01T15:37:13Z</time>
</trkpt>
<trkpt lat="51.24560357" lon="6.73960168">
<ele>79</ele>
<time>2011-10-01T15:37:17Z</time>
</trkpt>
<trkpt lat="51.24547445" lon="6.73982858">
<ele>0</ele>
<time>2011-10-01T15:37:21Z</time>
</trkpt>
<trkpt lat="51.24534432" lon="6.7400476">
<ele>0</ele>
<time>2011-10-01T15:37:25Z</time>
</trkpt>
<trkpt lat="51.24521641" lon="6.74027592">
<ele>79.5</ele>
<time>2011-10-01T15:37:29Z</time>
</trkpt>
<trkpt lat="51.24508817" lon="6.74048823">
<ele>80</ele>
<time>2011-10-01T15:37:33Z</time>
</trkpt>
<trkpt lat="51.24495678" lon="6.74069879">
<ele>79.5</ele>
<time>2011-10-01T15:37:37Z</time>
</trkpt>
<trkpt lat="51.24482447" lon="6.74090062">
<ele>80</ele>
<time>2011-10-01T15:37:41Z</time>
</trkpt>
<trkpt lat="51.24468558" lon="6.74109299">
<ele>79.5</ele>
<time>2011-10-01T15:37:45Z</time>
</trkpt>
<trkpt lat="51.24456736" lon="6.74126004">
<ele>83</ele>
<time>2011-10-01T15:37:49Z</time>
</trkpt>
<trkpt lat="51.24444347" lon="6.74141871">
<ele>85</ele>
<time>2011-10-01T15:37:53Z</time>
</trkpt>
<trkpt lat="51.24430345" lon="6.74157746">
<ele>87</ele>
<time>2011-10-01T15:37:57Z</time>
</trkpt>
<trkpt lat="51.24416297" lon="6.74173152">
<ele>89</ele>
<time>2011-10-01T15:38:01Z</time>
</trkpt>
<trkpt lat="51.24402124" lon="6.74188072">
<ele>89.5</ele>
<time>2011-10-01T15:38:05Z</time>
</trkpt>
<trkpt lat="51.24387698" lon="6.74202296">
<ele>92</ele>
<time>2011-10-01T15:38:09Z</time>
</trkpt>
<trkpt lat="51.24372917" lon="6.74217107">
<ele>92.5</ele>
<time>2011-10-01T15:38:13Z</time>
</trkpt>
<trkpt lat="51.24354891" lon="6.7422724">
<ele>100.5</ele>
<time>2011-10-01T15:38:17Z</time>
</trkpt>
<trkpt lat="51.24340303" lon="6.74241607">
<ele>101</ele>
<time>2011-10-01T15:38:21Z</time>
</trkpt>
<trkpt lat="51.24325429" lon="6.74254607">
<ele>102.5</ele>
<time>2011-10-01T15:38:25Z</time>
</trkpt>
<trkpt lat="51.24311804" lon="6.74267842">
<ele>102.5</ele>
<time>2011-10-01T15:38:29Z</time>
</trkpt>
<trkpt lat="51.24301901" lon="6.7427723">
<ele>102.5</ele>
<time>2011-10-01T15:38:32Z</time>
</trkpt>
<trkpt lat="51.24287706" lon="6.74288278">
<ele>103</ele>
<time>2011-10-01T15:38:36Z</time>
</trkpt>
<trkpt lat="51.24274094" lon="6.74300465">
<ele>101.5</ele>
<time>2011-10-01T15:38:40Z</time>
</trkpt>
<trkpt lat="51.24260394" lon="6.74312677">
<ele>100.5</ele>
<time>2011-10-01T15:38:44Z</time>
</trkpt>
<trkpt lat="51.24246752" lon="6.7432359">
<ele>99</ele>
<time>2011-10-01T15:38:48Z</time>
</trkpt>
<trkpt lat="51.2423353" lon="6.74333967">
<ele>97.5</ele>
<time>2011-10-01T15:38:52Z</time>
</trkpt>
<trkpt lat="51.24219599" lon="6.74343875">
<ele>96.5</ele>
<time>2011-10-01T15:38:56Z</time>
</trkpt>
<trkpt lat="51.24205254" lon="6.74353832">
<ele>95</ele>
<time>2011-10-01T15:39:00Z</time>
</trkpt>
<trkpt lat="51.24191528" lon="6.74363388">
<ele>93.5</ele>
<time>2011-10-01T15:39:04Z</time>
</trkpt>
<trkpt lat="51.24176763" lon="6.74372541">
<ele>93</ele>
<time>2011-10-01T15:39:08Z</time>
</trkpt>
<trkpt lat="51.24162246" lon="6.7438068">
<ele>92.5</ele>
<time>2011-10-01T15:39:12Z</time>
</trkpt>
<trkpt lat="51.24148014" lon="6.74388349">
<ele>91</ele>
<time>2011-10-01T15:39:16Z</time>
</trkpt>
<trkpt lat="51.24133203" lon="6.74395608">
<ele>90.5</ele>
<time>2011-10-01T15:39:20Z</time>
</trkpt>
<trkpt lat="51.24119532" lon="6.74407485">
<ele>90</ele>
<time>2011-10-01T15:39:24Z</time>
</trkpt>
<trkpt lat="51.24110417" lon="6.74406437">
<ele>90</ele>
<time>2011-10-01T15:39:28Z</time>
</trkpt>
<trkpt lat="51.24096498" lon="6.74408097">
<ele>89.5</ele>
<time>2011-10-01T15:39:32Z</time>
</trkpt>
<trkpt lat="51.24081289" lon="6.74413579">
<ele>90</ele>
<time>2011-10-01T15:39:36Z</time>
</trkpt>
<trkpt lat="51.24068683" lon="6.7441777">
<ele>89.5</ele>
<time>2011-10-01T15:39:40Z</time>
</trkpt>
<trkpt lat="51.24061001" lon="6.74420276">
<ele>88.5</ele>
<time>2011-10-01T15:39:44Z</time>
</trkpt>
<trkpt lat="51.24059258" lon="6.74421349">
<ele>88</ele>
<time>2011-10-01T15:39:48Z</time>
</trkpt>
<trkpt lat="51.24059312" lon="6.7442041">
<ele>87</ele>
<time>2011-10-01T15:39:52Z</time>
</trkpt>
<trkpt lat="51.24060213" lon="6.74419136">
<ele>85</ele>
<time>2011-10-01T15:39:56Z</time>
</trkpt>
<trkpt lat="51.24061014" lon="6.74418943">
<ele>85</ele>
<time>2011-10-01T15:40:00Z</time>
</trkpt>
<trkpt lat="51.24061127" lon="6.7441901">
<ele>85</ele>
<time>2011-10-01T15:40:05Z</time>
</trkpt>
<trkpt lat="51.24061072" lon="6.74417744">
<ele>86</ele>
<time>2011-10-01T15:40:09Z</time>
</trkpt>
<trkpt lat="51.24061374" lon="6.7441808">
<ele>87.5</ele>
<time>2011-10-01T15:40:13Z</time>
</trkpt>
<trkpt lat="51.2406106" lon="6.74418624">
<ele>88.5</ele>
<time>2011-10-01T15:40:17Z</time>
</trkpt>
<trkpt lat="51.24055557" lon="6.74420393">
<ele>87.5</ele>
<time>2011-10-01T15:40:21Z</time>
</trkpt>
<trkpt lat="51.24050666" lon="6.744231">
<ele>86.5</ele>
<time>2011-10-01T15:40:25Z</time>
</trkpt>
<trkpt lat="51.24049861" lon="6.74423411">
<ele>86.5</ele>
<time>2011-10-01T15:40:29Z</time>
</trkpt>
<trkpt lat="51.24049354" lon="6.74424324">
<ele>0</ele>
<time>2011-10-01T15:40:33Z</time>
</trkpt>
<trkpt lat="51.24048411" lon="6.74425137">
<ele>87.5</ele>
<time>2011-10-01T15:40:37Z</time>
</trkpt>
<trkpt lat="51.24047473" lon="6.74427928">
<ele>88</ele>
<time>2011-10-01T15:40:41Z</time>
</trkpt>
<trkpt lat="51.24042699" lon="6.74440828">
<ele>87.5</ele>
<time>2011-10-01T15:40:45Z</time>
</trkpt>
<trkpt lat="51.2404681" lon="6.74462512">
<ele>85</ele>
<time>2011-10-01T15:40:49Z</time>
</trkpt>
<trkpt lat="51.24047276" lon="6.74490483">
<ele>84.5</ele>
<time>2011-10-01T15:40:53Z</time>
</trkpt>
<trkpt lat="51.24047054" lon="6.74521705">
<ele>84</ele>
<time>2011-10-01T15:40:57Z</time>
</trkpt>
<trkpt lat="51.24046513" lon="6.74553037">
<ele>83</ele>
<time>2011-10-01T15:41:01Z</time>
</trkpt>
<trkpt lat="51.24046069" lon="6.74584419">
<ele>81.5</ele>
<time>2011-10-01T15:41:05Z</time>
</trkpt>
<trkpt lat="51.2404601" lon="6.74616219">
<ele>82</ele>
<time>2011-10-01T15:41:09Z</time>
</trkpt>
<trkpt lat="51.24045235" lon="6.74645606">
<ele>81.5</ele>
<time>2011-10-01T15:41:13Z</time>
</trkpt>
<trkpt lat="51.24045725" lon="6.74662856">
<ele>79</ele>
<time>2011-10-01T15:41:17Z</time>
</trkpt>
<trkpt lat="51.24045595" lon="6.74664239">
<ele>79</ele>
<time>2011-10-01T15:41:21Z</time>
</trkpt>
<trkpt lat="51.24045805" lon="6.74664851">
<ele>0</ele>
<time>2011-10-01T15:41:25Z</time>
</trkpt>
<trkpt lat="51.24045624" lon="6.74666276">
<ele>80</ele>
<time>2011-10-01T15:41:29Z</time>
</trkpt>
<trkpt lat="51.24045691" lon="6.74665472">
<ele>81.5</ele>
<time>2011-10-01T15:41:34Z</time>
</trkpt>
<trkpt lat="51.24046551" lon="6.74665212">
<ele>82.5</ele>
<time>2011-10-01T15:41:38Z</time>
</trkpt>
<trkpt lat="51.24046525" lon="6.74666209">
<ele>83.5</ele>
<time>2011-10-01T15:41:42Z</time>
</trkpt>
<trkpt lat="51.24046773" lon="6.74666888">
<ele>84</ele>
<time>2011-10-01T15:41:46Z</time>
</trkpt>
<trkpt lat="51.24046701" lon="6.74667626">
<ele>0</ele>
<time>2011-10-01T15:41:50Z</time>
</trkpt>
<trkpt lat="51.24046655" lon="6.7466802">
<ele>0</ele>
<time>2011-10-01T15:41:54Z</time>
</trkpt>
<trkpt lat="51.2404614" lon="6.74667349">
<ele>83</ele>
<time>2011-10-01T15:41:58Z</time>
</trkpt>
<trkpt lat="51.24046002" lon="6.74667031">
<ele>83</ele>
<time>2011-10-01T15:42:02Z</time>
</trkpt>
<trkpt lat="51.24046366" lon="6.74667366">
<ele>0</ele>
<time>2011-10-01T15:42:06Z</time>
</trkpt>
<trkpt lat="51.24046274" lon="6.74667701">
<ele>83.5</ele>
<time>2011-10-01T15:42:10Z</time>
</trkpt>
<trkpt lat="51.2404671" lon="6.74667986">
<ele>84</ele>
<time>2011-10-01T15:42:14Z</time>
</trkpt>
<trkpt lat="51.24046844" lon="6.74667701">
<ele>84.5</ele>
<time>2011-10-01T15:42:18Z</time>
</trkpt>
<trkpt lat="51.24046978" lon="6.7466807">
<ele>0</ele>
<time>2011-10-01T15:42:22Z</time>
</trkpt>
<trkpt lat="51.24059224" lon="6.74675228">
<ele>0</ele>
<time>2011-10-01T15:42:26Z</time>
</trkpt>
<trkpt lat="51.2406357" lon="6.74698429">
<ele>84.5</ele>
<time>2011-10-01T15:42:30Z</time>
</trkpt>
<trkpt lat="51.24068415" lon="6.74725561">
<ele>84</ele>
<time>2011-10-01T15:42:34Z</time>
</trkpt>
<trkpt lat="51.24074249" lon="6.74754705">
<ele>0</ele>
<time>2011-10-01T15:42:38Z</time>
</trkpt>
<trkpt lat="51.24080661" lon="6.74784486">
<ele>0</ele>
<time>2011-10-01T15:42:42Z</time>
</trkpt>
<trkpt lat="51.24087685" lon="6.74813923">
<ele>83.5</ele>
<time>2011-10-01T15:42:46Z</time>
</trkpt>
<trkpt lat="51.24095669" lon="6.74842313">
<ele>0</ele>
<time>2011-10-01T15:42:50Z</time>
</trkpt>
<trkpt lat="51.24104461" lon="6.74868515">
<ele>0</ele>
<time>2011-10-01T15:42:54Z</time>
</trkpt>
<trkpt lat="51.24112793" lon="6.74895002">
<ele>85</ele>
<time>2011-10-01T15:42:58Z</time>
</trkpt>
<trkpt lat="51.24121179" lon="6.74919594">
<ele>86</ele>
<time>2011-10-01T15:43:02Z</time>
</trkpt>
<trkpt lat="51.24130412" lon="6.74944505">
<ele>86.5</ele>
<time>2011-10-01T15:43:06Z</time>
</trkpt>
<trkpt lat="51.24140516" lon="6.74968469">
<ele>0</ele>
<time>2011-10-01T15:43:10Z</time>
</trkpt>
<trkpt lat="51.24150088" lon="6.7498991">
<ele>0</ele>
<time>2011-10-01T15:43:14Z</time>
</trkpt>
<trkpt lat="51.24159828" lon="6.75012231">
<ele>86</ele>
<time>2011-10-01T15:43:18Z</time>
</trkpt>
<trkpt lat="51.24169241" lon="6.7503544">
<ele>0</ele>
<time>2011-10-01T15:43:22Z</time>
</trkpt>
<trkpt lat="51.24180837" lon="6.75055683">
<ele>86.5</ele>
<time>2011-10-01T15:43:26Z</time>
</trkpt>
<trkpt lat="51.24191905" lon="6.75076076">
<ele>86</ele>
<time>2011-10-01T15:43:30Z</time>
</trkpt>
<trkpt lat="51.24204981" lon="6.75094114">
<ele>86.5</ele>
<time>2011-10-01T15:43:34Z</time>
</trkpt>
<trkpt lat="51.24218514" lon="6.75114281">
<ele>85.5</ele>
<time>2011-10-01T15:43:38Z</time>
</trkpt>
<trkpt lat="51.24231703" lon="6.75137968">
<ele>85.5</ele>
<time>2011-10-01T15:43:42Z</time>
</trkpt>
<trkpt lat="51.24245042" lon="6.75161974">
<ele>0</ele>
<time>2011-10-01T15:43:46Z</time>
</trkpt>
<trkpt lat="51.24257481" lon="6.75183205">
<ele>85.5</ele>
<time>2011-10-01T15:43:50Z</time>
</trkpt>
<trkpt lat="51.24270465" lon="6.75204411">
<ele>0</ele>
<time>2011-10-01T15:43:54Z</time>
</trkpt>
<trkpt lat="51.24283436" lon="6.75226053">
<ele>0</ele>
<time>2011-10-01T15:43:58Z</time>
</trkpt>
<trkpt lat="51.24297157" lon="6.75248969">
<ele>86.5</ele>
<time>2011-10-01T15:44:02Z</time>
</trkpt>
<trkpt lat="51.24310639" lon="6.75272564">
<ele>86.5</ele>
<time>2011-10-01T15:44:06Z</time>
</trkpt>
<trkpt lat="51.24323853" lon="6.75296092">
<ele>0</ele>
<time>2011-10-01T15:44:10Z</time>
</trkpt>
<trkpt lat="51.24336665" lon="6.7531962">
<ele>87</ele>
<time>2011-10-01T15:44:14Z</time>
</trkpt>
<trkpt lat="51.24349481" lon="6.75342369">
<ele>87.5</ele>
<time>2011-10-01T15:44:18Z</time>
</trkpt>
<trkpt lat="51.24362087" lon="6.75365151">
<ele>87.5</ele>
<time>2011-10-01T15:44:22Z</time>
</trkpt>
<trkpt lat="51.24375079" lon="6.75387254">
<ele>0</ele>
<time>2011-10-01T15:44:26Z</time>
</trkpt>
<trkpt lat="51.24387933" lon="6.75410061">
<ele>87.5</ele>
<time>2011-10-01T15:44:30Z</time>
</trkpt>
<trkpt lat="51.24401172" lon="6.75432474">
<ele>0</ele>
<time>2011-10-01T15:44:34Z</time>
</trkpt>
<trkpt lat="51.24414566" lon="6.75455198">
<ele>0</ele>
<time>2011-10-01T15:44:38Z</time>
</trkpt>
<trkpt lat="51.2442825" lon="6.75478659">
<ele>88</ele>
<time>2011-10-01T15:44:42Z</time>
</trkpt>
<trkpt lat="51.24441581" lon="6.7550227">
<ele>0</ele>
<time>2011-10-01T15:44:46Z</time>
</trkpt>
<trkpt lat="51.24454468" lon="6.75525488">
<ele>0</ele>
<time>2011-10-01T15:44:50Z</time>
</trkpt>
<trkpt lat="51.24467884" lon="6.75547508">
<ele>89</ele>
<time>2011-10-01T15:44:54Z</time>
</trkpt>
<trkpt lat="51.24480519" lon="6.7556982">
<ele>88.5</ele>
<time>2011-10-01T15:44:58Z</time>
</trkpt>
<trkpt lat="51.24493143" lon="6.75591161">
<ele>88.5</ele>
<time>2011-10-01T15:45:02Z</time>
</trkpt>
<trkpt lat="51.245059" lon="6.75613842">
<ele>0</ele>
<time>2011-10-01T15:45:06Z</time>
</trkpt>
<trkpt lat="51.24519051" lon="6.75635534">
<ele>89</ele>
<time>2011-10-01T15:45:10Z</time>
</trkpt>
<trkpt lat="51.2453286" lon="6.75658819">
<ele>0</ele>
<time>2011-10-01T15:45:14Z</time>
</trkpt>
<trkpt lat="51.2454615" lon="6.75682565">
<ele>0</ele>
<time>2011-10-01T15:45:18Z</time>
</trkpt>
<trkpt lat="51.24559951" lon="6.75707116">
<ele>90</ele>
<time>2011-10-01T15:45:22Z</time>
</trkpt>
<trkpt lat="51.2457438" lon="6.75731113">
<ele>90.5</ele>
<time>2011-10-01T15:45:26Z</time>
</trkpt>
<trkpt lat="51.24588042" lon="6.75755387">
<ele>91</ele>
<time>2011-10-01T15:45:30Z</time>
</trkpt>
<trkpt lat="51.24601324" lon="6.75778857">
<ele>90.5</ele>
<time>2011-10-01T15:45:34Z</time>
</trkpt>
<trkpt lat="51.24614119" lon="6.75801639">
<ele>90</ele>
<time>2011-10-01T15:45:38Z</time>
</trkpt>
<trkpt lat="51.24626817" lon="6.758238">
<ele>0</ele>
<time>2011-10-01T15:45:42Z</time>
</trkpt>
<trkpt lat="51.24639034" lon="6.75845761">
<ele>0</ele>
<time>2011-10-01T15:45:46Z</time>
</trkpt>
<trkpt lat="51.24651728" lon="6.75868023">
<ele>89.5</ele>
<time>2011-10-01T15:45:50Z</time>
</trkpt>
<trkpt lat="51.24665273" lon="6.75890914">
<ele>89</ele>
<time>2011-10-01T15:45:54Z</time>
</trkpt>
<trkpt lat="51.24678358" lon="6.75914752">
<ele>89</ele>
<time>2011-10-01T15:45:58Z</time>
</trkpt>
<trkpt lat="51.24691157" lon="6.75938406">
<ele>89</ele>
<time>2011-10-01T15:46:02Z</time>
</trkpt>
<trkpt lat="51.24705372" lon="6.75964457">
<ele>90</ele>
<time>2011-10-01T15:46:07Z</time>
</trkpt>
<trkpt lat="51.24713344" lon="6.75980123">
<ele>90</ele>
<time>2011-10-01T15:46:11Z</time>
</trkpt>
<trkpt lat="51.24724353" lon="6.75999099">
<ele>0</ele>
<time>2011-10-01T15:46:15Z</time>
</trkpt>
<trkpt lat="51.24738586" lon="6.7601956">
<ele>90</ele>
<time>2011-10-01T15:46:19Z</time>
</trkpt>
<trkpt lat="51.24752533" lon="6.76043767">
<ele>90</ele>
<time>2011-10-01T15:46:23Z</time>
</trkpt>
<trkpt lat="51.24766497" lon="6.76068217">
<ele>90</ele>
<time>2011-10-01T15:46:27Z</time>
</trkpt>
<trkpt lat="51.24780902" lon="6.76092633">
<ele>0</ele>
<time>2011-10-01T15:46:31Z</time>
</trkpt>
<trkpt lat="51.24795004" lon="6.7611705">
<ele>89.5</ele>
<time>2011-10-01T15:46:35Z</time>
</trkpt>
<trkpt lat="51.24808855" lon="6.7614103">
<ele>0</ele>
<time>2011-10-01T15:46:39Z</time>
</trkpt>
<trkpt lat="51.2482357" lon="6.76165933">
<ele>0</ele>
<time>2011-10-01T15:46:43Z</time>
</trkpt>
<trkpt lat="51.24837848" lon="6.76190869">
<ele>89</ele>
<time>2011-10-01T15:46:47Z</time>
</trkpt>
<trkpt lat="51.24852969" lon="6.76216375">
<ele>0</ele>
<time>2011-10-01T15:46:51Z</time>
</trkpt>
<trkpt lat="51.24868254" lon="6.76242736">
<ele>0</ele>
<time>2011-10-01T15:46:55Z</time>
</trkpt>
<trkpt lat="51.24883354" lon="6.76270304">
<ele>88.5</ele>
<time>2011-10-01T15:46:59Z</time>
</trkpt>
<trkpt lat="51.24898735" lon="6.7629856">
<ele>0</ele>
<time>2011-10-01T15:47:03Z</time>
</trkpt>
<trkpt lat="51.24914241" lon="6.76328349">
<ele>88.5</ele>
<time>2011-10-01T15:47:07Z</time>
</trkpt>
<trkpt lat="51.24929408" lon="6.7635766">
<ele>89</ele>
<time>2011-10-01T15:47:11Z</time>
</trkpt>
<trkpt lat="51.2494499" lon="6.76387173">
<ele>88.5</ele>
<time>2011-10-01T15:47:15Z</time>
</trkpt>
<trkpt lat="51.24960333" lon="6.76417097">
<ele>88.5</ele>
<time>2011-10-01T15:47:19Z</time>
</trkpt>
<trkpt lat="51.24975697" lon="6.76447674">
<ele>88.5</ele>
<time>2011-10-01T15:47:23Z</time>
</trkpt>
<trkpt lat="51.24990646" lon="6.76479181">
<ele>0</ele>
<time>2011-10-01T15:47:27Z</time>
</trkpt>
<trkpt lat="51.25005147" lon="6.76511183">
<ele>88.5</ele>
<time>2011-10-01T15:47:31Z</time>
</trkpt>
<trkpt lat="51.25018545" lon="6.76543051">
<ele>89</ele>
<time>2011-10-01T15:47:36Z</time>
</trkpt>
<trkpt lat="51.25030812" lon="6.76578725">
<ele>88.5</ele>
<time>2011-10-01T15:47:40Z</time>
</trkpt>
<trkpt lat="51.25044944" lon="6.7660413">
<ele>88</ele>
<time>2011-10-01T15:47:44Z</time>
</trkpt>
<trkpt lat="51.25060727" lon="6.7663164">
<ele>0</ele>
<time>2011-10-01T15:47:48Z</time>
</trkpt>
<trkpt lat="51.25076339" lon="6.76663818">
<ele>0</ele>
<time>2011-10-01T15:47:52Z</time>
</trkpt>
<trkpt lat="51.25093195" lon="6.76697086">
<ele>87</ele>
<time>2011-10-01T15:47:56Z</time>
</trkpt>
<trkpt lat="51.25109896" lon="6.76733715">
<ele>0</ele>
<time>2011-10-01T15:48:00Z</time>
</trkpt>
<trkpt lat="51.25126119" lon="6.76774367">
<ele>85.5</ele>
<time>2011-10-01T15:48:04Z</time>
</trkpt>
<trkpt lat="51.25142074" lon="6.76812965">
<ele>84.5</ele>
<time>2011-10-01T15:48:08Z</time>
</trkpt>
<trkpt lat="51.25151914" lon="6.76835672">
<ele>84</ele>
<time>2011-10-01T15:48:12Z</time>
</trkpt>
<trkpt lat="51.25152342" lon="6.76840466">
<ele>84</ele>
<time>2011-10-01T15:48:16Z</time>
</trkpt>
<trkpt lat="51.25152174" lon="6.7684133">
<ele>85</ele>
<time>2011-10-01T15:48:20Z</time>
</trkpt>
<trkpt lat="51.25152291" lon="6.7685195">
<ele>0</ele>
<time>2011-10-01T15:48:24Z</time>
</trkpt>
<trkpt lat="51.25161277" lon="6.76873709">
<ele>0</ele>
<time>2011-10-01T15:48:28Z</time>
</trkpt>
<trkpt lat="51.25173221" lon="6.76895234">
<ele>84</ele>
<time>2011-10-01T15:48:32Z</time>
</trkpt>
<trkpt lat="51.25185085" lon="6.7691406">
<ele>84</ele>
<time>2011-10-01T15:48:36Z</time>
</trkpt>
<trkpt lat="51.25195269" lon="6.76935433">
<ele>0</ele>
<time>2011-10-01T15:48:40Z</time>
</trkpt>
<trkpt lat="51.25204909" lon="6.76956807">
<ele>83.5</ele>
<time>2011-10-01T15:48:44Z</time>
</trkpt>
<trkpt lat="51.25215654" lon="6.76976304">
<ele>84.5</ele>
<time>2011-10-01T15:48:48Z</time>
</trkpt>
<trkpt lat="51.25225436" lon="6.76995389">
<ele>84</ele>
<time>2011-10-01T15:48:52Z</time>
</trkpt>
<trkpt lat="51.25230704" lon="6.77020459">
<ele>84</ele>
<time>2011-10-01T15:48:56Z</time>
</trkpt>
<trkpt lat="51.25236098" lon="6.77045999">
<ele>83.5</ele>
<time>2011-10-01T15:49:00Z</time>
</trkpt>
<trkpt lat="51.25237305" lon="6.77073332">
<ele>83.5</ele>
<time>2011-10-01T15:49:04Z</time>
</trkpt>
<trkpt lat="51.25236106" lon="6.77100834">
<ele>84</ele>
<time>2011-10-01T15:49:08Z</time>
</trkpt>
<trkpt lat="51.25230172" lon="6.77119701">
<ele>84</ele>
<time>2011-10-01T15:49:12Z</time>
</trkpt>
<trkpt lat="51.25230817" lon="6.77125845">
<ele>83</ele>
<time>2011-10-01T15:49:16Z</time>
</trkpt>
<trkpt lat="51.25231052" lon="6.77125929">
<ele>83.5</ele>
<time>2011-10-01T15:49:20Z</time>
</trkpt>
<trkpt lat="51.25231211" lon="6.7712639">
<ele>83.5</ele>
<time>2011-10-01T15:49:24Z</time>
</trkpt>
<trkpt lat="51.25229459" lon="6.77125912">
<ele>82.5</ele>
<time>2011-10-01T15:49:28Z</time>
</trkpt>
<trkpt lat="51.2522904" lon="6.77126306">
<ele>0</ele>
<time>2011-10-01T15:49:32Z</time>
</trkpt>
<trkpt lat="51.25228852" lon="6.77126801">
<ele>0</ele>
<time>2011-10-01T15:49:36Z</time>
</trkpt>
<trkpt lat="51.25229086" lon="6.77127387">
<ele>83.5</ele>
<time>2011-10-01T15:49:40Z</time>
</trkpt>
<trkpt lat="51.25235079" lon="6.77133179">
<ele>0</ele>
<time>2011-10-01T15:49:44Z</time>
</trkpt>
<trkpt lat="51.25243591" lon="6.77138125">
<ele>0</ele>
<time>2011-10-01T15:49:48Z</time>
</trkpt>
<trkpt lat="51.25254039" lon="6.77136289">
<ele>87.5</ele>
<time>2011-10-01T15:49:52Z</time>
</trkpt>
<trkpt lat="51.25260791" lon="6.77137655">
<ele>87.5</ele>
<time>2011-10-01T15:49:56Z</time>
</trkpt>
<trkpt lat="51.25262647" lon="6.77141067">
<ele>87.5</ele>
<time>2011-10-01T15:50:00Z</time>
</trkpt>
<trkpt lat="51.25263108" lon="6.7714198">
<ele>0</ele>
<time>2011-10-01T15:50:04Z</time>
</trkpt>
<trkpt lat="51.25262191" lon="6.77143615">
<ele>87</ele>
<time>2011-10-01T15:50:08Z</time>
</trkpt>
<trkpt lat="51.25263783" lon="6.77143791">
<ele>87.5</ele>
<time>2011-10-01T15:50:12Z</time>
</trkpt>
<trkpt lat="51.25266382" lon="6.77146372">
<ele>87</ele>
<time>2011-10-01T15:50:16Z</time>
</trkpt>
<trkpt lat="51.25267278" lon="6.77149482">
<ele>87</ele>
<time>2011-10-01T15:50:20Z</time>
</trkpt>
<trkpt lat="51.25272018" lon="6.77160203">
<ele>0</ele>
<time>2011-10-01T15:50:24Z</time>
</trkpt>
<trkpt lat="51.25279436" lon="6.77179364">
<ele>87</ele>
<time>2011-10-01T15:50:28Z</time>
</trkpt>
<trkpt lat="51.2528804" lon="6.77202665">
<ele>87</ele>
<time>2011-10-01T15:50:32Z</time>
</trkpt>
<trkpt lat="51.25295722" lon="6.77225456">
<ele>88</ele>
<time>2011-10-01T15:50:37Z</time>
</trkpt>
<trkpt lat="51.25299536" lon="6.77258497">
<ele>87</ele>
<time>2011-10-01T15:50:41Z</time>
</trkpt>
<trkpt lat="51.25306489" lon="6.7728604">
<ele>86</ele>
<time>2011-10-01T15:50:45Z</time>
</trkpt>
<trkpt lat="51.25313635" lon="6.77315519">
<ele>86</ele>
<time>2011-10-01T15:50:49Z</time>
</trkpt>
<trkpt lat="51.25320487" lon="6.7734188">
<ele>0</ele>
<time>2011-10-01T15:50:53Z</time>
</trkpt>
<trkpt lat="51.2532516" lon="6.77369985">
<ele>86.5</ele>
<time>2011-10-01T15:50:57Z</time>
</trkpt>
<trkpt lat="51.2532933" lon="6.77398768">
<ele>86.5</ele>
<time>2011-10-01T15:51:01Z</time>
</trkpt>
<trkpt lat="51.25330776" lon="6.77428725">
<ele>0</ele>
<time>2011-10-01T15:51:05Z</time>
</trkpt>
<trkpt lat="51.25333403" lon="6.77458481">
<ele>0</ele>
<time>2011-10-01T15:51:09Z</time>
</trkpt>
<trkpt lat="51.2533549" lon="6.77488572">
<ele>87</ele>
<time>2011-10-01T15:51:13Z</time>
</trkpt>
<trkpt lat="51.25337992" lon="6.7751878">
<ele>86.5</ele>
<time>2011-10-01T15:51:17Z</time>
</trkpt>
<trkpt lat="51.25339183" lon="6.77550305">
<ele>0</ele>
<time>2011-10-01T15:51:21Z</time>
</trkpt>
<trkpt lat="51.25339036" lon="6.77582525">
<ele>0</ele>
<time>2011-10-01T15:51:25Z</time>
</trkpt>
<trkpt lat="51.25341643" lon="6.77613873">
<ele>87.5</ele>
<time>2011-10-01T15:51:29Z</time>
</trkpt>
<trkpt lat="51.25344065" lon="6.77645196">
<ele>87.5</ele>
<time>2011-10-01T15:51:33Z</time>
</trkpt>
<trkpt lat="51.25346831" lon="6.77677098">
<ele>0</ele>
<time>2011-10-01T15:51:37Z</time>
</trkpt>
<trkpt lat="51.25350121" lon="6.77708832">
<ele>87.5</ele>
<time>2011-10-01T15:51:41Z</time>
</trkpt>
<trkpt lat="51.25352736" lon="6.77740641">
<ele>89</ele>
<time>2011-10-01T15:51:45Z</time>
</trkpt>
<trkpt lat="51.25355791" lon="6.77772341">
<ele>89</ele>
<time>2011-10-01T15:51:49Z</time>
</trkpt>
<trkpt lat="51.25357828" lon="6.77803547">
<ele>89</ele>
<time>2011-10-01T15:51:53Z</time>
</trkpt>
<trkpt lat="51.25360246" lon="6.77834351">
<ele>89.5</ele>
<time>2011-10-01T15:51:57Z</time>
</trkpt>
<trkpt lat="51.25362702" lon="6.77865104">
<ele>89.5</ele>
<time>2011-10-01T15:52:01Z</time>
</trkpt>
<trkpt lat="51.25364819" lon="6.77895882">
<ele>89.5</ele>
<time>2011-10-01T15:52:05Z</time>
</trkpt>
<trkpt lat="51.25366692" lon="6.77936275">
<ele>89</ele>
<time>2011-10-01T15:52:10Z</time>
</trkpt>
<trkpt lat="51.25366365" lon="6.77968897">
<ele>0</ele>
<time>2011-10-01T15:52:14Z</time>
</trkpt>
<trkpt lat="51.25368121" lon="6.77999767">
<ele>0</ele>
<time>2011-10-01T15:52:18Z</time>
</trkpt>
<trkpt lat="51.25370984" lon="6.78027336">
<ele>87.5</ele>
<time>2011-10-01T15:52:22Z</time>
</trkpt>
<trkpt lat="51.25374596" lon="6.78055557">
<ele>0</ele>
<time>2011-10-01T15:52:26Z</time>
</trkpt>
<trkpt lat="51.25375183" lon="6.78085539">
<ele>87</ele>
<time>2011-10-01T15:52:30Z</time>
</trkpt>
<trkpt lat="51.25377785" lon="6.78118656">
<ele>87.5</ele>
<time>2011-10-01T15:52:34Z</time>
</trkpt>
<trkpt lat="51.25381377" lon="6.78151966">
<ele>0</ele>
<time>2011-10-01T15:52:38Z</time>
</trkpt>
<trkpt lat="51.25383012" lon="6.78185234">
<ele>0</ele>
<time>2011-10-01T15:52:42Z</time>
</trkpt>
<trkpt lat="51.25382848" lon="6.78219918">
<ele>86.5</ele>
<time>2011-10-01T15:52:46Z</time>
</trkpt>
<trkpt lat="51.25382479" lon="6.78253991">
<ele>86.5</ele>
<time>2011-10-01T15:52:50Z</time>
</trkpt>
<trkpt lat="51.25380107" lon="6.7828699">
<ele>87.5</ele>
<time>2011-10-01T15:52:54Z</time>
</trkpt>
<trkpt lat="51.25380987" lon="6.7831538">
<ele>86</ele>
<time>2011-10-01T15:52:58Z</time>
</trkpt>
<trkpt lat="51.25379969" lon="6.78339369">
<ele>82.5</ele>
<time>2011-10-01T15:53:02Z</time>
</trkpt>
<trkpt lat="51.25377383" lon="6.78366325">
<ele>80</ele>
<time>2011-10-01T15:53:06Z</time>
</trkpt>
<trkpt lat="51.25374864" lon="6.78396014">
<ele>79.5</ele>
<time>2011-10-01T15:53:10Z</time>
</trkpt>
<trkpt lat="51.25372115" lon="6.78425568">
<ele>78</ele>
<time>2011-10-01T15:53:14Z</time>
</trkpt>
<trkpt lat="51.25370091" lon="6.78455357">
<ele>77.5</ele>
<time>2011-10-01T15:53:18Z</time>
</trkpt>
<trkpt lat="51.25369144" lon="6.78489262">
<ele>81</ele>
<time>2011-10-01T15:53:22Z</time>
</trkpt>
<trkpt lat="51.2536893" lon="6.78521348">
<ele>81</ele>
<time>2011-10-01T15:53:26Z</time>
</trkpt>
<trkpt lat="51.25368649" lon="6.78549578">
<ele>0</ele>
<time>2011-10-01T15:53:30Z</time>
</trkpt>
<trkpt lat="51.25368456" lon="6.78574607">
<ele>81.5</ele>
<time>2011-10-01T15:53:34Z</time>
</trkpt>
<trkpt lat="51.25366566" lon="6.78598252">
<ele>82.5</ele>
<time>2011-10-01T15:53:39Z</time>
</trkpt>
<trkpt lat="51.25365929" lon="6.78608973">
<ele>83</ele>
<time>2011-10-01T15:53:43Z</time>
</trkpt>
<trkpt lat="51.25365661" lon="6.78629835">
<ele>83.5</ele>
<time>2011-10-01T15:53:47Z</time>
</trkpt>
<trkpt lat="51.25369454" lon="6.78654419">
<ele>84</ele>
<time>2011-10-01T15:53:51Z</time>
</trkpt>
<trkpt lat="51.25368624" lon="6.78680638">
<ele>0</ele>
<time>2011-10-01T15:53:55Z</time>
</trkpt>
<trkpt lat="51.25364504" lon="6.78706295">
<ele>0</ele>
<time>2011-10-01T15:53:59Z</time>
</trkpt>
<trkpt lat="51.25363909" lon="6.78732069">
<ele>84</ele>
<time>2011-10-01T15:54:03Z</time>
</trkpt>
<trkpt lat="51.25366227" lon="6.78758606">
<ele>84.5</ele>
<time>2011-10-01T15:54:07Z</time>
</trkpt>
<trkpt lat="51.25364932" lon="6.78785906">
<ele>85.5</ele>
<time>2011-10-01T15:54:11Z</time>
</trkpt>
<trkpt lat="51.25362476" lon="6.78813147">
<ele>85.5</ele>
<time>2011-10-01T15:54:15Z</time>
</trkpt>
<trkpt lat="51.25359836" lon="6.78841252">
<ele>0</ele>
<time>2011-10-01T15:54:19Z</time>
</trkpt>
<trkpt lat="51.25356764" lon="6.78868929">
<ele>85.5</ele>
<time>2011-10-01T15:54:23Z</time>
</trkpt>
<trkpt lat="51.2535406" lon="6.78896388">
<ele>85.5</ele>
<time>2011-10-01T15:54:27Z</time>
</trkpt>
<trkpt lat="51.25350708" lon="6.78923487">
<ele>86.5</ele>
<time>2011-10-01T15:54:31Z</time>
</trkpt>
<trkpt lat="51.25347083" lon="6.78947241">
<ele>87</ele>
<time>2011-10-01T15:54:35Z</time>
</trkpt>
<trkpt lat="51.25343998" lon="6.78968581">
<ele>86.5</ele>
<time>2011-10-01T15:54:39Z</time>
</trkpt>
<trkpt lat="51.25341555" lon="6.78988723">
<ele>90</ele>
<time>2011-10-01T15:54:43Z</time>
</trkpt>
<trkpt lat="51.2533852" lon="6.79008806">
<ele>90</ele>
<time>2011-10-01T15:54:47Z</time>
</trkpt>
<trkpt lat="51.25335687" lon="6.7902868">
<ele>90</ele>
<time>2011-10-01T15:54:51Z</time>
</trkpt>
<trkpt lat="51.25333118" lon="6.79048855">
<ele>90.5</ele>
<time>2011-10-01T15:54:55Z</time>
</trkpt>
<trkpt lat="51.25330545" lon="6.79068779">
<ele>91</ele>
<time>2011-10-01T15:54:59Z</time>
</trkpt>
<trkpt lat="51.25327578" lon="6.79089222">
<ele>91.5</ele>
<time>2011-10-01T15:55:03Z</time>
</trkpt>
<trkpt lat="51.25325344" lon="6.79109422">
<ele>0</ele>
<time>2011-10-01T15:55:07Z</time>
</trkpt>
<trkpt lat="51.25321836" lon="6.79130034">
<ele>0</ele>
<time>2011-10-01T15:55:11Z</time>
</trkpt>
<trkpt lat="51.25317574" lon="6.79151667">
<ele>92</ele>
<time>2011-10-01T15:55:15Z</time>
</trkpt>
<trkpt lat="51.25313417" lon="6.79173158">
<ele>0</ele>
<time>2011-10-01T15:55:19Z</time>
</trkpt>
<trkpt lat="51.25309942" lon="6.79194742">
<ele>91.5</ele>
<time>2011-10-01T15:55:23Z</time>
</trkpt>
<trkpt lat="51.25305898" lon="6.79217985">
<ele>91.5</ele>
<time>2011-10-01T15:55:27Z</time>
</trkpt>
<trkpt lat="51.2530146" lon="6.79242678">
<ele>91</ele>
<time>2011-10-01T15:55:31Z</time>
</trkpt>
<trkpt lat="51.25296988" lon="6.79268838">
<ele>91</ele>
<time>2011-10-01T15:55:35Z</time>
</trkpt>
<trkpt lat="51.25292403" lon="6.7929623">
<ele>90.5</ele>
<time>2011-10-01T15:55:39Z</time>
</trkpt>
<trkpt lat="51.25287219" lon="6.79323354">
<ele>90.5</ele>
<time>2011-10-01T15:55:43Z</time>
</trkpt>
<trkpt lat="51.25282567" lon="6.79354182">
<ele>90.5</ele>
<time>2011-10-01T15:55:47Z</time>
</trkpt>
<trkpt lat="51.25277592" lon="6.79387576">
<ele>91</ele>
<time>2011-10-01T15:55:51Z</time>
</trkpt>
<trkpt lat="51.25269873" lon="6.79422738">
<ele>0</ele>
<time>2011-10-01T15:55:55Z</time>
</trkpt>
<trkpt lat="51.25263859" lon="6.79461253">
<ele>0</ele>
<time>2011-10-01T15:55:59Z</time>
</trkpt>
<trkpt lat="51.25254069" lon="6.79499692">
<ele>89</ele>
<time>2011-10-01T15:56:03Z</time>
</trkpt>
<trkpt lat="51.25242833" lon="6.79539423">
<ele>88</ele>
<time>2011-10-01T15:56:07Z</time>
</trkpt>
<trkpt lat="51.2523062" lon="6.79578231">
<ele>87.5</ele>
<time>2011-10-01T15:56:11Z</time>
</trkpt>
<trkpt lat="51.25218714" lon="6.79615597">
<ele>88</ele>
<time>2011-10-01T15:56:15Z</time>
</trkpt>
<trkpt lat="51.25206849" lon="6.79653064">
<ele>87.5</ele>
<time>2011-10-01T15:56:19Z</time>
</trkpt>
<trkpt lat="51.25195613" lon="6.79690272">
<ele>0</ele>
<time>2011-10-01T15:56:23Z</time>
</trkpt>
<trkpt lat="51.25183824" lon="6.79726523">
<ele>0</ele>
<time>2011-10-01T15:56:27Z</time>
</trkpt>
<trkpt lat="51.25175748" lon="6.7976389">
<ele>86.5</ele>
<time>2011-10-01T15:56:31Z</time>
</trkpt>
<trkpt lat="51.25166888" lon="6.79801608">
<ele>86.5</ele>
<time>2011-10-01T15:56:35Z</time>
</trkpt>
<trkpt lat="51.25154684" lon="6.79836242">
<ele>87.5</ele>
<time>2011-10-01T15:56:39Z</time>
</trkpt>
<trkpt lat="51.25141177" lon="6.79876258">
<ele>0</ele>
<time>2011-10-01T15:56:44Z</time>
</trkpt>
<trkpt lat="51.25130469" lon="6.79905443">
<ele>0</ele>
<time>2011-10-01T15:56:48Z</time>
</trkpt>
<trkpt lat="51.25115767" lon="6.79931042">
<ele>88.5</ele>
<time>2011-10-01T15:56:52Z</time>
</trkpt>
<trkpt lat="51.25101857" lon="6.79957956">
<ele>88.5</ele>
<time>2011-10-01T15:56:56Z</time>
</trkpt>
<trkpt lat="51.25090881" lon="6.79985574">
<ele>0</ele>
<time>2011-10-01T15:57:00Z</time>
</trkpt>
<trkpt lat="51.25081167" lon="6.80010653">
<ele>88.5</ele>
<time>2011-10-01T15:57:04Z</time>
</trkpt>
<trkpt lat="51.25074725" lon="6.80035254">
<ele>88.5</ele>
<time>2011-10-01T15:57:08Z</time>
</trkpt>
<trkpt lat="51.25074754" lon="6.80054432">
<ele>88</ele>
<time>2011-10-01T15:57:12Z</time>
</trkpt>
<trkpt lat="51.25066167" lon="6.80074515">
<ele>89</ele>
<time>2011-10-01T15:57:16Z</time>
</trkpt>
<trkpt lat="51.25057442" lon="6.80097825">
<ele>89.5</ele>
<time>2011-10-01T15:57:20Z</time>
</trkpt>
<trkpt lat="51.25047568" lon="6.80123323">
<ele>89.5</ele>
<time>2011-10-01T15:57:24Z</time>
</trkpt>
<trkpt lat="51.25034919" lon="6.80143288">
<ele>89.5</ele>
<time>2011-10-01T15:57:28Z</time>
</trkpt>
<trkpt lat="51.25023575" lon="6.80158636">
<ele>91.5</ele>
<time>2011-10-01T15:57:32Z</time>
</trkpt>
<trkpt lat="51.25013973" lon="6.8016478">
<ele>92</ele>
<time>2011-10-01T15:57:36Z</time>
</trkpt>
<trkpt lat="51.25013332" lon="6.80167462">
<ele>94</ele>
<time>2011-10-01T15:57:40Z</time>
</trkpt>
<trkpt lat="51.25014908" lon="6.80168417">
<ele>95.5</ele>
<time>2011-10-01T15:57:44Z</time>
</trkpt>
<trkpt lat="51.25016538" lon="6.80176766">
<ele>96</ele>
<time>2011-10-01T15:57:48Z</time>
</trkpt>
<trkpt lat="51.25016488" lon="6.80182348">
<ele>0</ele>
<time>2011-10-01T15:57:52Z</time>
</trkpt>
<trkpt lat="51.2501588" lon="6.8018529">
<ele>0</ele>
<time>2011-10-01T15:57:56Z</time>
</trkpt>
<trkpt lat="51.25014405" lon="6.80186103">
<ele>101</ele>
<time>2011-10-01T15:58:00Z</time>
</trkpt>
<trkpt lat="51.25012955" lon="6.80187117">
<ele>103.5</ele>
<time>2011-10-01T15:58:04Z</time>
</trkpt>
<trkpt lat="51.25011526" lon="6.80193052">
<ele>106</ele>
<time>2011-10-01T15:58:08Z</time>
</trkpt>
<trkpt lat="51.25006777" lon="6.80205482">
<ele>110.5</ele>
<time>2011-10-01T15:58:12Z</time>
</trkpt>
<trkpt lat="51.25003613" lon="6.80215457">
<ele>113.5</ele>
<time>2011-10-01T15:58:16Z</time>
</trkpt>
<trkpt lat="51.25002641" lon="6.80218264">
<ele>114</ele>
<time>2011-10-01T15:58:20Z</time>
</trkpt>
<trkpt lat="51.25000445" lon="6.80224685">
<ele>117</ele>
<time>2011-10-01T15:58:24Z</time>
</trkpt>
<trkpt lat="51.24995613" lon="6.80230485">
<ele>116</ele>
<time>2011-10-01T15:58:28Z</time>
</trkpt>
<trkpt lat="51.24994401" lon="6.80234014">
<ele>110.5</ele>
<time>2011-10-01T15:58:32Z</time>
</trkpt>
<trkpt lat="51.24994615" lon="6.80233008">
<ele>108.5</ele>
<time>2011-10-01T15:58:36Z</time>
</trkpt>
<trkpt lat="51.24995935" lon="6.80233">
<ele>109</ele>
<time>2011-10-01T15:58:40Z</time>
</trkpt>
<trkpt lat="51.24996698" lon="6.80234517">
<ele>108</ele>
<time>2011-10-01T15:58:44Z</time>
</trkpt>
<trkpt lat="51.24998006" lon="6.80235632">
<ele>106</ele>
<time>2011-10-01T15:58:48Z</time>
</trkpt>
<trkpt lat="51.2499943" lon="6.80235908">
<ele>105</ele>
<time>2011-10-01T15:58:52Z</time>
</trkpt>
<trkpt lat="51.2499977" lon="6.80237358">
<ele>103.5</ele>
<time>2011-10-01T15:58:56Z</time>
</trkpt>
<trkpt lat="51.25001283" lon="6.80237283">
<ele>102.5</ele>
<time>2011-10-01T15:59:00Z</time>
</trkpt>
<trkpt lat="51.25012506" lon="6.80236646">
<ele>100</ele>
<time>2011-10-01T15:59:04Z</time>
</trkpt>
<trkpt lat="51.25026952" lon="6.8024367">
<ele>97</ele>
<time>2011-10-01T15:59:08Z</time>
</trkpt>
<trkpt lat="51.25041294" lon="6.80252035">
<ele>95.5</ele>
<time>2011-10-01T15:59:12Z</time>
</trkpt>
<trkpt lat="51.25055346" lon="6.80261205">
<ele>94.5</ele>
<time>2011-10-01T15:59:16Z</time>
</trkpt>
<trkpt lat="51.25057919" lon="6.80287985">
<ele>95.5</ele>
<time>2011-10-01T15:59:20Z</time>
</trkpt>
<trkpt lat="51.25057039" lon="6.80320255">
<ele>97</ele>
<time>2011-10-01T15:59:24Z</time>
</trkpt>
<trkpt lat="51.25062412" lon="6.80354118">
<ele>98.5</ele>
<time>2011-10-01T15:59:28Z</time>
</trkpt>
<trkpt lat="51.25070962" lon="6.80384813">
<ele>99</ele>
<time>2011-10-01T15:59:32Z</time>
</trkpt>
<trkpt lat="51.25074147" lon="6.80416597">
<ele>97.5</ele>
<time>2011-10-01T15:59:36Z</time>
</trkpt>
<trkpt lat="51.25072734" lon="6.80446487">
<ele>94</ele>
<time>2011-10-01T15:59:40Z</time>
</trkpt>
<trkpt lat="51.25069097" lon="6.80468556">
<ele>93.5</ele>
<time>2011-10-01T15:59:43Z</time>
</trkpt>
<trkpt lat="51.25069457" lon="6.80498539">
<ele>92</ele>
<time>2011-10-01T15:59:47Z</time>
</trkpt>
<trkpt lat="51.2506882" lon="6.80529853">
<ele>89.5</ele>
<time>2011-10-01T15:59:51Z</time>
</trkpt>
<trkpt lat="51.25069558" lon="6.80561839">
<ele>88.5</ele>
<time>2011-10-01T15:59:55Z</time>
</trkpt>
<trkpt lat="51.25069629" lon="6.80593397">
<ele>88.5</ele>
<time>2011-10-01T15:59:59Z</time>
</trkpt>
<trkpt lat="51.25069344" lon="6.80625424">
<ele>0</ele>
<time>2011-10-01T16:00:03Z</time>
</trkpt>
<trkpt lat="51.25068208" lon="6.80657996">
<ele>90</ele>
<time>2011-10-01T16:00:07Z</time>
</trkpt>
<trkpt lat="51.25067638" lon="6.806903">
<ele>90</ele>
<time>2011-10-01T16:00:11Z</time>
</trkpt>
<trkpt lat="51.25066138" lon="6.8072195">
<ele>0</ele>
<time>2011-10-01T16:00:15Z</time>
</trkpt>
<trkpt lat="51.25063326" lon="6.80757028">
<ele>87.5</ele>
<time>2011-10-01T16:00:19Z</time>
</trkpt>
<trkpt lat="51.25063305" lon="6.80790908">
<ele>87</ele>
<time>2011-10-01T16:00:23Z</time>
</trkpt>
<trkpt lat="51.25062605" lon="6.80823186">
<ele>87</ele>
<time>2011-10-01T16:00:27Z</time>
</trkpt>
<trkpt lat="51.25061381" lon="6.80854619">
<ele>87</ele>
<time>2011-10-01T16:00:31Z</time>
</trkpt>
<trkpt lat="51.25055359" lon="6.80877577">
<ele>87</ele>
<time>2011-10-01T16:00:35Z</time>
</trkpt>
<trkpt lat="51.25033436" lon="6.80877434">
<ele>87</ele>
<time>2011-10-01T16:00:39Z</time>
</trkpt>
<trkpt lat="51.2500992" lon="6.80877208">
<ele>86.5</ele>
<time>2011-10-01T16:00:43Z</time>
</trkpt>
<trkpt lat="51.24986288" lon="6.80871123">
<ele>85</ele>
<time>2011-10-01T16:00:47Z</time>
</trkpt>
<trkpt lat="51.24964507" lon="6.80867845">
<ele>84.5</ele>
<time>2011-10-01T16:00:51Z</time>
</trkpt>
<trkpt lat="51.24945153" lon="6.80864325">
<ele>84</ele>
<time>2011-10-01T16:00:55Z</time>
</trkpt>
<trkpt lat="51.24925749" lon="6.80860712">
<ele>83.5</ele>
<time>2011-10-01T16:00:59Z</time>
</trkpt>
<trkpt lat="51.24907397" lon="6.80857946">
<ele>0</ele>
<time>2011-10-01T16:01:03Z</time>
</trkpt>
<trkpt lat="51.24895218" lon="6.80866588">
<ele>0</ele>
<time>2011-10-01T16:01:07Z</time>
</trkpt>
<trkpt lat="51.24892456" lon="6.80893376">
<ele>83.5</ele>
<time>2011-10-01T16:01:11Z</time>
</trkpt>
<trkpt lat="51.24889531" lon="6.80924415">
<ele>83.5</ele>
<time>2011-10-01T16:01:15Z</time>
</trkpt>
<trkpt lat="51.2488622" lon="6.80958395">
<ele>0</ele>
<time>2011-10-01T16:01:19Z</time>
</trkpt>
<trkpt lat="51.24882771" lon="6.80992987">
<ele>84</ele>
<time>2011-10-01T16:01:23Z</time>
</trkpt>
<trkpt lat="51.24879749" lon="6.81024528">
<ele>84.5</ele>
<time>2011-10-01T16:01:27Z</time>
</trkpt>
<trkpt lat="51.24874758" lon="6.81040144">
<ele>85</ele>
<time>2011-10-01T16:01:31Z</time>
</trkpt>
<trkpt lat="51.24870504" lon="6.81037512">
<ele>84.5</ele>
<time>2011-10-01T16:01:35Z</time>
</trkpt>
<trkpt lat="51.24858107" lon="6.81035324">
<ele>0</ele>
<time>2011-10-01T16:01:39Z</time>
</trkpt>
<trkpt lat="51.24843171" lon="6.81031317">
<ele>0</ele>
<time>2011-10-01T16:01:43Z</time>
</trkpt>
<trkpt lat="51.24828377" lon="6.8103462">
<ele>84</ele>
<time>2011-10-01T16:01:47Z</time>
</trkpt>
<trkpt lat="51.24815812" lon="6.81035978">
<ele>0</ele>
<time>2011-10-01T16:01:51Z</time>
</trkpt>
<trkpt lat="51.24808964" lon="6.81037604">
<ele>0</ele>
<time>2011-10-01T16:01:55Z</time>
</trkpt>
<trkpt lat="51.2480269" lon="6.81039414">
<ele>84</ele>
<time>2011-10-01T16:01:59Z</time>
</trkpt>
<trkpt lat="51.2480303" lon="6.81051065">
<ele>84</ele>
<time>2011-10-01T16:02:03Z</time>
</trkpt>
<trkpt lat="51.24802934" lon="6.81053052">
<ele>0</ele>
<time>2011-10-01T16:02:07Z</time>
</trkpt>
<trkpt lat="51.24802565" lon="6.81053521">
<ele>0</ele>
<time>2011-10-01T16:02:11Z</time>
</trkpt>
<trkpt lat="51.24801639" lon="6.81054493">
<ele>85</ele>
<time>2011-10-01T16:02:15Z</time>
</trkpt>
<trkpt lat="51.24801567" lon="6.81055164">
<ele>87</ele>
<time>2011-10-01T16:02:19Z</time>
</trkpt>
<trkpt lat="51.24801563" lon="6.8105591">
<ele>87</ele>
<time>2011-10-01T16:02:23Z</time>
</trkpt>
<trkpt lat="51.24801563" lon="6.81056924">
<ele>86</ele>
<time>2011-10-01T16:02:27Z</time>
</trkpt>
<trkpt lat="51.24801655" lon="6.81060612">
<ele>86</ele>
<time>2011-10-01T16:02:31Z</time>
</trkpt>
<trkpt lat="51.24802644" lon="6.81074417">
<ele>85.5</ele>
<time>2011-10-01T16:02:35Z</time>
</trkpt>
<trkpt lat="51.24803684" lon="6.81089236">
<ele>0</ele>
<time>2011-10-01T16:02:39Z</time>
</trkpt>
<trkpt lat="51.24803944" lon="6.81092941">
<ele>0</ele>
<time>2011-10-01T16:02:40Z</time>
</trkpt>
</trkseg>
</trk>
</gpx>
